<?xml version="1.0" encoding="UTF-8" standalone="no" ?>
<gpx xmlns="http://www.topografix.com/GPX/1/1" xmlns:xsi="http://www.w3.org/2001/XMLSchema-instance" xsi:schemaLocation="http://www.topografix.com/GPX/1/1 http://www.topografix.com/GPX/1/1/gpx.xsd" version="1.1" creator="VisuGPX - https://www.visugpx.com">
  <metadata>
    <name>Le Vallon de la Gourre</name>
    <desc><![CDATA[Forêt de châtaigniers et de chênes liège]]></desc>
  </metadata>
  <wpt lat="43.18788" lon="6.32486">
    <ele>372.2</ele>
    <name><![CDATA[dep]]></name>
    <desc><![CDATA[chemin]]></desc>
    <cmt><![CDATA[chemin]]></cmt>
  </wpt>
  <trk>
    <name><![CDATA[Le vallon de la gourre]]></name>
    <trkseg>
      <trkpt lat="43.18797" lon="6.32485">
        <ele>371.888</ele>
        <time>2012-10-24T07:28:44Z</time>
      </trkpt>
      <trkpt lat="43.18796" lon="6.32484">
        <ele>372.163</ele>
        <time>2012-10-24T07:28:56Z</time>
      </trkpt>
      <trkpt lat="43.18797" lon="6.32485">
        <ele>370.776</ele>
        <time>2012-10-24T07:29:01Z</time>
      </trkpt>
      <trkpt lat="43.18797" lon="6.32486">
        <ele>371.198</ele>
        <time>2012-10-24T07:29:21Z</time>
      </trkpt>
      <trkpt lat="43.18801" lon="6.32484">
        <ele>371.013</ele>
        <time>2012-10-24T07:29:31Z</time>
      </trkpt>
      <trkpt lat="43.18801" lon="6.32484">
        <ele>370.868</ele>
        <time>2012-10-24T07:29:46Z</time>
      </trkpt>
      <trkpt lat="43.18799" lon="6.32481">
        <ele>371.463</ele>
        <time>2012-10-24T07:29:51Z</time>
      </trkpt>
      <trkpt lat="43.18796" lon="6.32479">
        <ele>372.11</ele>
        <time>2012-10-24T07:29:56Z</time>
      </trkpt>
      <trkpt lat="43.18794" lon="6.32479">
        <ele>371.338</ele>
        <time>2012-10-24T07:30:01Z</time>
      </trkpt>
      <trkpt lat="43.18791" lon="6.3248">
        <ele>371.272</ele>
        <time>2012-10-24T07:30:06Z</time>
      </trkpt>
      <trkpt lat="43.18793" lon="6.32479">
        <ele>371.505</ele>
        <time>2012-10-24T07:30:11Z</time>
      </trkpt>
      <trkpt lat="43.18794" lon="6.3248">
        <ele>371.367</ele>
        <time>2012-10-24T07:30:16Z</time>
      </trkpt>
      <trkpt lat="43.18787" lon="6.32486">
        <ele>371.219</ele>
        <time>2012-10-24T07:30:26Z</time>
      </trkpt>
      <trkpt lat="43.1879" lon="6.32486">
        <ele>370.902</ele>
        <time>2012-10-24T07:30:31Z</time>
      </trkpt>
      <trkpt lat="43.1879" lon="6.32485">
        <ele>370.887</ele>
        <time>2012-10-24T07:30:36Z</time>
      </trkpt>
      <trkpt lat="43.1879" lon="6.32482">
        <ele>371.521</ele>
        <time>2012-10-24T07:30:46Z</time>
      </trkpt>
      <trkpt lat="43.18792" lon="6.32478">
        <ele>371.645</ele>
        <time>2012-10-24T07:30:51Z</time>
      </trkpt>
      <trkpt lat="43.18797" lon="6.32476">
        <ele>371.663</ele>
        <time>2012-10-24T07:30:56Z</time>
      </trkpt>
      <trkpt lat="43.18797" lon="6.32475">
        <ele>371.661</ele>
        <time>2012-10-24T07:31:11Z</time>
      </trkpt>
      <trkpt lat="43.18796" lon="6.32476">
        <ele>371.55</ele>
        <time>2012-10-24T07:31:16Z</time>
      </trkpt>
      <trkpt lat="43.18795" lon="6.3248">
        <ele>371.262</ele>
        <time>2012-10-24T07:31:21Z</time>
      </trkpt>
      <trkpt lat="43.18796" lon="6.32483">
        <ele>370.958</ele>
        <time>2012-10-24T07:31:26Z</time>
      </trkpt>
      <trkpt lat="43.18795" lon="6.32486">
        <ele>370.717</ele>
        <time>2012-10-24T07:31:36Z</time>
      </trkpt>
      <trkpt lat="43.18794" lon="6.32487">
        <ele>370.781</ele>
        <time>2012-10-24T07:31:41Z</time>
      </trkpt>
      <trkpt lat="43.18795" lon="6.32485">
        <ele>370.805</ele>
        <time>2012-10-24T07:31:51Z</time>
      </trkpt>
      <trkpt lat="43.18795" lon="6.32485">
        <ele>370.752</ele>
        <time>2012-10-24T07:32:06Z</time>
      </trkpt>
      <trkpt lat="43.18795" lon="6.32483">
        <ele>370.82</ele>
        <time>2012-10-24T07:32:16Z</time>
      </trkpt>
      <trkpt lat="43.18794" lon="6.32483">
        <ele>370.955</ele>
        <time>2012-10-24T07:32:21Z</time>
      </trkpt>
      <trkpt lat="43.18793" lon="6.32482">
        <ele>370.961</ele>
        <time>2012-10-24T07:32:26Z</time>
      </trkpt>
      <trkpt lat="43.18793" lon="6.3248">
        <ele>370.913</ele>
        <time>2012-10-24T07:32:31Z</time>
      </trkpt>
      <trkpt lat="43.18793" lon="6.32478">
        <ele>370.908</ele>
        <time>2012-10-24T07:32:41Z</time>
      </trkpt>
      <trkpt lat="43.18794" lon="6.32478">
        <ele>370.968</ele>
        <time>2012-10-24T07:32:51Z</time>
      </trkpt>
      <trkpt lat="43.18795" lon="6.32479">
        <ele>370.982</ele>
        <time>2012-10-24T07:33:01Z</time>
      </trkpt>
      <trkpt lat="43.18796" lon="6.3248">
        <ele>370.984</ele>
        <time>2012-10-24T07:33:11Z</time>
      </trkpt>
      <trkpt lat="43.18797" lon="6.32481">
        <ele>370.564</ele>
        <time>2012-10-24T07:34:01Z</time>
      </trkpt>
      <trkpt lat="43.18797" lon="6.32487">
        <ele>370.221</ele>
        <time>2012-10-24T07:34:06Z</time>
      </trkpt>
      <trkpt lat="43.18797" lon="6.32493">
        <ele>369.74</ele>
        <time>2012-10-24T07:34:11Z</time>
      </trkpt>
      <trkpt lat="43.18798" lon="6.325">
        <ele>369.838</ele>
        <time>2012-10-24T07:34:16Z</time>
      </trkpt>
      <trkpt lat="43.18801" lon="6.32509">
        <ele>369.568</ele>
        <time>2012-10-24T07:34:21Z</time>
      </trkpt>
      <trkpt lat="43.18802" lon="6.32519">
        <ele>369.291</ele>
        <time>2012-10-24T07:34:26Z</time>
      </trkpt>
      <trkpt lat="43.18803" lon="6.32527">
        <ele>369.05</ele>
        <time>2012-10-24T07:34:31Z</time>
      </trkpt>
      <trkpt lat="43.18801" lon="6.32535">
        <ele>368.709</ele>
        <time>2012-10-24T07:34:36Z</time>
      </trkpt>
      <trkpt lat="43.18801" lon="6.32542">
        <ele>368.286</ele>
        <time>2012-10-24T07:34:41Z</time>
      </trkpt>
      <trkpt lat="43.18802" lon="6.3255">
        <ele>367.745</ele>
        <time>2012-10-24T07:34:46Z</time>
      </trkpt>
      <trkpt lat="43.18807" lon="6.32559">
        <ele>367.481</ele>
        <time>2012-10-24T07:34:51Z</time>
      </trkpt>
      <trkpt lat="43.18809" lon="6.32568">
        <ele>367.174</ele>
        <time>2012-10-24T07:34:56Z</time>
      </trkpt>
      <trkpt lat="43.18808" lon="6.32575">
        <ele>366.635</ele>
        <time>2012-10-24T07:35:01Z</time>
      </trkpt>
      <trkpt lat="43.18808" lon="6.32582">
        <ele>366.529</ele>
        <time>2012-10-24T07:35:06Z</time>
      </trkpt>
      <trkpt lat="43.18811" lon="6.3259">
        <ele>366.03</ele>
        <time>2012-10-24T07:35:11Z</time>
      </trkpt>
      <trkpt lat="43.18811" lon="6.32599">
        <ele>365.702</ele>
        <time>2012-10-24T07:35:16Z</time>
      </trkpt>
      <trkpt lat="43.18812" lon="6.32607">
        <ele>365.216</ele>
        <time>2012-10-24T07:35:21Z</time>
      </trkpt>
      <trkpt lat="43.18814" lon="6.32612">
        <ele>364.994</ele>
        <time>2012-10-24T07:35:26Z</time>
      </trkpt>
      <trkpt lat="43.18813" lon="6.32623">
        <ele>364.492</ele>
        <time>2012-10-24T07:35:31Z</time>
      </trkpt>
      <trkpt lat="43.18812" lon="6.3263">
        <ele>364.489</ele>
        <time>2012-10-24T07:35:36Z</time>
      </trkpt>
      <trkpt lat="43.18814" lon="6.32636">
        <ele>362.88</ele>
        <time>2012-10-24T07:35:41Z</time>
      </trkpt>
      <trkpt lat="43.18813" lon="6.32643">
        <ele>364.077</ele>
        <time>2012-10-24T07:35:46Z</time>
      </trkpt>
      <trkpt lat="43.18817" lon="6.32649">
        <ele>362.764</ele>
        <time>2012-10-24T07:35:51Z</time>
      </trkpt>
      <trkpt lat="43.18821" lon="6.32657">
        <ele>362.378</ele>
        <time>2012-10-24T07:35:56Z</time>
      </trkpt>
      <trkpt lat="43.18821" lon="6.32662">
        <ele>362.103</ele>
        <time>2012-10-24T07:36:01Z</time>
      </trkpt>
      <trkpt lat="43.18816" lon="6.3267">
        <ele>361.636</ele>
        <time>2012-10-24T07:36:06Z</time>
      </trkpt>
      <trkpt lat="43.1882" lon="6.3268">
        <ele>361.498</ele>
        <time>2012-10-24T07:36:11Z</time>
      </trkpt>
      <trkpt lat="43.18823" lon="6.32685">
        <ele>361.091</ele>
        <time>2012-10-24T07:36:16Z</time>
      </trkpt>
      <trkpt lat="43.18824" lon="6.32693">
        <ele>360.769</ele>
        <time>2012-10-24T07:36:21Z</time>
      </trkpt>
      <trkpt lat="43.18828" lon="6.32699">
        <ele>360.27</ele>
        <time>2012-10-24T07:36:26Z</time>
      </trkpt>
      <trkpt lat="43.1883" lon="6.32704">
        <ele>359.887</ele>
        <time>2012-10-24T07:36:31Z</time>
      </trkpt>
      <trkpt lat="43.18831" lon="6.32712">
        <ele>359.461</ele>
        <time>2012-10-24T07:36:36Z</time>
      </trkpt>
      <trkpt lat="43.18832" lon="6.32718">
        <ele>358.964</ele>
        <time>2012-10-24T07:36:41Z</time>
      </trkpt>
      <trkpt lat="43.18833" lon="6.32727">
        <ele>358.098</ele>
        <time>2012-10-24T07:36:46Z</time>
      </trkpt>
      <trkpt lat="43.18836" lon="6.32735">
        <ele>357.826</ele>
        <time>2012-10-24T07:36:51Z</time>
      </trkpt>
      <trkpt lat="43.18837" lon="6.32739">
        <ele>357.35</ele>
        <time>2012-10-24T07:36:56Z</time>
      </trkpt>
      <trkpt lat="43.1884" lon="6.32745">
        <ele>356.877</ele>
        <time>2012-10-24T07:37:01Z</time>
      </trkpt>
      <trkpt lat="43.18842" lon="6.3275">
        <ele>356.578</ele>
        <time>2012-10-24T07:37:06Z</time>
      </trkpt>
      <trkpt lat="43.1885" lon="6.32755">
        <ele>355.825</ele>
        <time>2012-10-24T07:37:11Z</time>
      </trkpt>
      <trkpt lat="43.18854" lon="6.32759">
        <ele>355.698</ele>
        <time>2012-10-24T07:37:16Z</time>
      </trkpt>
      <trkpt lat="43.18857" lon="6.32761">
        <ele>355.352</ele>
        <time>2012-10-24T07:37:21Z</time>
      </trkpt>
      <trkpt lat="43.18859" lon="6.32764">
        <ele>355.379</ele>
        <time>2012-10-24T07:37:26Z</time>
      </trkpt>
      <trkpt lat="43.18862" lon="6.32769">
        <ele>354.76</ele>
        <time>2012-10-24T07:37:31Z</time>
      </trkpt>
      <trkpt lat="43.18862" lon="6.32772">
        <ele>354.441</ele>
        <time>2012-10-24T07:37:36Z</time>
      </trkpt>
      <trkpt lat="43.18858" lon="6.32779">
        <ele>354.245</ele>
        <time>2012-10-24T07:37:41Z</time>
      </trkpt>
      <trkpt lat="43.1885" lon="6.32783">
        <ele>354.1</ele>
        <time>2012-10-24T07:37:46Z</time>
      </trkpt>
      <trkpt lat="43.18845" lon="6.32783">
        <ele>354.266</ele>
        <time>2012-10-24T07:37:51Z</time>
      </trkpt>
      <trkpt lat="43.18838" lon="6.32787">
        <ele>354.361</ele>
        <time>2012-10-24T07:37:56Z</time>
      </trkpt>
      <trkpt lat="43.18833" lon="6.32791">
        <ele>354.478</ele>
        <time>2012-10-24T07:38:01Z</time>
      </trkpt>
      <trkpt lat="43.18829" lon="6.32797">
        <ele>354.795</ele>
        <time>2012-10-24T07:38:06Z</time>
      </trkpt>
      <trkpt lat="43.18825" lon="6.32801">
        <ele>355.495</ele>
        <time>2012-10-24T07:38:11Z</time>
      </trkpt>
      <trkpt lat="43.18821" lon="6.32807">
        <ele>355.87</ele>
        <time>2012-10-24T07:38:16Z</time>
      </trkpt>
      <trkpt lat="43.18818" lon="6.32811">
        <ele>356.37</ele>
        <time>2012-10-24T07:38:21Z</time>
      </trkpt>
      <trkpt lat="43.18817" lon="6.32818">
        <ele>356.866</ele>
        <time>2012-10-24T07:38:26Z</time>
      </trkpt>
      <trkpt lat="43.18817" lon="6.32823">
        <ele>357.614</ele>
        <time>2012-10-24T07:38:31Z</time>
      </trkpt>
      <trkpt lat="43.18817" lon="6.32829">
        <ele>357.741</ele>
        <time>2012-10-24T07:38:36Z</time>
      </trkpt>
      <trkpt lat="43.18813" lon="6.32838">
        <ele>357.762</ele>
        <time>2012-10-24T07:38:41Z</time>
      </trkpt>
      <trkpt lat="43.1881" lon="6.32845">
        <ele>358.034</ele>
        <time>2012-10-24T07:38:46Z</time>
      </trkpt>
      <trkpt lat="43.18808" lon="6.32853">
        <ele>358.357</ele>
        <time>2012-10-24T07:38:51Z</time>
      </trkpt>
      <trkpt lat="43.18808" lon="6.3286">
        <ele>358.515</ele>
        <time>2012-10-24T07:38:56Z</time>
      </trkpt>
      <trkpt lat="43.18807" lon="6.32867">
        <ele>358.698</ele>
        <time>2012-10-24T07:39:01Z</time>
      </trkpt>
      <trkpt lat="43.18805" lon="6.32876">
        <ele>358.65</ele>
        <time>2012-10-24T07:39:06Z</time>
      </trkpt>
      <trkpt lat="43.18803" lon="6.32886">
        <ele>358.888</ele>
        <time>2012-10-24T07:39:11Z</time>
      </trkpt>
      <trkpt lat="43.18802" lon="6.32893">
        <ele>359.06</ele>
        <time>2012-10-24T07:39:16Z</time>
      </trkpt>
      <trkpt lat="43.18801" lon="6.32901">
        <ele>358.98</ele>
        <time>2012-10-24T07:39:21Z</time>
      </trkpt>
      <trkpt lat="43.18798" lon="6.32908">
        <ele>359.007</ele>
        <time>2012-10-24T07:39:26Z</time>
      </trkpt>
      <trkpt lat="43.18799" lon="6.32914">
        <ele>359.229</ele>
        <time>2012-10-24T07:39:31Z</time>
      </trkpt>
      <trkpt lat="43.18802" lon="6.32924">
        <ele>359.435</ele>
        <time>2012-10-24T07:39:36Z</time>
      </trkpt>
      <trkpt lat="43.18801" lon="6.32932">
        <ele>359.633</ele>
        <time>2012-10-24T07:39:41Z</time>
      </trkpt>
      <trkpt lat="43.188" lon="6.3294">
        <ele>360.056</ele>
        <time>2012-10-24T07:39:46Z</time>
      </trkpt>
      <trkpt lat="43.18803" lon="6.32949">
        <ele>360.42</ele>
        <time>2012-10-24T07:39:51Z</time>
      </trkpt>
      <trkpt lat="43.18803" lon="6.32955">
        <ele>360.98</ele>
        <time>2012-10-24T07:39:56Z</time>
      </trkpt>
      <trkpt lat="43.18802" lon="6.32962">
        <ele>361.144</ele>
        <time>2012-10-24T07:40:01Z</time>
      </trkpt>
      <trkpt lat="43.18799" lon="6.32964">
        <ele>361.319</ele>
        <time>2012-10-24T07:40:06Z</time>
      </trkpt>
      <trkpt lat="43.18798" lon="6.32966">
        <ele>361.369</ele>
        <time>2012-10-24T07:40:11Z</time>
      </trkpt>
      <trkpt lat="43.18797" lon="6.32967">
        <ele>361.353</ele>
        <time>2012-10-24T07:40:16Z</time>
      </trkpt>
      <trkpt lat="43.18797" lon="6.32965">
        <ele>361.041</ele>
        <time>2012-10-24T07:40:26Z</time>
      </trkpt>
      <trkpt lat="43.18798" lon="6.32966">
        <ele>361.189</ele>
        <time>2012-10-24T07:40:36Z</time>
      </trkpt>
      <trkpt lat="43.188" lon="6.32973">
        <ele>360.973</ele>
        <time>2012-10-24T07:40:41Z</time>
      </trkpt>
      <trkpt lat="43.18796" lon="6.3298">
        <ele>360.566</ele>
        <time>2012-10-24T07:40:46Z</time>
      </trkpt>
      <trkpt lat="43.18797" lon="6.32986">
        <ele>360.175</ele>
        <time>2012-10-24T07:40:51Z</time>
      </trkpt>
      <trkpt lat="43.18795" lon="6.32993">
        <ele>358.705</ele>
        <time>2012-10-24T07:40:56Z</time>
      </trkpt>
      <trkpt lat="43.18797" lon="6.32998">
        <ele>359.192</ele>
        <time>2012-10-24T07:41:01Z</time>
      </trkpt>
      <trkpt lat="43.18795" lon="6.33004">
        <ele>358.473</ele>
        <time>2012-10-24T07:41:06Z</time>
      </trkpt>
      <trkpt lat="43.18795" lon="6.33011">
        <ele>357.619</ele>
        <time>2012-10-24T07:41:11Z</time>
      </trkpt>
      <trkpt lat="43.18796" lon="6.33014">
        <ele>357.046</ele>
        <time>2012-10-24T07:41:16Z</time>
      </trkpt>
      <trkpt lat="43.18795" lon="6.33015">
        <ele>356.597</ele>
        <time>2012-10-24T07:41:21Z</time>
      </trkpt>
      <trkpt lat="43.18796" lon="6.33017">
        <ele>356.372</ele>
        <time>2012-10-24T07:41:26Z</time>
      </trkpt>
      <trkpt lat="43.18799" lon="6.3302">
        <ele>355.749</ele>
        <time>2012-10-24T07:41:31Z</time>
      </trkpt>
      <trkpt lat="43.188" lon="6.33024">
        <ele>354.956</ele>
        <time>2012-10-24T07:41:36Z</time>
      </trkpt>
      <trkpt lat="43.18802" lon="6.3303">
        <ele>353.582</ele>
        <time>2012-10-24T07:41:41Z</time>
      </trkpt>
      <trkpt lat="43.18803" lon="6.33035">
        <ele>352.591</ele>
        <time>2012-10-24T07:41:46Z</time>
      </trkpt>
      <trkpt lat="43.18803" lon="6.33042">
        <ele>351.518</ele>
        <time>2012-10-24T07:41:51Z</time>
      </trkpt>
      <trkpt lat="43.18804" lon="6.33047">
        <ele>350.453</ele>
        <time>2012-10-24T07:41:56Z</time>
      </trkpt>
      <trkpt lat="43.18803" lon="6.33055">
        <ele>349.027</ele>
        <time>2012-10-24T07:42:01Z</time>
      </trkpt>
      <trkpt lat="43.18802" lon="6.33062">
        <ele>348.72</ele>
        <time>2012-10-24T07:42:06Z</time>
      </trkpt>
      <trkpt lat="43.18801" lon="6.33067">
        <ele>348.147</ele>
        <time>2012-10-24T07:42:11Z</time>
      </trkpt>
      <trkpt lat="43.18801" lon="6.33073">
        <ele>347.785</ele>
        <time>2012-10-24T07:42:16Z</time>
      </trkpt>
      <trkpt lat="43.188" lon="6.33082">
        <ele>347.898</ele>
        <time>2012-10-24T07:42:21Z</time>
      </trkpt>
      <trkpt lat="43.188" lon="6.33089">
        <ele>347.299</ele>
        <time>2012-10-24T07:42:26Z</time>
      </trkpt>
      <trkpt lat="43.18803" lon="6.33098">
        <ele>346.651</ele>
        <time>2012-10-24T07:42:31Z</time>
      </trkpt>
      <trkpt lat="43.18802" lon="6.33103">
        <ele>346.707</ele>
        <time>2012-10-24T07:42:36Z</time>
      </trkpt>
      <trkpt lat="43.18801" lon="6.33106">
        <ele>346.247</ele>
        <time>2012-10-24T07:42:41Z</time>
      </trkpt>
      <trkpt lat="43.18797" lon="6.33111">
        <ele>345.853</ele>
        <time>2012-10-24T07:42:46Z</time>
      </trkpt>
      <trkpt lat="43.18796" lon="6.33116">
        <ele>345.47</ele>
        <time>2012-10-24T07:42:51Z</time>
      </trkpt>
      <trkpt lat="43.18792" lon="6.3312">
        <ele>344.77</ele>
        <time>2012-10-24T07:42:56Z</time>
      </trkpt>
      <trkpt lat="43.18787" lon="6.33124">
        <ele>344.685</ele>
        <time>2012-10-24T07:43:01Z</time>
      </trkpt>
      <trkpt lat="43.18783" lon="6.33126">
        <ele>344.347</ele>
        <time>2012-10-24T07:43:06Z</time>
      </trkpt>
      <trkpt lat="43.18779" lon="6.33128">
        <ele>343.449</ele>
        <time>2012-10-24T07:43:11Z</time>
      </trkpt>
      <trkpt lat="43.18775" lon="6.33134">
        <ele>343.121</ele>
        <time>2012-10-24T07:43:16Z</time>
      </trkpt>
      <trkpt lat="43.18774" lon="6.33141">
        <ele>342.711</ele>
        <time>2012-10-24T07:43:21Z</time>
      </trkpt>
      <trkpt lat="43.18776" lon="6.33148">
        <ele>342.455</ele>
        <time>2012-10-24T07:43:26Z</time>
      </trkpt>
      <trkpt lat="43.18778" lon="6.33156">
        <ele>342.26</ele>
        <time>2012-10-24T07:43:31Z</time>
      </trkpt>
      <trkpt lat="43.18778" lon="6.33162">
        <ele>341.755</ele>
        <time>2012-10-24T07:43:36Z</time>
      </trkpt>
      <trkpt lat="43.18778" lon="6.3317">
        <ele>341.174</ele>
        <time>2012-10-24T07:43:41Z</time>
      </trkpt>
      <trkpt lat="43.18779" lon="6.33176">
        <ele>340.785</ele>
        <time>2012-10-24T07:43:46Z</time>
      </trkpt>
      <trkpt lat="43.18778" lon="6.33183">
        <ele>340.349</ele>
        <time>2012-10-24T07:43:51Z</time>
      </trkpt>
      <trkpt lat="43.18778" lon="6.33191">
        <ele>340.119</ele>
        <time>2012-10-24T07:43:56Z</time>
      </trkpt>
      <trkpt lat="43.18777" lon="6.33198">
        <ele>339.76</ele>
        <time>2012-10-24T07:44:01Z</time>
      </trkpt>
      <trkpt lat="43.18775" lon="6.33204">
        <ele>339.39</ele>
        <time>2012-10-24T07:44:06Z</time>
      </trkpt>
      <trkpt lat="43.18773" lon="6.33211">
        <ele>338.735</ele>
        <time>2012-10-24T07:44:11Z</time>
      </trkpt>
      <trkpt lat="43.18769" lon="6.33214">
        <ele>338.304</ele>
        <time>2012-10-24T07:44:16Z</time>
      </trkpt>
      <trkpt lat="43.18771" lon="6.33215">
        <ele>338.013</ele>
        <time>2012-10-24T07:44:26Z</time>
      </trkpt>
      <trkpt lat="43.18772" lon="6.33215">
        <ele>337.939</ele>
        <time>2012-10-24T07:44:31Z</time>
      </trkpt>
      <trkpt lat="43.18771" lon="6.33213">
        <ele>337.53</ele>
        <time>2012-10-24T07:44:36Z</time>
      </trkpt>
      <trkpt lat="43.1877" lon="6.33213">
        <ele>337.501</ele>
        <time>2012-10-24T07:44:41Z</time>
      </trkpt>
      <trkpt lat="43.1877" lon="6.33213">
        <ele>338.201</ele>
        <time>2012-10-24T07:44:56Z</time>
      </trkpt>
      <trkpt lat="43.1877" lon="6.33211">
        <ele>340.027</ele>
        <time>2012-10-24T07:45:06Z</time>
      </trkpt>
      <trkpt lat="43.18771" lon="6.33211">
        <ele>337.961</ele>
        <time>2012-10-24T07:45:21Z</time>
      </trkpt>
      <trkpt lat="43.18771" lon="6.33212">
        <ele>338.127</ele>
        <time>2012-10-24T07:45:31Z</time>
      </trkpt>
      <trkpt lat="43.18771" lon="6.33213">
        <ele>337.969</ele>
        <time>2012-10-24T07:45:36Z</time>
      </trkpt>
      <trkpt lat="43.18772" lon="6.33214">
        <ele>338.169</ele>
        <time>2012-10-24T07:45:46Z</time>
      </trkpt>
      <trkpt lat="43.18773" lon="6.33215">
        <ele>334.874</ele>
        <time>2012-10-24T07:45:51Z</time>
      </trkpt>
      <trkpt lat="43.18774" lon="6.33214">
        <ele>338.254</ele>
        <time>2012-10-24T07:46:01Z</time>
      </trkpt>
      <trkpt lat="43.18775" lon="6.33216">
        <ele>338.019</ele>
        <time>2012-10-24T07:46:06Z</time>
      </trkpt>
      <trkpt lat="43.18776" lon="6.33221">
        <ele>337.71</ele>
        <time>2012-10-24T07:46:11Z</time>
      </trkpt>
      <trkpt lat="43.18777" lon="6.33226">
        <ele>337.443</ele>
        <time>2012-10-24T07:46:16Z</time>
      </trkpt>
      <trkpt lat="43.18776" lon="6.3323">
        <ele>337.004</ele>
        <time>2012-10-24T07:46:21Z</time>
      </trkpt>
      <trkpt lat="43.18776" lon="6.33234">
        <ele>337.023</ele>
        <time>2012-10-24T07:46:26Z</time>
      </trkpt>
      <trkpt lat="43.18778" lon="6.33238">
        <ele>336.682</ele>
        <time>2012-10-24T07:46:31Z</time>
      </trkpt>
      <trkpt lat="43.1878" lon="6.33243">
        <ele>336.349</ele>
        <time>2012-10-24T07:46:36Z</time>
      </trkpt>
      <trkpt lat="43.1878" lon="6.33249">
        <ele>336.066</ele>
        <time>2012-10-24T07:46:41Z</time>
      </trkpt>
      <trkpt lat="43.1878" lon="6.33255">
        <ele>335.786</ele>
        <time>2012-10-24T07:46:46Z</time>
      </trkpt>
      <trkpt lat="43.18781" lon="6.33262">
        <ele>335.374</ele>
        <time>2012-10-24T07:46:51Z</time>
      </trkpt>
      <trkpt lat="43.18781" lon="6.33267">
        <ele>334.951</ele>
        <time>2012-10-24T07:46:56Z</time>
      </trkpt>
      <trkpt lat="43.18779" lon="6.33274">
        <ele>334.7</ele>
        <time>2012-10-24T07:47:01Z</time>
      </trkpt>
      <trkpt lat="43.18779" lon="6.33279">
        <ele>334.335</ele>
        <time>2012-10-24T07:47:06Z</time>
      </trkpt>
      <trkpt lat="43.1878" lon="6.33285">
        <ele>333.928</ele>
        <time>2012-10-24T07:47:11Z</time>
      </trkpt>
      <trkpt lat="43.18782" lon="6.33288">
        <ele>333.609</ele>
        <time>2012-10-24T07:47:16Z</time>
      </trkpt>
      <trkpt lat="43.18782" lon="6.33295">
        <ele>333.643</ele>
        <time>2012-10-24T07:47:21Z</time>
      </trkpt>
      <trkpt lat="43.18783" lon="6.33302">
        <ele>333.202</ele>
        <time>2012-10-24T07:47:26Z</time>
      </trkpt>
      <trkpt lat="43.18784" lon="6.33308">
        <ele>332.734</ele>
        <time>2012-10-24T07:47:31Z</time>
      </trkpt>
      <trkpt lat="43.18785" lon="6.33313">
        <ele>332.409</ele>
        <time>2012-10-24T07:47:36Z</time>
      </trkpt>
      <trkpt lat="43.18783" lon="6.3332">
        <ele>332.158</ele>
        <time>2012-10-24T07:47:41Z</time>
      </trkpt>
      <trkpt lat="43.18784" lon="6.33327">
        <ele>331.656</ele>
        <time>2012-10-24T07:47:46Z</time>
      </trkpt>
      <trkpt lat="43.1879" lon="6.33333">
        <ele>331.159</ele>
        <time>2012-10-24T07:47:51Z</time>
      </trkpt>
      <trkpt lat="43.18791" lon="6.33339">
        <ele>330.723</ele>
        <time>2012-10-24T07:47:56Z</time>
      </trkpt>
      <trkpt lat="43.18792" lon="6.33346">
        <ele>330.364</ele>
        <time>2012-10-24T07:48:01Z</time>
      </trkpt>
      <trkpt lat="43.18792" lon="6.33351">
        <ele>330.242</ele>
        <time>2012-10-24T07:48:06Z</time>
      </trkpt>
      <trkpt lat="43.18793" lon="6.33356">
        <ele>330.179</ele>
        <time>2012-10-24T07:48:11Z</time>
      </trkpt>
      <trkpt lat="43.18793" lon="6.3336">
        <ele>329.946</ele>
        <time>2012-10-24T07:48:16Z</time>
      </trkpt>
      <trkpt lat="43.18792" lon="6.33366">
        <ele>329.656</ele>
        <time>2012-10-24T07:48:21Z</time>
      </trkpt>
      <trkpt lat="43.18792" lon="6.33368">
        <ele>329.384</ele>
        <time>2012-10-24T07:48:26Z</time>
      </trkpt>
      <trkpt lat="43.18788" lon="6.33375">
        <ele>329.117</ele>
        <time>2012-10-24T07:48:31Z</time>
      </trkpt>
      <trkpt lat="43.18786" lon="6.33381">
        <ele>328.995</ele>
        <time>2012-10-24T07:48:36Z</time>
      </trkpt>
      <trkpt lat="43.18781" lon="6.33386">
        <ele>328.535</ele>
        <time>2012-10-24T07:48:41Z</time>
      </trkpt>
      <trkpt lat="43.18778" lon="6.33391">
        <ele>328.033</ele>
        <time>2012-10-24T07:48:46Z</time>
      </trkpt>
      <trkpt lat="43.18776" lon="6.33397">
        <ele>327.571</ele>
        <time>2012-10-24T07:48:51Z</time>
      </trkpt>
      <trkpt lat="43.18775" lon="6.33402">
        <ele>327.312</ele>
        <time>2012-10-24T07:48:56Z</time>
      </trkpt>
      <trkpt lat="43.18773" lon="6.33404">
        <ele>327.138</ele>
        <time>2012-10-24T07:49:01Z</time>
      </trkpt>
      <trkpt lat="43.18772" lon="6.33408">
        <ele>326.678</ele>
        <time>2012-10-24T07:49:06Z</time>
      </trkpt>
      <trkpt lat="43.18769" lon="6.33413">
        <ele>326.504</ele>
        <time>2012-10-24T07:49:11Z</time>
      </trkpt>
      <trkpt lat="43.18766" lon="6.3342">
        <ele>325.98</ele>
        <time>2012-10-24T07:49:16Z</time>
      </trkpt>
      <trkpt lat="43.18763" lon="6.33424">
        <ele>325.37</ele>
        <time>2012-10-24T07:49:21Z</time>
      </trkpt>
      <trkpt lat="43.1876" lon="6.33428">
        <ele>325.008</ele>
        <time>2012-10-24T07:49:26Z</time>
      </trkpt>
      <trkpt lat="43.18758" lon="6.33432">
        <ele>324.514</ele>
        <time>2012-10-24T07:49:31Z</time>
      </trkpt>
      <trkpt lat="43.18753" lon="6.33434">
        <ele>324.144</ele>
        <time>2012-10-24T07:49:36Z</time>
      </trkpt>
      <trkpt lat="43.18749" lon="6.33438">
        <ele>323.824</ele>
        <time>2012-10-24T07:49:41Z</time>
      </trkpt>
      <trkpt lat="43.18744" lon="6.33438">
        <ele>323.512</ele>
        <time>2012-10-24T07:49:46Z</time>
      </trkpt>
      <trkpt lat="43.18739" lon="6.33438">
        <ele>323.428</ele>
        <time>2012-10-24T07:49:51Z</time>
      </trkpt>
      <trkpt lat="43.18735" lon="6.33437">
        <ele>323.074</ele>
        <time>2012-10-24T07:49:56Z</time>
      </trkpt>
      <trkpt lat="43.18729" lon="6.33436">
        <ele>322.416</ele>
        <time>2012-10-24T07:50:01Z</time>
      </trkpt>
      <trkpt lat="43.18726" lon="6.33434">
        <ele>322.397</ele>
        <time>2012-10-24T07:50:06Z</time>
      </trkpt>
      <trkpt lat="43.18722" lon="6.33434">
        <ele>321.808</ele>
        <time>2012-10-24T07:50:11Z</time>
      </trkpt>
      <trkpt lat="43.18718" lon="6.33433">
        <ele>321.565</ele>
        <time>2012-10-24T07:50:16Z</time>
      </trkpt>
      <trkpt lat="43.18714" lon="6.33431">
        <ele>321.007</ele>
        <time>2012-10-24T07:50:21Z</time>
      </trkpt>
      <trkpt lat="43.18713" lon="6.33428">
        <ele>320.881</ele>
        <time>2012-10-24T07:50:26Z</time>
      </trkpt>
      <trkpt lat="43.1871" lon="6.33426">
        <ele>320.622</ele>
        <time>2012-10-24T07:50:31Z</time>
      </trkpt>
      <trkpt lat="43.18706" lon="6.33431">
        <ele>320.387</ele>
        <time>2012-10-24T07:50:36Z</time>
      </trkpt>
      <trkpt lat="43.187" lon="6.33431">
        <ele>320.062</ele>
        <time>2012-10-24T07:50:41Z</time>
      </trkpt>
      <trkpt lat="43.18696" lon="6.3343">
        <ele>320.236</ele>
        <time>2012-10-24T07:50:46Z</time>
      </trkpt>
      <trkpt lat="43.18694" lon="6.33431">
        <ele>320.302</ele>
        <time>2012-10-24T07:50:51Z</time>
      </trkpt>
      <trkpt lat="43.18689" lon="6.33429">
        <ele>320.064</ele>
        <time>2012-10-24T07:50:56Z</time>
      </trkpt>
      <trkpt lat="43.18686" lon="6.33427">
        <ele>319.966</ele>
        <time>2012-10-24T07:51:01Z</time>
      </trkpt>
      <trkpt lat="43.18682" lon="6.33428">
        <ele>320.03</ele>
        <time>2012-10-24T07:51:06Z</time>
      </trkpt>
      <trkpt lat="43.18682" lon="6.33434">
        <ele>320.054</ele>
        <time>2012-10-24T07:51:16Z</time>
      </trkpt>
      <trkpt lat="43.18687" lon="6.3344">
        <ele>319.647</ele>
        <time>2012-10-24T07:51:21Z</time>
      </trkpt>
      <trkpt lat="43.1869" lon="6.33444">
        <ele>319.596</ele>
        <time>2012-10-24T07:51:26Z</time>
      </trkpt>
      <trkpt lat="43.18692" lon="6.33449">
        <ele>319.433</ele>
        <time>2012-10-24T07:51:31Z</time>
      </trkpt>
      <trkpt lat="43.18695" lon="6.33454">
        <ele>319.065</ele>
        <time>2012-10-24T07:51:36Z</time>
      </trkpt>
      <trkpt lat="43.18694" lon="6.33458">
        <ele>318.915</ele>
        <time>2012-10-24T07:51:41Z</time>
      </trkpt>
      <trkpt lat="43.18694" lon="6.33461">
        <ele>319.628</ele>
        <time>2012-10-24T07:51:46Z</time>
      </trkpt>
      <trkpt lat="43.18695" lon="6.33463">
        <ele>318.526</ele>
        <time>2012-10-24T07:51:51Z</time>
      </trkpt>
      <trkpt lat="43.18697" lon="6.33468">
        <ele>318.191</ele>
        <time>2012-10-24T07:51:56Z</time>
      </trkpt>
      <trkpt lat="43.18697" lon="6.33472">
        <ele>318.37</ele>
        <time>2012-10-24T07:52:01Z</time>
      </trkpt>
      <trkpt lat="43.18697" lon="6.33479">
        <ele>317.905</ele>
        <time>2012-10-24T07:52:06Z</time>
      </trkpt>
      <trkpt lat="43.18697" lon="6.33483">
        <ele>317.617</ele>
        <time>2012-10-24T07:52:11Z</time>
      </trkpt>
      <trkpt lat="43.18702" lon="6.33489">
        <ele>317.261</ele>
        <time>2012-10-24T07:52:16Z</time>
      </trkpt>
      <trkpt lat="43.187" lon="6.33493">
        <ele>316.901</ele>
        <time>2012-10-24T07:52:21Z</time>
      </trkpt>
      <trkpt lat="43.18699" lon="6.33499">
        <ele>316.6</ele>
        <time>2012-10-24T07:52:26Z</time>
      </trkpt>
      <trkpt lat="43.18704" lon="6.33504">
        <ele>316.304</ele>
        <time>2012-10-24T07:52:31Z</time>
      </trkpt>
      <trkpt lat="43.18706" lon="6.3351">
        <ele>316.156</ele>
        <time>2012-10-24T07:52:36Z</time>
      </trkpt>
      <trkpt lat="43.18704" lon="6.33518">
        <ele>315.929</ele>
        <time>2012-10-24T07:52:41Z</time>
      </trkpt>
      <trkpt lat="43.18705" lon="6.33524">
        <ele>315.889</ele>
        <time>2012-10-24T07:52:46Z</time>
      </trkpt>
      <trkpt lat="43.18705" lon="6.33529">
        <ele>315.604</ele>
        <time>2012-10-24T07:52:51Z</time>
      </trkpt>
      <trkpt lat="43.18708" lon="6.33532">
        <ele>315.123</ele>
        <time>2012-10-24T07:52:56Z</time>
      </trkpt>
      <trkpt lat="43.1871" lon="6.33536">
        <ele>314.811</ele>
        <time>2012-10-24T07:53:01Z</time>
      </trkpt>
      <trkpt lat="43.18713" lon="6.33539">
        <ele>314.613</ele>
        <time>2012-10-24T07:53:06Z</time>
      </trkpt>
      <trkpt lat="43.18715" lon="6.33544">
        <ele>314.478</ele>
        <time>2012-10-24T07:53:11Z</time>
      </trkpt>
      <trkpt lat="43.1872" lon="6.33548">
        <ele>314.143</ele>
        <time>2012-10-24T07:53:16Z</time>
      </trkpt>
      <trkpt lat="43.18724" lon="6.33552">
        <ele>313.879</ele>
        <time>2012-10-24T07:53:21Z</time>
      </trkpt>
      <trkpt lat="43.18728" lon="6.33557">
        <ele>313.828</ele>
        <time>2012-10-24T07:53:26Z</time>
      </trkpt>
      <trkpt lat="43.18732" lon="6.3356">
        <ele>313.213</ele>
        <time>2012-10-24T07:53:31Z</time>
      </trkpt>
      <trkpt lat="43.18733" lon="6.33567">
        <ele>313.115</ele>
        <time>2012-10-24T07:53:36Z</time>
      </trkpt>
      <trkpt lat="43.18733" lon="6.33576">
        <ele>312.769</ele>
        <time>2012-10-24T07:53:41Z</time>
      </trkpt>
      <trkpt lat="43.18734" lon="6.33583">
        <ele>312.367</ele>
        <time>2012-10-24T07:53:46Z</time>
      </trkpt>
      <trkpt lat="43.18734" lon="6.33588">
        <ele>312.124</ele>
        <time>2012-10-24T07:53:51Z</time>
      </trkpt>
      <trkpt lat="43.18733" lon="6.33595">
        <ele>311.825</ele>
        <time>2012-10-24T07:53:56Z</time>
      </trkpt>
      <trkpt lat="43.18733" lon="6.33603">
        <ele>311.247</ele>
        <time>2012-10-24T07:54:01Z</time>
      </trkpt>
      <trkpt lat="43.18733" lon="6.33609">
        <ele>311.104</ele>
        <time>2012-10-24T07:54:06Z</time>
      </trkpt>
      <trkpt lat="43.18732" lon="6.33616">
        <ele>310.684</ele>
        <time>2012-10-24T07:54:11Z</time>
      </trkpt>
      <trkpt lat="43.18731" lon="6.33622">
        <ele>310.182</ele>
        <time>2012-10-24T07:54:16Z</time>
      </trkpt>
      <trkpt lat="43.18732" lon="6.33629">
        <ele>309.78</ele>
        <time>2012-10-24T07:54:21Z</time>
      </trkpt>
      <trkpt lat="43.18731" lon="6.33636">
        <ele>309.55</ele>
        <time>2012-10-24T07:54:26Z</time>
      </trkpt>
      <trkpt lat="43.18729" lon="6.3364">
        <ele>309.244</ele>
        <time>2012-10-24T07:54:31Z</time>
      </trkpt>
      <trkpt lat="43.18726" lon="6.33644">
        <ele>309.307</ele>
        <time>2012-10-24T07:54:36Z</time>
      </trkpt>
      <trkpt lat="43.18723" lon="6.33648">
        <ele>309.051</ele>
        <time>2012-10-24T07:54:41Z</time>
      </trkpt>
      <trkpt lat="43.18721" lon="6.33644">
        <ele>309.136</ele>
        <time>2012-10-24T07:54:46Z</time>
      </trkpt>
      <trkpt lat="43.18722" lon="6.33644">
        <ele>307.957</ele>
        <time>2012-10-24T07:54:56Z</time>
      </trkpt>
      <trkpt lat="43.18722" lon="6.33644">
        <ele>308.446</ele>
        <time>2012-10-24T07:55:06Z</time>
      </trkpt>
      <trkpt lat="43.18723" lon="6.33646">
        <ele>309.122</ele>
        <time>2012-10-24T07:55:11Z</time>
      </trkpt>
      <trkpt lat="43.18727" lon="6.33646">
        <ele>309.41</ele>
        <time>2012-10-24T07:55:16Z</time>
      </trkpt>
      <trkpt lat="43.1873" lon="6.33645">
        <ele>310.692</ele>
        <time>2012-10-24T07:55:21Z</time>
      </trkpt>
      <trkpt lat="43.18729" lon="6.33645">
        <ele>309.476</ele>
        <time>2012-10-24T07:55:26Z</time>
      </trkpt>
      <trkpt lat="43.1873" lon="6.33645">
        <ele>309.357</ele>
        <time>2012-10-24T07:55:36Z</time>
      </trkpt>
      <trkpt lat="43.18731" lon="6.33643">
        <ele>309.233</ele>
        <time>2012-10-24T07:55:46Z</time>
      </trkpt>
      <trkpt lat="43.1873" lon="6.3364">
        <ele>309.257</ele>
        <time>2012-10-24T07:55:56Z</time>
      </trkpt>
      <trkpt lat="43.18728" lon="6.33641">
        <ele>309.241</ele>
        <time>2012-10-24T07:56:01Z</time>
      </trkpt>
      <trkpt lat="43.18725" lon="6.33644">
        <ele>308.977</ele>
        <time>2012-10-24T07:56:06Z</time>
      </trkpt>
      <trkpt lat="43.18723" lon="6.33647">
        <ele>308.789</ele>
        <time>2012-10-24T07:56:11Z</time>
      </trkpt>
      <trkpt lat="43.18721" lon="6.33651">
        <ele>308.795</ele>
        <time>2012-10-24T07:56:16Z</time>
      </trkpt>
      <trkpt lat="43.18719" lon="6.33656">
        <ele>308.48</ele>
        <time>2012-10-24T07:56:21Z</time>
      </trkpt>
      <trkpt lat="43.18717" lon="6.33661">
        <ele>308.068</ele>
        <time>2012-10-24T07:56:26Z</time>
      </trkpt>
      <trkpt lat="43.18716" lon="6.33666">
        <ele>307.717</ele>
        <time>2012-10-24T07:56:31Z</time>
      </trkpt>
      <trkpt lat="43.18717" lon="6.33673">
        <ele>307.579</ele>
        <time>2012-10-24T07:56:36Z</time>
      </trkpt>
      <trkpt lat="43.18716" lon="6.33681">
        <ele>307.043</ele>
        <time>2012-10-24T07:56:41Z</time>
      </trkpt>
      <trkpt lat="43.18713" lon="6.33689">
        <ele>306.681</ele>
        <time>2012-10-24T07:56:46Z</time>
      </trkpt>
      <trkpt lat="43.18709" lon="6.33695">
        <ele>306.649</ele>
        <time>2012-10-24T07:56:51Z</time>
      </trkpt>
      <trkpt lat="43.18707" lon="6.33701">
        <ele>306.24</ele>
        <time>2012-10-24T07:56:56Z</time>
      </trkpt>
      <trkpt lat="43.18706" lon="6.33707">
        <ele>305.838</ele>
        <time>2012-10-24T07:57:01Z</time>
      </trkpt>
      <trkpt lat="43.18705" lon="6.33712">
        <ele>305.423</ele>
        <time>2012-10-24T07:57:06Z</time>
      </trkpt>
      <trkpt lat="43.18703" lon="6.33719">
        <ele>305.188</ele>
        <time>2012-10-24T07:57:11Z</time>
      </trkpt>
      <trkpt lat="43.18702" lon="6.33725">
        <ele>304.953</ele>
        <time>2012-10-24T07:57:16Z</time>
      </trkpt>
      <trkpt lat="43.18699" lon="6.33733">
        <ele>304.385</ele>
        <time>2012-10-24T07:57:21Z</time>
      </trkpt>
      <trkpt lat="43.18695" lon="6.33739">
        <ele>304.012</ele>
        <time>2012-10-24T07:57:26Z</time>
      </trkpt>
      <trkpt lat="43.18694" lon="6.33745">
        <ele>303.814</ele>
        <time>2012-10-24T07:57:31Z</time>
      </trkpt>
      <trkpt lat="43.18693" lon="6.33752">
        <ele>303.291</ele>
        <time>2012-10-24T07:57:36Z</time>
      </trkpt>
      <trkpt lat="43.18693" lon="6.33759">
        <ele>303.034</ele>
        <time>2012-10-24T07:57:41Z</time>
      </trkpt>
      <trkpt lat="43.18691" lon="6.33766">
        <ele>302.67</ele>
        <time>2012-10-24T07:57:46Z</time>
      </trkpt>
      <trkpt lat="43.18689" lon="6.33771">
        <ele>301.785</ele>
        <time>2012-10-24T07:57:51Z</time>
      </trkpt>
      <trkpt lat="43.18685" lon="6.33771">
        <ele>301.642</ele>
        <time>2012-10-24T07:57:56Z</time>
      </trkpt>
      <trkpt lat="43.18681" lon="6.33769">
        <ele>301.576</ele>
        <time>2012-10-24T07:58:01Z</time>
      </trkpt>
      <trkpt lat="43.1868" lon="6.33776">
        <ele>301.137</ele>
        <time>2012-10-24T07:58:06Z</time>
      </trkpt>
      <trkpt lat="43.18681" lon="6.33785">
        <ele>300.318</ele>
        <time>2012-10-24T07:58:11Z</time>
      </trkpt>
      <trkpt lat="43.18681" lon="6.3379">
        <ele>299.647</ele>
        <time>2012-10-24T07:58:16Z</time>
      </trkpt>
      <trkpt lat="43.18677" lon="6.33796">
        <ele>299.66</ele>
        <time>2012-10-24T07:58:21Z</time>
      </trkpt>
      <trkpt lat="43.18674" lon="6.33801">
        <ele>299.113</ele>
        <time>2012-10-24T07:58:26Z</time>
      </trkpt>
      <trkpt lat="43.18672" lon="6.33807">
        <ele>298.751</ele>
        <time>2012-10-24T07:58:31Z</time>
      </trkpt>
      <trkpt lat="43.18672" lon="6.33814">
        <ele>298.476</ele>
        <time>2012-10-24T07:58:36Z</time>
      </trkpt>
      <trkpt lat="43.18671" lon="6.33822">
        <ele>297.663</ele>
        <time>2012-10-24T07:58:41Z</time>
      </trkpt>
      <trkpt lat="43.1867" lon="6.33829">
        <ele>296.939</ele>
        <time>2012-10-24T07:58:46Z</time>
      </trkpt>
      <trkpt lat="43.18669" lon="6.33836">
        <ele>296.426</ele>
        <time>2012-10-24T07:58:51Z</time>
      </trkpt>
      <trkpt lat="43.18668" lon="6.33843">
        <ele>296.038</ele>
        <time>2012-10-24T07:58:56Z</time>
      </trkpt>
      <trkpt lat="43.18666" lon="6.3385">
        <ele>295.57</ele>
        <time>2012-10-24T07:59:01Z</time>
      </trkpt>
      <trkpt lat="43.18665" lon="6.33857">
        <ele>295.327</ele>
        <time>2012-10-24T07:59:06Z</time>
      </trkpt>
      <trkpt lat="43.18665" lon="6.33864">
        <ele>294.835</ele>
        <time>2012-10-24T07:59:11Z</time>
      </trkpt>
      <trkpt lat="43.18665" lon="6.33872">
        <ele>294.391</ele>
        <time>2012-10-24T07:59:16Z</time>
      </trkpt>
      <trkpt lat="43.18666" lon="6.33881">
        <ele>293.921</ele>
        <time>2012-10-24T07:59:21Z</time>
      </trkpt>
      <trkpt lat="43.18666" lon="6.33888">
        <ele>293.2</ele>
        <time>2012-10-24T07:59:26Z</time>
      </trkpt>
      <trkpt lat="43.18667" lon="6.33896">
        <ele>292.703</ele>
        <time>2012-10-24T07:59:31Z</time>
      </trkpt>
      <trkpt lat="43.18666" lon="6.33905">
        <ele>292.198</ele>
        <time>2012-10-24T07:59:36Z</time>
      </trkpt>
      <trkpt lat="43.18666" lon="6.33912">
        <ele>291.295</ele>
        <time>2012-10-24T07:59:41Z</time>
      </trkpt>
      <trkpt lat="43.18664" lon="6.33919">
        <ele>290.851</ele>
        <time>2012-10-24T07:59:46Z</time>
      </trkpt>
      <trkpt lat="43.18663" lon="6.33926">
        <ele>290.935</ele>
        <time>2012-10-24T07:59:51Z</time>
      </trkpt>
      <trkpt lat="43.18662" lon="6.33932">
        <ele>290.565</ele>
        <time>2012-10-24T07:59:56Z</time>
      </trkpt>
      <trkpt lat="43.18662" lon="6.33939">
        <ele>290.045</ele>
        <time>2012-10-24T08:00:01Z</time>
      </trkpt>
      <trkpt lat="43.18663" lon="6.33947">
        <ele>289.659</ele>
        <time>2012-10-24T08:00:06Z</time>
      </trkpt>
      <trkpt lat="43.18662" lon="6.33955">
        <ele>288.975</ele>
        <time>2012-10-24T08:00:11Z</time>
      </trkpt>
      <trkpt lat="43.18662" lon="6.33962">
        <ele>288.47</ele>
        <time>2012-10-24T08:00:16Z</time>
      </trkpt>
      <trkpt lat="43.18662" lon="6.3397">
        <ele>288.232</ele>
        <time>2012-10-24T08:00:21Z</time>
      </trkpt>
      <trkpt lat="43.18663" lon="6.33978">
        <ele>287.572</ele>
        <time>2012-10-24T08:00:26Z</time>
      </trkpt>
      <trkpt lat="43.18663" lon="6.33987">
        <ele>287.241</ele>
        <time>2012-10-24T08:00:31Z</time>
      </trkpt>
      <trkpt lat="43.18662" lon="6.33993">
        <ele>286.589</ele>
        <time>2012-10-24T08:00:36Z</time>
      </trkpt>
      <trkpt lat="43.18661" lon="6.33999">
        <ele>286.158</ele>
        <time>2012-10-24T08:00:41Z</time>
      </trkpt>
      <trkpt lat="43.18659" lon="6.34007">
        <ele>285.981</ele>
        <time>2012-10-24T08:00:46Z</time>
      </trkpt>
      <trkpt lat="43.18659" lon="6.34014">
        <ele>285.344</ele>
        <time>2012-10-24T08:00:51Z</time>
      </trkpt>
      <trkpt lat="43.18658" lon="6.34023">
        <ele>284.517</ele>
        <time>2012-10-24T08:00:56Z</time>
      </trkpt>
      <trkpt lat="43.18656" lon="6.34029">
        <ele>284.115</ele>
        <time>2012-10-24T08:01:01Z</time>
      </trkpt>
      <trkpt lat="43.18655" lon="6.34035">
        <ele>283.553</ele>
        <time>2012-10-24T08:01:06Z</time>
      </trkpt>
      <trkpt lat="43.18653" lon="6.34041">
        <ele>282.958</ele>
        <time>2012-10-24T08:01:11Z</time>
      </trkpt>
      <trkpt lat="43.18651" lon="6.34049">
        <ele>282.488</ele>
        <time>2012-10-24T08:01:16Z</time>
      </trkpt>
      <trkpt lat="43.18649" lon="6.34056">
        <ele>281.935</ele>
        <time>2012-10-24T08:01:21Z</time>
      </trkpt>
      <trkpt lat="43.18646" lon="6.34062">
        <ele>281.354</ele>
        <time>2012-10-24T08:01:26Z</time>
      </trkpt>
      <trkpt lat="43.18644" lon="6.3407">
        <ele>280.802</ele>
        <time>2012-10-24T08:01:31Z</time>
      </trkpt>
      <trkpt lat="43.18641" lon="6.34077">
        <ele>280.443</ele>
        <time>2012-10-24T08:01:36Z</time>
      </trkpt>
      <trkpt lat="43.1864" lon="6.34083">
        <ele>280.022</ele>
        <time>2012-10-24T08:01:41Z</time>
      </trkpt>
      <trkpt lat="43.18641" lon="6.34081">
        <ele>279.93</ele>
        <time>2012-10-24T08:01:46Z</time>
      </trkpt>
      <trkpt lat="43.18641" lon="6.3408">
        <ele>279.906</ele>
        <time>2012-10-24T08:02:06Z</time>
      </trkpt>
      <trkpt lat="43.18641" lon="6.34081">
        <ele>279.658</ele>
        <time>2012-10-24T08:02:16Z</time>
      </trkpt>
      <trkpt lat="43.18641" lon="6.34082">
        <ele>279.671</ele>
        <time>2012-10-24T08:02:26Z</time>
      </trkpt>
      <trkpt lat="43.1864" lon="6.3408">
        <ele>279.93</ele>
        <time>2012-10-24T08:02:36Z</time>
      </trkpt>
      <trkpt lat="43.1864" lon="6.34079">
        <ele>279.801</ele>
        <time>2012-10-24T08:02:41Z</time>
      </trkpt>
      <trkpt lat="43.1864" lon="6.34077">
        <ele>280.062</ele>
        <time>2012-10-24T08:03:06Z</time>
      </trkpt>
      <trkpt lat="43.18639" lon="6.34076">
        <ele>279.962</ele>
        <time>2012-10-24T08:03:21Z</time>
      </trkpt>
      <trkpt lat="43.1864" lon="6.34078">
        <ele>279.962</ele>
        <time>2012-10-24T08:03:31Z</time>
      </trkpt>
      <trkpt lat="43.18638" lon="6.34084">
        <ele>279.531</ele>
        <time>2012-10-24T08:03:36Z</time>
      </trkpt>
      <trkpt lat="43.18636" lon="6.34088">
        <ele>278.855</ele>
        <time>2012-10-24T08:03:41Z</time>
      </trkpt>
      <trkpt lat="43.18631" lon="6.34093">
        <ele>278.279</ele>
        <time>2012-10-24T08:03:46Z</time>
      </trkpt>
      <trkpt lat="43.18629" lon="6.34101">
        <ele>277.547</ele>
        <time>2012-10-24T08:03:51Z</time>
      </trkpt>
      <trkpt lat="43.18628" lon="6.34107">
        <ele>277.129</ele>
        <time>2012-10-24T08:03:56Z</time>
      </trkpt>
      <trkpt lat="43.18627" lon="6.34113">
        <ele>275.985</ele>
        <time>2012-10-24T08:04:01Z</time>
      </trkpt>
      <trkpt lat="43.18624" lon="6.3412">
        <ele>275.266</ele>
        <time>2012-10-24T08:04:06Z</time>
      </trkpt>
      <trkpt lat="43.18619" lon="6.34124">
        <ele>275.256</ele>
        <time>2012-10-24T08:04:11Z</time>
      </trkpt>
      <trkpt lat="43.18617" lon="6.34132">
        <ele>275.536</ele>
        <time>2012-10-24T08:04:16Z</time>
      </trkpt>
      <trkpt lat="43.18616" lon="6.34134">
        <ele>275.549</ele>
        <time>2012-10-24T08:04:21Z</time>
      </trkpt>
      <trkpt lat="43.18614" lon="6.34137">
        <ele>275.25</ele>
        <time>2012-10-24T08:04:26Z</time>
      </trkpt>
      <trkpt lat="43.18613" lon="6.34143">
        <ele>274.949</ele>
        <time>2012-10-24T08:04:31Z</time>
      </trkpt>
      <trkpt lat="43.1861" lon="6.34149">
        <ele>274.616</ele>
        <time>2012-10-24T08:04:36Z</time>
      </trkpt>
      <trkpt lat="43.18609" lon="6.34156">
        <ele>273.702</ele>
        <time>2012-10-24T08:04:41Z</time>
      </trkpt>
      <trkpt lat="43.18609" lon="6.34165">
        <ele>273.089</ele>
        <time>2012-10-24T08:04:46Z</time>
      </trkpt>
      <trkpt lat="43.18607" lon="6.34173">
        <ele>272.653</ele>
        <time>2012-10-24T08:04:51Z</time>
      </trkpt>
      <trkpt lat="43.18605" lon="6.3418">
        <ele>272.077</ele>
        <time>2012-10-24T08:04:56Z</time>
      </trkpt>
      <trkpt lat="43.18602" lon="6.34187">
        <ele>271.852</ele>
        <time>2012-10-24T08:05:01Z</time>
      </trkpt>
      <trkpt lat="43.186" lon="6.34192">
        <ele>271.187</ele>
        <time>2012-10-24T08:05:06Z</time>
      </trkpt>
      <trkpt lat="43.18597" lon="6.34198">
        <ele>270.761</ele>
        <time>2012-10-24T08:05:11Z</time>
      </trkpt>
      <trkpt lat="43.18594" lon="6.34205">
        <ele>270.262</ele>
        <time>2012-10-24T08:05:16Z</time>
      </trkpt>
      <trkpt lat="43.18591" lon="6.34213">
        <ele>269.76</ele>
        <time>2012-10-24T08:05:21Z</time>
      </trkpt>
      <trkpt lat="43.18589" lon="6.34221">
        <ele>269.022</ele>
        <time>2012-10-24T08:05:26Z</time>
      </trkpt>
      <trkpt lat="43.18587" lon="6.34228">
        <ele>268.571</ele>
        <time>2012-10-24T08:05:31Z</time>
      </trkpt>
      <trkpt lat="43.18585" lon="6.34236">
        <ele>267.635</ele>
        <time>2012-10-24T08:05:36Z</time>
      </trkpt>
      <trkpt lat="43.18583" lon="6.34244">
        <ele>267.006</ele>
        <time>2012-10-24T08:05:41Z</time>
      </trkpt>
      <trkpt lat="43.1858" lon="6.3425">
        <ele>266.713</ele>
        <time>2012-10-24T08:05:46Z</time>
      </trkpt>
      <trkpt lat="43.18577" lon="6.34256">
        <ele>266.341</ele>
        <time>2012-10-24T08:05:51Z</time>
      </trkpt>
      <trkpt lat="43.18576" lon="6.34263">
        <ele>266.034</ele>
        <time>2012-10-24T08:05:56Z</time>
      </trkpt>
      <trkpt lat="43.18575" lon="6.34272">
        <ele>265.521</ele>
        <time>2012-10-24T08:06:01Z</time>
      </trkpt>
      <trkpt lat="43.18573" lon="6.3428">
        <ele>265.067</ele>
        <time>2012-10-24T08:06:06Z</time>
      </trkpt>
      <trkpt lat="43.18572" lon="6.34289">
        <ele>264.504</ele>
        <time>2012-10-24T08:06:11Z</time>
      </trkpt>
      <trkpt lat="43.18572" lon="6.34297">
        <ele>264.258</ele>
        <time>2012-10-24T08:06:16Z</time>
      </trkpt>
      <trkpt lat="43.18569" lon="6.34304">
        <ele>263.894</ele>
        <time>2012-10-24T08:06:21Z</time>
      </trkpt>
      <trkpt lat="43.18568" lon="6.3431">
        <ele>263.63</ele>
        <time>2012-10-24T08:06:26Z</time>
      </trkpt>
      <trkpt lat="43.18565" lon="6.34317">
        <ele>263.339</ele>
        <time>2012-10-24T08:06:31Z</time>
      </trkpt>
      <trkpt lat="43.18563" lon="6.34319">
        <ele>263.053</ele>
        <time>2012-10-24T08:06:36Z</time>
      </trkpt>
      <trkpt lat="43.18564" lon="6.34319">
        <ele>262.953</ele>
        <time>2012-10-24T08:06:41Z</time>
      </trkpt>
      <trkpt lat="43.18564" lon="6.3432">
        <ele>263.059</ele>
        <time>2012-10-24T08:06:51Z</time>
      </trkpt>
      <trkpt lat="43.18562" lon="6.34322">
        <ele>262.533</ele>
        <time>2012-10-24T08:06:56Z</time>
      </trkpt>
      <trkpt lat="43.18559" lon="6.34329">
        <ele>262.195</ele>
        <time>2012-10-24T08:07:01Z</time>
      </trkpt>
      <trkpt lat="43.18556" lon="6.34338">
        <ele>261.611</ele>
        <time>2012-10-24T08:07:06Z</time>
      </trkpt>
      <trkpt lat="43.18555" lon="6.34346">
        <ele>261.185</ele>
        <time>2012-10-24T08:07:11Z</time>
      </trkpt>
      <trkpt lat="43.18551" lon="6.34352">
        <ele>260.715</ele>
        <time>2012-10-24T08:07:16Z</time>
      </trkpt>
      <trkpt lat="43.18547" lon="6.34359">
        <ele>260.292</ele>
        <time>2012-10-24T08:07:21Z</time>
      </trkpt>
      <trkpt lat="43.18543" lon="6.34365">
        <ele>259.941</ele>
        <time>2012-10-24T08:07:26Z</time>
      </trkpt>
      <trkpt lat="43.18539" lon="6.34371">
        <ele>259.719</ele>
        <time>2012-10-24T08:07:31Z</time>
      </trkpt>
      <trkpt lat="43.18535" lon="6.34376">
        <ele>259.571</ele>
        <time>2012-10-24T08:07:36Z</time>
      </trkpt>
      <trkpt lat="43.18532" lon="6.34382">
        <ele>259.177</ele>
        <time>2012-10-24T08:07:41Z</time>
      </trkpt>
      <trkpt lat="43.18531" lon="6.34388">
        <ele>258.916</ele>
        <time>2012-10-24T08:07:46Z</time>
      </trkpt>
      <trkpt lat="43.18532" lon="6.34389">
        <ele>259.108</ele>
        <time>2012-10-24T08:07:51Z</time>
      </trkpt>
      <trkpt lat="43.18534" lon="6.34389">
        <ele>258.363</ele>
        <time>2012-10-24T08:07:56Z</time>
      </trkpt>
      <trkpt lat="43.18533" lon="6.3439">
        <ele>257.922</ele>
        <time>2012-10-24T08:08:01Z</time>
      </trkpt>
      <trkpt lat="43.18534" lon="6.34391">
        <ele>257.856</ele>
        <time>2012-10-24T08:08:11Z</time>
      </trkpt>
      <trkpt lat="43.18535" lon="6.3439">
        <ele>257.933</ele>
        <time>2012-10-24T08:08:21Z</time>
      </trkpt>
      <trkpt lat="43.18534" lon="6.34391">
        <ele>258.744</ele>
        <time>2012-10-24T08:09:46Z</time>
      </trkpt>
      <trkpt lat="43.18534" lon="6.34392">
        <ele>258.976</ele>
        <time>2012-10-24T08:10:01Z</time>
      </trkpt>
      <trkpt lat="43.18533" lon="6.34393">
        <ele>258.905</ele>
        <time>2012-10-24T08:10:21Z</time>
      </trkpt>
      <trkpt lat="43.18531" lon="6.34395">
        <ele>258.641</ele>
        <time>2012-10-24T08:10:26Z</time>
      </trkpt>
      <trkpt lat="43.1853" lon="6.34397">
        <ele>259.6</ele>
        <time>2012-10-24T08:10:31Z</time>
      </trkpt>
      <trkpt lat="43.18529" lon="6.34398">
        <ele>258.76</ele>
        <time>2012-10-24T08:10:46Z</time>
      </trkpt>
      <trkpt lat="43.18528" lon="6.34398">
        <ele>258.443</ele>
        <time>2012-10-24T08:11:16Z</time>
      </trkpt>
      <trkpt lat="43.18527" lon="6.34397">
        <ele>258.485</ele>
        <time>2012-10-24T08:11:26Z</time>
      </trkpt>
      <trkpt lat="43.18528" lon="6.34398">
        <ele>257.97</ele>
        <time>2012-10-24T08:13:06Z</time>
      </trkpt>
      <trkpt lat="43.18528" lon="6.34398">
        <ele>257.861</ele>
        <time>2012-10-24T08:14:11Z</time>
      </trkpt>
      <trkpt lat="43.18527" lon="6.34398">
        <ele>257.782</ele>
        <time>2012-10-24T08:15:01Z</time>
      </trkpt>
      <trkpt lat="43.18522" lon="6.34402">
        <ele>257.711</ele>
        <time>2012-10-24T08:15:06Z</time>
      </trkpt>
      <trkpt lat="43.18516" lon="6.34405">
        <ele>258.007</ele>
        <time>2012-10-24T08:15:11Z</time>
      </trkpt>
      <trkpt lat="43.18512" lon="6.34407">
        <ele>258.289</ele>
        <time>2012-10-24T08:15:16Z</time>
      </trkpt>
      <trkpt lat="43.18507" lon="6.3441">
        <ele>258.691</ele>
        <time>2012-10-24T08:15:21Z</time>
      </trkpt>
      <trkpt lat="43.18501" lon="6.34411">
        <ele>258.99</ele>
        <time>2012-10-24T08:15:26Z</time>
      </trkpt>
      <trkpt lat="43.18495" lon="6.34414">
        <ele>259.108</ele>
        <time>2012-10-24T08:15:31Z</time>
      </trkpt>
      <trkpt lat="43.1849" lon="6.34417">
        <ele>259.227</ele>
        <time>2012-10-24T08:15:36Z</time>
      </trkpt>
      <trkpt lat="43.18484" lon="6.34418">
        <ele>259.217</ele>
        <time>2012-10-24T08:15:41Z</time>
      </trkpt>
      <trkpt lat="43.18479" lon="6.34419">
        <ele>259.83</ele>
        <time>2012-10-24T08:15:46Z</time>
      </trkpt>
      <trkpt lat="43.18474" lon="6.3442">
        <ele>260.142</ele>
        <time>2012-10-24T08:15:51Z</time>
      </trkpt>
      <trkpt lat="43.18469" lon="6.34421">
        <ele>260.638</ele>
        <time>2012-10-24T08:15:56Z</time>
      </trkpt>
      <trkpt lat="43.18463" lon="6.34423">
        <ele>260.937</ele>
        <time>2012-10-24T08:16:01Z</time>
      </trkpt>
      <trkpt lat="43.18458" lon="6.34426">
        <ele>260.958</ele>
        <time>2012-10-24T08:16:06Z</time>
      </trkpt>
      <trkpt lat="43.18453" lon="6.34427">
        <ele>260.974</ele>
        <time>2012-10-24T08:16:11Z</time>
      </trkpt>
      <trkpt lat="43.18448" lon="6.34429">
        <ele>260.961</ele>
        <time>2012-10-24T08:16:16Z</time>
      </trkpt>
      <trkpt lat="43.18444" lon="6.34432">
        <ele>261.294</ele>
        <time>2012-10-24T08:16:21Z</time>
      </trkpt>
      <trkpt lat="43.1844" lon="6.34434">
        <ele>261.188</ele>
        <time>2012-10-24T08:16:26Z</time>
      </trkpt>
      <trkpt lat="43.18437" lon="6.34437">
        <ele>261.812</ele>
        <time>2012-10-24T08:16:31Z</time>
      </trkpt>
      <trkpt lat="43.18434" lon="6.34441">
        <ele>262.06</ele>
        <time>2012-10-24T08:16:36Z</time>
      </trkpt>
      <trkpt lat="43.18431" lon="6.34445">
        <ele>262.507</ele>
        <time>2012-10-24T08:16:41Z</time>
      </trkpt>
      <trkpt lat="43.1843" lon="6.34449">
        <ele>263.027</ele>
        <time>2012-10-24T08:16:46Z</time>
      </trkpt>
      <trkpt lat="43.18427" lon="6.34454">
        <ele>263.616</ele>
        <time>2012-10-24T08:16:51Z</time>
      </trkpt>
      <trkpt lat="43.18425" lon="6.34459">
        <ele>263.907</ele>
        <time>2012-10-24T08:16:56Z</time>
      </trkpt>
      <trkpt lat="43.18422" lon="6.34464">
        <ele>264.406</ele>
        <time>2012-10-24T08:17:01Z</time>
      </trkpt>
      <trkpt lat="43.18418" lon="6.34467">
        <ele>264.314</ele>
        <time>2012-10-24T08:17:06Z</time>
      </trkpt>
      <trkpt lat="43.18415" lon="6.34471">
        <ele>264.206</ele>
        <time>2012-10-24T08:17:11Z</time>
      </trkpt>
      <trkpt lat="43.18413" lon="6.34477">
        <ele>263.899</ele>
        <time>2012-10-24T08:17:16Z</time>
      </trkpt>
      <trkpt lat="43.18412" lon="6.34483">
        <ele>263.537</ele>
        <time>2012-10-24T08:17:21Z</time>
      </trkpt>
      <trkpt lat="43.18411" lon="6.3449">
        <ele>263.59</ele>
        <time>2012-10-24T08:17:26Z</time>
      </trkpt>
      <trkpt lat="43.18411" lon="6.34495">
        <ele>263.767</ele>
        <time>2012-10-24T08:17:31Z</time>
      </trkpt>
      <trkpt lat="43.1841" lon="6.34502">
        <ele>263.838</ele>
        <time>2012-10-24T08:17:36Z</time>
      </trkpt>
      <trkpt lat="43.18411" lon="6.34508">
        <ele>264.068</ele>
        <time>2012-10-24T08:17:41Z</time>
      </trkpt>
      <trkpt lat="43.1841" lon="6.34514">
        <ele>264.018</ele>
        <time>2012-10-24T08:17:46Z</time>
      </trkpt>
      <trkpt lat="43.18413" lon="6.3452">
        <ele>263.873</ele>
        <time>2012-10-24T08:17:51Z</time>
      </trkpt>
      <trkpt lat="43.18417" lon="6.34525">
        <ele>263.952</ele>
        <time>2012-10-24T08:17:56Z</time>
      </trkpt>
      <trkpt lat="43.18421" lon="6.34528">
        <ele>264.005</ele>
        <time>2012-10-24T08:18:01Z</time>
      </trkpt>
      <trkpt lat="43.18426" lon="6.34531">
        <ele>263.659</ele>
        <time>2012-10-24T08:18:06Z</time>
      </trkpt>
      <trkpt lat="43.1843" lon="6.34534">
        <ele>263.376</ele>
        <time>2012-10-24T08:18:11Z</time>
      </trkpt>
      <trkpt lat="43.18434" lon="6.34538">
        <ele>263.035</ele>
        <time>2012-10-24T08:18:16Z</time>
      </trkpt>
      <trkpt lat="43.18439" lon="6.34542">
        <ele>262.319</ele>
        <time>2012-10-24T08:18:21Z</time>
      </trkpt>
      <trkpt lat="43.18442" lon="6.34546">
        <ele>261.711</ele>
        <time>2012-10-24T08:18:26Z</time>
      </trkpt>
      <trkpt lat="43.18445" lon="6.34549">
        <ele>261.008</ele>
        <time>2012-10-24T08:18:31Z</time>
      </trkpt>
      <trkpt lat="43.18449" lon="6.34557">
        <ele>260.226</ele>
        <time>2012-10-24T08:18:36Z</time>
      </trkpt>
      <trkpt lat="43.18453" lon="6.34563">
        <ele>259.185</ele>
        <time>2012-10-24T08:18:41Z</time>
      </trkpt>
      <trkpt lat="43.18456" lon="6.34567">
        <ele>258.038</ele>
        <time>2012-10-24T08:18:46Z</time>
      </trkpt>
      <trkpt lat="43.18459" lon="6.34571">
        <ele>257.74</ele>
        <time>2012-10-24T08:18:51Z</time>
      </trkpt>
      <trkpt lat="43.18463" lon="6.34576">
        <ele>256.863</ele>
        <time>2012-10-24T08:18:56Z</time>
      </trkpt>
      <trkpt lat="43.18468" lon="6.34581">
        <ele>256.025</ele>
        <time>2012-10-24T08:19:01Z</time>
      </trkpt>
      <trkpt lat="43.18473" lon="6.34587">
        <ele>255.636</ele>
        <time>2012-10-24T08:19:06Z</time>
      </trkpt>
      <trkpt lat="43.18476" lon="6.34592">
        <ele>254.817</ele>
        <time>2012-10-24T08:19:11Z</time>
      </trkpt>
      <trkpt lat="43.18479" lon="6.34597">
        <ele>254.577</ele>
        <time>2012-10-24T08:19:16Z</time>
      </trkpt>
      <trkpt lat="43.18482" lon="6.34601">
        <ele>253.351</ele>
        <time>2012-10-24T08:19:21Z</time>
      </trkpt>
      <trkpt lat="43.18488" lon="6.34604">
        <ele>252.904</ele>
        <time>2012-10-24T08:19:26Z</time>
      </trkpt>
      <trkpt lat="43.18493" lon="6.34606">
        <ele>252.334</ele>
        <time>2012-10-24T08:19:31Z</time>
      </trkpt>
      <trkpt lat="43.18498" lon="6.34608">
        <ele>251.813</ele>
        <time>2012-10-24T08:19:36Z</time>
      </trkpt>
      <trkpt lat="43.185" lon="6.34611">
        <ele>251.467</ele>
        <time>2012-10-24T08:19:41Z</time>
      </trkpt>
      <trkpt lat="43.18504" lon="6.34615">
        <ele>250.656</ele>
        <time>2012-10-24T08:19:46Z</time>
      </trkpt>
      <trkpt lat="43.1851" lon="6.34618">
        <ele>249.81</ele>
        <time>2012-10-24T08:19:51Z</time>
      </trkpt>
      <trkpt lat="43.18514" lon="6.34622">
        <ele>249.041</ele>
        <time>2012-10-24T08:19:56Z</time>
      </trkpt>
      <trkpt lat="43.18518" lon="6.34627">
        <ele>248.307</ele>
        <time>2012-10-24T08:20:01Z</time>
      </trkpt>
      <trkpt lat="43.1852" lon="6.34633">
        <ele>247.617</ele>
        <time>2012-10-24T08:20:06Z</time>
      </trkpt>
      <trkpt lat="43.1852" lon="6.34639">
        <ele>246.605</ele>
        <time>2012-10-24T08:20:11Z</time>
      </trkpt>
      <trkpt lat="43.18519" lon="6.34647">
        <ele>246.555</ele>
        <time>2012-10-24T08:20:16Z</time>
      </trkpt>
      <trkpt lat="43.18517" lon="6.34654">
        <ele>245.963</ele>
        <time>2012-10-24T08:20:21Z</time>
      </trkpt>
      <trkpt lat="43.18514" lon="6.34661">
        <ele>245.609</ele>
        <time>2012-10-24T08:20:26Z</time>
      </trkpt>
      <trkpt lat="43.18512" lon="6.34667">
        <ele>244.985</ele>
        <time>2012-10-24T08:20:31Z</time>
      </trkpt>
      <trkpt lat="43.18511" lon="6.34674">
        <ele>244.182</ele>
        <time>2012-10-24T08:20:36Z</time>
      </trkpt>
      <trkpt lat="43.18511" lon="6.34679">
        <ele>243.334</ele>
        <time>2012-10-24T08:20:41Z</time>
      </trkpt>
      <trkpt lat="43.18511" lon="6.34684">
        <ele>242.639</ele>
        <time>2012-10-24T08:20:46Z</time>
      </trkpt>
      <trkpt lat="43.18514" lon="6.3469">
        <ele>241.962</ele>
        <time>2012-10-24T08:20:51Z</time>
      </trkpt>
      <trkpt lat="43.18517" lon="6.34696">
        <ele>241.479</ele>
        <time>2012-10-24T08:20:56Z</time>
      </trkpt>
      <trkpt lat="43.18522" lon="6.34701">
        <ele>241.13</ele>
        <time>2012-10-24T08:21:01Z</time>
      </trkpt>
      <trkpt lat="43.18527" lon="6.34706">
        <ele>240.623</ele>
        <time>2012-10-24T08:21:06Z</time>
      </trkpt>
      <trkpt lat="43.1853" lon="6.34708">
        <ele>240.377</ele>
        <time>2012-10-24T08:21:11Z</time>
      </trkpt>
      <trkpt lat="43.18535" lon="6.34713">
        <ele>239.896</ele>
        <time>2012-10-24T08:21:16Z</time>
      </trkpt>
      <trkpt lat="43.18539" lon="6.34718">
        <ele>239.756</ele>
        <time>2012-10-24T08:21:21Z</time>
      </trkpt>
      <trkpt lat="43.18544" lon="6.34724">
        <ele>239.487</ele>
        <time>2012-10-24T08:21:26Z</time>
      </trkpt>
      <trkpt lat="43.18548" lon="6.34729">
        <ele>239.106</ele>
        <time>2012-10-24T08:21:31Z</time>
      </trkpt>
      <trkpt lat="43.18549" lon="6.34736">
        <ele>239.082</ele>
        <time>2012-10-24T08:21:36Z</time>
      </trkpt>
      <trkpt lat="43.18548" lon="6.34742">
        <ele>238.768</ele>
        <time>2012-10-24T08:21:41Z</time>
      </trkpt>
      <trkpt lat="43.18544" lon="6.34747">
        <ele>238.443</ele>
        <time>2012-10-24T08:21:46Z</time>
      </trkpt>
      <trkpt lat="43.1854" lon="6.34751">
        <ele>237.941</ele>
        <time>2012-10-24T08:21:51Z</time>
      </trkpt>
      <trkpt lat="43.18537" lon="6.34754">
        <ele>237.404</ele>
        <time>2012-10-24T08:21:56Z</time>
      </trkpt>
      <trkpt lat="43.18532" lon="6.34758">
        <ele>236.448</ele>
        <time>2012-10-24T08:22:01Z</time>
      </trkpt>
      <trkpt lat="43.18528" lon="6.34763">
        <ele>236.054</ele>
        <time>2012-10-24T08:22:06Z</time>
      </trkpt>
      <trkpt lat="43.18523" lon="6.34766">
        <ele>235.277</ele>
        <time>2012-10-24T08:22:11Z</time>
      </trkpt>
      <trkpt lat="43.18518" lon="6.3477">
        <ele>234.432</ele>
        <time>2012-10-24T08:22:16Z</time>
      </trkpt>
      <trkpt lat="43.18516" lon="6.34777">
        <ele>233.985</ele>
        <time>2012-10-24T08:22:21Z</time>
      </trkpt>
      <trkpt lat="43.18514" lon="6.34782">
        <ele>233.166</ele>
        <time>2012-10-24T08:22:26Z</time>
      </trkpt>
      <trkpt lat="43.18512" lon="6.34789">
        <ele>232.561</ele>
        <time>2012-10-24T08:22:31Z</time>
      </trkpt>
      <trkpt lat="43.1851" lon="6.34798">
        <ele>231.964</ele>
        <time>2012-10-24T08:22:36Z</time>
      </trkpt>
      <trkpt lat="43.18511" lon="6.34805">
        <ele>231.689</ele>
        <time>2012-10-24T08:22:41Z</time>
      </trkpt>
      <trkpt lat="43.18511" lon="6.3481">
        <ele>230.796</ele>
        <time>2012-10-24T08:22:46Z</time>
      </trkpt>
      <trkpt lat="43.1851" lon="6.34817">
        <ele>229.771</ele>
        <time>2012-10-24T08:22:51Z</time>
      </trkpt>
      <trkpt lat="43.18509" lon="6.34827">
        <ele>229.493</ele>
        <time>2012-10-24T08:22:56Z</time>
      </trkpt>
      <trkpt lat="43.18509" lon="6.34835">
        <ele>229.005</ele>
        <time>2012-10-24T08:23:01Z</time>
      </trkpt>
      <trkpt lat="43.18508" lon="6.34842">
        <ele>228.154</ele>
        <time>2012-10-24T08:23:06Z</time>
      </trkpt>
      <trkpt lat="43.1851" lon="6.3485">
        <ele>227.192</ele>
        <time>2012-10-24T08:23:11Z</time>
      </trkpt>
      <trkpt lat="43.18513" lon="6.34857">
        <ele>226.441</ele>
        <time>2012-10-24T08:23:16Z</time>
      </trkpt>
      <trkpt lat="43.18514" lon="6.34864">
        <ele>225.646</ele>
        <time>2012-10-24T08:23:21Z</time>
      </trkpt>
      <trkpt lat="43.18516" lon="6.34871">
        <ele>225.355</ele>
        <time>2012-10-24T08:23:26Z</time>
      </trkpt>
      <trkpt lat="43.18518" lon="6.34876">
        <ele>224.597</ele>
        <time>2012-10-24T08:23:31Z</time>
      </trkpt>
      <trkpt lat="43.18522" lon="6.34881">
        <ele>223.997</ele>
        <time>2012-10-24T08:23:36Z</time>
      </trkpt>
      <trkpt lat="43.18527" lon="6.34884">
        <ele>223.675</ele>
        <time>2012-10-24T08:23:41Z</time>
      </trkpt>
      <trkpt lat="43.18532" lon="6.34888">
        <ele>222.864</ele>
        <time>2012-10-24T08:23:46Z</time>
      </trkpt>
      <trkpt lat="43.18535" lon="6.34892">
        <ele>222.261</ele>
        <time>2012-10-24T08:23:51Z</time>
      </trkpt>
      <trkpt lat="43.1854" lon="6.34897">
        <ele>221.836</ele>
        <time>2012-10-24T08:23:56Z</time>
      </trkpt>
      <trkpt lat="43.18543" lon="6.34903">
        <ele>221.389</ele>
        <time>2012-10-24T08:24:01Z</time>
      </trkpt>
      <trkpt lat="43.18546" lon="6.34911">
        <ele>220.959</ele>
        <time>2012-10-24T08:24:06Z</time>
      </trkpt>
      <trkpt lat="43.18549" lon="6.34918">
        <ele>220.647</ele>
        <time>2012-10-24T08:24:11Z</time>
      </trkpt>
      <trkpt lat="43.18553" lon="6.34923">
        <ele>219.994</ele>
        <time>2012-10-24T08:24:16Z</time>
      </trkpt>
      <trkpt lat="43.18555" lon="6.34929">
        <ele>218.919</ele>
        <time>2012-10-24T08:24:21Z</time>
      </trkpt>
      <trkpt lat="43.18556" lon="6.34936">
        <ele>218.271</ele>
        <time>2012-10-24T08:24:26Z</time>
      </trkpt>
      <trkpt lat="43.18558" lon="6.34942">
        <ele>217.513</ele>
        <time>2012-10-24T08:24:31Z</time>
      </trkpt>
      <trkpt lat="43.18558" lon="6.34948">
        <ele>217.106</ele>
        <time>2012-10-24T08:24:36Z</time>
      </trkpt>
      <trkpt lat="43.18558" lon="6.34957">
        <ele>216.477</ele>
        <time>2012-10-24T08:24:41Z</time>
      </trkpt>
      <trkpt lat="43.18558" lon="6.34965">
        <ele>215.843</ele>
        <time>2012-10-24T08:24:46Z</time>
      </trkpt>
      <trkpt lat="43.18561" lon="6.34972">
        <ele>215.36</ele>
        <time>2012-10-24T08:24:51Z</time>
      </trkpt>
      <trkpt lat="43.18562" lon="6.34977">
        <ele>214.85</ele>
        <time>2012-10-24T08:24:56Z</time>
      </trkpt>
      <trkpt lat="43.18565" lon="6.34982">
        <ele>214.332</ele>
        <time>2012-10-24T08:25:01Z</time>
      </trkpt>
      <trkpt lat="43.18568" lon="6.34987">
        <ele>213.589</ele>
        <time>2012-10-24T08:25:06Z</time>
      </trkpt>
      <trkpt lat="43.18572" lon="6.34991">
        <ele>212.717</ele>
        <time>2012-10-24T08:25:11Z</time>
      </trkpt>
      <trkpt lat="43.18576" lon="6.34995">
        <ele>212.094</ele>
        <time>2012-10-24T08:25:16Z</time>
      </trkpt>
      <trkpt lat="43.18581" lon="6.35">
        <ele>211.248</ele>
        <time>2012-10-24T08:25:21Z</time>
      </trkpt>
      <trkpt lat="43.18585" lon="6.35005">
        <ele>210.445</ele>
        <time>2012-10-24T08:25:26Z</time>
      </trkpt>
      <trkpt lat="43.18588" lon="6.35011">
        <ele>209.798</ele>
        <time>2012-10-24T08:25:31Z</time>
      </trkpt>
      <trkpt lat="43.18592" lon="6.35015">
        <ele>209.037</ele>
        <time>2012-10-24T08:25:36Z</time>
      </trkpt>
      <trkpt lat="43.18596" lon="6.35021">
        <ele>208.49</ele>
        <time>2012-10-24T08:25:41Z</time>
      </trkpt>
      <trkpt lat="43.186" lon="6.35026">
        <ele>208.048</ele>
        <time>2012-10-24T08:25:46Z</time>
      </trkpt>
      <trkpt lat="43.18601" lon="6.35033">
        <ele>207.829</ele>
        <time>2012-10-24T08:25:51Z</time>
      </trkpt>
      <trkpt lat="43.18603" lon="6.3504">
        <ele>207.565</ele>
        <time>2012-10-24T08:25:56Z</time>
      </trkpt>
      <trkpt lat="43.18605" lon="6.35048">
        <ele>207.359</ele>
        <time>2012-10-24T08:26:01Z</time>
      </trkpt>
      <trkpt lat="43.18607" lon="6.35056">
        <ele>207.359</ele>
        <time>2012-10-24T08:26:06Z</time>
      </trkpt>
      <trkpt lat="43.18608" lon="6.35063">
        <ele>207.541</ele>
        <time>2012-10-24T08:26:11Z</time>
      </trkpt>
      <trkpt lat="43.18609" lon="6.3507">
        <ele>207.715</ele>
        <time>2012-10-24T08:26:16Z</time>
      </trkpt>
      <trkpt lat="43.1861" lon="6.35077">
        <ele>208.231</ele>
        <time>2012-10-24T08:26:21Z</time>
      </trkpt>
      <trkpt lat="43.18614" lon="6.35081">
        <ele>208.453</ele>
        <time>2012-10-24T08:26:26Z</time>
      </trkpt>
      <trkpt lat="43.18617" lon="6.35086">
        <ele>208.519</ele>
        <time>2012-10-24T08:26:31Z</time>
      </trkpt>
      <trkpt lat="43.18621" lon="6.35091">
        <ele>207.969</ele>
        <time>2012-10-24T08:26:36Z</time>
      </trkpt>
      <trkpt lat="43.18625" lon="6.35098">
        <ele>207.48</ele>
        <time>2012-10-24T08:26:41Z</time>
      </trkpt>
      <trkpt lat="43.18627" lon="6.35103">
        <ele>206.841</ele>
        <time>2012-10-24T08:26:46Z</time>
      </trkpt>
      <trkpt lat="43.1863" lon="6.35109">
        <ele>206.344</ele>
        <time>2012-10-24T08:26:51Z</time>
      </trkpt>
      <trkpt lat="43.18632" lon="6.35116">
        <ele>205.744</ele>
        <time>2012-10-24T08:26:56Z</time>
      </trkpt>
      <trkpt lat="43.18634" lon="6.35123">
        <ele>205.237</ele>
        <time>2012-10-24T08:27:01Z</time>
      </trkpt>
      <trkpt lat="43.18636" lon="6.3513">
        <ele>204.93</ele>
        <time>2012-10-24T08:27:06Z</time>
      </trkpt>
      <trkpt lat="43.18637" lon="6.35137">
        <ele>204.576</ele>
        <time>2012-10-24T08:27:11Z</time>
      </trkpt>
      <trkpt lat="43.18639" lon="6.35144">
        <ele>203.739</ele>
        <time>2012-10-24T08:27:16Z</time>
      </trkpt>
      <trkpt lat="43.18641" lon="6.35151">
        <ele>202.719</ele>
        <time>2012-10-24T08:27:21Z</time>
      </trkpt>
      <trkpt lat="43.18641" lon="6.35158">
        <ele>201.768</ele>
        <time>2012-10-24T08:27:26Z</time>
      </trkpt>
      <trkpt lat="43.18641" lon="6.35165">
        <ele>201.21</ele>
        <time>2012-10-24T08:27:31Z</time>
      </trkpt>
      <trkpt lat="43.18644" lon="6.35173">
        <ele>200.446</ele>
        <time>2012-10-24T08:27:36Z</time>
      </trkpt>
      <trkpt lat="43.18645" lon="6.35181">
        <ele>200.098</ele>
        <time>2012-10-24T08:27:41Z</time>
      </trkpt>
      <trkpt lat="43.18648" lon="6.35188">
        <ele>199.506</ele>
        <time>2012-10-24T08:27:46Z</time>
      </trkpt>
      <trkpt lat="43.18648" lon="6.35194">
        <ele>198.731</ele>
        <time>2012-10-24T08:27:51Z</time>
      </trkpt>
      <trkpt lat="43.1865" lon="6.35199">
        <ele>197.825</ele>
        <time>2012-10-24T08:27:56Z</time>
      </trkpt>
      <trkpt lat="43.18653" lon="6.35206">
        <ele>196.76</ele>
        <time>2012-10-24T08:28:01Z</time>
      </trkpt>
      <trkpt lat="43.18655" lon="6.35214">
        <ele>195.812</ele>
        <time>2012-10-24T08:28:06Z</time>
      </trkpt>
      <trkpt lat="43.18655" lon="6.3522">
        <ele>194.726</ele>
        <time>2012-10-24T08:28:11Z</time>
      </trkpt>
      <trkpt lat="43.18655" lon="6.35225">
        <ele>194.134</ele>
        <time>2012-10-24T08:28:16Z</time>
      </trkpt>
      <trkpt lat="43.18656" lon="6.35231">
        <ele>193.592</ele>
        <time>2012-10-24T08:28:21Z</time>
      </trkpt>
      <trkpt lat="43.18658" lon="6.35238">
        <ele>192.773</ele>
        <time>2012-10-24T08:28:26Z</time>
      </trkpt>
      <trkpt lat="43.18659" lon="6.35244">
        <ele>192.258</ele>
        <time>2012-10-24T08:28:31Z</time>
      </trkpt>
      <trkpt lat="43.18658" lon="6.35252">
        <ele>191.433</ele>
        <time>2012-10-24T08:28:36Z</time>
      </trkpt>
      <trkpt lat="43.18658" lon="6.35258">
        <ele>190.926</ele>
        <time>2012-10-24T08:28:41Z</time>
      </trkpt>
      <trkpt lat="43.18659" lon="6.35264">
        <ele>190.287</ele>
        <time>2012-10-24T08:28:46Z</time>
      </trkpt>
      <trkpt lat="43.18658" lon="6.35271">
        <ele>189.224</ele>
        <time>2012-10-24T08:28:51Z</time>
      </trkpt>
      <trkpt lat="43.18656" lon="6.35279">
        <ele>188.614</ele>
        <time>2012-10-24T08:28:56Z</time>
      </trkpt>
      <trkpt lat="43.18655" lon="6.35285">
        <ele>187.972</ele>
        <time>2012-10-24T08:29:01Z</time>
      </trkpt>
      <trkpt lat="43.18653" lon="6.3529">
        <ele>187.613</ele>
        <time>2012-10-24T08:29:06Z</time>
      </trkpt>
      <trkpt lat="43.18652" lon="6.35297">
        <ele>187.182</ele>
        <time>2012-10-24T08:29:11Z</time>
      </trkpt>
      <trkpt lat="43.18651" lon="6.35304">
        <ele>186.741</ele>
        <time>2012-10-24T08:29:16Z</time>
      </trkpt>
      <trkpt lat="43.18649" lon="6.35312">
        <ele>186.289</ele>
        <time>2012-10-24T08:29:21Z</time>
      </trkpt>
      <trkpt lat="43.18645" lon="6.35316">
        <ele>186.609</ele>
        <time>2012-10-24T08:29:26Z</time>
      </trkpt>
      <trkpt lat="43.18642" lon="6.35324">
        <ele>186.019</ele>
        <time>2012-10-24T08:29:31Z</time>
      </trkpt>
      <trkpt lat="43.18642" lon="6.35331">
        <ele>185.808</ele>
        <time>2012-10-24T08:29:36Z</time>
      </trkpt>
      <trkpt lat="43.18639" lon="6.35339">
        <ele>185.232</ele>
        <time>2012-10-24T08:29:41Z</time>
      </trkpt>
      <trkpt lat="43.18637" lon="6.35346">
        <ele>184.468</ele>
        <time>2012-10-24T08:29:46Z</time>
      </trkpt>
      <trkpt lat="43.18634" lon="6.35352">
        <ele>183.987</ele>
        <time>2012-10-24T08:29:51Z</time>
      </trkpt>
      <trkpt lat="43.18632" lon="6.35359">
        <ele>183.382</ele>
        <time>2012-10-24T08:29:56Z</time>
      </trkpt>
      <trkpt lat="43.1863" lon="6.35367">
        <ele>182.92</ele>
        <time>2012-10-24T08:30:01Z</time>
      </trkpt>
      <trkpt lat="43.18629" lon="6.35374">
        <ele>182.36</ele>
        <time>2012-10-24T08:30:06Z</time>
      </trkpt>
      <trkpt lat="43.1863" lon="6.35381">
        <ele>181.654</ele>
        <time>2012-10-24T08:30:11Z</time>
      </trkpt>
      <trkpt lat="43.18633" lon="6.35386">
        <ele>181.157</ele>
        <time>2012-10-24T08:30:16Z</time>
      </trkpt>
      <trkpt lat="43.18636" lon="6.35387">
        <ele>180.98</ele>
        <time>2012-10-24T08:30:21Z</time>
      </trkpt>
      <trkpt lat="43.18637" lon="6.35389">
        <ele>180.983</ele>
        <time>2012-10-24T08:30:26Z</time>
      </trkpt>
      <trkpt lat="43.18636" lon="6.35389">
        <ele>180.98</ele>
        <time>2012-10-24T08:30:41Z</time>
      </trkpt>
      <trkpt lat="43.18635" lon="6.35389">
        <ele>181.004</ele>
        <time>2012-10-24T08:30:51Z</time>
      </trkpt>
      <trkpt lat="43.18634" lon="6.35389">
        <ele>180.986</ele>
        <time>2012-10-24T08:30:56Z</time>
      </trkpt>
      <trkpt lat="43.18633" lon="6.3539">
        <ele>180.986</ele>
        <time>2012-10-24T08:31:06Z</time>
      </trkpt>
      <trkpt lat="43.18634" lon="6.35389">
        <ele>180.959</ele>
        <time>2012-10-24T08:31:16Z</time>
      </trkpt>
      <trkpt lat="43.18634" lon="6.35391">
        <ele>181.086</ele>
        <time>2012-10-24T08:31:21Z</time>
      </trkpt>
      <trkpt lat="43.18634" lon="6.35392">
        <ele>181.223</ele>
        <time>2012-10-24T08:31:31Z</time>
      </trkpt>
      <trkpt lat="43.18635" lon="6.35392">
        <ele>181.06</ele>
        <time>2012-10-24T08:32:41Z</time>
      </trkpt>
      <trkpt lat="43.18635" lon="6.35393">
        <ele>181.015</ele>
        <time>2012-10-24T08:33:36Z</time>
      </trkpt>
      <trkpt lat="43.18639" lon="6.35392">
        <ele>180.898</ele>
        <time>2012-10-24T08:34:11Z</time>
      </trkpt>
      <trkpt lat="43.18644" lon="6.35389">
        <ele>180.621</ele>
        <time>2012-10-24T08:34:16Z</time>
      </trkpt>
      <trkpt lat="43.18649" lon="6.35386">
        <ele>180.272</ele>
        <time>2012-10-24T08:34:21Z</time>
      </trkpt>
      <trkpt lat="43.18653" lon="6.35383">
        <ele>179.62</ele>
        <time>2012-10-24T08:34:26Z</time>
      </trkpt>
      <trkpt lat="43.18657" lon="6.35379">
        <ele>179.236</ele>
        <time>2012-10-24T08:34:31Z</time>
      </trkpt>
      <trkpt lat="43.1866" lon="6.35374">
        <ele>178.666</ele>
        <time>2012-10-24T08:34:36Z</time>
      </trkpt>
      <trkpt lat="43.1866" lon="6.35372">
        <ele>178.793</ele>
        <time>2012-10-24T08:34:41Z</time>
      </trkpt>
      <trkpt lat="43.18663" lon="6.35369">
        <ele>178.396</ele>
        <time>2012-10-24T08:34:46Z</time>
      </trkpt>
      <trkpt lat="43.18666" lon="6.35364">
        <ele>177.736</ele>
        <time>2012-10-24T08:34:51Z</time>
      </trkpt>
      <trkpt lat="43.18673" lon="6.35359">
        <ele>177.218</ele>
        <time>2012-10-24T08:34:56Z</time>
      </trkpt>
      <trkpt lat="43.18679" lon="6.35355">
        <ele>176.864</ele>
        <time>2012-10-24T08:35:01Z</time>
      </trkpt>
      <trkpt lat="43.18683" lon="6.3535">
        <ele>176.15</ele>
        <time>2012-10-24T08:35:06Z</time>
      </trkpt>
      <trkpt lat="43.18689" lon="6.35346">
        <ele>175.474</ele>
        <time>2012-10-24T08:35:11Z</time>
      </trkpt>
      <trkpt lat="43.18692" lon="6.35339">
        <ele>175.162</ele>
        <time>2012-10-24T08:35:16Z</time>
      </trkpt>
      <trkpt lat="43.18696" lon="6.35335">
        <ele>174.842</ele>
        <time>2012-10-24T08:35:21Z</time>
      </trkpt>
      <trkpt lat="43.18699" lon="6.35329">
        <ele>174.293</ele>
        <time>2012-10-24T08:35:26Z</time>
      </trkpt>
      <trkpt lat="43.18701" lon="6.35322">
        <ele>173.733</ele>
        <time>2012-10-24T08:35:31Z</time>
      </trkpt>
      <trkpt lat="43.18705" lon="6.35317">
        <ele>173.318</ele>
        <time>2012-10-24T08:35:36Z</time>
      </trkpt>
      <trkpt lat="43.1871" lon="6.35311">
        <ele>173.064</ele>
        <time>2012-10-24T08:35:41Z</time>
      </trkpt>
      <trkpt lat="43.18713" lon="6.35303">
        <ele>172.868</ele>
        <time>2012-10-24T08:35:46Z</time>
      </trkpt>
      <trkpt lat="43.18717" lon="6.35298">
        <ele>172.583</ele>
        <time>2012-10-24T08:35:51Z</time>
      </trkpt>
      <trkpt lat="43.1872" lon="6.35291">
        <ele>172.398</ele>
        <time>2012-10-24T08:35:56Z</time>
      </trkpt>
      <trkpt lat="43.18723" lon="6.35285">
        <ele>172.041</ele>
        <time>2012-10-24T08:36:01Z</time>
      </trkpt>
      <trkpt lat="43.18725" lon="6.35278">
        <ele>171.759</ele>
        <time>2012-10-24T08:36:06Z</time>
      </trkpt>
      <trkpt lat="43.18728" lon="6.3527">
        <ele>171.55</ele>
        <time>2012-10-24T08:36:11Z</time>
      </trkpt>
      <trkpt lat="43.1873" lon="6.35263">
        <ele>171.497</ele>
        <time>2012-10-24T08:36:16Z</time>
      </trkpt>
      <trkpt lat="43.18733" lon="6.35256">
        <ele>171.262</ele>
        <time>2012-10-24T08:36:21Z</time>
      </trkpt>
      <trkpt lat="43.18735" lon="6.3525">
        <ele>170.876</ele>
        <time>2012-10-24T08:36:26Z</time>
      </trkpt>
      <trkpt lat="43.18737" lon="6.35243">
        <ele>170.395</ele>
        <time>2012-10-24T08:36:31Z</time>
      </trkpt>
      <trkpt lat="43.1874" lon="6.35237">
        <ele>170.213</ele>
        <time>2012-10-24T08:36:36Z</time>
      </trkpt>
      <trkpt lat="43.18743" lon="6.35232">
        <ele>170.126</ele>
        <time>2012-10-24T08:36:41Z</time>
      </trkpt>
      <trkpt lat="43.18746" lon="6.35225">
        <ele>169.941</ele>
        <time>2012-10-24T08:36:46Z</time>
      </trkpt>
      <trkpt lat="43.18749" lon="6.35219">
        <ele>169.616</ele>
        <time>2012-10-24T08:36:51Z</time>
      </trkpt>
      <trkpt lat="43.18752" lon="6.35213">
        <ele>169.283</ele>
        <time>2012-10-24T08:36:56Z</time>
      </trkpt>
      <trkpt lat="43.18755" lon="6.35207">
        <ele>169.071</ele>
        <time>2012-10-24T08:37:01Z</time>
      </trkpt>
      <trkpt lat="43.18756" lon="6.352">
        <ele>168.598</ele>
        <time>2012-10-24T08:37:06Z</time>
      </trkpt>
      <trkpt lat="43.18756" lon="6.35193">
        <ele>168.551</ele>
        <time>2012-10-24T08:37:11Z</time>
      </trkpt>
      <trkpt lat="43.18757" lon="6.35186">
        <ele>167.948</ele>
        <time>2012-10-24T08:37:16Z</time>
      </trkpt>
      <trkpt lat="43.18757" lon="6.35177">
        <ele>167.935</ele>
        <time>2012-10-24T08:37:21Z</time>
      </trkpt>
      <trkpt lat="43.18756" lon="6.35169">
        <ele>167.38</ele>
        <time>2012-10-24T08:37:26Z</time>
      </trkpt>
      <trkpt lat="43.18758" lon="6.35161">
        <ele>167.069</ele>
        <time>2012-10-24T08:37:31Z</time>
      </trkpt>
      <trkpt lat="43.18761" lon="6.35157">
        <ele>166.839</ele>
        <time>2012-10-24T08:37:36Z</time>
      </trkpt>
      <trkpt lat="43.18763" lon="6.3515">
        <ele>166.648</ele>
        <time>2012-10-24T08:37:41Z</time>
      </trkpt>
      <trkpt lat="43.18764" lon="6.3514">
        <ele>166.559</ele>
        <time>2012-10-24T08:37:46Z</time>
      </trkpt>
      <trkpt lat="43.18765" lon="6.35137">
        <ele>166.577</ele>
        <time>2012-10-24T08:37:51Z</time>
      </trkpt>
      <trkpt lat="43.18766" lon="6.35133">
        <ele>166.308</ele>
        <time>2012-10-24T08:38:01Z</time>
      </trkpt>
      <trkpt lat="43.18766" lon="6.35129">
        <ele>166.273</ele>
        <time>2012-10-24T08:38:06Z</time>
      </trkpt>
      <trkpt lat="43.18765" lon="6.35126">
        <ele>166.212</ele>
        <time>2012-10-24T08:38:11Z</time>
      </trkpt>
      <trkpt lat="43.18764" lon="6.3512">
        <ele>165.909</ele>
        <time>2012-10-24T08:38:16Z</time>
      </trkpt>
      <trkpt lat="43.1876" lon="6.35113">
        <ele>165.774</ele>
        <time>2012-10-24T08:38:21Z</time>
      </trkpt>
      <trkpt lat="43.18754" lon="6.35108">
        <ele>165.444</ele>
        <time>2012-10-24T08:38:26Z</time>
      </trkpt>
      <trkpt lat="43.18751" lon="6.35106">
        <ele>165.1</ele>
        <time>2012-10-24T08:38:31Z</time>
      </trkpt>
      <trkpt lat="43.18747" lon="6.35104">
        <ele>164.955</ele>
        <time>2012-10-24T08:38:36Z</time>
      </trkpt>
      <trkpt lat="43.18745" lon="6.351">
        <ele>164.305</ele>
        <time>2012-10-24T08:38:41Z</time>
      </trkpt>
      <trkpt lat="43.18745" lon="6.35092">
        <ele>164.484</ele>
        <time>2012-10-24T08:38:46Z</time>
      </trkpt>
      <trkpt lat="43.18747" lon="6.35084">
        <ele>164.276</ele>
        <time>2012-10-24T08:38:51Z</time>
      </trkpt>
      <trkpt lat="43.18749" lon="6.35078">
        <ele>163.948</ele>
        <time>2012-10-24T08:38:56Z</time>
      </trkpt>
      <trkpt lat="43.18751" lon="6.3507">
        <ele>163.977</ele>
        <time>2012-10-24T08:39:01Z</time>
      </trkpt>
      <trkpt lat="43.18753" lon="6.35062">
        <ele>163.731</ele>
        <time>2012-10-24T08:39:06Z</time>
      </trkpt>
      <trkpt lat="43.18756" lon="6.35055">
        <ele>163.372</ele>
        <time>2012-10-24T08:39:11Z</time>
      </trkpt>
      <trkpt lat="43.18757" lon="6.35049">
        <ele>163.047</ele>
        <time>2012-10-24T08:39:16Z</time>
      </trkpt>
      <trkpt lat="43.18757" lon="6.35042">
        <ele>163.068</ele>
        <time>2012-10-24T08:39:21Z</time>
      </trkpt>
      <trkpt lat="43.18756" lon="6.35038">
        <ele>163.203</ele>
        <time>2012-10-24T08:39:26Z</time>
      </trkpt>
      <trkpt lat="43.18758" lon="6.35034">
        <ele>162.976</ele>
        <time>2012-10-24T08:39:31Z</time>
      </trkpt>
      <trkpt lat="43.18761" lon="6.35027">
        <ele>162.437</ele>
        <time>2012-10-24T08:39:36Z</time>
      </trkpt>
      <trkpt lat="43.18764" lon="6.3502">
        <ele>162.106</ele>
        <time>2012-10-24T08:39:41Z</time>
      </trkpt>
      <trkpt lat="43.18767" lon="6.35012">
        <ele>161.802</ele>
        <time>2012-10-24T08:39:46Z</time>
      </trkpt>
      <trkpt lat="43.1877" lon="6.35005">
        <ele>161.517</ele>
        <time>2012-10-24T08:39:51Z</time>
      </trkpt>
      <trkpt lat="43.18771" lon="6.34999">
        <ele>161.528</ele>
        <time>2012-10-24T08:39:56Z</time>
      </trkpt>
      <trkpt lat="43.1877" lon="6.34992">
        <ele>161.258</ele>
        <time>2012-10-24T08:40:01Z</time>
      </trkpt>
      <trkpt lat="43.1877" lon="6.34984">
        <ele>160.78</ele>
        <time>2012-10-24T08:40:06Z</time>
      </trkpt>
      <trkpt lat="43.1877" lon="6.34975">
        <ele>160.492</ele>
        <time>2012-10-24T08:40:11Z</time>
      </trkpt>
      <trkpt lat="43.18769" lon="6.34967">
        <ele>160.296</ele>
        <time>2012-10-24T08:40:16Z</time>
      </trkpt>
      <trkpt lat="43.1877" lon="6.3496">
        <ele>159.995</ele>
        <time>2012-10-24T08:40:21Z</time>
      </trkpt>
      <trkpt lat="43.18771" lon="6.34953">
        <ele>159.829</ele>
        <time>2012-10-24T08:40:26Z</time>
      </trkpt>
      <trkpt lat="43.18773" lon="6.34947">
        <ele>159.313</ele>
        <time>2012-10-24T08:40:31Z</time>
      </trkpt>
      <trkpt lat="43.1877" lon="6.34937">
        <ele>159.152</ele>
        <time>2012-10-24T08:40:36Z</time>
      </trkpt>
      <trkpt lat="43.18771" lon="6.34931">
        <ele>158.943</ele>
        <time>2012-10-24T08:40:41Z</time>
      </trkpt>
      <trkpt lat="43.18772" lon="6.34927">
        <ele>158.682</ele>
        <time>2012-10-24T08:40:46Z</time>
      </trkpt>
      <trkpt lat="43.18773" lon="6.34921">
        <ele>158.613</ele>
        <time>2012-10-24T08:40:51Z</time>
      </trkpt>
      <trkpt lat="43.18777" lon="6.34915">
        <ele>158.354</ele>
        <time>2012-10-24T08:40:56Z</time>
      </trkpt>
      <trkpt lat="43.18778" lon="6.34908">
        <ele>158.011</ele>
        <time>2012-10-24T08:41:01Z</time>
      </trkpt>
      <trkpt lat="43.18782" lon="6.34903">
        <ele>157.836</ele>
        <time>2012-10-24T08:41:06Z</time>
      </trkpt>
      <trkpt lat="43.18782" lon="6.34898">
        <ele>157.707</ele>
        <time>2012-10-24T08:41:11Z</time>
      </trkpt>
      <trkpt lat="43.18783" lon="6.34891">
        <ele>157.329</ele>
        <time>2012-10-24T08:41:16Z</time>
      </trkpt>
      <trkpt lat="43.18782" lon="6.34884">
        <ele>157.052</ele>
        <time>2012-10-24T08:41:21Z</time>
      </trkpt>
      <trkpt lat="43.18783" lon="6.34875">
        <ele>157.015</ele>
        <time>2012-10-24T08:41:26Z</time>
      </trkpt>
      <trkpt lat="43.18782" lon="6.34865">
        <ele>156.83</ele>
        <time>2012-10-24T08:41:31Z</time>
      </trkpt>
      <trkpt lat="43.18782" lon="6.34857">
        <ele>156.713</ele>
        <time>2012-10-24T08:41:36Z</time>
      </trkpt>
      <trkpt lat="43.18782" lon="6.34852">
        <ele>156.106</ele>
        <time>2012-10-24T08:41:41Z</time>
      </trkpt>
      <trkpt lat="43.18778" lon="6.34845">
        <ele>155.979</ele>
        <time>2012-10-24T08:41:46Z</time>
      </trkpt>
      <trkpt lat="43.18779" lon="6.34837">
        <ele>155.781</ele>
        <time>2012-10-24T08:41:51Z</time>
      </trkpt>
      <trkpt lat="43.18778" lon="6.34831">
        <ele>155.54</ele>
        <time>2012-10-24T08:41:56Z</time>
      </trkpt>
      <trkpt lat="43.1878" lon="6.34826">
        <ele>155.21</ele>
        <time>2012-10-24T08:42:01Z</time>
      </trkpt>
      <trkpt lat="43.18779" lon="6.34812">
        <ele>155.072</ele>
        <time>2012-10-24T08:42:06Z</time>
      </trkpt>
      <trkpt lat="43.1878" lon="6.34804">
        <ele>154.483</ele>
        <time>2012-10-24T08:42:11Z</time>
      </trkpt>
      <trkpt lat="43.18781" lon="6.34798">
        <ele>154.29</ele>
        <time>2012-10-24T08:42:16Z</time>
      </trkpt>
      <trkpt lat="43.1878" lon="6.34792">
        <ele>154.161</ele>
        <time>2012-10-24T08:42:21Z</time>
      </trkpt>
      <trkpt lat="43.1878" lon="6.34785">
        <ele>153.654</ele>
        <time>2012-10-24T08:42:26Z</time>
      </trkpt>
      <trkpt lat="43.18779" lon="6.34777">
        <ele>153.339</ele>
        <time>2012-10-24T08:42:31Z</time>
      </trkpt>
      <trkpt lat="43.18777" lon="6.34769">
        <ele>152.908</ele>
        <time>2012-10-24T08:42:36Z</time>
      </trkpt>
      <trkpt lat="43.18773" lon="6.34761">
        <ele>152.882</ele>
        <time>2012-10-24T08:42:41Z</time>
      </trkpt>
      <trkpt lat="43.1877" lon="6.34752">
        <ele>152.266</ele>
        <time>2012-10-24T08:42:46Z</time>
      </trkpt>
      <trkpt lat="43.18766" lon="6.34743">
        <ele>152.031</ele>
        <time>2012-10-24T08:42:51Z</time>
      </trkpt>
      <trkpt lat="43.18767" lon="6.34736">
        <ele>151.611</ele>
        <time>2012-10-24T08:42:56Z</time>
      </trkpt>
      <trkpt lat="43.18767" lon="6.34727">
        <ele>151.08</ele>
        <time>2012-10-24T08:43:01Z</time>
      </trkpt>
      <trkpt lat="43.18767" lon="6.34719">
        <ele>150.9</ele>
        <time>2012-10-24T08:43:06Z</time>
      </trkpt>
      <trkpt lat="43.18765" lon="6.34711">
        <ele>150.898</ele>
        <time>2012-10-24T08:43:11Z</time>
      </trkpt>
      <trkpt lat="43.18764" lon="6.34703">
        <ele>150.351</ele>
        <time>2012-10-24T08:43:16Z</time>
      </trkpt>
      <trkpt lat="43.18764" lon="6.34697">
        <ele>150.425</ele>
        <time>2012-10-24T08:43:21Z</time>
      </trkpt>
      <trkpt lat="43.18767" lon="6.34692">
        <ele>150.44</ele>
        <time>2012-10-24T08:43:26Z</time>
      </trkpt>
      <trkpt lat="43.18765" lon="6.3469">
        <ele>150.403</ele>
        <time>2012-10-24T08:43:31Z</time>
      </trkpt>
      <trkpt lat="43.18765" lon="6.34689">
        <ele>150.536</ele>
        <time>2012-10-24T08:43:51Z</time>
      </trkpt>
      <trkpt lat="43.18766" lon="6.34689">
        <ele>150.393</ele>
        <time>2012-10-24T08:43:56Z</time>
      </trkpt>
      <trkpt lat="43.18768" lon="6.34689">
        <ele>150.303</ele>
        <time>2012-10-24T08:44:01Z</time>
      </trkpt>
      <trkpt lat="43.18769" lon="6.34689">
        <ele>150.565</ele>
        <time>2012-10-24T08:44:06Z</time>
      </trkpt>
      <trkpt lat="43.1877" lon="6.34688">
        <ele>150.329</ele>
        <time>2012-10-24T08:44:16Z</time>
      </trkpt>
      <trkpt lat="43.18771" lon="6.34687">
        <ele>151.368</ele>
        <time>2012-10-24T08:44:26Z</time>
      </trkpt>
      <trkpt lat="43.18772" lon="6.34687">
        <ele>149.722</ele>
        <time>2012-10-24T08:44:46Z</time>
      </trkpt>
      <trkpt lat="43.18771" lon="6.34687">
        <ele>150.269</ele>
        <time>2012-10-24T08:45:21Z</time>
      </trkpt>
      <trkpt lat="43.18766" lon="6.34689">
        <ele>150.348</ele>
        <time>2012-10-24T08:45:26Z</time>
      </trkpt>
      <trkpt lat="43.18763" lon="6.34687">
        <ele>150.398</ele>
        <time>2012-10-24T08:45:31Z</time>
      </trkpt>
      <trkpt lat="43.18763" lon="6.34684">
        <ele>150.451</ele>
        <time>2012-10-24T08:45:36Z</time>
      </trkpt>
      <trkpt lat="43.18762" lon="6.34681">
        <ele>150.351</ele>
        <time>2012-10-24T08:45:41Z</time>
      </trkpt>
      <trkpt lat="43.18761" lon="6.34675">
        <ele>150.409</ele>
        <time>2012-10-24T08:45:46Z</time>
      </trkpt>
      <trkpt lat="43.18761" lon="6.3467">
        <ele>150.898</ele>
        <time>2012-10-24T08:45:51Z</time>
      </trkpt>
      <trkpt lat="43.18759" lon="6.34664">
        <ele>151.061</ele>
        <time>2012-10-24T08:45:56Z</time>
      </trkpt>
      <trkpt lat="43.1876" lon="6.3466">
        <ele>151.061</ele>
        <time>2012-10-24T08:46:01Z</time>
      </trkpt>
      <trkpt lat="43.18759" lon="6.34653">
        <ele>151.307</ele>
        <time>2012-10-24T08:46:06Z</time>
      </trkpt>
      <trkpt lat="43.18759" lon="6.34646">
        <ele>151.299</ele>
        <time>2012-10-24T08:46:11Z</time>
      </trkpt>
      <trkpt lat="43.18761" lon="6.34641">
        <ele>151.68</ele>
        <time>2012-10-24T08:46:16Z</time>
      </trkpt>
      <trkpt lat="43.1876" lon="6.34632">
        <ele>151.796</ele>
        <time>2012-10-24T08:46:21Z</time>
      </trkpt>
      <trkpt lat="43.18761" lon="6.34626">
        <ele>151.841</ele>
        <time>2012-10-24T08:46:26Z</time>
      </trkpt>
      <trkpt lat="43.18761" lon="6.34619">
        <ele>152.132</ele>
        <time>2012-10-24T08:46:31Z</time>
      </trkpt>
      <trkpt lat="43.18762" lon="6.34614">
        <ele>152.343</ele>
        <time>2012-10-24T08:46:36Z</time>
      </trkpt>
      <trkpt lat="43.18763" lon="6.34608">
        <ele>152.48</ele>
        <time>2012-10-24T08:46:41Z</time>
      </trkpt>
      <trkpt lat="43.18763" lon="6.346">
        <ele>152.739</ele>
        <time>2012-10-24T08:46:46Z</time>
      </trkpt>
      <trkpt lat="43.18761" lon="6.34594">
        <ele>153.117</ele>
        <time>2012-10-24T08:46:51Z</time>
      </trkpt>
      <trkpt lat="43.18759" lon="6.34586">
        <ele>153.342</ele>
        <time>2012-10-24T08:46:56Z</time>
      </trkpt>
      <trkpt lat="43.18758" lon="6.34579">
        <ele>153.691</ele>
        <time>2012-10-24T08:47:01Z</time>
      </trkpt>
      <trkpt lat="43.1876" lon="6.34573">
        <ele>154.076</ele>
        <time>2012-10-24T08:47:06Z</time>
      </trkpt>
      <trkpt lat="43.18758" lon="6.34565">
        <ele>154.013</ele>
        <time>2012-10-24T08:47:11Z</time>
      </trkpt>
      <trkpt lat="43.18759" lon="6.3456">
        <ele>154.319</ele>
        <time>2012-10-24T08:47:16Z</time>
      </trkpt>
      <trkpt lat="43.1876" lon="6.34554">
        <ele>154.288</ele>
        <time>2012-10-24T08:47:21Z</time>
      </trkpt>
      <trkpt lat="43.1876" lon="6.34549">
        <ele>154.541</ele>
        <time>2012-10-24T08:47:26Z</time>
      </trkpt>
      <trkpt lat="43.18761" lon="6.34542">
        <ele>154.732</ele>
        <time>2012-10-24T08:47:31Z</time>
      </trkpt>
      <trkpt lat="43.18762" lon="6.34535">
        <ele>155.104</ele>
        <time>2012-10-24T08:47:36Z</time>
      </trkpt>
      <trkpt lat="43.18761" lon="6.34527">
        <ele>155.429</ele>
        <time>2012-10-24T08:47:41Z</time>
      </trkpt>
      <trkpt lat="43.18762" lon="6.34521">
        <ele>155.754</ele>
        <time>2012-10-24T08:47:46Z</time>
      </trkpt>
      <trkpt lat="43.18762" lon="6.34514">
        <ele>156.063</ele>
        <time>2012-10-24T08:47:51Z</time>
      </trkpt>
      <trkpt lat="43.18762" lon="6.34506">
        <ele>156.116</ele>
        <time>2012-10-24T08:47:56Z</time>
      </trkpt>
      <trkpt lat="43.18763" lon="6.345">
        <ele>156.251</ele>
        <time>2012-10-24T08:48:01Z</time>
      </trkpt>
      <trkpt lat="43.18765" lon="6.34495">
        <ele>156.452</ele>
        <time>2012-10-24T08:48:06Z</time>
      </trkpt>
      <trkpt lat="43.18766" lon="6.34488">
        <ele>156.734</ele>
        <time>2012-10-24T08:48:11Z</time>
      </trkpt>
      <trkpt lat="43.18767" lon="6.34482">
        <ele>156.946</ele>
        <time>2012-10-24T08:48:16Z</time>
      </trkpt>
      <trkpt lat="43.18768" lon="6.34477">
        <ele>157.059</ele>
        <time>2012-10-24T08:48:21Z</time>
      </trkpt>
      <trkpt lat="43.1877" lon="6.34471">
        <ele>157.213</ele>
        <time>2012-10-24T08:48:26Z</time>
      </trkpt>
      <trkpt lat="43.18771" lon="6.34463">
        <ele>157.488</ele>
        <time>2012-10-24T08:48:31Z</time>
      </trkpt>
      <trkpt lat="43.18774" lon="6.3446">
        <ele>157.744</ele>
        <time>2012-10-24T08:48:36Z</time>
      </trkpt>
      <trkpt lat="43.18775" lon="6.34455">
        <ele>157.982</ele>
        <time>2012-10-24T08:48:41Z</time>
      </trkpt>
      <trkpt lat="43.18777" lon="6.34449">
        <ele>158.169</ele>
        <time>2012-10-24T08:48:46Z</time>
      </trkpt>
      <trkpt lat="43.18779" lon="6.34443">
        <ele>158.304</ele>
        <time>2012-10-24T08:48:51Z</time>
      </trkpt>
      <trkpt lat="43.1878" lon="6.34437">
        <ele>158.592</ele>
        <time>2012-10-24T08:48:56Z</time>
      </trkpt>
      <trkpt lat="43.18782" lon="6.34432">
        <ele>158.669</ele>
        <time>2012-10-24T08:49:01Z</time>
      </trkpt>
      <trkpt lat="43.18783" lon="6.34427">
        <ele>158.846</ele>
        <time>2012-10-24T08:49:06Z</time>
      </trkpt>
      <trkpt lat="43.18785" lon="6.34422">
        <ele>158.965</ele>
        <time>2012-10-24T08:49:11Z</time>
      </trkpt>
      <trkpt lat="43.18787" lon="6.34417">
        <ele>159.189</ele>
        <time>2012-10-24T08:49:16Z</time>
      </trkpt>
      <trkpt lat="43.1879" lon="6.34412">
        <ele>159.459</ele>
        <time>2012-10-24T08:49:21Z</time>
      </trkpt>
      <trkpt lat="43.1879" lon="6.34404">
        <ele>159.599</ele>
        <time>2012-10-24T08:49:26Z</time>
      </trkpt>
      <trkpt lat="43.18793" lon="6.34396">
        <ele>159.448</ele>
        <time>2012-10-24T08:49:31Z</time>
      </trkpt>
      <trkpt lat="43.18797" lon="6.34391">
        <ele>159.847</ele>
        <time>2012-10-24T08:49:36Z</time>
      </trkpt>
      <trkpt lat="43.188" lon="6.34385">
        <ele>159.974</ele>
        <time>2012-10-24T08:49:41Z</time>
      </trkpt>
      <trkpt lat="43.18804" lon="6.34381">
        <ele>160.106</ele>
        <time>2012-10-24T08:49:46Z</time>
      </trkpt>
      <trkpt lat="43.18807" lon="6.34377">
        <ele>160.421</ele>
        <time>2012-10-24T08:49:51Z</time>
      </trkpt>
      <trkpt lat="43.1881" lon="6.34371">
        <ele>160.637</ele>
        <time>2012-10-24T08:49:56Z</time>
      </trkpt>
      <trkpt lat="43.18813" lon="6.34366">
        <ele>160.611</ele>
        <time>2012-10-24T08:50:01Z</time>
      </trkpt>
      <trkpt lat="43.18817" lon="6.34362">
        <ele>160.883</ele>
        <time>2012-10-24T08:50:06Z</time>
      </trkpt>
      <trkpt lat="43.18821" lon="6.34357">
        <ele>161.139</ele>
        <time>2012-10-24T08:50:11Z</time>
      </trkpt>
      <trkpt lat="43.18823" lon="6.3435">
        <ele>161.3</ele>
        <time>2012-10-24T08:50:16Z</time>
      </trkpt>
      <trkpt lat="43.18826" lon="6.34345">
        <ele>161.295</ele>
        <time>2012-10-24T08:50:21Z</time>
      </trkpt>
      <trkpt lat="43.1883" lon="6.34341">
        <ele>161.472</ele>
        <time>2012-10-24T08:50:26Z</time>
      </trkpt>
      <trkpt lat="43.18833" lon="6.34337">
        <ele>161.528</ele>
        <time>2012-10-24T08:50:31Z</time>
      </trkpt>
      <trkpt lat="43.18836" lon="6.34336">
        <ele>161.824</ele>
        <time>2012-10-24T08:50:36Z</time>
      </trkpt>
      <trkpt lat="43.18839" lon="6.34341">
        <ele>161.67</ele>
        <time>2012-10-24T08:50:41Z</time>
      </trkpt>
      <trkpt lat="43.18841" lon="6.34346">
        <ele>161.636</ele>
        <time>2012-10-24T08:50:46Z</time>
      </trkpt>
      <trkpt lat="43.1884" lon="6.34353">
        <ele>161.673</ele>
        <time>2012-10-24T08:50:51Z</time>
      </trkpt>
      <trkpt lat="43.18837" lon="6.34358">
        <ele>161.723</ele>
        <time>2012-10-24T08:50:56Z</time>
      </trkpt>
      <trkpt lat="43.18835" lon="6.34365">
        <ele>162.019</ele>
        <time>2012-10-24T08:51:01Z</time>
      </trkpt>
      <trkpt lat="43.18833" lon="6.34371">
        <ele>161.842</ele>
        <time>2012-10-24T08:51:06Z</time>
      </trkpt>
      <trkpt lat="43.18834" lon="6.34379">
        <ele>162.096</ele>
        <time>2012-10-24T08:51:11Z</time>
      </trkpt>
      <trkpt lat="43.18833" lon="6.34386">
        <ele>162.392</ele>
        <time>2012-10-24T08:51:16Z</time>
      </trkpt>
      <trkpt lat="43.18831" lon="6.34391">
        <ele>162.616</ele>
        <time>2012-10-24T08:51:21Z</time>
      </trkpt>
      <trkpt lat="43.1883" lon="6.34398">
        <ele>162.896</ele>
        <time>2012-10-24T08:51:26Z</time>
      </trkpt>
      <trkpt lat="43.18828" lon="6.34402">
        <ele>162.965</ele>
        <time>2012-10-24T08:51:31Z</time>
      </trkpt>
      <trkpt lat="43.18827" lon="6.34408">
        <ele>163.076</ele>
        <time>2012-10-24T08:51:36Z</time>
      </trkpt>
      <trkpt lat="43.18828" lon="6.34414">
        <ele>163.446</ele>
        <time>2012-10-24T08:51:41Z</time>
      </trkpt>
      <trkpt lat="43.18828" lon="6.34422">
        <ele>163.974</ele>
        <time>2012-10-24T08:51:46Z</time>
      </trkpt>
      <trkpt lat="43.18829" lon="6.34426">
        <ele>164.107</ele>
        <time>2012-10-24T08:51:51Z</time>
      </trkpt>
      <trkpt lat="43.18831" lon="6.3443">
        <ele>164.439</ele>
        <time>2012-10-24T08:51:56Z</time>
      </trkpt>
      <trkpt lat="43.18835" lon="6.34434">
        <ele>164.772</ele>
        <time>2012-10-24T08:52:01Z</time>
      </trkpt>
      <trkpt lat="43.1884" lon="6.34438">
        <ele>164.979</ele>
        <time>2012-10-24T08:52:06Z</time>
      </trkpt>
      <trkpt lat="43.18843" lon="6.3444">
        <ele>165.322</ele>
        <time>2012-10-24T08:52:11Z</time>
      </trkpt>
      <trkpt lat="43.18847" lon="6.34442">
        <ele>165.539</ele>
        <time>2012-10-24T08:52:16Z</time>
      </trkpt>
      <trkpt lat="43.18852" lon="6.34445">
        <ele>165.919</ele>
        <time>2012-10-24T08:52:21Z</time>
      </trkpt>
      <trkpt lat="43.18857" lon="6.34448">
        <ele>166.112</ele>
        <time>2012-10-24T08:52:26Z</time>
      </trkpt>
      <trkpt lat="43.1886" lon="6.3445">
        <ele>166.617</ele>
        <time>2012-10-24T08:52:31Z</time>
      </trkpt>
      <trkpt lat="43.18864" lon="6.34452">
        <ele>166.839</ele>
        <time>2012-10-24T08:52:36Z</time>
      </trkpt>
      <trkpt lat="43.18869" lon="6.34455">
        <ele>167.066</ele>
        <time>2012-10-24T08:52:41Z</time>
      </trkpt>
      <trkpt lat="43.18874" lon="6.34457">
        <ele>167.335</ele>
        <time>2012-10-24T08:52:46Z</time>
      </trkpt>
      <trkpt lat="43.18878" lon="6.34458">
        <ele>167.935</ele>
        <time>2012-10-24T08:52:51Z</time>
      </trkpt>
      <trkpt lat="43.18883" lon="6.34461">
        <ele>168.067</ele>
        <time>2012-10-24T08:52:56Z</time>
      </trkpt>
      <trkpt lat="43.18887" lon="6.34462">
        <ele>168.387</ele>
        <time>2012-10-24T08:53:01Z</time>
      </trkpt>
      <trkpt lat="43.1889" lon="6.34463">
        <ele>168.752</ele>
        <time>2012-10-24T08:53:06Z</time>
      </trkpt>
      <trkpt lat="43.18893" lon="6.34463">
        <ele>168.955</ele>
        <time>2012-10-24T08:53:11Z</time>
      </trkpt>
      <trkpt lat="43.18898" lon="6.34462">
        <ele>169.531</ele>
        <time>2012-10-24T08:53:16Z</time>
      </trkpt>
      <trkpt lat="43.18903" lon="6.3446">
        <ele>169.655</ele>
        <time>2012-10-24T08:53:21Z</time>
      </trkpt>
      <trkpt lat="43.18909" lon="6.34459">
        <ele>169.898</ele>
        <time>2012-10-24T08:53:26Z</time>
      </trkpt>
      <trkpt lat="43.18913" lon="6.34457">
        <ele>170.234</ele>
        <time>2012-10-24T08:53:31Z</time>
      </trkpt>
      <trkpt lat="43.18918" lon="6.34456">
        <ele>170.522</ele>
        <time>2012-10-24T08:53:36Z</time>
      </trkpt>
      <trkpt lat="43.18922" lon="6.34454">
        <ele>170.866</ele>
        <time>2012-10-24T08:53:41Z</time>
      </trkpt>
      <trkpt lat="43.18926" lon="6.34452">
        <ele>171.27</ele>
        <time>2012-10-24T08:53:46Z</time>
      </trkpt>
      <trkpt lat="43.18931" lon="6.3445">
        <ele>171.508</ele>
        <time>2012-10-24T08:53:51Z</time>
      </trkpt>
      <trkpt lat="43.18936" lon="6.34447">
        <ele>171.88</ele>
        <time>2012-10-24T08:53:56Z</time>
      </trkpt>
      <trkpt lat="43.1894" lon="6.34445">
        <ele>172.047</ele>
        <time>2012-10-24T08:54:01Z</time>
      </trkpt>
      <trkpt lat="43.18944" lon="6.34445">
        <ele>172.226</ele>
        <time>2012-10-24T08:54:06Z</time>
      </trkpt>
      <trkpt lat="43.18949" lon="6.34443">
        <ele>172.509</ele>
        <time>2012-10-24T08:54:11Z</time>
      </trkpt>
      <trkpt lat="43.18954" lon="6.34442">
        <ele>172.752</ele>
        <time>2012-10-24T08:54:16Z</time>
      </trkpt>
      <trkpt lat="43.18959" lon="6.34442">
        <ele>173.13</ele>
        <time>2012-10-24T08:54:21Z</time>
      </trkpt>
      <trkpt lat="43.18963" lon="6.3444">
        <ele>173.569</ele>
        <time>2012-10-24T08:54:26Z</time>
      </trkpt>
      <trkpt lat="43.18969" lon="6.34442">
        <ele>173.635</ele>
        <time>2012-10-24T08:54:31Z</time>
      </trkpt>
      <trkpt lat="43.18973" lon="6.34442">
        <ele>174.065</ele>
        <time>2012-10-24T08:54:36Z</time>
      </trkpt>
      <trkpt lat="43.18978" lon="6.34443">
        <ele>174.261</ele>
        <time>2012-10-24T08:54:41Z</time>
      </trkpt>
      <trkpt lat="43.18982" lon="6.34444">
        <ele>174.628</ele>
        <time>2012-10-24T08:54:46Z</time>
      </trkpt>
      <trkpt lat="43.18987" lon="6.34445">
        <ele>175.159</ele>
        <time>2012-10-24T08:54:51Z</time>
      </trkpt>
      <trkpt lat="43.18992" lon="6.34447">
        <ele>175.413</ele>
        <time>2012-10-24T08:54:56Z</time>
      </trkpt>
      <trkpt lat="43.18998" lon="6.34449">
        <ele>175.91</ele>
        <time>2012-10-24T08:55:01Z</time>
      </trkpt>
      <trkpt lat="43.19003" lon="6.34452">
        <ele>176.28</ele>
        <time>2012-10-24T08:55:06Z</time>
      </trkpt>
      <trkpt lat="43.19006" lon="6.34452">
        <ele>176.483</ele>
        <time>2012-10-24T08:55:11Z</time>
      </trkpt>
      <trkpt lat="43.1901" lon="6.34452">
        <ele>176.708</ele>
        <time>2012-10-24T08:55:16Z</time>
      </trkpt>
      <trkpt lat="43.19017" lon="6.34452">
        <ele>176.996</ele>
        <time>2012-10-24T08:55:21Z</time>
      </trkpt>
      <trkpt lat="43.19022" lon="6.3445">
        <ele>177.36</ele>
        <time>2012-10-24T08:55:26Z</time>
      </trkpt>
      <trkpt lat="43.19026" lon="6.34448">
        <ele>177.545</ele>
        <time>2012-10-24T08:55:31Z</time>
      </trkpt>
      <trkpt lat="43.1903" lon="6.34446">
        <ele>178.156</ele>
        <time>2012-10-24T08:55:36Z</time>
      </trkpt>
      <trkpt lat="43.19035" lon="6.34442">
        <ele>178.494</ele>
        <time>2012-10-24T08:55:41Z</time>
      </trkpt>
      <trkpt lat="43.19039" lon="6.34439">
        <ele>178.726</ele>
        <time>2012-10-24T08:55:46Z</time>
      </trkpt>
      <trkpt lat="43.19043" lon="6.34437">
        <ele>178.882</ele>
        <time>2012-10-24T08:55:51Z</time>
      </trkpt>
      <trkpt lat="43.19049" lon="6.34434">
        <ele>178.959</ele>
        <time>2012-10-24T08:55:56Z</time>
      </trkpt>
      <trkpt lat="43.19053" lon="6.34432">
        <ele>179.152</ele>
        <time>2012-10-24T08:56:01Z</time>
      </trkpt>
      <trkpt lat="43.19057" lon="6.34429">
        <ele>179.461</ele>
        <time>2012-10-24T08:56:06Z</time>
      </trkpt>
      <trkpt lat="43.19063" lon="6.34427">
        <ele>179.836</ele>
        <time>2012-10-24T08:56:11Z</time>
      </trkpt>
      <trkpt lat="43.19068" lon="6.34427">
        <ele>179.905</ele>
        <time>2012-10-24T08:56:16Z</time>
      </trkpt>
      <trkpt lat="43.1907" lon="6.34427">
        <ele>180.293</ele>
        <time>2012-10-24T08:56:21Z</time>
      </trkpt>
      <trkpt lat="43.19077" lon="6.34428">
        <ele>180.579</ele>
        <time>2012-10-24T08:56:26Z</time>
      </trkpt>
      <trkpt lat="43.19081" lon="6.3443">
        <ele>181.068</ele>
        <time>2012-10-24T08:56:31Z</time>
      </trkpt>
      <trkpt lat="43.19085" lon="6.34429">
        <ele>181.482</ele>
        <time>2012-10-24T08:56:36Z</time>
      </trkpt>
      <trkpt lat="43.19089" lon="6.34428">
        <ele>181.884</ele>
        <time>2012-10-24T08:56:41Z</time>
      </trkpt>
      <trkpt lat="43.19093" lon="6.34426">
        <ele>182.167</ele>
        <time>2012-10-24T08:56:46Z</time>
      </trkpt>
      <trkpt lat="43.19098" lon="6.34427">
        <ele>182.502</ele>
        <time>2012-10-24T08:56:51Z</time>
      </trkpt>
      <trkpt lat="43.19104" lon="6.34425">
        <ele>183.081</ele>
        <time>2012-10-24T08:56:56Z</time>
      </trkpt>
      <trkpt lat="43.19108" lon="6.34423">
        <ele>183.536</ele>
        <time>2012-10-24T08:57:01Z</time>
      </trkpt>
      <trkpt lat="43.19112" lon="6.34419">
        <ele>183.802</ele>
        <time>2012-10-24T08:57:06Z</time>
      </trkpt>
      <trkpt lat="43.19118" lon="6.3442">
        <ele>184.114</ele>
        <time>2012-10-24T08:57:11Z</time>
      </trkpt>
      <trkpt lat="43.19123" lon="6.34421">
        <ele>184.038</ele>
        <time>2012-10-24T08:57:16Z</time>
      </trkpt>
      <trkpt lat="43.19127" lon="6.34422">
        <ele>184.112</ele>
        <time>2012-10-24T08:57:21Z</time>
      </trkpt>
      <trkpt lat="43.19126" lon="6.34421">
        <ele>183.964</ele>
        <time>2012-10-24T08:57:31Z</time>
      </trkpt>
      <trkpt lat="43.19127" lon="6.34425">
        <ele>183.837</ele>
        <time>2012-10-24T08:57:36Z</time>
      </trkpt>
      <trkpt lat="43.19128" lon="6.34426">
        <ele>184.03</ele>
        <time>2012-10-24T08:57:46Z</time>
      </trkpt>
      <trkpt lat="43.19128" lon="6.34428">
        <ele>184.072</ele>
        <time>2012-10-24T08:57:51Z</time>
      </trkpt>
      <trkpt lat="43.1913" lon="6.34433">
        <ele>183.937</ele>
        <time>2012-10-24T08:57:56Z</time>
      </trkpt>
      <trkpt lat="43.19125" lon="6.34437">
        <ele>184.048</ele>
        <time>2012-10-24T08:58:01Z</time>
      </trkpt>
      <trkpt lat="43.1912" lon="6.34442">
        <ele>184.244</ele>
        <time>2012-10-24T08:58:06Z</time>
      </trkpt>
      <trkpt lat="43.19117" lon="6.34444">
        <ele>184.183</ele>
        <time>2012-10-24T08:58:11Z</time>
      </trkpt>
      <trkpt lat="43.19113" lon="6.34448">
        <ele>184.304</ele>
        <time>2012-10-24T08:58:16Z</time>
      </trkpt>
      <trkpt lat="43.19108" lon="6.34451">
        <ele>184.312</ele>
        <time>2012-10-24T08:58:21Z</time>
      </trkpt>
      <trkpt lat="43.19103" lon="6.34453">
        <ele>184.444</ele>
        <time>2012-10-24T08:58:26Z</time>
      </trkpt>
      <trkpt lat="43.19099" lon="6.34457">
        <ele>184.542</ele>
        <time>2012-10-24T08:58:31Z</time>
      </trkpt>
      <trkpt lat="43.19095" lon="6.34459">
        <ele>185.005</ele>
        <time>2012-10-24T08:58:36Z</time>
      </trkpt>
      <trkpt lat="43.1909" lon="6.3446">
        <ele>185.105</ele>
        <time>2012-10-24T08:58:41Z</time>
      </trkpt>
      <trkpt lat="43.19085" lon="6.34463">
        <ele>185.134</ele>
        <time>2012-10-24T08:58:46Z</time>
      </trkpt>
      <trkpt lat="43.19081" lon="6.34463">
        <ele>185.343</ele>
        <time>2012-10-24T08:58:51Z</time>
      </trkpt>
      <trkpt lat="43.19076" lon="6.34465">
        <ele>185.232</ele>
        <time>2012-10-24T08:58:56Z</time>
      </trkpt>
      <trkpt lat="43.1907" lon="6.34469">
        <ele>185.435</ele>
        <time>2012-10-24T08:59:01Z</time>
      </trkpt>
      <trkpt lat="43.19065" lon="6.34474">
        <ele>185.702</ele>
        <time>2012-10-24T08:59:06Z</time>
      </trkpt>
      <trkpt lat="43.19063" lon="6.34478">
        <ele>186.051</ele>
        <time>2012-10-24T08:59:11Z</time>
      </trkpt>
      <trkpt lat="43.19059" lon="6.34483">
        <ele>186.392</ele>
        <time>2012-10-24T08:59:16Z</time>
      </trkpt>
      <trkpt lat="43.19055" lon="6.34489">
        <ele>186.595</ele>
        <time>2012-10-24T08:59:21Z</time>
      </trkpt>
      <trkpt lat="43.19053" lon="6.34495">
        <ele>186.86</ele>
        <time>2012-10-24T08:59:26Z</time>
      </trkpt>
      <trkpt lat="43.19046" lon="6.34499">
        <ele>187.333</ele>
        <time>2012-10-24T08:59:31Z</time>
      </trkpt>
      <trkpt lat="43.19043" lon="6.34505">
        <ele>187.721</ele>
        <time>2012-10-24T08:59:36Z</time>
      </trkpt>
      <trkpt lat="43.19039" lon="6.34511">
        <ele>188.144</ele>
        <time>2012-10-24T08:59:41Z</time>
      </trkpt>
      <trkpt lat="43.19034" lon="6.34514">
        <ele>188.257</ele>
        <time>2012-10-24T08:59:46Z</time>
      </trkpt>
      <trkpt lat="43.19028" lon="6.34518">
        <ele>188.738</ele>
        <time>2012-10-24T08:59:51Z</time>
      </trkpt>
      <trkpt lat="43.19025" lon="6.34518">
        <ele>188.897</ele>
        <time>2012-10-24T08:59:56Z</time>
      </trkpt>
      <trkpt lat="43.19018" lon="6.34521">
        <ele>189.15</ele>
        <time>2012-10-24T09:00:01Z</time>
      </trkpt>
      <trkpt lat="43.19013" lon="6.34522">
        <ele>189.449</ele>
        <time>2012-10-24T09:00:06Z</time>
      </trkpt>
      <trkpt lat="43.19007" lon="6.34523">
        <ele>189.758</ele>
        <time>2012-10-24T09:00:11Z</time>
      </trkpt>
      <trkpt lat="43.19001" lon="6.34525">
        <ele>189.964</ele>
        <time>2012-10-24T09:00:16Z</time>
      </trkpt>
      <trkpt lat="43.18997" lon="6.34523">
        <ele>190.25</ele>
        <time>2012-10-24T09:00:21Z</time>
      </trkpt>
      <trkpt lat="43.18991" lon="6.34526">
        <ele>190.633</ele>
        <time>2012-10-24T09:00:26Z</time>
      </trkpt>
      <trkpt lat="43.18986" lon="6.34531">
        <ele>191.058</ele>
        <time>2012-10-24T09:00:31Z</time>
      </trkpt>
      <trkpt lat="43.18981" lon="6.34533">
        <ele>191.296</ele>
        <time>2012-10-24T09:00:36Z</time>
      </trkpt>
      <trkpt lat="43.18976" lon="6.34537">
        <ele>191.682</ele>
        <time>2012-10-24T09:00:41Z</time>
      </trkpt>
      <trkpt lat="43.18971" lon="6.34541">
        <ele>192.2</ele>
        <time>2012-10-24T09:00:46Z</time>
      </trkpt>
      <trkpt lat="43.18966" lon="6.34545">
        <ele>192.884</ele>
        <time>2012-10-24T09:00:51Z</time>
      </trkpt>
      <trkpt lat="43.18962" lon="6.34553">
        <ele>193.225</ele>
        <time>2012-10-24T09:00:56Z</time>
      </trkpt>
      <trkpt lat="43.18958" lon="6.34559">
        <ele>193.489</ele>
        <time>2012-10-24T09:01:01Z</time>
      </trkpt>
      <trkpt lat="43.18957" lon="6.34564">
        <ele>193.883</ele>
        <time>2012-10-24T09:01:06Z</time>
      </trkpt>
      <trkpt lat="43.18956" lon="6.3457">
        <ele>194.327</ele>
        <time>2012-10-24T09:01:11Z</time>
      </trkpt>
      <trkpt lat="43.18955" lon="6.34575">
        <ele>194.718</ele>
        <time>2012-10-24T09:01:16Z</time>
      </trkpt>
      <trkpt lat="43.18952" lon="6.3458">
        <ele>194.953</ele>
        <time>2012-10-24T09:01:21Z</time>
      </trkpt>
      <trkpt lat="43.18951" lon="6.34587">
        <ele>194.966</ele>
        <time>2012-10-24T09:01:26Z</time>
      </trkpt>
      <trkpt lat="43.18949" lon="6.34592">
        <ele>195.584</ele>
        <time>2012-10-24T09:01:31Z</time>
      </trkpt>
      <trkpt lat="43.18947" lon="6.34598">
        <ele>196.258</ele>
        <time>2012-10-24T09:01:36Z</time>
      </trkpt>
      <trkpt lat="43.18944" lon="6.34603">
        <ele>196.435</ele>
        <time>2012-10-24T09:01:41Z</time>
      </trkpt>
      <trkpt lat="43.18942" lon="6.34611">
        <ele>197.104</ele>
        <time>2012-10-24T09:01:46Z</time>
      </trkpt>
      <trkpt lat="43.1894" lon="6.34618">
        <ele>197.31</ele>
        <time>2012-10-24T09:01:51Z</time>
      </trkpt>
      <trkpt lat="43.18944" lon="6.34625">
        <ele>197.83</ele>
        <time>2012-10-24T09:01:56Z</time>
      </trkpt>
      <trkpt lat="43.18949" lon="6.34631">
        <ele>198.354</ele>
        <time>2012-10-24T09:02:01Z</time>
      </trkpt>
      <trkpt lat="43.18954" lon="6.34632">
        <ele>198.795</ele>
        <time>2012-10-24T09:02:06Z</time>
      </trkpt>
      <trkpt lat="43.1896" lon="6.34634">
        <ele>199.334</ele>
        <time>2012-10-24T09:02:11Z</time>
      </trkpt>
      <trkpt lat="43.18963" lon="6.34635">
        <ele>199.714</ele>
        <time>2012-10-24T09:02:16Z</time>
      </trkpt>
      <trkpt lat="43.18968" lon="6.34636">
        <ele>199.931</ele>
        <time>2012-10-24T09:02:21Z</time>
      </trkpt>
      <trkpt lat="43.18973" lon="6.34636">
        <ele>200.074</ele>
        <time>2012-10-24T09:02:26Z</time>
      </trkpt>
      <trkpt lat="43.1898" lon="6.34639">
        <ele>200.586</ele>
        <time>2012-10-24T09:02:31Z</time>
      </trkpt>
      <trkpt lat="43.18985" lon="6.3464">
        <ele>201.083</ele>
        <time>2012-10-24T09:02:36Z</time>
      </trkpt>
      <trkpt lat="43.18989" lon="6.34643">
        <ele>201.585</ele>
        <time>2012-10-24T09:02:41Z</time>
      </trkpt>
      <trkpt lat="43.18993" lon="6.34644">
        <ele>202.034</ele>
        <time>2012-10-24T09:02:46Z</time>
      </trkpt>
      <trkpt lat="43.18997" lon="6.34644">
        <ele>202.526</ele>
        <time>2012-10-24T09:02:51Z</time>
      </trkpt>
      <trkpt lat="43.19002" lon="6.34647">
        <ele>202.682</ele>
        <time>2012-10-24T09:02:56Z</time>
      </trkpt>
      <trkpt lat="43.19007" lon="6.34647">
        <ele>203.208</ele>
        <time>2012-10-24T09:03:01Z</time>
      </trkpt>
      <trkpt lat="43.19012" lon="6.34649">
        <ele>203.356</ele>
        <time>2012-10-24T09:03:06Z</time>
      </trkpt>
      <trkpt lat="43.19018" lon="6.3465">
        <ele>203.765</ele>
        <time>2012-10-24T09:03:11Z</time>
      </trkpt>
      <trkpt lat="43.19023" lon="6.34654">
        <ele>204.278</ele>
        <time>2012-10-24T09:03:16Z</time>
      </trkpt>
      <trkpt lat="43.19028" lon="6.34655">
        <ele>204.455</ele>
        <time>2012-10-24T09:03:21Z</time>
      </trkpt>
      <trkpt lat="43.19032" lon="6.34658">
        <ele>204.856</ele>
        <time>2012-10-24T09:03:26Z</time>
      </trkpt>
      <trkpt lat="43.19036" lon="6.34659">
        <ele>205.203</ele>
        <time>2012-10-24T09:03:31Z</time>
      </trkpt>
      <trkpt lat="43.19042" lon="6.34662">
        <ele>205.504</ele>
        <time>2012-10-24T09:03:36Z</time>
      </trkpt>
      <trkpt lat="43.19044" lon="6.34665">
        <ele>205.934</ele>
        <time>2012-10-24T09:03:41Z</time>
      </trkpt>
      <trkpt lat="43.19047" lon="6.34669">
        <ele>206.436</ele>
        <time>2012-10-24T09:03:46Z</time>
      </trkpt>
      <trkpt lat="43.1905" lon="6.34674">
        <ele>207.065</ele>
        <time>2012-10-24T09:03:51Z</time>
      </trkpt>
      <trkpt lat="43.19054" lon="6.34679">
        <ele>207.071</ele>
        <time>2012-10-24T09:03:56Z</time>
      </trkpt>
      <trkpt lat="43.19057" lon="6.34686">
        <ele>207.929</ele>
        <time>2012-10-24T09:04:01Z</time>
      </trkpt>
      <trkpt lat="43.19059" lon="6.34692">
        <ele>208.339</ele>
        <time>2012-10-24T09:04:06Z</time>
      </trkpt>
      <trkpt lat="43.19062" lon="6.34699">
        <ele>208.828</ele>
        <time>2012-10-24T09:04:11Z</time>
      </trkpt>
      <trkpt lat="43.19063" lon="6.34702">
        <ele>208.902</ele>
        <time>2012-10-24T09:04:16Z</time>
      </trkpt>
      <trkpt lat="43.19066" lon="6.34706">
        <ele>209.132</ele>
        <time>2012-10-24T09:04:21Z</time>
      </trkpt>
      <trkpt lat="43.19069" lon="6.3471">
        <ele>209.739</ele>
        <time>2012-10-24T09:04:26Z</time>
      </trkpt>
      <trkpt lat="43.19073" lon="6.34714">
        <ele>210.13</ele>
        <time>2012-10-24T09:04:31Z</time>
      </trkpt>
      <trkpt lat="43.19076" lon="6.34719">
        <ele>210.593</ele>
        <time>2012-10-24T09:04:36Z</time>
      </trkpt>
      <trkpt lat="43.19081" lon="6.34725">
        <ele>211.232</ele>
        <time>2012-10-24T09:04:41Z</time>
      </trkpt>
      <trkpt lat="43.19083" lon="6.34732">
        <ele>211.127</ele>
        <time>2012-10-24T09:04:46Z</time>
      </trkpt>
      <trkpt lat="43.19082" lon="6.34739">
        <ele>211.462</ele>
        <time>2012-10-24T09:04:51Z</time>
      </trkpt>
      <trkpt lat="43.19077" lon="6.34746">
        <ele>211.94</ele>
        <time>2012-10-24T09:04:56Z</time>
      </trkpt>
      <trkpt lat="43.19072" lon="6.34752">
        <ele>212.305</ele>
        <time>2012-10-24T09:05:01Z</time>
      </trkpt>
      <trkpt lat="43.19067" lon="6.34755">
        <ele>212.686</ele>
        <time>2012-10-24T09:05:06Z</time>
      </trkpt>
      <trkpt lat="43.19063" lon="6.34757">
        <ele>213.05</ele>
        <time>2012-10-24T09:05:11Z</time>
      </trkpt>
      <trkpt lat="43.19057" lon="6.34762">
        <ele>213.428</ele>
        <time>2012-10-24T09:05:16Z</time>
      </trkpt>
      <trkpt lat="43.19053" lon="6.3477">
        <ele>213.793</ele>
        <time>2012-10-24T09:05:21Z</time>
      </trkpt>
      <trkpt lat="43.1905" lon="6.34777">
        <ele>214.2</ele>
        <time>2012-10-24T09:05:26Z</time>
      </trkpt>
      <trkpt lat="43.19047" lon="6.34784">
        <ele>214.805</ele>
        <time>2012-10-24T09:05:31Z</time>
      </trkpt>
      <trkpt lat="43.19044" lon="6.3479">
        <ele>214.887</ele>
        <time>2012-10-24T09:05:36Z</time>
      </trkpt>
      <trkpt lat="43.19041" lon="6.34796">
        <ele>215.241</ele>
        <time>2012-10-24T09:05:41Z</time>
      </trkpt>
      <trkpt lat="43.1904" lon="6.34801">
        <ele>215.447</ele>
        <time>2012-10-24T09:05:46Z</time>
      </trkpt>
      <trkpt lat="43.19038" lon="6.34807">
        <ele>216.105</ele>
        <time>2012-10-24T09:05:51Z</time>
      </trkpt>
      <trkpt lat="43.19039" lon="6.34815">
        <ele>216.477</ele>
        <time>2012-10-24T09:05:56Z</time>
      </trkpt>
      <trkpt lat="43.19042" lon="6.34824">
        <ele>216.707</ele>
        <time>2012-10-24T09:06:01Z</time>
      </trkpt>
      <trkpt lat="43.19045" lon="6.34831">
        <ele>217.104</ele>
        <time>2012-10-24T09:06:06Z</time>
      </trkpt>
      <trkpt lat="43.19047" lon="6.34838">
        <ele>217.402</ele>
        <time>2012-10-24T09:06:11Z</time>
      </trkpt>
      <trkpt lat="43.1905" lon="6.34845">
        <ele>217.751</ele>
        <time>2012-10-24T09:06:16Z</time>
      </trkpt>
      <trkpt lat="43.19054" lon="6.34851">
        <ele>218.121</ele>
        <time>2012-10-24T09:06:21Z</time>
      </trkpt>
      <trkpt lat="43.19059" lon="6.34854">
        <ele>218.409</ele>
        <time>2012-10-24T09:06:26Z</time>
      </trkpt>
      <trkpt lat="43.19064" lon="6.34857">
        <ele>218.919</ele>
        <time>2012-10-24T09:06:31Z</time>
      </trkpt>
      <trkpt lat="43.19068" lon="6.3486">
        <ele>219.344</ele>
        <time>2012-10-24T09:06:36Z</time>
      </trkpt>
      <trkpt lat="43.19072" lon="6.34864">
        <ele>219.873</ele>
        <time>2012-10-24T09:06:41Z</time>
      </trkpt>
      <trkpt lat="43.19078" lon="6.34868">
        <ele>220.309</ele>
        <time>2012-10-24T09:06:46Z</time>
      </trkpt>
      <trkpt lat="43.19081" lon="6.34871">
        <ele>220.586</ele>
        <time>2012-10-24T09:06:51Z</time>
      </trkpt>
      <trkpt lat="43.19086" lon="6.34873">
        <ele>220.835</ele>
        <time>2012-10-24T09:06:56Z</time>
      </trkpt>
      <trkpt lat="43.1909" lon="6.34877">
        <ele>221.157</ele>
        <time>2012-10-24T09:07:01Z</time>
      </trkpt>
      <trkpt lat="43.19096" lon="6.34879">
        <ele>221.424</ele>
        <time>2012-10-24T09:07:06Z</time>
      </trkpt>
      <trkpt lat="43.19099" lon="6.34882">
        <ele>221.902</ele>
        <time>2012-10-24T09:07:11Z</time>
      </trkpt>
      <trkpt lat="43.19101" lon="6.34885">
        <ele>222.367</ele>
        <time>2012-10-24T09:07:16Z</time>
      </trkpt>
      <trkpt lat="43.19106" lon="6.3489">
        <ele>222.766</ele>
        <time>2012-10-24T09:07:21Z</time>
      </trkpt>
      <trkpt lat="43.19111" lon="6.34896">
        <ele>223.036</ele>
        <time>2012-10-24T09:07:26Z</time>
      </trkpt>
      <trkpt lat="43.19115" lon="6.34898">
        <ele>223.382</ele>
        <time>2012-10-24T09:07:31Z</time>
      </trkpt>
      <trkpt lat="43.19121" lon="6.34902">
        <ele>223.873</ele>
        <time>2012-10-24T09:07:36Z</time>
      </trkpt>
      <trkpt lat="43.19125" lon="6.34908">
        <ele>224.246</ele>
        <time>2012-10-24T09:07:41Z</time>
      </trkpt>
      <trkpt lat="43.19127" lon="6.34912">
        <ele>224.909</ele>
        <time>2012-10-24T09:07:46Z</time>
      </trkpt>
      <trkpt lat="43.19132" lon="6.34917">
        <ele>225.234</ele>
        <time>2012-10-24T09:07:51Z</time>
      </trkpt>
      <trkpt lat="43.19136" lon="6.34923">
        <ele>225.62</ele>
        <time>2012-10-24T09:07:56Z</time>
      </trkpt>
      <trkpt lat="43.1914" lon="6.34926">
        <ele>225.905</ele>
        <time>2012-10-24T09:08:01Z</time>
      </trkpt>
      <trkpt lat="43.19145" lon="6.34929">
        <ele>226.397</ele>
        <time>2012-10-24T09:08:06Z</time>
      </trkpt>
      <trkpt lat="43.1915" lon="6.34933">
        <ele>226.703</ele>
        <time>2012-10-24T09:08:11Z</time>
      </trkpt>
      <trkpt lat="43.19155" lon="6.34937">
        <ele>227.239</ele>
        <time>2012-10-24T09:08:16Z</time>
      </trkpt>
      <trkpt lat="43.1916" lon="6.34939">
        <ele>227.353</ele>
        <time>2012-10-24T09:08:21Z</time>
      </trkpt>
      <trkpt lat="43.19162" lon="6.34943">
        <ele>227.889</ele>
        <time>2012-10-24T09:08:26Z</time>
      </trkpt>
      <trkpt lat="43.19166" lon="6.34949">
        <ele>228.151</ele>
        <time>2012-10-24T09:08:31Z</time>
      </trkpt>
      <trkpt lat="43.1917" lon="6.34953">
        <ele>228.431</ele>
        <time>2012-10-24T09:08:36Z</time>
      </trkpt>
      <trkpt lat="43.19173" lon="6.34957">
        <ele>228.798</ele>
        <time>2012-10-24T09:08:41Z</time>
      </trkpt>
      <trkpt lat="43.19177" lon="6.34962">
        <ele>228.735</ele>
        <time>2012-10-24T09:08:46Z</time>
      </trkpt>
      <trkpt lat="43.19182" lon="6.34965">
        <ele>229.364</ele>
        <time>2012-10-24T09:08:51Z</time>
      </trkpt>
      <trkpt lat="43.19186" lon="6.3497">
        <ele>229.565</ele>
        <time>2012-10-24T09:08:56Z</time>
      </trkpt>
      <trkpt lat="43.19191" lon="6.34973">
        <ele>230.133</ele>
        <time>2012-10-24T09:09:01Z</time>
      </trkpt>
      <trkpt lat="43.19195" lon="6.34974">
        <ele>230.376</ele>
        <time>2012-10-24T09:09:06Z</time>
      </trkpt>
      <trkpt lat="43.19201" lon="6.34976">
        <ele>230.997</ele>
        <time>2012-10-24T09:09:11Z</time>
      </trkpt>
      <trkpt lat="43.19207" lon="6.34979">
        <ele>231.293</ele>
        <time>2012-10-24T09:09:16Z</time>
      </trkpt>
      <trkpt lat="43.19211" lon="6.34985">
        <ele>231.454</ele>
        <time>2012-10-24T09:09:21Z</time>
      </trkpt>
      <trkpt lat="43.19214" lon="6.34988">
        <ele>231.911</ele>
        <time>2012-10-24T09:09:26Z</time>
      </trkpt>
      <trkpt lat="43.19217" lon="6.34992">
        <ele>232.212</ele>
        <time>2012-10-24T09:09:31Z</time>
      </trkpt>
      <trkpt lat="43.19223" lon="6.34995">
        <ele>232.632</ele>
        <time>2012-10-24T09:09:36Z</time>
      </trkpt>
      <trkpt lat="43.19232" lon="6.34995">
        <ele>233.169</ele>
        <time>2012-10-24T09:09:41Z</time>
      </trkpt>
      <trkpt lat="43.19234" lon="6.35002">
        <ele>232.997</ele>
        <time>2012-10-24T09:09:46Z</time>
      </trkpt>
      <trkpt lat="43.19239" lon="6.35004">
        <ele>233.803</ele>
        <time>2012-10-24T09:09:51Z</time>
      </trkpt>
      <trkpt lat="43.19244" lon="6.35009">
        <ele>234.184</ele>
        <time>2012-10-24T09:09:56Z</time>
      </trkpt>
      <trkpt lat="43.19248" lon="6.35012">
        <ele>234.514</ele>
        <time>2012-10-24T09:10:01Z</time>
      </trkpt>
      <trkpt lat="43.19253" lon="6.35015">
        <ele>234.849</ele>
        <time>2012-10-24T09:10:06Z</time>
      </trkpt>
      <trkpt lat="43.19257" lon="6.35019">
        <ele>235.164</ele>
        <time>2012-10-24T09:10:11Z</time>
      </trkpt>
      <trkpt lat="43.19264" lon="6.35021">
        <ele>235.555</ele>
        <time>2012-10-24T09:10:16Z</time>
      </trkpt>
      <trkpt lat="43.1927" lon="6.35024">
        <ele>236.112</ele>
        <time>2012-10-24T09:10:21Z</time>
      </trkpt>
      <trkpt lat="43.19274" lon="6.35026">
        <ele>236.157</ele>
        <time>2012-10-24T09:10:26Z</time>
      </trkpt>
      <trkpt lat="43.19278" lon="6.3503">
        <ele>236.546</ele>
        <time>2012-10-24T09:10:31Z</time>
      </trkpt>
      <trkpt lat="43.19284" lon="6.35031">
        <ele>236.786</ele>
        <time>2012-10-24T09:10:36Z</time>
      </trkpt>
      <trkpt lat="43.19286" lon="6.35036">
        <ele>236.908</ele>
        <time>2012-10-24T09:10:41Z</time>
      </trkpt>
      <trkpt lat="43.19289" lon="6.3504">
        <ele>237.008</ele>
        <time>2012-10-24T09:10:45Z</time>
      </trkpt>
      <trkpt lat="43.19296" lon="6.35044">
        <ele>237.592</ele>
        <time>2012-10-24T09:10:51Z</time>
      </trkpt>
      <trkpt lat="43.19301" lon="6.35046">
        <ele>238.136</ele>
        <time>2012-10-24T09:10:56Z</time>
      </trkpt>
      <trkpt lat="43.19304" lon="6.35053">
        <ele>238.726</ele>
        <time>2012-10-24T09:11:01Z</time>
      </trkpt>
      <trkpt lat="43.19307" lon="6.35059">
        <ele>238.985</ele>
        <time>2012-10-24T09:11:06Z</time>
      </trkpt>
      <trkpt lat="43.19309" lon="6.35066">
        <ele>239.553</ele>
        <time>2012-10-24T09:11:11Z</time>
      </trkpt>
      <trkpt lat="43.1931" lon="6.35073">
        <ele>239.746</ele>
        <time>2012-10-24T09:11:16Z</time>
      </trkpt>
      <trkpt lat="43.1931" lon="6.35081">
        <ele>240.24</ele>
        <time>2012-10-24T09:11:21Z</time>
      </trkpt>
      <trkpt lat="43.19311" lon="6.3509">
        <ele>240.478</ele>
        <time>2012-10-24T09:11:26Z</time>
      </trkpt>
      <trkpt lat="43.19311" lon="6.35098">
        <ele>241.024</ele>
        <time>2012-10-24T09:11:31Z</time>
      </trkpt>
      <trkpt lat="43.19313" lon="6.35106">
        <ele>241.431</ele>
        <time>2012-10-24T09:11:36Z</time>
      </trkpt>
      <trkpt lat="43.19315" lon="6.35117">
        <ele>241.764</ele>
        <time>2012-10-24T09:11:41Z</time>
      </trkpt>
      <trkpt lat="43.19317" lon="6.35124">
        <ele>242.264</ele>
        <time>2012-10-24T09:11:46Z</time>
      </trkpt>
      <trkpt lat="43.1932" lon="6.3513">
        <ele>242.602</ele>
        <time>2012-10-24T09:11:51Z</time>
      </trkpt>
      <trkpt lat="43.19324" lon="6.35132">
        <ele>242.948</ele>
        <time>2012-10-24T09:11:56Z</time>
      </trkpt>
      <trkpt lat="43.19328" lon="6.35135">
        <ele>243.442</ele>
        <time>2012-10-24T09:12:01Z</time>
      </trkpt>
      <trkpt lat="43.19331" lon="6.35141">
        <ele>243.812</ele>
        <time>2012-10-24T09:12:06Z</time>
      </trkpt>
      <trkpt lat="43.19334" lon="6.35146">
        <ele>244.222</ele>
        <time>2012-10-24T09:12:11Z</time>
      </trkpt>
      <trkpt lat="43.19337" lon="6.3515">
        <ele>244.536</ele>
        <time>2012-10-24T09:12:16Z</time>
      </trkpt>
      <trkpt lat="43.1934" lon="6.35153">
        <ele>244.948</ele>
        <time>2012-10-24T09:12:21Z</time>
      </trkpt>
      <trkpt lat="43.19345" lon="6.35157">
        <ele>245.538</ele>
        <time>2012-10-24T09:12:26Z</time>
      </trkpt>
      <trkpt lat="43.19345" lon="6.35164">
        <ele>245.58</ele>
        <time>2012-10-24T09:12:31Z</time>
      </trkpt>
      <trkpt lat="43.19349" lon="6.35168">
        <ele>245.989</ele>
        <time>2012-10-24T09:12:36Z</time>
      </trkpt>
      <trkpt lat="43.19352" lon="6.35174">
        <ele>246.137</ele>
        <time>2012-10-24T09:12:41Z</time>
      </trkpt>
      <trkpt lat="43.19353" lon="6.35176">
        <ele>246.42</ele>
        <time>2012-10-24T09:12:46Z</time>
      </trkpt>
      <trkpt lat="43.19352" lon="6.35177">
        <ele>246.402</ele>
        <time>2012-10-24T09:12:51Z</time>
      </trkpt>
      <trkpt lat="43.19352" lon="6.35178">
        <ele>246.256</ele>
        <time>2012-10-24T09:13:01Z</time>
      </trkpt>
      <trkpt lat="43.19356" lon="6.35181">
        <ele>246.19</ele>
        <time>2012-10-24T09:13:06Z</time>
      </trkpt>
      <trkpt lat="43.19353" lon="6.35179">
        <ele>246.28</ele>
        <time>2012-10-24T09:13:11Z</time>
      </trkpt>
      <trkpt lat="43.19353" lon="6.3518">
        <ele>245.749</ele>
        <time>2012-10-24T09:13:21Z</time>
      </trkpt>
      <trkpt lat="43.19353" lon="6.3518">
        <ele>245.255</ele>
        <time>2012-10-24T09:14:26Z</time>
      </trkpt>
      <trkpt lat="43.19352" lon="6.3518">
        <ele>245.247</ele>
        <time>2012-10-24T09:14:41Z</time>
      </trkpt>
      <trkpt lat="43.19352" lon="6.35182">
        <ele>245.321</ele>
        <time>2012-10-24T09:14:51Z</time>
      </trkpt>
      <trkpt lat="43.19351" lon="6.35181">
        <ele>245.276</ele>
        <time>2012-10-24T09:15:01Z</time>
      </trkpt>
      <trkpt lat="43.19351" lon="6.35182">
        <ele>245.453</ele>
        <time>2012-10-24T09:15:31Z</time>
      </trkpt>
      <trkpt lat="43.1935" lon="6.35181">
        <ele>245.316</ele>
        <time>2012-10-24T09:15:41Z</time>
      </trkpt>
      <trkpt lat="43.19349" lon="6.35182">
        <ele>246.542</ele>
        <time>2012-10-24T09:15:51Z</time>
      </trkpt>
      <trkpt lat="43.19348" lon="6.35182">
        <ele>246.407</ele>
        <time>2012-10-24T09:15:56Z</time>
      </trkpt>
      <trkpt lat="43.19348" lon="6.35184">
        <ele>246.962</ele>
        <time>2012-10-24T09:16:01Z</time>
      </trkpt>
      <trkpt lat="43.19353" lon="6.35189">
        <ele>247.382</ele>
        <time>2012-10-24T09:16:06Z</time>
      </trkpt>
      <trkpt lat="43.19353" lon="6.35193">
        <ele>247.847</ele>
        <time>2012-10-24T09:16:11Z</time>
      </trkpt>
      <trkpt lat="43.19354" lon="6.35198">
        <ele>248.024</ele>
        <time>2012-10-24T09:16:16Z</time>
      </trkpt>
      <trkpt lat="43.19357" lon="6.35206">
        <ele>248.563</ele>
        <time>2012-10-24T09:16:21Z</time>
      </trkpt>
      <trkpt lat="43.19361" lon="6.35216">
        <ele>249.052</ele>
        <time>2012-10-24T09:16:26Z</time>
      </trkpt>
      <trkpt lat="43.19363" lon="6.35222">
        <ele>249.393</ele>
        <time>2012-10-24T09:16:31Z</time>
      </trkpt>
      <trkpt lat="43.19367" lon="6.35232">
        <ele>249.554</ele>
        <time>2012-10-24T09:16:36Z</time>
      </trkpt>
      <trkpt lat="43.1937" lon="6.35237">
        <ele>249.831</ele>
        <time>2012-10-24T09:16:41Z</time>
      </trkpt>
      <trkpt lat="43.19371" lon="6.35241">
        <ele>249.792</ele>
        <time>2012-10-24T09:16:46Z</time>
      </trkpt>
      <trkpt lat="43.19372" lon="6.35243">
        <ele>249.913</ele>
        <time>2012-10-24T09:16:51Z</time>
      </trkpt>
      <trkpt lat="43.19376" lon="6.35249">
        <ele>250.23</ele>
        <time>2012-10-24T09:16:56Z</time>
      </trkpt>
      <trkpt lat="43.19381" lon="6.35254">
        <ele>250.098</ele>
        <time>2012-10-24T09:17:01Z</time>
      </trkpt>
      <trkpt lat="43.19384" lon="6.35261">
        <ele>249.815</ele>
        <time>2012-10-24T09:17:06Z</time>
      </trkpt>
      <trkpt lat="43.19388" lon="6.35266">
        <ele>249.623</ele>
        <time>2012-10-24T09:17:11Z</time>
      </trkpt>
      <trkpt lat="43.19392" lon="6.35272">
        <ele>249.448</ele>
        <time>2012-10-24T09:17:16Z</time>
      </trkpt>
      <trkpt lat="43.19398" lon="6.35278">
        <ele>248.933</ele>
        <time>2012-10-24T09:17:21Z</time>
      </trkpt>
      <trkpt lat="43.19401" lon="6.35284">
        <ele>248.613</ele>
        <time>2012-10-24T09:17:26Z</time>
      </trkpt>
      <trkpt lat="43.19405" lon="6.35289">
        <ele>248.241</ele>
        <time>2012-10-24T09:17:31Z</time>
      </trkpt>
      <trkpt lat="43.19412" lon="6.35292">
        <ele>248.011</ele>
        <time>2012-10-24T09:17:36Z</time>
      </trkpt>
      <trkpt lat="43.19415" lon="6.35297">
        <ele>247.842</ele>
        <time>2012-10-24T09:17:41Z</time>
      </trkpt>
      <trkpt lat="43.19419" lon="6.353">
        <ele>247.53</ele>
        <time>2012-10-24T09:17:46Z</time>
      </trkpt>
      <trkpt lat="43.19424" lon="6.35304">
        <ele>247.519</ele>
        <time>2012-10-24T09:17:51Z</time>
      </trkpt>
      <trkpt lat="43.19427" lon="6.35308">
        <ele>247.517</ele>
        <time>2012-10-24T09:17:56Z</time>
      </trkpt>
      <trkpt lat="43.19432" lon="6.3531">
        <ele>247.583</ele>
        <time>2012-10-24T09:18:01Z</time>
      </trkpt>
      <trkpt lat="43.19438" lon="6.3531">
        <ele>247.572</ele>
        <time>2012-10-24T09:18:06Z</time>
      </trkpt>
      <trkpt lat="43.19442" lon="6.35312">
        <ele>247.797</ele>
        <time>2012-10-24T09:18:11Z</time>
      </trkpt>
      <trkpt lat="43.19447" lon="6.35312">
        <ele>247.998</ele>
        <time>2012-10-24T09:18:16Z</time>
      </trkpt>
      <trkpt lat="43.19451" lon="6.35314">
        <ele>248.254</ele>
        <time>2012-10-24T09:18:21Z</time>
      </trkpt>
      <trkpt lat="43.19456" lon="6.35317">
        <ele>248.621</ele>
        <time>2012-10-24T09:18:26Z</time>
      </trkpt>
      <trkpt lat="43.1946" lon="6.3532">
        <ele>248.893</ele>
        <time>2012-10-24T09:18:31Z</time>
      </trkpt>
      <trkpt lat="43.19464" lon="6.35322">
        <ele>249.184</ele>
        <time>2012-10-24T09:18:36Z</time>
      </trkpt>
      <trkpt lat="43.19468" lon="6.35325">
        <ele>249.638</ele>
        <time>2012-10-24T09:18:41Z</time>
      </trkpt>
      <trkpt lat="43.19472" lon="6.35326">
        <ele>249.945</ele>
        <time>2012-10-24T09:18:46Z</time>
      </trkpt>
      <trkpt lat="43.19475" lon="6.35331">
        <ele>250.117</ele>
        <time>2012-10-24T09:18:51Z</time>
      </trkpt>
      <trkpt lat="43.1948" lon="6.35335">
        <ele>250.643</ele>
        <time>2012-10-24T09:18:56Z</time>
      </trkpt>
      <trkpt lat="43.19485" lon="6.35337">
        <ele>251.052</ele>
        <time>2012-10-24T09:19:01Z</time>
      </trkpt>
      <trkpt lat="43.19492" lon="6.3534">
        <ele>251.308</ele>
        <time>2012-10-24T09:19:06Z</time>
      </trkpt>
      <trkpt lat="43.19498" lon="6.35345">
        <ele>251.75</ele>
        <time>2012-10-24T09:19:11Z</time>
      </trkpt>
      <trkpt lat="43.19501" lon="6.3535">
        <ele>251.966</ele>
        <time>2012-10-24T09:19:16Z</time>
      </trkpt>
      <trkpt lat="43.19507" lon="6.35354">
        <ele>252.149</ele>
        <time>2012-10-24T09:19:21Z</time>
      </trkpt>
      <trkpt lat="43.19513" lon="6.35357">
        <ele>252.505</ele>
        <time>2012-10-24T09:19:26Z</time>
      </trkpt>
      <trkpt lat="43.19517" lon="6.35362">
        <ele>252.881</ele>
        <time>2012-10-24T09:19:31Z</time>
      </trkpt>
      <trkpt lat="43.19523" lon="6.35365">
        <ele>253.147</ele>
        <time>2012-10-24T09:19:36Z</time>
      </trkpt>
      <trkpt lat="43.19528" lon="6.3537">
        <ele>253.211</ele>
        <time>2012-10-24T09:19:41Z</time>
      </trkpt>
      <trkpt lat="43.19534" lon="6.35372">
        <ele>253.565</ele>
        <time>2012-10-24T09:19:46Z</time>
      </trkpt>
      <trkpt lat="43.1954" lon="6.35373">
        <ele>254.001</ele>
        <time>2012-10-24T09:19:51Z</time>
      </trkpt>
      <trkpt lat="43.19545" lon="6.35374">
        <ele>254.313</ele>
        <time>2012-10-24T09:19:56Z</time>
      </trkpt>
      <trkpt lat="43.1955" lon="6.35377">
        <ele>254.836</ele>
        <time>2012-10-24T09:20:01Z</time>
      </trkpt>
      <trkpt lat="43.19555" lon="6.35379">
        <ele>255.306</ele>
        <time>2012-10-24T09:20:06Z</time>
      </trkpt>
      <trkpt lat="43.19559" lon="6.35378">
        <ele>255.903</ele>
        <time>2012-10-24T09:20:11Z</time>
      </trkpt>
      <trkpt lat="43.19562" lon="6.35377">
        <ele>256.31</ele>
        <time>2012-10-24T09:20:16Z</time>
      </trkpt>
      <trkpt lat="43.19569" lon="6.35376">
        <ele>256.844</ele>
        <time>2012-10-24T09:20:21Z</time>
      </trkpt>
      <trkpt lat="43.19574" lon="6.35376">
        <ele>257.129</ele>
        <time>2012-10-24T09:20:26Z</time>
      </trkpt>
      <trkpt lat="43.19579" lon="6.35372">
        <ele>257.671</ele>
        <time>2012-10-24T09:20:31Z</time>
      </trkpt>
      <trkpt lat="43.19584" lon="6.35373">
        <ele>258.213</ele>
        <time>2012-10-24T09:20:36Z</time>
      </trkpt>
      <trkpt lat="43.19589" lon="6.35372">
        <ele>258.48</ele>
        <time>2012-10-24T09:20:41Z</time>
      </trkpt>
      <trkpt lat="43.19595" lon="6.35373">
        <ele>258.953</ele>
        <time>2012-10-24T09:20:46Z</time>
      </trkpt>
      <trkpt lat="43.19599" lon="6.35374">
        <ele>259.56</ele>
        <time>2012-10-24T09:20:51Z</time>
      </trkpt>
      <trkpt lat="43.19605" lon="6.3538">
        <ele>259.851</ele>
        <time>2012-10-24T09:20:56Z</time>
      </trkpt>
      <trkpt lat="43.19609" lon="6.35385">
        <ele>260.052</ele>
        <time>2012-10-24T09:21:01Z</time>
      </trkpt>
      <trkpt lat="43.19613" lon="6.35391">
        <ele>260.438</ele>
        <time>2012-10-24T09:21:06Z</time>
      </trkpt>
      <trkpt lat="43.19618" lon="6.35396">
        <ele>260.903</ele>
        <time>2012-10-24T09:21:11Z</time>
      </trkpt>
      <trkpt lat="43.1962" lon="6.35403">
        <ele>261.122</ele>
        <time>2012-10-24T09:21:16Z</time>
      </trkpt>
      <trkpt lat="43.19625" lon="6.3541">
        <ele>261.534</ele>
        <time>2012-10-24T09:21:21Z</time>
      </trkpt>
      <trkpt lat="43.19628" lon="6.35418">
        <ele>261.783</ele>
        <time>2012-10-24T09:21:26Z</time>
      </trkpt>
      <trkpt lat="43.19631" lon="6.35424">
        <ele>262.245</ele>
        <time>2012-10-24T09:21:31Z</time>
      </trkpt>
      <trkpt lat="43.19635" lon="6.3543">
        <ele>262.654</ele>
        <time>2012-10-24T09:21:36Z</time>
      </trkpt>
      <trkpt lat="43.19638" lon="6.35436">
        <ele>263.109</ele>
        <time>2012-10-24T09:21:41Z</time>
      </trkpt>
      <trkpt lat="43.19642" lon="6.35441">
        <ele>263.542</ele>
        <time>2012-10-24T09:21:46Z</time>
      </trkpt>
      <trkpt lat="43.19647" lon="6.35446">
        <ele>264.002</ele>
        <time>2012-10-24T09:21:51Z</time>
      </trkpt>
      <trkpt lat="43.19651" lon="6.3545">
        <ele>264.491</ele>
        <time>2012-10-24T09:21:56Z</time>
      </trkpt>
      <trkpt lat="43.19655" lon="6.35457">
        <ele>264.861</ele>
        <time>2012-10-24T09:22:01Z</time>
      </trkpt>
      <trkpt lat="43.19657" lon="6.35463">
        <ele>265.199</ele>
        <time>2012-10-24T09:22:06Z</time>
      </trkpt>
      <trkpt lat="43.19662" lon="6.35467">
        <ele>265.677</ele>
        <time>2012-10-24T09:22:11Z</time>
      </trkpt>
      <trkpt lat="43.19666" lon="6.3547">
        <ele>266.37</ele>
        <time>2012-10-24T09:22:16Z</time>
      </trkpt>
      <trkpt lat="43.1967" lon="6.35476">
        <ele>266.803</ele>
        <time>2012-10-24T09:22:21Z</time>
      </trkpt>
      <trkpt lat="43.19675" lon="6.3548">
        <ele>267.403</ele>
        <time>2012-10-24T09:22:26Z</time>
      </trkpt>
      <trkpt lat="43.19679" lon="6.35485">
        <ele>267.741</ele>
        <time>2012-10-24T09:22:31Z</time>
      </trkpt>
      <trkpt lat="43.19684" lon="6.3549">
        <ele>268.536</ele>
        <time>2012-10-24T09:22:36Z</time>
      </trkpt>
      <trkpt lat="43.19687" lon="6.35495">
        <ele>269.009</ele>
        <time>2012-10-24T09:22:41Z</time>
      </trkpt>
      <trkpt lat="43.19691" lon="6.35501">
        <ele>269.361</ele>
        <time>2012-10-24T09:22:46Z</time>
      </trkpt>
      <trkpt lat="43.19695" lon="6.35506">
        <ele>269.966</ele>
        <time>2012-10-24T09:22:51Z</time>
      </trkpt>
      <trkpt lat="43.19699" lon="6.35511">
        <ele>270.476</ele>
        <time>2012-10-24T09:22:56Z</time>
      </trkpt>
      <trkpt lat="43.19705" lon="6.35516">
        <ele>270.877</ele>
        <time>2012-10-24T09:23:01Z</time>
      </trkpt>
      <trkpt lat="43.1971" lon="6.35519">
        <ele>271.657</ele>
        <time>2012-10-24T09:23:06Z</time>
      </trkpt>
      <trkpt lat="43.19717" lon="6.35522">
        <ele>271.897</ele>
        <time>2012-10-24T09:23:11Z</time>
      </trkpt>
      <trkpt lat="43.19722" lon="6.35525">
        <ele>272.103</ele>
        <time>2012-10-24T09:23:16Z</time>
      </trkpt>
      <trkpt lat="43.19726" lon="6.35526">
        <ele>272.257</ele>
        <time>2012-10-24T09:23:21Z</time>
      </trkpt>
      <trkpt lat="43.19729" lon="6.35527">
        <ele>272.481</ele>
        <time>2012-10-24T09:23:26Z</time>
      </trkpt>
      <trkpt lat="43.19735" lon="6.35529">
        <ele>272.761</ele>
        <time>2012-10-24T09:23:31Z</time>
      </trkpt>
      <trkpt lat="43.19741" lon="6.35529">
        <ele>272.97</ele>
        <time>2012-10-24T09:23:36Z</time>
      </trkpt>
      <trkpt lat="43.19748" lon="6.35527">
        <ele>272.989</ele>
        <time>2012-10-24T09:23:41Z</time>
      </trkpt>
      <trkpt lat="43.19754" lon="6.35528">
        <ele>272.616</ele>
        <time>2012-10-24T09:23:46Z</time>
      </trkpt>
      <trkpt lat="43.19762" lon="6.35525">
        <ele>272.825</ele>
        <time>2012-10-24T09:23:51Z</time>
      </trkpt>
      <trkpt lat="43.19767" lon="6.35524">
        <ele>272.843</ele>
        <time>2012-10-24T09:23:56Z</time>
      </trkpt>
      <trkpt lat="43.19772" lon="6.35526">
        <ele>272.753</ele>
        <time>2012-10-24T09:24:01Z</time>
      </trkpt>
      <trkpt lat="43.19777" lon="6.35529">
        <ele>272.494</ele>
        <time>2012-10-24T09:24:06Z</time>
      </trkpt>
      <trkpt lat="43.19781" lon="6.35533">
        <ele>271.992</ele>
        <time>2012-10-24T09:24:11Z</time>
      </trkpt>
      <trkpt lat="43.19786" lon="6.35536">
        <ele>271.118</ele>
        <time>2012-10-24T09:24:16Z</time>
      </trkpt>
      <trkpt lat="43.19791" lon="6.35541">
        <ele>270.854</ele>
        <time>2012-10-24T09:24:21Z</time>
      </trkpt>
      <trkpt lat="43.19794" lon="6.35548">
        <ele>270.433</ele>
        <time>2012-10-24T09:24:26Z</time>
      </trkpt>
      <trkpt lat="43.19793" lon="6.35556">
        <ele>269.53</ele>
        <time>2012-10-24T09:24:31Z</time>
      </trkpt>
      <trkpt lat="43.19793" lon="6.35561">
        <ele>269.078</ele>
        <time>2012-10-24T09:24:36Z</time>
      </trkpt>
      <trkpt lat="43.19792" lon="6.35565">
        <ele>268.666</ele>
        <time>2012-10-24T09:24:41Z</time>
      </trkpt>
      <trkpt lat="43.1979" lon="6.35567">
        <ele>268.425</ele>
        <time>2012-10-24T09:24:46Z</time>
      </trkpt>
      <trkpt lat="43.19791" lon="6.35568">
        <ele>268.528</ele>
        <time>2012-10-24T09:24:51Z</time>
      </trkpt>
      <trkpt lat="43.19788" lon="6.35566">
        <ele>268.383</ele>
        <time>2012-10-24T09:25:01Z</time>
      </trkpt>
      <trkpt lat="43.19786" lon="6.35566">
        <ele>268.563</ele>
        <time>2012-10-24T09:25:06Z</time>
      </trkpt>
      <trkpt lat="43.19784" lon="6.35566">
        <ele>268.581</ele>
        <time>2012-10-24T09:25:11Z</time>
      </trkpt>
      <trkpt lat="43.19781" lon="6.35565">
        <ele>268.695</ele>
        <time>2012-10-24T09:25:16Z</time>
      </trkpt>
      <trkpt lat="43.19777" lon="6.35567">
        <ele>268.882</ele>
        <time>2012-10-24T09:25:21Z</time>
      </trkpt>
      <trkpt lat="43.19773" lon="6.35565">
        <ele>269.091</ele>
        <time>2012-10-24T09:25:26Z</time>
      </trkpt>
      <trkpt lat="43.19767" lon="6.35567">
        <ele>269.421</ele>
        <time>2012-10-24T09:25:31Z</time>
      </trkpt>
      <trkpt lat="43.19764" lon="6.35567">
        <ele>269.612</ele>
        <time>2012-10-24T09:25:36Z</time>
      </trkpt>
      <trkpt lat="43.1976" lon="6.35571">
        <ele>269.665</ele>
        <time>2012-10-24T09:25:41Z</time>
      </trkpt>
      <trkpt lat="43.19758" lon="6.35573">
        <ele>269.839</ele>
        <time>2012-10-24T09:25:46Z</time>
      </trkpt>
      <trkpt lat="43.19758" lon="6.35572">
        <ele>268.365</ele>
        <time>2012-10-24T09:26:01Z</time>
      </trkpt>
      <trkpt lat="43.19759" lon="6.35572">
        <ele>269.879</ele>
        <time>2012-10-24T09:26:21Z</time>
      </trkpt>
      <trkpt lat="43.1976" lon="6.35571">
        <ele>269.778</ele>
        <time>2012-10-24T09:26:31Z</time>
      </trkpt>
      <trkpt lat="43.1976" lon="6.3557">
        <ele>269.871</ele>
        <time>2012-10-24T09:26:46Z</time>
      </trkpt>
      <trkpt lat="43.1976" lon="6.35568">
        <ele>269.815</ele>
        <time>2012-10-24T09:26:56Z</time>
      </trkpt>
      <trkpt lat="43.19759" lon="6.35562">
        <ele>269.762</ele>
        <time>2012-10-24T09:27:01Z</time>
      </trkpt>
      <trkpt lat="43.19757" lon="6.35559">
        <ele>269.881</ele>
        <time>2012-10-24T09:27:06Z</time>
      </trkpt>
      <trkpt lat="43.19757" lon="6.35558">
        <ele>269.77</ele>
        <time>2012-10-24T09:27:31Z</time>
      </trkpt>
      <trkpt lat="43.19755" lon="6.35563">
        <ele>269.583</ele>
        <time>2012-10-24T09:27:36Z</time>
      </trkpt>
      <trkpt lat="43.19752" lon="6.35568">
        <ele>269.527</ele>
        <time>2012-10-24T09:27:41Z</time>
      </trkpt>
      <trkpt lat="43.1975" lon="6.35567">
        <ele>269.21</ele>
        <time>2012-10-24T09:27:46Z</time>
      </trkpt>
      <trkpt lat="43.19748" lon="6.35569">
        <ele>269.03</ele>
        <time>2012-10-24T09:27:51Z</time>
      </trkpt>
      <trkpt lat="43.19745" lon="6.3557">
        <ele>269.168</ele>
        <time>2012-10-24T09:27:56Z</time>
      </trkpt>
      <trkpt lat="43.19742" lon="6.35574">
        <ele>268.993</ele>
        <time>2012-10-24T09:28:01Z</time>
      </trkpt>
      <trkpt lat="43.19738" lon="6.35576">
        <ele>268.824</ele>
        <time>2012-10-24T09:28:06Z</time>
      </trkpt>
      <trkpt lat="43.19734" lon="6.35577">
        <ele>268.473</ele>
        <time>2012-10-24T09:28:11Z</time>
      </trkpt>
      <trkpt lat="43.1973" lon="6.35579">
        <ele>268.272</ele>
        <time>2012-10-24T09:28:16Z</time>
      </trkpt>
      <trkpt lat="43.19726" lon="6.3558">
        <ele>267.997</ele>
        <time>2012-10-24T09:28:21Z</time>
      </trkpt>
      <trkpt lat="43.19723" lon="6.35582">
        <ele>267.707</ele>
        <time>2012-10-24T09:28:26Z</time>
      </trkpt>
      <trkpt lat="43.19719" lon="6.35586">
        <ele>267.416</ele>
        <time>2012-10-24T09:28:31Z</time>
      </trkpt>
      <trkpt lat="43.19714" lon="6.35588">
        <ele>267.223</ele>
        <time>2012-10-24T09:28:36Z</time>
      </trkpt>
      <trkpt lat="43.19708" lon="6.3559">
        <ele>266.932</ele>
        <time>2012-10-24T09:28:41Z</time>
      </trkpt>
      <trkpt lat="43.19703" lon="6.3559">
        <ele>266.512</ele>
        <time>2012-10-24T09:28:46Z</time>
      </trkpt>
      <trkpt lat="43.19696" lon="6.35595">
        <ele>266.19</ele>
        <time>2012-10-24T09:28:51Z</time>
      </trkpt>
      <trkpt lat="43.19692" lon="6.35594">
        <ele>265.92</ele>
        <time>2012-10-24T09:28:56Z</time>
      </trkpt>
      <trkpt lat="43.19689" lon="6.35593">
        <ele>265.506</ele>
        <time>2012-10-24T09:29:01Z</time>
      </trkpt>
      <trkpt lat="43.19685" lon="6.35595">
        <ele>265.188</ele>
        <time>2012-10-24T09:29:06Z</time>
      </trkpt>
      <trkpt lat="43.1968" lon="6.356">
        <ele>265.004</ele>
        <time>2012-10-24T09:29:11Z</time>
      </trkpt>
      <trkpt lat="43.19676" lon="6.35604">
        <ele>264.478</ele>
        <time>2012-10-24T09:29:16Z</time>
      </trkpt>
      <trkpt lat="43.19673" lon="6.35608">
        <ele>264.063</ele>
        <time>2012-10-24T09:29:21Z</time>
      </trkpt>
      <trkpt lat="43.1967" lon="6.35613">
        <ele>263.519</ele>
        <time>2012-10-24T09:29:26Z</time>
      </trkpt>
      <trkpt lat="43.19666" lon="6.35616">
        <ele>263.016</ele>
        <time>2012-10-24T09:29:31Z</time>
      </trkpt>
      <trkpt lat="43.19661" lon="6.35619">
        <ele>262.38</ele>
        <time>2012-10-24T09:29:36Z</time>
      </trkpt>
      <trkpt lat="43.19656" lon="6.3562">
        <ele>261.727</ele>
        <time>2012-10-24T09:29:41Z</time>
      </trkpt>
      <trkpt lat="43.19653" lon="6.35623">
        <ele>261.339</ele>
        <time>2012-10-24T09:29:46Z</time>
      </trkpt>
      <trkpt lat="43.1965" lon="6.35627">
        <ele>260.559</ele>
        <time>2012-10-24T09:29:51Z</time>
      </trkpt>
      <trkpt lat="43.19644" lon="6.35626">
        <ele>260.221</ele>
        <time>2012-10-24T09:29:56Z</time>
      </trkpt>
      <trkpt lat="43.19641" lon="6.35627">
        <ele>259.576</ele>
        <time>2012-10-24T09:30:01Z</time>
      </trkpt>
      <trkpt lat="43.19636" lon="6.3563">
        <ele>259.338</ele>
        <time>2012-10-24T09:30:06Z</time>
      </trkpt>
      <trkpt lat="43.19631" lon="6.3563">
        <ele>258.939</ele>
        <time>2012-10-24T09:30:11Z</time>
      </trkpt>
      <trkpt lat="43.19627" lon="6.35629">
        <ele>258.406</ele>
        <time>2012-10-24T09:30:16Z</time>
      </trkpt>
      <trkpt lat="43.19621" lon="6.35629">
        <ele>258.3</ele>
        <time>2012-10-24T09:30:21Z</time>
      </trkpt>
      <trkpt lat="43.19617" lon="6.3563">
        <ele>257.687</ele>
        <time>2012-10-24T09:30:26Z</time>
      </trkpt>
      <trkpt lat="43.19614" lon="6.35629">
        <ele>257.473</ele>
        <time>2012-10-24T09:30:31Z</time>
      </trkpt>
      <trkpt lat="43.19609" lon="6.3563">
        <ele>256.722</ele>
        <time>2012-10-24T09:30:36Z</time>
      </trkpt>
      <trkpt lat="43.19605" lon="6.3563">
        <ele>256.392</ele>
        <time>2012-10-24T09:30:41Z</time>
      </trkpt>
      <trkpt lat="43.19602" lon="6.3563">
        <ele>255.798</ele>
        <time>2012-10-24T09:30:46Z</time>
      </trkpt>
      <trkpt lat="43.19596" lon="6.35635">
        <ele>255.224</ele>
        <time>2012-10-24T09:30:51Z</time>
      </trkpt>
      <trkpt lat="43.19591" lon="6.35636">
        <ele>254.997</ele>
        <time>2012-10-24T09:30:56Z</time>
      </trkpt>
      <trkpt lat="43.19585" lon="6.35635">
        <ele>254.284</ele>
        <time>2012-10-24T09:31:01Z</time>
      </trkpt>
      <trkpt lat="43.19579" lon="6.35635">
        <ele>253.747</ele>
        <time>2012-10-24T09:31:06Z</time>
      </trkpt>
      <trkpt lat="43.19575" lon="6.35636">
        <ele>253.219</ele>
        <time>2012-10-24T09:31:11Z</time>
      </trkpt>
      <trkpt lat="43.1957" lon="6.35639">
        <ele>252.323</ele>
        <time>2012-10-24T09:31:16Z</time>
      </trkpt>
      <trkpt lat="43.19565" lon="6.35643">
        <ele>251.784</ele>
        <time>2012-10-24T09:31:21Z</time>
      </trkpt>
      <trkpt lat="43.19559" lon="6.35648">
        <ele>251.168</ele>
        <time>2012-10-24T09:31:26Z</time>
      </trkpt>
      <trkpt lat="43.19551" lon="6.35652">
        <ele>250.751</ele>
        <time>2012-10-24T09:31:31Z</time>
      </trkpt>
      <trkpt lat="43.19545" lon="6.35657">
        <ele>250.405</ele>
        <time>2012-10-24T09:31:36Z</time>
      </trkpt>
      <trkpt lat="43.19539" lon="6.3566">
        <ele>249.488</ele>
        <time>2012-10-24T09:31:41Z</time>
      </trkpt>
      <trkpt lat="43.19534" lon="6.35663">
        <ele>249.308</ele>
        <time>2012-10-24T09:31:46Z</time>
      </trkpt>
      <trkpt lat="43.1953" lon="6.35665">
        <ele>248.716</ele>
        <time>2012-10-24T09:31:51Z</time>
      </trkpt>
      <trkpt lat="43.19525" lon="6.35667">
        <ele>248.42</ele>
        <time>2012-10-24T09:31:56Z</time>
      </trkpt>
      <trkpt lat="43.19519" lon="6.35669">
        <ele>248.058</ele>
        <time>2012-10-24T09:32:01Z</time>
      </trkpt>
      <trkpt lat="43.19516" lon="6.35668">
        <ele>247.559</ele>
        <time>2012-10-24T09:32:06Z</time>
      </trkpt>
      <trkpt lat="43.19508" lon="6.35673">
        <ele>247.297</ele>
        <time>2012-10-24T09:32:11Z</time>
      </trkpt>
      <trkpt lat="43.19504" lon="6.3567">
        <ele>246.822</ele>
        <time>2012-10-24T09:32:16Z</time>
      </trkpt>
      <trkpt lat="43.19499" lon="6.35669">
        <ele>246.299</ele>
        <time>2012-10-24T09:32:21Z</time>
      </trkpt>
      <trkpt lat="43.19495" lon="6.35667">
        <ele>245.826</ele>
        <time>2012-10-24T09:32:26Z</time>
      </trkpt>
      <trkpt lat="43.19491" lon="6.35666">
        <ele>245.125</ele>
        <time>2012-10-24T09:32:31Z</time>
      </trkpt>
      <trkpt lat="43.19483" lon="6.35667">
        <ele>244.359</ele>
        <time>2012-10-24T09:32:36Z</time>
      </trkpt>
      <trkpt lat="43.19477" lon="6.35667">
        <ele>243.928</ele>
        <time>2012-10-24T09:32:41Z</time>
      </trkpt>
      <trkpt lat="43.19472" lon="6.35665">
        <ele>243.474</ele>
        <time>2012-10-24T09:32:46Z</time>
      </trkpt>
      <trkpt lat="43.19467" lon="6.35662">
        <ele>242.842</ele>
        <time>2012-10-24T09:32:51Z</time>
      </trkpt>
      <trkpt lat="43.19462" lon="6.3566">
        <ele>242.486</ele>
        <time>2012-10-24T09:32:56Z</time>
      </trkpt>
      <trkpt lat="43.19458" lon="6.3566">
        <ele>241.83</ele>
        <time>2012-10-24T09:33:01Z</time>
      </trkpt>
      <trkpt lat="43.19452" lon="6.35658">
        <ele>241.336</ele>
        <time>2012-10-24T09:33:06Z</time>
      </trkpt>
      <trkpt lat="43.19446" lon="6.35656">
        <ele>240.8</ele>
        <time>2012-10-24T09:33:11Z</time>
      </trkpt>
      <trkpt lat="43.1944" lon="6.35653">
        <ele>240.388</ele>
        <time>2012-10-24T09:33:16Z</time>
      </trkpt>
      <trkpt lat="43.19436" lon="6.3565">
        <ele>239.352</ele>
        <time>2012-10-24T09:33:21Z</time>
      </trkpt>
      <trkpt lat="43.1943" lon="6.35649">
        <ele>239.162</ele>
        <time>2012-10-24T09:33:26Z</time>
      </trkpt>
      <trkpt lat="43.19422" lon="6.35649">
        <ele>238.615</ele>
        <time>2012-10-24T09:33:31Z</time>
      </trkpt>
      <trkpt lat="43.19418" lon="6.35649">
        <ele>237.957</ele>
        <time>2012-10-24T09:33:36Z</time>
      </trkpt>
      <trkpt lat="43.19412" lon="6.35652">
        <ele>237.558</ele>
        <time>2012-10-24T09:33:41Z</time>
      </trkpt>
      <trkpt lat="43.19407" lon="6.35653">
        <ele>236.86</ele>
        <time>2012-10-24T09:33:46Z</time>
      </trkpt>
      <trkpt lat="43.19401" lon="6.35655">
        <ele>236.155</ele>
        <time>2012-10-24T09:33:51Z</time>
      </trkpt>
      <trkpt lat="43.19394" lon="6.3566">
        <ele>235.695</ele>
        <time>2012-10-24T09:33:56Z</time>
      </trkpt>
      <trkpt lat="43.19389" lon="6.35662">
        <ele>235.161</ele>
        <time>2012-10-24T09:34:01Z</time>
      </trkpt>
      <trkpt lat="43.19378" lon="6.35665">
        <ele>234.791</ele>
        <time>2012-10-24T09:34:06Z</time>
      </trkpt>
      <trkpt lat="43.19373" lon="6.3567">
        <ele>234.104</ele>
        <time>2012-10-24T09:34:11Z</time>
      </trkpt>
      <trkpt lat="43.19368" lon="6.35674">
        <ele>233.779</ele>
        <time>2012-10-24T09:34:16Z</time>
      </trkpt>
      <trkpt lat="43.19363" lon="6.35679">
        <ele>233.264</ele>
        <time>2012-10-24T09:34:21Z</time>
      </trkpt>
      <trkpt lat="43.19358" lon="6.35682">
        <ele>232.926</ele>
        <time>2012-10-24T09:34:26Z</time>
      </trkpt>
      <trkpt lat="43.19354" lon="6.35685">
        <ele>232.35</ele>
        <time>2012-10-24T09:34:31Z</time>
      </trkpt>
      <trkpt lat="43.1935" lon="6.35689">
        <ele>232.033</ele>
        <time>2012-10-24T09:34:36Z</time>
      </trkpt>
      <trkpt lat="43.19344" lon="6.35695">
        <ele>231.298</ele>
        <time>2012-10-24T09:34:41Z</time>
      </trkpt>
      <trkpt lat="43.1934" lon="6.357">
        <ele>230.669</ele>
        <time>2012-10-24T09:34:46Z</time>
      </trkpt>
      <trkpt lat="43.19337" lon="6.35705">
        <ele>230.077</ele>
        <time>2012-10-24T09:34:51Z</time>
      </trkpt>
      <trkpt lat="43.19332" lon="6.35709">
        <ele>229.425</ele>
        <time>2012-10-24T09:34:56Z</time>
      </trkpt>
      <trkpt lat="43.19328" lon="6.35715">
        <ele>228.983</ele>
        <time>2012-10-24T09:35:01Z</time>
      </trkpt>
      <trkpt lat="43.19324" lon="6.3572">
        <ele>228.534</ele>
        <time>2012-10-24T09:35:06Z</time>
      </trkpt>
      <trkpt lat="43.19319" lon="6.35724">
        <ele>227.974</ele>
        <time>2012-10-24T09:35:11Z</time>
      </trkpt>
      <trkpt lat="43.19314" lon="6.35729">
        <ele>227.34</ele>
        <time>2012-10-24T09:35:16Z</time>
      </trkpt>
      <trkpt lat="43.19308" lon="6.35735">
        <ele>226.69</ele>
        <time>2012-10-24T09:35:21Z</time>
      </trkpt>
      <trkpt lat="43.19304" lon="6.35739">
        <ele>226.204</ele>
        <time>2012-10-24T09:35:26Z</time>
      </trkpt>
      <trkpt lat="43.193" lon="6.35743">
        <ele>225.651</ele>
        <time>2012-10-24T09:35:31Z</time>
      </trkpt>
      <trkpt lat="43.19297" lon="6.35747">
        <ele>225.208</ele>
        <time>2012-10-24T09:35:36Z</time>
      </trkpt>
      <trkpt lat="43.19294" lon="6.35754">
        <ele>224.317</ele>
        <time>2012-10-24T09:35:41Z</time>
      </trkpt>
      <trkpt lat="43.19289" lon="6.3576">
        <ele>223.752</ele>
        <time>2012-10-24T09:35:46Z</time>
      </trkpt>
      <trkpt lat="43.19284" lon="6.35763">
        <ele>223.226</ele>
        <time>2012-10-24T09:35:51Z</time>
      </trkpt>
      <trkpt lat="43.1928" lon="6.35765">
        <ele>222.896</ele>
        <time>2012-10-24T09:35:56Z</time>
      </trkpt>
      <trkpt lat="43.19274" lon="6.35769">
        <ele>222.515</ele>
        <time>2012-10-24T09:36:01Z</time>
      </trkpt>
      <trkpt lat="43.19269" lon="6.35772">
        <ele>221.96</ele>
        <time>2012-10-24T09:36:06Z</time>
      </trkpt>
      <trkpt lat="43.19263" lon="6.35776">
        <ele>221.334</ele>
        <time>2012-10-24T09:36:11Z</time>
      </trkpt>
      <trkpt lat="43.19257" lon="6.3578">
        <ele>220.679</ele>
        <time>2012-10-24T09:36:16Z</time>
      </trkpt>
      <trkpt lat="43.19253" lon="6.35786">
        <ele>219.963</ele>
        <time>2012-10-24T09:36:21Z</time>
      </trkpt>
      <trkpt lat="43.1925" lon="6.3579">
        <ele>219.751</ele>
        <time>2012-10-24T09:36:26Z</time>
      </trkpt>
      <trkpt lat="43.19248" lon="6.35798">
        <ele>220.079</ele>
        <time>2012-10-24T09:36:31Z</time>
      </trkpt>
      <trkpt lat="43.19247" lon="6.35806">
        <ele>220.187</ele>
        <time>2012-10-24T09:36:36Z</time>
      </trkpt>
      <trkpt lat="43.19248" lon="6.35813">
        <ele>220.007</ele>
        <time>2012-10-24T09:36:41Z</time>
      </trkpt>
      <trkpt lat="43.19247" lon="6.35823">
        <ele>220.121</ele>
        <time>2012-10-24T09:36:46Z</time>
      </trkpt>
      <trkpt lat="43.1925" lon="6.35831">
        <ele>220.906</ele>
        <time>2012-10-24T09:36:51Z</time>
      </trkpt>
      <trkpt lat="43.19253" lon="6.35835">
        <ele>221.056</ele>
        <time>2012-10-24T09:36:56Z</time>
      </trkpt>
      <trkpt lat="43.19255" lon="6.35842">
        <ele>221.487</ele>
        <time>2012-10-24T09:37:01Z</time>
      </trkpt>
      <trkpt lat="43.19259" lon="6.35851">
        <ele>221.59</ele>
        <time>2012-10-24T09:37:06Z</time>
      </trkpt>
      <trkpt lat="43.19261" lon="6.3586">
        <ele>222.037</ele>
        <time>2012-10-24T09:37:11Z</time>
      </trkpt>
      <trkpt lat="43.19261" lon="6.35868">
        <ele>222.177</ele>
        <time>2012-10-24T09:37:16Z</time>
      </trkpt>
      <trkpt lat="43.19262" lon="6.35876">
        <ele>222.354</ele>
        <time>2012-10-24T09:37:21Z</time>
      </trkpt>
      <trkpt lat="43.19266" lon="6.35881">
        <ele>222.203</ele>
        <time>2012-10-24T09:37:26Z</time>
      </trkpt>
      <trkpt lat="43.19269" lon="6.35889">
        <ele>221.894</ele>
        <time>2012-10-24T09:37:31Z</time>
      </trkpt>
      <trkpt lat="43.19272" lon="6.35898">
        <ele>221.551</ele>
        <time>2012-10-24T09:37:36Z</time>
      </trkpt>
      <trkpt lat="43.19275" lon="6.35904">
        <ele>221.138</ele>
        <time>2012-10-24T09:37:41Z</time>
      </trkpt>
      <trkpt lat="43.19278" lon="6.35911">
        <ele>220.552</ele>
        <time>2012-10-24T09:37:46Z</time>
      </trkpt>
      <trkpt lat="43.19283" lon="6.35916">
        <ele>220.15</ele>
        <time>2012-10-24T09:37:51Z</time>
      </trkpt>
      <trkpt lat="43.19287" lon="6.3592">
        <ele>219.791</ele>
        <time>2012-10-24T09:37:56Z</time>
      </trkpt>
      <trkpt lat="43.19288" lon="6.35927">
        <ele>218.919</ele>
        <time>2012-10-24T09:38:01Z</time>
      </trkpt>
      <trkpt lat="43.19287" lon="6.35936">
        <ele>218.1</ele>
        <time>2012-10-24T09:38:06Z</time>
      </trkpt>
      <trkpt lat="43.19287" lon="6.35942">
        <ele>216.921</ele>
        <time>2012-10-24T09:38:11Z</time>
      </trkpt>
      <trkpt lat="43.19285" lon="6.35949">
        <ele>216.06</ele>
        <time>2012-10-24T09:38:16Z</time>
      </trkpt>
      <trkpt lat="43.19283" lon="6.35956">
        <ele>214.995</ele>
        <time>2012-10-24T09:38:21Z</time>
      </trkpt>
      <trkpt lat="43.1928" lon="6.35961">
        <ele>214.688</ele>
        <time>2012-10-24T09:38:26Z</time>
      </trkpt>
      <trkpt lat="43.19279" lon="6.35967">
        <ele>214.186</ele>
        <time>2012-10-24T09:38:31Z</time>
      </trkpt>
      <trkpt lat="43.19276" lon="6.35976">
        <ele>214.097</ele>
        <time>2012-10-24T09:38:36Z</time>
      </trkpt>
      <trkpt lat="43.19274" lon="6.35984">
        <ele>213.853</ele>
        <time>2012-10-24T09:38:41Z</time>
      </trkpt>
      <trkpt lat="43.19273" lon="6.35991">
        <ele>213.896</ele>
        <time>2012-10-24T09:38:46Z</time>
      </trkpt>
      <trkpt lat="43.1927" lon="6.35999">
        <ele>213.89</ele>
        <time>2012-10-24T09:38:51Z</time>
      </trkpt>
      <trkpt lat="43.19267" lon="6.36006">
        <ele>214.221</ele>
        <time>2012-10-24T09:38:56Z</time>
      </trkpt>
      <trkpt lat="43.19265" lon="6.36014">
        <ele>214.353</ele>
        <time>2012-10-24T09:39:01Z</time>
      </trkpt>
      <trkpt lat="43.19262" lon="6.3602">
        <ele>214.609</ele>
        <time>2012-10-24T09:39:06Z</time>
      </trkpt>
      <trkpt lat="43.1926" lon="6.36029">
        <ele>214.332</ele>
        <time>2012-10-24T09:39:11Z</time>
      </trkpt>
      <trkpt lat="43.19259" lon="6.36036">
        <ele>214.385</ele>
        <time>2012-10-24T09:39:16Z</time>
      </trkpt>
      <trkpt lat="43.19259" lon="6.36042">
        <ele>214.591</ele>
        <time>2012-10-24T09:39:21Z</time>
      </trkpt>
      <trkpt lat="43.1926" lon="6.36052">
        <ele>214.673</ele>
        <time>2012-10-24T09:39:26Z</time>
      </trkpt>
      <trkpt lat="43.19259" lon="6.36061">
        <ele>214.276</ele>
        <time>2012-10-24T09:39:31Z</time>
      </trkpt>
      <trkpt lat="43.19259" lon="6.36068">
        <ele>213.986</ele>
        <time>2012-10-24T09:39:36Z</time>
      </trkpt>
      <trkpt lat="43.19258" lon="6.36074">
        <ele>213.764</ele>
        <time>2012-10-24T09:39:41Z</time>
      </trkpt>
      <trkpt lat="43.19258" lon="6.36081">
        <ele>213.098</ele>
        <time>2012-10-24T09:39:46Z</time>
      </trkpt>
      <trkpt lat="43.19258" lon="6.36091">
        <ele>212.078</ele>
        <time>2012-10-24T09:39:51Z</time>
      </trkpt>
      <trkpt lat="43.19256" lon="6.36097">
        <ele>210.662</ele>
        <time>2012-10-24T09:39:56Z</time>
      </trkpt>
      <trkpt lat="43.19253" lon="6.36102">
        <ele>209.396</ele>
        <time>2012-10-24T09:40:01Z</time>
      </trkpt>
      <trkpt lat="43.1925" lon="6.36105">
        <ele>208.014</ele>
        <time>2012-10-24T09:40:06Z</time>
      </trkpt>
      <trkpt lat="43.19248" lon="6.36114">
        <ele>207.092</ele>
        <time>2012-10-24T09:40:11Z</time>
      </trkpt>
      <trkpt lat="43.19245" lon="6.36118">
        <ele>205.451</ele>
        <time>2012-10-24T09:40:16Z</time>
      </trkpt>
      <trkpt lat="43.19243" lon="6.36124">
        <ele>203.781</ele>
        <time>2012-10-24T09:40:21Z</time>
      </trkpt>
      <trkpt lat="43.19242" lon="6.36129">
        <ele>202.629</ele>
        <time>2012-10-24T09:40:26Z</time>
      </trkpt>
      <trkpt lat="43.1924" lon="6.36134">
        <ele>201.295</ele>
        <time>2012-10-24T09:40:31Z</time>
      </trkpt>
      <trkpt lat="43.19238" lon="6.36139">
        <ele>199.588</ele>
        <time>2012-10-24T09:40:36Z</time>
      </trkpt>
      <trkpt lat="43.19236" lon="6.36145">
        <ele>198.446</ele>
        <time>2012-10-24T09:40:41Z</time>
      </trkpt>
      <trkpt lat="43.19234" lon="6.36151">
        <ele>197.038</ele>
        <time>2012-10-24T09:40:46Z</time>
      </trkpt>
      <trkpt lat="43.19232" lon="6.36157">
        <ele>195.286</ele>
        <time>2012-10-24T09:40:51Z</time>
      </trkpt>
      <trkpt lat="43.19229" lon="6.36161">
        <ele>193.996</ele>
        <time>2012-10-24T09:40:56Z</time>
      </trkpt>
      <trkpt lat="43.19226" lon="6.36166">
        <ele>192.691</ele>
        <time>2012-10-24T09:41:01Z</time>
      </trkpt>
      <trkpt lat="43.19222" lon="6.36172">
        <ele>191.883</ele>
        <time>2012-10-24T09:41:06Z</time>
      </trkpt>
      <trkpt lat="43.1922" lon="6.36179">
        <ele>190.96</ele>
        <time>2012-10-24T09:41:11Z</time>
      </trkpt>
      <trkpt lat="43.19216" lon="6.36184">
        <ele>190.128</ele>
        <time>2012-10-24T09:41:16Z</time>
      </trkpt>
      <trkpt lat="43.19215" lon="6.36185">
        <ele>189.711</ele>
        <time>2012-10-24T09:41:21Z</time>
      </trkpt>
      <trkpt lat="43.19213" lon="6.36187">
        <ele>189.721</ele>
        <time>2012-10-24T09:41:36Z</time>
      </trkpt>
      <trkpt lat="43.19213" lon="6.36188">
        <ele>189.719</ele>
        <time>2012-10-24T09:41:46Z</time>
      </trkpt>
      <trkpt lat="43.19215" lon="6.36193">
        <ele>189.124</ele>
        <time>2012-10-24T09:42:21Z</time>
      </trkpt>
      <trkpt lat="43.19218" lon="6.36195">
        <ele>188.987</ele>
        <time>2012-10-24T09:42:26Z</time>
      </trkpt>
      <trkpt lat="43.19223" lon="6.36197">
        <ele>188.302</ele>
        <time>2012-10-24T09:42:31Z</time>
      </trkpt>
      <trkpt lat="43.19227" lon="6.36198">
        <ele>187.745</ele>
        <time>2012-10-24T09:42:36Z</time>
      </trkpt>
      <trkpt lat="43.19231" lon="6.36196">
        <ele>186.976</ele>
        <time>2012-10-24T09:42:41Z</time>
      </trkpt>
      <trkpt lat="43.19235" lon="6.36196">
        <ele>186.614</ele>
        <time>2012-10-24T09:42:46Z</time>
      </trkpt>
      <trkpt lat="43.19238" lon="6.36195">
        <ele>186.257</ele>
        <time>2012-10-24T09:42:51Z</time>
      </trkpt>
      <trkpt lat="43.19243" lon="6.36194">
        <ele>185.723</ele>
        <time>2012-10-24T09:42:56Z</time>
      </trkpt>
      <trkpt lat="43.19248" lon="6.36191">
        <ele>185.467</ele>
        <time>2012-10-24T09:43:01Z</time>
      </trkpt>
      <trkpt lat="43.19256" lon="6.3619">
        <ele>184.83</ele>
        <time>2012-10-24T09:43:06Z</time>
      </trkpt>
      <trkpt lat="43.19262" lon="6.36186">
        <ele>184.64</ele>
        <time>2012-10-24T09:43:11Z</time>
      </trkpt>
      <trkpt lat="43.19269" lon="6.36187">
        <ele>184.238</ele>
        <time>2012-10-24T09:43:16Z</time>
      </trkpt>
      <trkpt lat="43.19275" lon="6.36187">
        <ele>183.924</ele>
        <time>2012-10-24T09:43:21Z</time>
      </trkpt>
      <trkpt lat="43.19278" lon="6.3619">
        <ele>183.277</ele>
        <time>2012-10-24T09:43:26Z</time>
      </trkpt>
      <trkpt lat="43.19283" lon="6.36188">
        <ele>182.64</ele>
        <time>2012-10-24T09:43:31Z</time>
      </trkpt>
      <trkpt lat="43.1929" lon="6.36188">
        <ele>182.333</ele>
        <time>2012-10-24T09:43:36Z</time>
      </trkpt>
      <trkpt lat="43.19299" lon="6.36188">
        <ele>181.638</ele>
        <time>2012-10-24T09:43:41Z</time>
      </trkpt>
      <trkpt lat="43.19302" lon="6.36188">
        <ele>181.361</ele>
        <time>2012-10-24T09:43:46Z</time>
      </trkpt>
      <trkpt lat="43.19306" lon="6.36189">
        <ele>180.83</ele>
        <time>2012-10-24T09:43:51Z</time>
      </trkpt>
      <trkpt lat="43.19312" lon="6.3619">
        <ele>180.227</ele>
        <time>2012-10-24T09:43:56Z</time>
      </trkpt>
      <trkpt lat="43.19318" lon="6.36189">
        <ele>179.768</ele>
        <time>2012-10-24T09:44:01Z</time>
      </trkpt>
      <trkpt lat="43.19324" lon="6.36189">
        <ele>179.115</ele>
        <time>2012-10-24T09:44:06Z</time>
      </trkpt>
      <trkpt lat="43.1933" lon="6.36188">
        <ele>178.531</ele>
        <time>2012-10-24T09:44:11Z</time>
      </trkpt>
      <trkpt lat="43.19337" lon="6.36187">
        <ele>177.984</ele>
        <time>2012-10-24T09:44:16Z</time>
      </trkpt>
      <trkpt lat="43.19342" lon="6.36185">
        <ele>177.31</ele>
        <time>2012-10-24T09:44:21Z</time>
      </trkpt>
      <trkpt lat="43.19347" lon="6.36181">
        <ele>176.758</ele>
        <time>2012-10-24T09:44:26Z</time>
      </trkpt>
      <trkpt lat="43.1935" lon="6.36177">
        <ele>176.224</ele>
        <time>2012-10-24T09:44:31Z</time>
      </trkpt>
      <trkpt lat="43.19356" lon="6.36175">
        <ele>175.873</ele>
        <time>2012-10-24T09:44:36Z</time>
      </trkpt>
      <trkpt lat="43.19361" lon="6.36174">
        <ele>175.31</ele>
        <time>2012-10-24T09:44:41Z</time>
      </trkpt>
      <trkpt lat="43.19366" lon="6.3617">
        <ele>174.655</ele>
        <time>2012-10-24T09:44:46Z</time>
      </trkpt>
      <trkpt lat="43.1937" lon="6.36167">
        <ele>173.936</ele>
        <time>2012-10-24T09:44:51Z</time>
      </trkpt>
      <trkpt lat="43.19374" lon="6.36163">
        <ele>173.582</ele>
        <time>2012-10-24T09:44:56Z</time>
      </trkpt>
      <trkpt lat="43.19378" lon="6.36156">
        <ele>173.003</ele>
        <time>2012-10-24T09:45:01Z</time>
      </trkpt>
      <trkpt lat="43.19382" lon="6.3615">
        <ele>172.44</ele>
        <time>2012-10-24T09:45:06Z</time>
      </trkpt>
      <trkpt lat="43.19385" lon="6.36143">
        <ele>171.798</ele>
        <time>2012-10-24T09:45:11Z</time>
      </trkpt>
      <trkpt lat="43.19389" lon="6.36138">
        <ele>171.352</ele>
        <time>2012-10-24T09:45:16Z</time>
      </trkpt>
      <trkpt lat="43.19394" lon="6.36135">
        <ele>170.654</ele>
        <time>2012-10-24T09:45:21Z</time>
      </trkpt>
      <trkpt lat="43.19398" lon="6.36133">
        <ele>170.102</ele>
        <time>2012-10-24T09:45:26Z</time>
      </trkpt>
      <trkpt lat="43.19402" lon="6.36132">
        <ele>169.571</ele>
        <time>2012-10-24T09:45:31Z</time>
      </trkpt>
      <trkpt lat="43.19413" lon="6.3613">
        <ele>168.947</ele>
        <time>2012-10-24T09:45:36Z</time>
      </trkpt>
      <trkpt lat="43.19417" lon="6.36127">
        <ele>168.363</ele>
        <time>2012-10-24T09:45:41Z</time>
      </trkpt>
      <trkpt lat="43.19422" lon="6.36125">
        <ele>167.637</ele>
        <time>2012-10-24T09:45:46Z</time>
      </trkpt>
      <trkpt lat="43.19426" lon="6.36119">
        <ele>167.28</ele>
        <time>2012-10-24T09:45:51Z</time>
      </trkpt>
      <trkpt lat="43.19431" lon="6.36115">
        <ele>166.72</ele>
        <time>2012-10-24T09:45:56Z</time>
      </trkpt>
      <trkpt lat="43.19433" lon="6.36107">
        <ele>166.419</ele>
        <time>2012-10-24T09:46:01Z</time>
      </trkpt>
      <trkpt lat="43.19437" lon="6.36103">
        <ele>165.829</ele>
        <time>2012-10-24T09:46:06Z</time>
      </trkpt>
      <trkpt lat="43.19444" lon="6.36102">
        <ele>165.499</ele>
        <time>2012-10-24T09:46:11Z</time>
      </trkpt>
      <trkpt lat="43.19448" lon="6.36105">
        <ele>165.074</ele>
        <time>2012-10-24T09:46:16Z</time>
      </trkpt>
      <trkpt lat="43.19451" lon="6.36111">
        <ele>164.741</ele>
        <time>2012-10-24T09:46:21Z</time>
      </trkpt>
      <trkpt lat="43.19453" lon="6.36117">
        <ele>163.927</ele>
        <time>2012-10-24T09:46:26Z</time>
      </trkpt>
      <trkpt lat="43.19453" lon="6.36119">
        <ele>163.483</ele>
        <time>2012-10-24T09:46:31Z</time>
      </trkpt>
      <trkpt lat="43.19456" lon="6.36127">
        <ele>162.722</ele>
        <time>2012-10-24T09:46:36Z</time>
      </trkpt>
      <trkpt lat="43.19457" lon="6.36136">
        <ele>162.083</ele>
        <time>2012-10-24T09:46:41Z</time>
      </trkpt>
      <trkpt lat="43.19462" lon="6.36143">
        <ele>161.644</ele>
        <time>2012-10-24T09:46:46Z</time>
      </trkpt>
      <trkpt lat="43.19468" lon="6.3615">
        <ele>161.263</ele>
        <time>2012-10-24T09:46:51Z</time>
      </trkpt>
      <trkpt lat="43.19471" lon="6.36152">
        <ele>160.954</ele>
        <time>2012-10-24T09:46:56Z</time>
      </trkpt>
      <trkpt lat="43.19478" lon="6.36153">
        <ele>160.431</ele>
        <time>2012-10-24T09:47:01Z</time>
      </trkpt>
      <trkpt lat="43.19482" lon="6.36156">
        <ele>160.098</ele>
        <time>2012-10-24T09:47:06Z</time>
      </trkpt>
      <trkpt lat="43.19485" lon="6.36159">
        <ele>160</ele>
        <time>2012-10-24T09:47:11Z</time>
      </trkpt>
      <trkpt lat="43.19485" lon="6.36159">
        <ele>160.006</ele>
        <time>2012-10-24T09:47:21Z</time>
      </trkpt>
      <trkpt lat="43.19486" lon="6.3616">
        <ele>159.842</ele>
        <time>2012-10-24T09:47:36Z</time>
      </trkpt>
      <trkpt lat="43.19485" lon="6.3616">
        <ele>159.94</ele>
        <time>2012-10-24T09:47:41Z</time>
      </trkpt>
      <trkpt lat="43.19484" lon="6.3616">
        <ele>160.096</ele>
        <time>2012-10-24T09:47:51Z</time>
      </trkpt>
      <trkpt lat="43.19483" lon="6.3616">
        <ele>160.278</ele>
        <time>2012-10-24T09:48:01Z</time>
      </trkpt>
      <trkpt lat="43.19484" lon="6.36161">
        <ele>160.296</ele>
        <time>2012-10-24T09:48:16Z</time>
      </trkpt>
      <trkpt lat="43.19486" lon="6.3616">
        <ele>160.436</ele>
        <time>2012-10-24T09:48:56Z</time>
      </trkpt>
      <trkpt lat="43.19489" lon="6.36161">
        <ele>160.391</ele>
        <time>2012-10-24T09:49:01Z</time>
      </trkpt>
      <trkpt lat="43.19494" lon="6.36166">
        <ele>161.348</ele>
        <time>2012-10-24T09:49:06Z</time>
      </trkpt>
      <trkpt lat="43.19504" lon="6.36175">
        <ele>161.292</ele>
        <time>2012-10-24T09:49:11Z</time>
      </trkpt>
      <trkpt lat="43.19509" lon="6.36182">
        <ele>161.647</ele>
        <time>2012-10-24T09:49:16Z</time>
      </trkpt>
      <trkpt lat="43.19512" lon="6.36186">
        <ele>161.831</ele>
        <time>2012-10-24T09:49:21Z</time>
      </trkpt>
      <trkpt lat="43.19519" lon="6.36189">
        <ele>162.016</ele>
        <time>2012-10-24T09:49:26Z</time>
      </trkpt>
      <trkpt lat="43.19523" lon="6.36193">
        <ele>162.447</ele>
        <time>2012-10-24T09:49:31Z</time>
      </trkpt>
      <trkpt lat="43.19527" lon="6.36197">
        <ele>163.013</ele>
        <time>2012-10-24T09:49:36Z</time>
      </trkpt>
      <trkpt lat="43.19532" lon="6.36202">
        <ele>163.211</ele>
        <time>2012-10-24T09:49:41Z</time>
      </trkpt>
      <trkpt lat="43.19536" lon="6.36206">
        <ele>163.594</ele>
        <time>2012-10-24T09:49:46Z</time>
      </trkpt>
      <trkpt lat="43.19543" lon="6.36208">
        <ele>163.842</ele>
        <time>2012-10-24T09:49:51Z</time>
      </trkpt>
      <trkpt lat="43.19548" lon="6.3621">
        <ele>164.027</ele>
        <time>2012-10-24T09:49:56Z</time>
      </trkpt>
      <trkpt lat="43.19552" lon="6.36212">
        <ele>164.408</ele>
        <time>2012-10-24T09:50:01Z</time>
      </trkpt>
      <trkpt lat="43.19555" lon="6.36216">
        <ele>164.828</ele>
        <time>2012-10-24T09:50:06Z</time>
      </trkpt>
      <trkpt lat="43.1956" lon="6.36219">
        <ele>164.931</ele>
        <time>2012-10-24T09:50:11Z</time>
      </trkpt>
      <trkpt lat="43.19565" lon="6.36222">
        <ele>165.203</ele>
        <time>2012-10-24T09:50:16Z</time>
      </trkpt>
      <trkpt lat="43.19569" lon="6.36223">
        <ele>165.401</ele>
        <time>2012-10-24T09:50:21Z</time>
      </trkpt>
      <trkpt lat="43.19571" lon="6.36225">
        <ele>165.322</ele>
        <time>2012-10-24T09:50:26Z</time>
      </trkpt>
      <trkpt lat="43.19574" lon="6.36225">
        <ele>165.507</ele>
        <time>2012-10-24T09:50:31Z</time>
      </trkpt>
      <trkpt lat="43.19579" lon="6.36225">
        <ele>165.766</ele>
        <time>2012-10-24T09:50:36Z</time>
      </trkpt>
      <trkpt lat="43.19583" lon="6.36223">
        <ele>166.091</ele>
        <time>2012-10-24T09:50:41Z</time>
      </trkpt>
      <trkpt lat="43.1959" lon="6.36221">
        <ele>166.54</ele>
        <time>2012-10-24T09:50:46Z</time>
      </trkpt>
      <trkpt lat="43.19596" lon="6.3622">
        <ele>166.828</ele>
        <time>2012-10-24T09:50:51Z</time>
      </trkpt>
      <trkpt lat="43.19601" lon="6.36218">
        <ele>167.301</ele>
        <time>2012-10-24T09:50:56Z</time>
      </trkpt>
      <trkpt lat="43.19605" lon="6.36214">
        <ele>167.66</ele>
        <time>2012-10-24T09:51:01Z</time>
      </trkpt>
      <trkpt lat="43.1961" lon="6.36212">
        <ele>167.999</ele>
        <time>2012-10-24T09:51:06Z</time>
      </trkpt>
      <trkpt lat="43.19617" lon="6.36209">
        <ele>168.279</ele>
        <time>2012-10-24T09:51:11Z</time>
      </trkpt>
      <trkpt lat="43.19621" lon="6.36204">
        <ele>168.699</ele>
        <time>2012-10-24T09:51:16Z</time>
      </trkpt>
      <trkpt lat="43.19626" lon="6.362">
        <ele>169.003</ele>
        <time>2012-10-24T09:51:21Z</time>
      </trkpt>
      <trkpt lat="43.1963" lon="6.36199">
        <ele>169.349</ele>
        <time>2012-10-24T09:51:26Z</time>
      </trkpt>
      <trkpt lat="43.19634" lon="6.36195">
        <ele>169.684</ele>
        <time>2012-10-24T09:51:31Z</time>
      </trkpt>
      <trkpt lat="43.19639" lon="6.36193">
        <ele>170.07</ele>
        <time>2012-10-24T09:51:36Z</time>
      </trkpt>
      <trkpt lat="43.19642" lon="6.36192">
        <ele>170.662</ele>
        <time>2012-10-24T09:51:41Z</time>
      </trkpt>
      <trkpt lat="43.19647" lon="6.36189">
        <ele>170.702</ele>
        <time>2012-10-24T09:51:46Z</time>
      </trkpt>
      <trkpt lat="43.19651" lon="6.36186">
        <ele>171.172</ele>
        <time>2012-10-24T09:51:51Z</time>
      </trkpt>
      <trkpt lat="43.19657" lon="6.36183">
        <ele>171.439</ele>
        <time>2012-10-24T09:51:56Z</time>
      </trkpt>
      <trkpt lat="43.19663" lon="6.36181">
        <ele>171.724</ele>
        <time>2012-10-24T09:52:01Z</time>
      </trkpt>
      <trkpt lat="43.19667" lon="6.36176">
        <ele>171.973</ele>
        <time>2012-10-24T09:52:06Z</time>
      </trkpt>
      <trkpt lat="43.1967" lon="6.36175">
        <ele>172.166</ele>
        <time>2012-10-24T09:52:11Z</time>
      </trkpt>
      <trkpt lat="43.19674" lon="6.36173">
        <ele>172.623</ele>
        <time>2012-10-24T09:52:16Z</time>
      </trkpt>
      <trkpt lat="43.19681" lon="6.36175">
        <ele>172.779</ele>
        <time>2012-10-24T09:52:21Z</time>
      </trkpt>
      <trkpt lat="43.19687" lon="6.36171">
        <ele>173.326</ele>
        <time>2012-10-24T09:52:26Z</time>
      </trkpt>
      <trkpt lat="43.19695" lon="6.3617">
        <ele>173.495</ele>
        <time>2012-10-24T09:52:31Z</time>
      </trkpt>
      <trkpt lat="43.197" lon="6.36168">
        <ele>174.071</ele>
        <time>2012-10-24T09:52:36Z</time>
      </trkpt>
      <trkpt lat="43.19705" lon="6.36168">
        <ele>174.536</ele>
        <time>2012-10-24T09:52:41Z</time>
      </trkpt>
      <trkpt lat="43.19712" lon="6.36168">
        <ele>174.898</ele>
        <time>2012-10-24T09:52:46Z</time>
      </trkpt>
      <trkpt lat="43.19717" lon="6.36167">
        <ele>175.297</ele>
        <time>2012-10-24T09:52:51Z</time>
      </trkpt>
      <trkpt lat="43.1972" lon="6.36165">
        <ele>175.746</ele>
        <time>2012-10-24T09:52:56Z</time>
      </trkpt>
      <trkpt lat="43.19725" lon="6.36162">
        <ele>176.2</ele>
        <time>2012-10-24T09:53:01Z</time>
      </trkpt>
      <trkpt lat="43.19728" lon="6.36159">
        <ele>176.718</ele>
        <time>2012-10-24T09:53:06Z</time>
      </trkpt>
      <trkpt lat="43.19733" lon="6.36157">
        <ele>177.506</ele>
        <time>2012-10-24T09:53:11Z</time>
      </trkpt>
      <trkpt lat="43.19737" lon="6.36155">
        <ele>177.783</ele>
        <time>2012-10-24T09:53:16Z</time>
      </trkpt>
      <trkpt lat="43.19743" lon="6.36155">
        <ele>178.608</ele>
        <time>2012-10-24T09:53:21Z</time>
      </trkpt>
      <trkpt lat="43.19748" lon="6.36153">
        <ele>179.078</ele>
        <time>2012-10-24T09:53:26Z</time>
      </trkpt>
      <trkpt lat="43.19753" lon="6.36155">
        <ele>179.384</ele>
        <time>2012-10-24T09:53:31Z</time>
      </trkpt>
      <trkpt lat="43.19757" lon="6.36155">
        <ele>179.392</ele>
        <time>2012-10-24T09:53:36Z</time>
      </trkpt>
      <trkpt lat="43.19759" lon="6.36153">
        <ele>179.633</ele>
        <time>2012-10-24T09:53:41Z</time>
      </trkpt>
      <trkpt lat="43.19759" lon="6.36154">
        <ele>179.569</ele>
        <time>2012-10-24T09:53:51Z</time>
      </trkpt>
      <trkpt lat="43.19762" lon="6.36157">
        <ele>179.929</ele>
        <time>2012-10-24T09:53:56Z</time>
      </trkpt>
      <trkpt lat="43.19765" lon="6.36151">
        <ele>180.389</ele>
        <time>2012-10-24T09:54:01Z</time>
      </trkpt>
      <trkpt lat="43.19766" lon="6.36146">
        <ele>181.036</ele>
        <time>2012-10-24T09:54:06Z</time>
      </trkpt>
      <trkpt lat="43.19763" lon="6.36141">
        <ele>181.35</ele>
        <time>2012-10-24T09:54:11Z</time>
      </trkpt>
      <trkpt lat="43.19759" lon="6.36142">
        <ele>181.472</ele>
        <time>2012-10-24T09:54:16Z</time>
      </trkpt>
      <trkpt lat="43.19755" lon="6.3614">
        <ele>181.628</ele>
        <time>2012-10-24T09:54:21Z</time>
      </trkpt>
      <trkpt lat="43.19751" lon="6.36138">
        <ele>181.839</ele>
        <time>2012-10-24T09:54:26Z</time>
      </trkpt>
      <trkpt lat="43.19746" lon="6.36139">
        <ele>182.275</ele>
        <time>2012-10-24T09:54:31Z</time>
      </trkpt>
      <trkpt lat="43.19743" lon="6.3614">
        <ele>182.304</ele>
        <time>2012-10-24T09:54:36Z</time>
      </trkpt>
      <trkpt lat="43.19738" lon="6.36139">
        <ele>182.521</ele>
        <time>2012-10-24T09:54:41Z</time>
      </trkpt>
      <trkpt lat="43.19733" lon="6.3614">
        <ele>183.044</ele>
        <time>2012-10-24T09:54:46Z</time>
      </trkpt>
      <trkpt lat="43.19728" lon="6.36141">
        <ele>183.311</ele>
        <time>2012-10-24T09:54:51Z</time>
      </trkpt>
      <trkpt lat="43.19722" lon="6.36139">
        <ele>183.905</ele>
        <time>2012-10-24T09:54:56Z</time>
      </trkpt>
      <trkpt lat="43.19718" lon="6.36136">
        <ele>184.397</ele>
        <time>2012-10-24T09:55:01Z</time>
      </trkpt>
      <trkpt lat="43.19714" lon="6.36131">
        <ele>184.579</ele>
        <time>2012-10-24T09:55:06Z</time>
      </trkpt>
      <trkpt lat="43.19708" lon="6.36127">
        <ele>185.052</ele>
        <time>2012-10-24T09:55:11Z</time>
      </trkpt>
      <trkpt lat="43.19704" lon="6.36121">
        <ele>185.607</ele>
        <time>2012-10-24T09:55:16Z</time>
      </trkpt>
      <trkpt lat="43.19699" lon="6.36117">
        <ele>185.731</ele>
        <time>2012-10-24T09:55:21Z</time>
      </trkpt>
      <trkpt lat="43.19696" lon="6.36117">
        <ele>186.038</ele>
        <time>2012-10-24T09:55:26Z</time>
      </trkpt>
      <trkpt lat="43.1969" lon="6.36117">
        <ele>186.445</ele>
        <time>2012-10-24T09:55:31Z</time>
      </trkpt>
      <trkpt lat="43.19684" lon="6.36116">
        <ele>186.669</ele>
        <time>2012-10-24T09:55:36Z</time>
      </trkpt>
      <trkpt lat="43.1968" lon="6.3612">
        <ele>187.105</ele>
        <time>2012-10-24T09:55:41Z</time>
      </trkpt>
      <trkpt lat="43.19675" lon="6.36121">
        <ele>187.512</ele>
        <time>2012-10-24T09:55:46Z</time>
      </trkpt>
      <trkpt lat="43.19669" lon="6.36124">
        <ele>187.636</ele>
        <time>2012-10-24T09:55:51Z</time>
      </trkpt>
      <trkpt lat="43.19664" lon="6.36127">
        <ele>188.094</ele>
        <time>2012-10-24T09:55:56Z</time>
      </trkpt>
      <trkpt lat="43.19659" lon="6.36128">
        <ele>188.416</ele>
        <time>2012-10-24T09:56:01Z</time>
      </trkpt>
      <trkpt lat="43.19654" lon="6.36126">
        <ele>188.82</ele>
        <time>2012-10-24T09:56:06Z</time>
      </trkpt>
      <trkpt lat="43.19649" lon="6.36124">
        <ele>189.338</ele>
        <time>2012-10-24T09:56:11Z</time>
      </trkpt>
      <trkpt lat="43.19646" lon="6.3612">
        <ele>190.001</ele>
        <time>2012-10-24T09:56:16Z</time>
      </trkpt>
      <trkpt lat="43.19649" lon="6.36117">
        <ele>190.503</ele>
        <time>2012-10-24T09:56:21Z</time>
      </trkpt>
      <trkpt lat="43.19652" lon="6.36116">
        <ele>191.037</ele>
        <time>2012-10-24T09:56:26Z</time>
      </trkpt>
      <trkpt lat="43.19659" lon="6.36117">
        <ele>191.367</ele>
        <time>2012-10-24T09:56:31Z</time>
      </trkpt>
      <trkpt lat="43.19662" lon="6.36115">
        <ele>191.608</ele>
        <time>2012-10-24T09:56:36Z</time>
      </trkpt>
      <trkpt lat="43.19667" lon="6.36115">
        <ele>191.758</ele>
        <time>2012-10-24T09:56:41Z</time>
      </trkpt>
      <trkpt lat="43.19673" lon="6.36113">
        <ele>192.197</ele>
        <time>2012-10-24T09:56:46Z</time>
      </trkpt>
      <trkpt lat="43.19678" lon="6.3611">
        <ele>192.474</ele>
        <time>2012-10-24T09:56:51Z</time>
      </trkpt>
      <trkpt lat="43.19682" lon="6.36107">
        <ele>192.86</ele>
        <time>2012-10-24T09:56:56Z</time>
      </trkpt>
      <trkpt lat="43.19686" lon="6.36104">
        <ele>193.122</ele>
        <time>2012-10-24T09:57:01Z</time>
      </trkpt>
      <trkpt lat="43.19689" lon="6.36101">
        <ele>193.449</ele>
        <time>2012-10-24T09:57:06Z</time>
      </trkpt>
      <trkpt lat="43.19696" lon="6.361">
        <ele>194.002</ele>
        <time>2012-10-24T09:57:11Z</time>
      </trkpt>
      <trkpt lat="43.197" lon="6.361">
        <ele>194.324</ele>
        <time>2012-10-24T09:57:16Z</time>
      </trkpt>
      <trkpt lat="43.19707" lon="6.361">
        <ele>194.808</ele>
        <time>2012-10-24T09:57:21Z</time>
      </trkpt>
      <trkpt lat="43.19712" lon="6.361">
        <ele>195.016</ele>
        <time>2012-10-24T09:57:26Z</time>
      </trkpt>
      <trkpt lat="43.19718" lon="6.361">
        <ele>195.437</ele>
        <time>2012-10-24T09:57:31Z</time>
      </trkpt>
      <trkpt lat="43.19724" lon="6.36102">
        <ele>195.775</ele>
        <time>2012-10-24T09:57:36Z</time>
      </trkpt>
      <trkpt lat="43.19728" lon="6.361">
        <ele>196.483</ele>
        <time>2012-10-24T09:57:41Z</time>
      </trkpt>
      <trkpt lat="43.1973" lon="6.36099">
        <ele>196.845</ele>
        <time>2012-10-24T09:57:46Z</time>
      </trkpt>
      <trkpt lat="43.19736" lon="6.36098">
        <ele>197.389</ele>
        <time>2012-10-24T09:57:51Z</time>
      </trkpt>
      <trkpt lat="43.19741" lon="6.36095">
        <ele>197.873</ele>
        <time>2012-10-24T09:57:56Z</time>
      </trkpt>
      <trkpt lat="43.19746" lon="6.36093">
        <ele>198.573</ele>
        <time>2012-10-24T09:58:01Z</time>
      </trkpt>
      <trkpt lat="43.19751" lon="6.36087">
        <ele>199.027</ele>
        <time>2012-10-24T09:58:06Z</time>
      </trkpt>
      <trkpt lat="43.19754" lon="6.36082">
        <ele>199.667</ele>
        <time>2012-10-24T09:58:11Z</time>
      </trkpt>
      <trkpt lat="43.19758" lon="6.3608">
        <ele>200.246</ele>
        <time>2012-10-24T09:58:16Z</time>
      </trkpt>
      <trkpt lat="43.1976" lon="6.36076">
        <ele>200.523</ele>
        <time>2012-10-24T09:58:21Z</time>
      </trkpt>
      <trkpt lat="43.19765" lon="6.36076">
        <ele>201.144</ele>
        <time>2012-10-24T09:58:26Z</time>
      </trkpt>
      <trkpt lat="43.19773" lon="6.36075">
        <ele>201.929</ele>
        <time>2012-10-24T09:58:31Z</time>
      </trkpt>
      <trkpt lat="43.19777" lon="6.36071">
        <ele>202.288</ele>
        <time>2012-10-24T09:58:36Z</time>
      </trkpt>
      <trkpt lat="43.19781" lon="6.36068">
        <ele>202.996</ele>
        <time>2012-10-24T09:58:41Z</time>
      </trkpt>
      <trkpt lat="43.19785" lon="6.36065">
        <ele>203.25</ele>
        <time>2012-10-24T09:58:46Z</time>
      </trkpt>
      <trkpt lat="43.19789" lon="6.3606">
        <ele>203.95</ele>
        <time>2012-10-24T09:58:51Z</time>
      </trkpt>
      <trkpt lat="43.19794" lon="6.36057">
        <ele>204.217</ele>
        <time>2012-10-24T09:58:56Z</time>
      </trkpt>
      <trkpt lat="43.198" lon="6.36055">
        <ele>204.745</ele>
        <time>2012-10-24T09:59:01Z</time>
      </trkpt>
      <trkpt lat="43.19805" lon="6.36056">
        <ele>205.144</ele>
        <time>2012-10-24T09:59:06Z</time>
      </trkpt>
      <trkpt lat="43.19811" lon="6.36054">
        <ele>205.67</ele>
        <time>2012-10-24T09:59:11Z</time>
      </trkpt>
      <trkpt lat="43.19817" lon="6.36053">
        <ele>205.927</ele>
        <time>2012-10-24T09:59:16Z</time>
      </trkpt>
      <trkpt lat="43.19823" lon="6.36052">
        <ele>206.22</ele>
        <time>2012-10-24T09:59:21Z</time>
      </trkpt>
      <trkpt lat="43.19826" lon="6.36053">
        <ele>206.632</ele>
        <time>2012-10-24T09:59:26Z</time>
      </trkpt>
      <trkpt lat="43.19833" lon="6.36053">
        <ele>206.933</ele>
        <time>2012-10-24T09:59:31Z</time>
      </trkpt>
      <trkpt lat="43.19839" lon="6.36054">
        <ele>207.24</ele>
        <time>2012-10-24T09:59:36Z</time>
      </trkpt>
      <trkpt lat="43.19845" lon="6.36053">
        <ele>207.612</ele>
        <time>2012-10-24T09:59:41Z</time>
      </trkpt>
      <trkpt lat="43.19849" lon="6.36053">
        <ele>208.038</ele>
        <time>2012-10-24T09:59:46Z</time>
      </trkpt>
      <trkpt lat="43.19856" lon="6.36051">
        <ele>208.712</ele>
        <time>2012-10-24T09:59:51Z</time>
      </trkpt>
      <trkpt lat="43.19861" lon="6.36051">
        <ele>208.957</ele>
        <time>2012-10-24T09:59:56Z</time>
      </trkpt>
      <trkpt lat="43.19865" lon="6.36052">
        <ele>209.62</ele>
        <time>2012-10-24T10:00:01Z</time>
      </trkpt>
      <trkpt lat="43.19869" lon="6.36049">
        <ele>210.033</ele>
        <time>2012-10-24T10:00:06Z</time>
      </trkpt>
      <trkpt lat="43.19875" lon="6.36046">
        <ele>210.619</ele>
        <time>2012-10-24T10:00:11Z</time>
      </trkpt>
      <trkpt lat="43.19881" lon="6.36045">
        <ele>211.209</ele>
        <time>2012-10-24T10:00:16Z</time>
      </trkpt>
      <trkpt lat="43.19888" lon="6.36044">
        <ele>211.761</ele>
        <time>2012-10-24T10:00:21Z</time>
      </trkpt>
      <trkpt lat="43.19894" lon="6.36042">
        <ele>212.231</ele>
        <time>2012-10-24T10:00:26Z</time>
      </trkpt>
      <trkpt lat="43.19899" lon="6.36041">
        <ele>212.789</ele>
        <time>2012-10-24T10:00:31Z</time>
      </trkpt>
      <trkpt lat="43.19903" lon="6.36039">
        <ele>213.452</ele>
        <time>2012-10-24T10:00:36Z</time>
      </trkpt>
      <trkpt lat="43.19909" lon="6.36038">
        <ele>214.06</ele>
        <time>2012-10-24T10:00:41Z</time>
      </trkpt>
      <trkpt lat="43.19914" lon="6.36036">
        <ele>214.691</ele>
        <time>2012-10-24T10:00:46Z</time>
      </trkpt>
      <trkpt lat="43.19918" lon="6.36032">
        <ele>215.373</ele>
        <time>2012-10-24T10:00:51Z</time>
      </trkpt>
      <trkpt lat="43.19923" lon="6.36033">
        <ele>216.089</ele>
        <time>2012-10-24T10:00:56Z</time>
      </trkpt>
      <trkpt lat="43.19929" lon="6.36034">
        <ele>216.414</ele>
        <time>2012-10-24T10:01:01Z</time>
      </trkpt>
      <trkpt lat="43.19933" lon="6.36036">
        <ele>217.03</ele>
        <time>2012-10-24T10:01:06Z</time>
      </trkpt>
      <trkpt lat="43.19939" lon="6.36041">
        <ele>217.688</ele>
        <time>2012-10-24T10:01:11Z</time>
      </trkpt>
      <trkpt lat="43.19943" lon="6.36044">
        <ele>218.351</ele>
        <time>2012-10-24T10:01:16Z</time>
      </trkpt>
      <trkpt lat="43.19947" lon="6.36045">
        <ele>219.114</ele>
        <time>2012-10-24T10:01:21Z</time>
      </trkpt>
      <trkpt lat="43.19951" lon="6.36048">
        <ele>219.838</ele>
        <time>2012-10-24T10:01:26Z</time>
      </trkpt>
      <trkpt lat="43.19958" lon="6.3605">
        <ele>220.356</ele>
        <time>2012-10-24T10:01:31Z</time>
      </trkpt>
      <trkpt lat="43.19964" lon="6.36049">
        <ele>221.086</ele>
        <time>2012-10-24T10:01:36Z</time>
      </trkpt>
      <trkpt lat="43.19967" lon="6.36048">
        <ele>221.78</ele>
        <time>2012-10-24T10:01:41Z</time>
      </trkpt>
      <trkpt lat="43.1997" lon="6.36051">
        <ele>222.409</ele>
        <time>2012-10-24T10:01:46Z</time>
      </trkpt>
      <trkpt lat="43.19975" lon="6.36053">
        <ele>223.03</ele>
        <time>2012-10-24T10:01:51Z</time>
      </trkpt>
      <trkpt lat="43.1998" lon="6.36058">
        <ele>223.329</ele>
        <time>2012-10-24T10:01:56Z</time>
      </trkpt>
      <trkpt lat="43.19985" lon="6.36062">
        <ele>223.929</ele>
        <time>2012-10-24T10:02:01Z</time>
      </trkpt>
      <trkpt lat="43.19989" lon="6.36063">
        <ele>224.555</ele>
        <time>2012-10-24T10:02:06Z</time>
      </trkpt>
      <trkpt lat="43.19994" lon="6.36064">
        <ele>225.083</ele>
        <time>2012-10-24T10:02:11Z</time>
      </trkpt>
      <trkpt lat="43.19998" lon="6.36069">
        <ele>225.517</ele>
        <time>2012-10-24T10:02:16Z</time>
      </trkpt>
      <trkpt lat="43.20003" lon="6.36072">
        <ele>226.138</ele>
        <time>2012-10-24T10:02:21Z</time>
      </trkpt>
      <trkpt lat="43.20008" lon="6.36076">
        <ele>226.743</ele>
        <time>2012-10-24T10:02:26Z</time>
      </trkpt>
      <trkpt lat="43.20014" lon="6.3608">
        <ele>227.179</ele>
        <time>2012-10-24T10:02:31Z</time>
      </trkpt>
      <trkpt lat="43.20018" lon="6.36081">
        <ele>227.712</ele>
        <time>2012-10-24T10:02:36Z</time>
      </trkpt>
      <trkpt lat="43.20023" lon="6.36079">
        <ele>228.473</ele>
        <time>2012-10-24T10:02:41Z</time>
      </trkpt>
      <trkpt lat="43.20027" lon="6.36077">
        <ele>229.068</ele>
        <time>2012-10-24T10:02:46Z</time>
      </trkpt>
      <trkpt lat="43.20031" lon="6.36076">
        <ele>229.633</ele>
        <time>2012-10-24T10:02:51Z</time>
      </trkpt>
      <trkpt lat="43.20035" lon="6.36075">
        <ele>230.32</ele>
        <time>2012-10-24T10:02:56Z</time>
      </trkpt>
      <trkpt lat="43.2004" lon="6.36073">
        <ele>231.192</ele>
        <time>2012-10-24T10:03:01Z</time>
      </trkpt>
      <trkpt lat="43.20045" lon="6.36071">
        <ele>231.853</ele>
        <time>2012-10-24T10:03:06Z</time>
      </trkpt>
      <trkpt lat="43.20051" lon="6.3607">
        <ele>232.35</ele>
        <time>2012-10-24T10:03:11Z</time>
      </trkpt>
      <trkpt lat="43.20057" lon="6.36069">
        <ele>233.253</ele>
        <time>2012-10-24T10:03:16Z</time>
      </trkpt>
      <trkpt lat="43.20063" lon="6.36068">
        <ele>234.083</ele>
        <time>2012-10-24T10:03:21Z</time>
      </trkpt>
      <trkpt lat="43.20065" lon="6.36065">
        <ele>234.781</ele>
        <time>2012-10-24T10:03:26Z</time>
      </trkpt>
      <trkpt lat="43.20068" lon="6.36061">
        <ele>235.42</ele>
        <time>2012-10-24T10:03:31Z</time>
      </trkpt>
      <trkpt lat="43.20074" lon="6.36059">
        <ele>236.009</ele>
        <time>2012-10-24T10:03:36Z</time>
      </trkpt>
      <trkpt lat="43.20078" lon="6.36057">
        <ele>236.649</ele>
        <time>2012-10-24T10:03:41Z</time>
      </trkpt>
      <trkpt lat="43.20082" lon="6.36051">
        <ele>237.685</ele>
        <time>2012-10-24T10:03:46Z</time>
      </trkpt>
      <trkpt lat="43.20088" lon="6.3605">
        <ele>238.237</ele>
        <time>2012-10-24T10:03:51Z</time>
      </trkpt>
      <trkpt lat="43.20094" lon="6.3605">
        <ele>238.596</ele>
        <time>2012-10-24T10:03:56Z</time>
      </trkpt>
      <trkpt lat="43.20098" lon="6.3605">
        <ele>239.347</ele>
        <time>2012-10-24T10:04:01Z</time>
      </trkpt>
      <trkpt lat="43.20105" lon="6.3605">
        <ele>240.197</ele>
        <time>2012-10-24T10:04:06Z</time>
      </trkpt>
      <trkpt lat="43.20111" lon="6.36052">
        <ele>240.879</ele>
        <time>2012-10-24T10:04:11Z</time>
      </trkpt>
      <trkpt lat="43.20113" lon="6.36055">
        <ele>241.672</ele>
        <time>2012-10-24T10:04:16Z</time>
      </trkpt>
      <trkpt lat="43.20119" lon="6.36058">
        <ele>242.512</ele>
        <time>2012-10-24T10:04:21Z</time>
      </trkpt>
      <trkpt lat="43.20123" lon="6.36057">
        <ele>243.141</ele>
        <time>2012-10-24T10:04:26Z</time>
      </trkpt>
      <trkpt lat="43.20127" lon="6.36055">
        <ele>243.852</ele>
        <time>2012-10-24T10:04:31Z</time>
      </trkpt>
      <trkpt lat="43.20131" lon="6.36054">
        <ele>244.47</ele>
        <time>2012-10-24T10:04:36Z</time>
      </trkpt>
      <trkpt lat="43.20135" lon="6.36051">
        <ele>245.276</ele>
        <time>2012-10-24T10:04:41Z</time>
      </trkpt>
      <trkpt lat="43.20139" lon="6.3605">
        <ele>245.939</ele>
        <time>2012-10-24T10:04:46Z</time>
      </trkpt>
      <trkpt lat="43.20142" lon="6.36048">
        <ele>246.637</ele>
        <time>2012-10-24T10:04:51Z</time>
      </trkpt>
      <trkpt lat="43.20149" lon="6.36048">
        <ele>247.313</ele>
        <time>2012-10-24T10:04:56Z</time>
      </trkpt>
      <trkpt lat="43.20156" lon="6.36045">
        <ele>248.074</ele>
        <time>2012-10-24T10:05:01Z</time>
      </trkpt>
      <trkpt lat="43.2016" lon="6.36044">
        <ele>248.632</ele>
        <time>2012-10-24T10:05:06Z</time>
      </trkpt>
      <trkpt lat="43.20164" lon="6.36043">
        <ele>249.382</ele>
        <time>2012-10-24T10:05:11Z</time>
      </trkpt>
      <trkpt lat="43.20169" lon="6.36045">
        <ele>249.953</ele>
        <time>2012-10-24T10:05:16Z</time>
      </trkpt>
      <trkpt lat="43.20174" lon="6.36043">
        <ele>250.352</ele>
        <time>2012-10-24T10:05:21Z</time>
      </trkpt>
      <trkpt lat="43.20179" lon="6.36041">
        <ele>250.997</ele>
        <time>2012-10-24T10:05:26Z</time>
      </trkpt>
      <trkpt lat="43.20182" lon="6.36037">
        <ele>251.641</ele>
        <time>2012-10-24T10:05:31Z</time>
      </trkpt>
      <trkpt lat="43.20187" lon="6.36035">
        <ele>252.246</ele>
        <time>2012-10-24T10:05:36Z</time>
      </trkpt>
      <trkpt lat="43.20191" lon="6.36034">
        <ele>252.793</ele>
        <time>2012-10-24T10:05:41Z</time>
      </trkpt>
      <trkpt lat="43.20197" lon="6.36037">
        <ele>253.348</ele>
        <time>2012-10-24T10:05:46Z</time>
      </trkpt>
      <trkpt lat="43.202" lon="6.36036">
        <ele>254.08</ele>
        <time>2012-10-24T10:05:51Z</time>
      </trkpt>
      <trkpt lat="43.20203" lon="6.36035">
        <ele>254.654</ele>
        <time>2012-10-24T10:05:56Z</time>
      </trkpt>
      <trkpt lat="43.20209" lon="6.36034">
        <ele>255.227</ele>
        <time>2012-10-24T10:06:01Z</time>
      </trkpt>
      <trkpt lat="43.20216" lon="6.36031">
        <ele>255.88</ele>
        <time>2012-10-24T10:06:06Z</time>
      </trkpt>
      <trkpt lat="43.20219" lon="6.36028">
        <ele>256.247</ele>
        <time>2012-10-24T10:06:11Z</time>
      </trkpt>
      <trkpt lat="43.20224" lon="6.36026">
        <ele>256.9</ele>
        <time>2012-10-24T10:06:16Z</time>
      </trkpt>
      <trkpt lat="43.20227" lon="6.36024">
        <ele>257.343</ele>
        <time>2012-10-24T10:06:21Z</time>
      </trkpt>
      <trkpt lat="43.20231" lon="6.36023">
        <ele>257.729</ele>
        <time>2012-10-24T10:06:26Z</time>
      </trkpt>
      <trkpt lat="43.20237" lon="6.36021">
        <ele>258.03</ele>
        <time>2012-10-24T10:06:31Z</time>
      </trkpt>
      <trkpt lat="43.20242" lon="6.36017">
        <ele>258.207</ele>
        <time>2012-10-24T10:06:36Z</time>
      </trkpt>
      <trkpt lat="43.2025" lon="6.36014">
        <ele>258.427</ele>
        <time>2012-10-24T10:06:41Z</time>
      </trkpt>
      <trkpt lat="43.20253" lon="6.36013">
        <ele>258.887</ele>
        <time>2012-10-24T10:06:46Z</time>
      </trkpt>
      <trkpt lat="43.20259" lon="6.36009">
        <ele>258.807</ele>
        <time>2012-10-24T10:06:51Z</time>
      </trkpt>
      <trkpt lat="43.20264" lon="6.36005">
        <ele>259.151</ele>
        <time>2012-10-24T10:06:56Z</time>
      </trkpt>
      <trkpt lat="43.20267" lon="6.35998">
        <ele>260.041</ele>
        <time>2012-10-24T10:07:01Z</time>
      </trkpt>
      <trkpt lat="43.20262" lon="6.35998">
        <ele>260.496</ele>
        <time>2012-10-24T10:07:06Z</time>
      </trkpt>
      <trkpt lat="43.2026" lon="6.36001">
        <ele>261.217</ele>
        <time>2012-10-24T10:07:11Z</time>
      </trkpt>
      <trkpt lat="43.20255" lon="6.36001">
        <ele>261.88</ele>
        <time>2012-10-24T10:07:16Z</time>
      </trkpt>
      <trkpt lat="43.20249" lon="6.36003">
        <ele>262.242</ele>
        <time>2012-10-24T10:07:21Z</time>
      </trkpt>
      <trkpt lat="43.20245" lon="6.36003">
        <ele>262.604</ele>
        <time>2012-10-24T10:07:26Z</time>
      </trkpt>
      <trkpt lat="43.2024" lon="6.36004">
        <ele>263.093</ele>
        <time>2012-10-24T10:07:31Z</time>
      </trkpt>
      <trkpt lat="43.20233" lon="6.36005">
        <ele>263.283</ele>
        <time>2012-10-24T10:07:36Z</time>
      </trkpt>
      <trkpt lat="43.20227" lon="6.36006">
        <ele>263.886</ele>
        <time>2012-10-24T10:07:41Z</time>
      </trkpt>
      <trkpt lat="43.2022" lon="6.36005">
        <ele>264.346</ele>
        <time>2012-10-24T10:07:46Z</time>
      </trkpt>
      <trkpt lat="43.20215" lon="6.36007">
        <ele>264.951</ele>
        <time>2012-10-24T10:07:51Z</time>
      </trkpt>
      <trkpt lat="43.2021" lon="6.36006">
        <ele>265.294</ele>
        <time>2012-10-24T10:07:56Z</time>
      </trkpt>
      <trkpt lat="43.20202" lon="6.36008">
        <ele>265.609</ele>
        <time>2012-10-24T10:08:01Z</time>
      </trkpt>
      <trkpt lat="43.20198" lon="6.36007">
        <ele>266.034</ele>
        <time>2012-10-24T10:08:06Z</time>
      </trkpt>
      <trkpt lat="43.20194" lon="6.36006">
        <ele>266.531</ele>
        <time>2012-10-24T10:08:11Z</time>
      </trkpt>
      <trkpt lat="43.20188" lon="6.36005">
        <ele>266.782</ele>
        <time>2012-10-24T10:08:16Z</time>
      </trkpt>
      <trkpt lat="43.20183" lon="6.36005">
        <ele>267.183</ele>
        <time>2012-10-24T10:08:21Z</time>
      </trkpt>
      <trkpt lat="43.20177" lon="6.36001">
        <ele>267.569</ele>
        <time>2012-10-24T10:08:26Z</time>
      </trkpt>
      <trkpt lat="43.2017" lon="6.36002">
        <ele>268.108</ele>
        <time>2012-10-24T10:08:31Z</time>
      </trkpt>
      <trkpt lat="43.20165" lon="6.36001">
        <ele>268.761</ele>
        <time>2012-10-24T10:08:36Z</time>
      </trkpt>
      <trkpt lat="43.20158" lon="6.35999">
        <ele>269.046</ele>
        <time>2012-10-24T10:08:41Z</time>
      </trkpt>
      <trkpt lat="43.20153" lon="6.35996">
        <ele>269.424</ele>
        <time>2012-10-24T10:08:46Z</time>
      </trkpt>
      <trkpt lat="43.20148" lon="6.35996">
        <ele>269.966</ele>
        <time>2012-10-24T10:08:51Z</time>
      </trkpt>
      <trkpt lat="43.20143" lon="6.35995">
        <ele>270.37</ele>
        <time>2012-10-24T10:08:56Z</time>
      </trkpt>
      <trkpt lat="43.20138" lon="6.35995">
        <ele>270.7</ele>
        <time>2012-10-24T10:09:01Z</time>
      </trkpt>
      <trkpt lat="43.20132" lon="6.35994">
        <ele>271.324</ele>
        <time>2012-10-24T10:09:06Z</time>
      </trkpt>
      <trkpt lat="43.20129" lon="6.3599">
        <ele>271.776</ele>
        <time>2012-10-24T10:09:11Z</time>
      </trkpt>
      <trkpt lat="43.20131" lon="6.35988">
        <ele>272.492</ele>
        <time>2012-10-24T10:09:16Z</time>
      </trkpt>
      <trkpt lat="43.20134" lon="6.35989">
        <ele>272.841</ele>
        <time>2012-10-24T10:09:21Z</time>
      </trkpt>
      <trkpt lat="43.20139" lon="6.35987">
        <ele>273.189</ele>
        <time>2012-10-24T10:09:26Z</time>
      </trkpt>
      <trkpt lat="43.20146" lon="6.35989">
        <ele>273.459</ele>
        <time>2012-10-24T10:09:31Z</time>
      </trkpt>
      <trkpt lat="43.20152" lon="6.35989">
        <ele>273.837</ele>
        <time>2012-10-24T10:09:36Z</time>
      </trkpt>
      <trkpt lat="43.20157" lon="6.35985">
        <ele>274.548</ele>
        <time>2012-10-24T10:09:41Z</time>
      </trkpt>
      <trkpt lat="43.20163" lon="6.35983">
        <ele>274.873</ele>
        <time>2012-10-24T10:09:46Z</time>
      </trkpt>
      <trkpt lat="43.20167" lon="6.35983">
        <ele>275.229</ele>
        <time>2012-10-24T10:09:51Z</time>
      </trkpt>
      <trkpt lat="43.20173" lon="6.35979">
        <ele>275.509</ele>
        <time>2012-10-24T10:09:56Z</time>
      </trkpt>
      <trkpt lat="43.20177" lon="6.35978">
        <ele>275.998</ele>
        <time>2012-10-24T10:10:01Z</time>
      </trkpt>
      <trkpt lat="43.20181" lon="6.35976">
        <ele>276.725</ele>
        <time>2012-10-24T10:10:06Z</time>
      </trkpt>
      <trkpt lat="43.20188" lon="6.35973">
        <ele>277.195</ele>
        <time>2012-10-24T10:10:11Z</time>
      </trkpt>
      <trkpt lat="43.20194" lon="6.35973">
        <ele>277.578</ele>
        <time>2012-10-24T10:10:16Z</time>
      </trkpt>
      <trkpt lat="43.20198" lon="6.3597">
        <ele>278.175</ele>
        <time>2012-10-24T10:10:21Z</time>
      </trkpt>
      <trkpt lat="43.20205" lon="6.35967">
        <ele>278.479</ele>
        <time>2012-10-24T10:10:26Z</time>
      </trkpt>
      <trkpt lat="43.20209" lon="6.35962">
        <ele>278.852</ele>
        <time>2012-10-24T10:10:31Z</time>
      </trkpt>
      <trkpt lat="43.20213" lon="6.35958">
        <ele>279.166</ele>
        <time>2012-10-24T10:10:36Z</time>
      </trkpt>
      <trkpt lat="43.20219" lon="6.35956">
        <ele>279.549</ele>
        <time>2012-10-24T10:10:41Z</time>
      </trkpt>
      <trkpt lat="43.20223" lon="6.35952">
        <ele>280.194</ele>
        <time>2012-10-24T10:10:46Z</time>
      </trkpt>
      <trkpt lat="43.20227" lon="6.3595">
        <ele>280.567</ele>
        <time>2012-10-24T10:10:51Z</time>
      </trkpt>
      <trkpt lat="43.20234" lon="6.35948">
        <ele>280.736</ele>
        <time>2012-10-24T10:10:56Z</time>
      </trkpt>
      <trkpt lat="43.20241" lon="6.35942">
        <ele>281.256</ele>
        <time>2012-10-24T10:11:01Z</time>
      </trkpt>
      <trkpt lat="43.20245" lon="6.35935">
        <ele>281.32</ele>
        <time>2012-10-24T10:11:06Z</time>
      </trkpt>
      <trkpt lat="43.20248" lon="6.3593">
        <ele>281.415</ele>
        <time>2012-10-24T10:11:11Z</time>
      </trkpt>
      <trkpt lat="43.20253" lon="6.35927">
        <ele>281.698</ele>
        <time>2012-10-24T10:11:16Z</time>
      </trkpt>
      <trkpt lat="43.20256" lon="6.35925">
        <ele>281.856</ele>
        <time>2012-10-24T10:11:21Z</time>
      </trkpt>
      <trkpt lat="43.20259" lon="6.35922">
        <ele>282.512</ele>
        <time>2012-10-24T10:11:26Z</time>
      </trkpt>
      <trkpt lat="43.20254" lon="6.35921">
        <ele>283.056</ele>
        <time>2012-10-24T10:11:31Z</time>
      </trkpt>
      <trkpt lat="43.20251" lon="6.35925">
        <ele>283.42</ele>
        <time>2012-10-24T10:11:36Z</time>
      </trkpt>
      <trkpt lat="43.20247" lon="6.35928">
        <ele>283.679</ele>
        <time>2012-10-24T10:11:41Z</time>
      </trkpt>
      <trkpt lat="43.20243" lon="6.35931">
        <ele>283.724</ele>
        <time>2012-10-24T10:11:46Z</time>
      </trkpt>
      <trkpt lat="43.20239" lon="6.35934">
        <ele>284.068</ele>
        <time>2012-10-24T10:11:51Z</time>
      </trkpt>
      <trkpt lat="43.20236" lon="6.35936">
        <ele>284.324</ele>
        <time>2012-10-24T10:11:56Z</time>
      </trkpt>
      <trkpt lat="43.20227" lon="6.35938">
        <ele>284.567</ele>
        <time>2012-10-24T10:12:01Z</time>
      </trkpt>
      <trkpt lat="43.20221" lon="6.35939">
        <ele>284.723</ele>
        <time>2012-10-24T10:12:06Z</time>
      </trkpt>
      <trkpt lat="43.20215" lon="6.35941">
        <ele>285.046</ele>
        <time>2012-10-24T10:12:11Z</time>
      </trkpt>
      <trkpt lat="43.20211" lon="6.35945">
        <ele>285.17</ele>
        <time>2012-10-24T10:12:16Z</time>
      </trkpt>
      <trkpt lat="43.20206" lon="6.35946">
        <ele>285.59</ele>
        <time>2012-10-24T10:12:21Z</time>
      </trkpt>
      <trkpt lat="43.20199" lon="6.35946">
        <ele>285.26</ele>
        <time>2012-10-24T10:12:26Z</time>
      </trkpt>
      <trkpt lat="43.20192" lon="6.35949">
        <ele>285.894</ele>
        <time>2012-10-24T10:12:31Z</time>
      </trkpt>
      <trkpt lat="43.20189" lon="6.35952">
        <ele>286.248</ele>
        <time>2012-10-24T10:12:36Z</time>
      </trkpt>
      <trkpt lat="43.20184" lon="6.35954">
        <ele>286.47</ele>
        <time>2012-10-24T10:12:41Z</time>
      </trkpt>
      <trkpt lat="43.2018" lon="6.35954">
        <ele>286.906</ele>
        <time>2012-10-24T10:12:46Z</time>
      </trkpt>
      <trkpt lat="43.20176" lon="6.35955">
        <ele>287.157</ele>
        <time>2012-10-24T10:12:51Z</time>
      </trkpt>
      <trkpt lat="43.20168" lon="6.35957">
        <ele>287.41</ele>
        <time>2012-10-24T10:12:56Z</time>
      </trkpt>
      <trkpt lat="43.20162" lon="6.35957">
        <ele>287.482</ele>
        <time>2012-10-24T10:13:01Z</time>
      </trkpt>
      <trkpt lat="43.20158" lon="6.35959">
        <ele>287.741</ele>
        <time>2012-10-24T10:13:06Z</time>
      </trkpt>
      <trkpt lat="43.20151" lon="6.35958">
        <ele>288.293</ele>
        <time>2012-10-24T10:13:11Z</time>
      </trkpt>
      <trkpt lat="43.20145" lon="6.35956">
        <ele>288.354</ele>
        <time>2012-10-24T10:13:16Z</time>
      </trkpt>
      <trkpt lat="43.20139" lon="6.35953">
        <ele>288.623</ele>
        <time>2012-10-24T10:13:21Z</time>
      </trkpt>
      <trkpt lat="43.20133" lon="6.35953">
        <ele>288.94</ele>
        <time>2012-10-24T10:13:26Z</time>
      </trkpt>
      <trkpt lat="43.20127" lon="6.35954">
        <ele>289.072</ele>
        <time>2012-10-24T10:13:31Z</time>
      </trkpt>
      <trkpt lat="43.2012" lon="6.35953">
        <ele>289.26</ele>
        <time>2012-10-24T10:13:36Z</time>
      </trkpt>
      <trkpt lat="43.20115" lon="6.35954">
        <ele>289.551</ele>
        <time>2012-10-24T10:13:41Z</time>
      </trkpt>
      <trkpt lat="43.2011" lon="6.35953">
        <ele>289.812</ele>
        <time>2012-10-24T10:13:46Z</time>
      </trkpt>
      <trkpt lat="43.20104" lon="6.3595">
        <ele>290.312</ele>
        <time>2012-10-24T10:13:51Z</time>
      </trkpt>
      <trkpt lat="43.20099" lon="6.35949">
        <ele>290.415</ele>
        <time>2012-10-24T10:13:56Z</time>
      </trkpt>
      <trkpt lat="43.20092" lon="6.35947">
        <ele>290.6</ele>
        <time>2012-10-24T10:14:01Z</time>
      </trkpt>
      <trkpt lat="43.20088" lon="6.35948">
        <ele>290.798</ele>
        <time>2012-10-24T10:14:06Z</time>
      </trkpt>
      <trkpt lat="43.20082" lon="6.35949">
        <ele>291.133</ele>
        <time>2012-10-24T10:14:11Z</time>
      </trkpt>
      <trkpt lat="43.20076" lon="6.3595">
        <ele>291.54</ele>
        <time>2012-10-24T10:14:16Z</time>
      </trkpt>
      <trkpt lat="43.2007" lon="6.35951">
        <ele>291.778</ele>
        <time>2012-10-24T10:14:21Z</time>
      </trkpt>
      <trkpt lat="43.20064" lon="6.35953">
        <ele>291.855</ele>
        <time>2012-10-24T10:14:26Z</time>
      </trkpt>
      <trkpt lat="43.2006" lon="6.35951">
        <ele>292.145</ele>
        <time>2012-10-24T10:14:31Z</time>
      </trkpt>
      <trkpt lat="43.20054" lon="6.35953">
        <ele>292.267</ele>
        <time>2012-10-24T10:14:36Z</time>
      </trkpt>
      <trkpt lat="43.20048" lon="6.35953">
        <ele>292.706</ele>
        <time>2012-10-24T10:14:41Z</time>
      </trkpt>
      <trkpt lat="43.20042" lon="6.35952">
        <ele>293.046</ele>
        <time>2012-10-24T10:14:46Z</time>
      </trkpt>
      <trkpt lat="43.20037" lon="6.3595">
        <ele>293.334</ele>
        <time>2012-10-24T10:14:51Z</time>
      </trkpt>
      <trkpt lat="43.20033" lon="6.35948">
        <ele>293.377</ele>
        <time>2012-10-24T10:14:56Z</time>
      </trkpt>
      <trkpt lat="43.20028" lon="6.35949">
        <ele>293.636</ele>
        <time>2012-10-24T10:15:01Z</time>
      </trkpt>
      <trkpt lat="43.20026" lon="6.3595">
        <ele>293.504</ele>
        <time>2012-10-24T10:15:06Z</time>
      </trkpt>
      <trkpt lat="43.20022" lon="6.3595">
        <ele>293.765</ele>
        <time>2012-10-24T10:15:11Z</time>
      </trkpt>
      <trkpt lat="43.20017" lon="6.35947">
        <ele>293.905</ele>
        <time>2012-10-24T10:15:16Z</time>
      </trkpt>
      <trkpt lat="43.20012" lon="6.35942">
        <ele>293.786</ele>
        <time>2012-10-24T10:15:21Z</time>
      </trkpt>
      <trkpt lat="43.20008" lon="6.3594">
        <ele>293.689</ele>
        <time>2012-10-24T10:15:26Z</time>
      </trkpt>
      <trkpt lat="43.20004" lon="6.35935">
        <ele>293.958</ele>
        <time>2012-10-24T10:15:31Z</time>
      </trkpt>
      <trkpt lat="43.20003" lon="6.35933">
        <ele>293.9</ele>
        <time>2012-10-24T10:15:36Z</time>
      </trkpt>
      <trkpt lat="43.20003" lon="6.35932">
        <ele>294.46</ele>
        <time>2012-10-24T10:15:41Z</time>
      </trkpt>
      <trkpt lat="43.20003" lon="6.35932">
        <ele>293.971</ele>
        <time>2012-10-24T10:16:01Z</time>
      </trkpt>
      <trkpt lat="43.20001" lon="6.35931">
        <ele>294.191</ele>
        <time>2012-10-24T10:16:06Z</time>
      </trkpt>
      <trkpt lat="43.2" lon="6.3593">
        <ele>293.998</ele>
        <time>2012-10-24T10:16:11Z</time>
      </trkpt>
      <trkpt lat="43.20001" lon="6.3593">
        <ele>294.072</ele>
        <time>2012-10-24T10:16:21Z</time>
      </trkpt>
      <trkpt lat="43.20001" lon="6.35931">
        <ele>294.368</ele>
        <time>2012-10-24T10:16:36Z</time>
      </trkpt>
      <trkpt lat="43.20001" lon="6.35928">
        <ele>294.146</ele>
        <time>2012-10-24T10:16:41Z</time>
      </trkpt>
      <trkpt lat="43.2" lon="6.35924">
        <ele>294.537</ele>
        <time>2012-10-24T10:16:46Z</time>
      </trkpt>
      <trkpt lat="43.19994" lon="6.35923">
        <ele>294.177</ele>
        <time>2012-10-24T10:16:51Z</time>
      </trkpt>
      <trkpt lat="43.1999" lon="6.35919">
        <ele>294.217</ele>
        <time>2012-10-24T10:16:56Z</time>
      </trkpt>
      <trkpt lat="43.19985" lon="6.35913">
        <ele>294.967</ele>
        <time>2012-10-24T10:17:01Z</time>
      </trkpt>
      <trkpt lat="43.19984" lon="6.35911">
        <ele>295.232</ele>
        <time>2012-10-24T10:17:06Z</time>
      </trkpt>
      <trkpt lat="43.19984" lon="6.35912">
        <ele>295.467</ele>
        <time>2012-10-24T10:17:36Z</time>
      </trkpt>
      <trkpt lat="43.19987" lon="6.35916">
        <ele>295.277</ele>
        <time>2012-10-24T10:17:46Z</time>
      </trkpt>
      <trkpt lat="43.1999" lon="6.35921">
        <ele>295.166</ele>
        <time>2012-10-24T10:17:51Z</time>
      </trkpt>
      <trkpt lat="43.19995" lon="6.35926">
        <ele>294.875</ele>
        <time>2012-10-24T10:17:56Z</time>
      </trkpt>
      <trkpt lat="43.2" lon="6.35931">
        <ele>294.856</ele>
        <time>2012-10-24T10:18:01Z</time>
      </trkpt>
      <trkpt lat="43.20001" lon="6.35934">
        <ele>294.806</ele>
        <time>2012-10-24T10:18:06Z</time>
      </trkpt>
      <trkpt lat="43.20004" lon="6.35936">
        <ele>294.529</ele>
        <time>2012-10-24T10:18:11Z</time>
      </trkpt>
      <trkpt lat="43.20005" lon="6.35937">
        <ele>294.41</ele>
        <time>2012-10-24T10:18:16Z</time>
      </trkpt>
      <trkpt lat="43.20006" lon="6.35939">
        <ele>294.286</ele>
        <time>2012-10-24T10:18:21Z</time>
      </trkpt>
      <trkpt lat="43.20006" lon="6.3594">
        <ele>294.362</ele>
        <time>2012-10-24T10:18:41Z</time>
      </trkpt>
      <trkpt lat="43.20007" lon="6.3594">
        <ele>294.555</ele>
        <time>2012-10-24T10:18:51Z</time>
      </trkpt>
      <trkpt lat="43.20007" lon="6.35941">
        <ele>294.185</ele>
        <time>2012-10-24T10:19:11Z</time>
      </trkpt>
      <trkpt lat="43.20006" lon="6.35941">
        <ele>294.582</ele>
        <time>2012-10-24T10:19:31Z</time>
      </trkpt>
      <trkpt lat="43.20006" lon="6.35941">
        <ele>294.328</ele>
        <time>2012-10-24T10:19:46Z</time>
      </trkpt>
      <trkpt lat="43.20005" lon="6.35941">
        <ele>294.259</ele>
        <time>2012-10-24T10:19:51Z</time>
      </trkpt>
      <trkpt lat="43.20004" lon="6.35941">
        <ele>294.341</ele>
        <time>2012-10-24T10:20:06Z</time>
      </trkpt>
      <trkpt lat="43.20005" lon="6.3594">
        <ele>294.132</ele>
        <time>2012-10-24T10:20:26Z</time>
      </trkpt>
      <trkpt lat="43.20006" lon="6.35938">
        <ele>294.151</ele>
        <time>2012-10-24T10:20:36Z</time>
      </trkpt>
      <trkpt lat="43.20007" lon="6.35937">
        <ele>294.074</ele>
        <time>2012-10-24T10:20:41Z</time>
      </trkpt>
      <trkpt lat="43.20009" lon="6.35936">
        <ele>294.119</ele>
        <time>2012-10-24T10:20:51Z</time>
      </trkpt>
      <trkpt lat="43.20009" lon="6.35935">
        <ele>294.077</ele>
        <time>2012-10-24T10:21:01Z</time>
      </trkpt>
      <trkpt lat="43.20011" lon="6.35934">
        <ele>294.154</ele>
        <time>2012-10-24T10:21:11Z</time>
      </trkpt>
      <trkpt lat="43.20012" lon="6.35933">
        <ele>294.132</ele>
        <time>2012-10-24T10:21:21Z</time>
      </trkpt>
      <trkpt lat="43.20011" lon="6.35933">
        <ele>294.074</ele>
        <time>2012-10-24T10:21:36Z</time>
      </trkpt>
      <trkpt lat="43.2001" lon="6.35934">
        <ele>294.228</ele>
        <time>2012-10-24T10:21:46Z</time>
      </trkpt>
      <trkpt lat="43.20009" lon="6.35935">
        <ele>294.167</ele>
        <time>2012-10-24T10:21:56Z</time>
      </trkpt>
      <trkpt lat="43.20008" lon="6.35936">
        <ele>294.101</ele>
        <time>2012-10-24T10:22:11Z</time>
      </trkpt>
      <trkpt lat="43.20007" lon="6.35938">
        <ele>294.233</ele>
        <time>2012-10-24T10:22:21Z</time>
      </trkpt>
      <trkpt lat="43.20007" lon="6.35939">
        <ele>294.346</ele>
        <time>2012-10-24T10:22:26Z</time>
      </trkpt>
      <trkpt lat="43.20006" lon="6.3594">
        <ele>294.376</ele>
        <time>2012-10-24T10:22:36Z</time>
      </trkpt>
      <trkpt lat="43.20006" lon="6.35938">
        <ele>294.463</ele>
        <time>2012-10-24T10:22:46Z</time>
      </trkpt>
      <trkpt lat="43.20006" lon="6.35937">
        <ele>294.489</ele>
        <time>2012-10-24T10:22:56Z</time>
      </trkpt>
      <trkpt lat="43.20006" lon="6.35936">
        <ele>294.473</ele>
        <time>2012-10-24T10:23:11Z</time>
      </trkpt>
      <trkpt lat="43.20005" lon="6.35935">
        <ele>294.457</ele>
        <time>2012-10-24T10:23:16Z</time>
      </trkpt>
      <trkpt lat="43.20004" lon="6.35934">
        <ele>294.457</ele>
        <time>2012-10-24T10:23:21Z</time>
      </trkpt>
      <trkpt lat="43.2" lon="6.3593">
        <ele>294.476</ele>
        <time>2012-10-24T10:23:26Z</time>
      </trkpt>
      <trkpt lat="43.19997" lon="6.35925">
        <ele>295.002</ele>
        <time>2012-10-24T10:23:31Z</time>
      </trkpt>
      <trkpt lat="43.19991" lon="6.3592">
        <ele>295.144</ele>
        <time>2012-10-24T10:23:36Z</time>
      </trkpt>
      <trkpt lat="43.19986" lon="6.35915">
        <ele>295.335</ele>
        <time>2012-10-24T10:23:41Z</time>
      </trkpt>
      <trkpt lat="43.19981" lon="6.3591">
        <ele>295.705</ele>
        <time>2012-10-24T10:23:46Z</time>
      </trkpt>
      <trkpt lat="43.19978" lon="6.35905">
        <ele>295.89</ele>
        <time>2012-10-24T10:23:51Z</time>
      </trkpt>
      <trkpt lat="43.19973" lon="6.359">
        <ele>295.953</ele>
        <time>2012-10-24T10:23:56Z</time>
      </trkpt>
      <trkpt lat="43.19968" lon="6.35896">
        <ele>296.217</ele>
        <time>2012-10-24T10:24:01Z</time>
      </trkpt>
      <trkpt lat="43.19964" lon="6.35892">
        <ele>296.373</ele>
        <time>2012-10-24T10:24:06Z</time>
      </trkpt>
      <trkpt lat="43.1996" lon="6.3589">
        <ele>296.328</ele>
        <time>2012-10-24T10:24:11Z</time>
      </trkpt>
      <trkpt lat="43.19955" lon="6.35887">
        <ele>296.41</ele>
        <time>2012-10-24T10:24:16Z</time>
      </trkpt>
      <trkpt lat="43.1995" lon="6.35885">
        <ele>296.614</ele>
        <time>2012-10-24T10:24:21Z</time>
      </trkpt>
      <trkpt lat="43.19945" lon="6.35883">
        <ele>296.896</ele>
        <time>2012-10-24T10:24:26Z</time>
      </trkpt>
      <trkpt lat="43.1994" lon="6.35881">
        <ele>297.076</ele>
        <time>2012-10-24T10:24:31Z</time>
      </trkpt>
      <trkpt lat="43.19934" lon="6.3588">
        <ele>297.673</ele>
        <time>2012-10-24T10:24:36Z</time>
      </trkpt>
      <trkpt lat="43.19928" lon="6.35878">
        <ele>298.001</ele>
        <time>2012-10-24T10:24:41Z</time>
      </trkpt>
      <trkpt lat="43.19923" lon="6.35876">
        <ele>298.151</ele>
        <time>2012-10-24T10:24:46Z</time>
      </trkpt>
      <trkpt lat="43.19918" lon="6.35874">
        <ele>298.495</ele>
        <time>2012-10-24T10:24:51Z</time>
      </trkpt>
      <trkpt lat="43.19912" lon="6.35873">
        <ele>298.754</ele>
        <time>2012-10-24T10:24:56Z</time>
      </trkpt>
      <trkpt lat="43.19907" lon="6.35872">
        <ele>299.068</ele>
        <time>2012-10-24T10:25:01Z</time>
      </trkpt>
      <trkpt lat="43.19902" lon="6.35871">
        <ele>299.325</ele>
        <time>2012-10-24T10:25:06Z</time>
      </trkpt>
      <trkpt lat="43.19896" lon="6.3587">
        <ele>299.652</ele>
        <time>2012-10-24T10:25:11Z</time>
      </trkpt>
      <trkpt lat="43.1989" lon="6.35869">
        <ele>300.07</ele>
        <time>2012-10-24T10:25:16Z</time>
      </trkpt>
      <trkpt lat="43.19885" lon="6.35868">
        <ele>300.485</ele>
        <time>2012-10-24T10:25:21Z</time>
      </trkpt>
      <trkpt lat="43.1988" lon="6.35868">
        <ele>300.643</ele>
        <time>2012-10-24T10:25:26Z</time>
      </trkpt>
      <trkpt lat="43.19874" lon="6.35866">
        <ele>300.786</ele>
        <time>2012-10-24T10:25:31Z</time>
      </trkpt>
      <trkpt lat="43.19868" lon="6.35865">
        <ele>301.135</ele>
        <time>2012-10-24T10:25:36Z</time>
      </trkpt>
      <trkpt lat="43.19862" lon="6.35863">
        <ele>301.8</ele>
        <time>2012-10-24T10:25:41Z</time>
      </trkpt>
      <trkpt lat="43.19857" lon="6.35862">
        <ele>301.877</ele>
        <time>2012-10-24T10:25:46Z</time>
      </trkpt>
      <trkpt lat="43.19852" lon="6.3586">
        <ele>302.419</ele>
        <time>2012-10-24T10:25:51Z</time>
      </trkpt>
      <trkpt lat="43.19846" lon="6.35858">
        <ele>302.791</ele>
        <time>2012-10-24T10:25:56Z</time>
      </trkpt>
      <trkpt lat="43.1984" lon="6.35857">
        <ele>302.865</ele>
        <time>2012-10-24T10:26:01Z</time>
      </trkpt>
      <trkpt lat="43.19834" lon="6.35855">
        <ele>303.127</ele>
        <time>2012-10-24T10:26:06Z</time>
      </trkpt>
      <trkpt lat="43.19829" lon="6.35853">
        <ele>303.367</ele>
        <time>2012-10-24T10:26:11Z</time>
      </trkpt>
      <trkpt lat="43.19822" lon="6.3585">
        <ele>303.354</ele>
        <time>2012-10-24T10:26:16Z</time>
      </trkpt>
      <trkpt lat="43.19817" lon="6.3585">
        <ele>303.573</ele>
        <time>2012-10-24T10:26:21Z</time>
      </trkpt>
      <trkpt lat="43.19812" lon="6.35849">
        <ele>303.761</ele>
        <time>2012-10-24T10:26:26Z</time>
      </trkpt>
      <trkpt lat="43.19806" lon="6.35849">
        <ele>303.822</ele>
        <time>2012-10-24T10:26:31Z</time>
      </trkpt>
      <trkpt lat="43.19802" lon="6.35849">
        <ele>303.925</ele>
        <time>2012-10-24T10:26:36Z</time>
      </trkpt>
      <trkpt lat="43.19797" lon="6.35848">
        <ele>304.184</ele>
        <time>2012-10-24T10:26:41Z</time>
      </trkpt>
      <trkpt lat="43.19793" lon="6.35847">
        <ele>304.432</ele>
        <time>2012-10-24T10:26:46Z</time>
      </trkpt>
      <trkpt lat="43.19788" lon="6.35845">
        <ele>304.435</ele>
        <time>2012-10-24T10:26:51Z</time>
      </trkpt>
      <trkpt lat="43.19783" lon="6.35844">
        <ele>304.659</ele>
        <time>2012-10-24T10:26:56Z</time>
      </trkpt>
      <trkpt lat="43.19779" lon="6.35844">
        <ele>304.908</ele>
        <time>2012-10-24T10:27:01Z</time>
      </trkpt>
      <trkpt lat="43.19775" lon="6.35843">
        <ele>305.08</ele>
        <time>2012-10-24T10:27:06Z</time>
      </trkpt>
      <trkpt lat="43.19769" lon="6.35841">
        <ele>305.204</ele>
        <time>2012-10-24T10:27:11Z</time>
      </trkpt>
      <trkpt lat="43.19765" lon="6.35838">
        <ele>305.391</ele>
        <time>2012-10-24T10:27:16Z</time>
      </trkpt>
      <trkpt lat="43.19758" lon="6.35837">
        <ele>305.669</ele>
        <time>2012-10-24T10:27:21Z</time>
      </trkpt>
      <trkpt lat="43.19752" lon="6.35837">
        <ele>305.804</ele>
        <time>2012-10-24T10:27:26Z</time>
      </trkpt>
      <trkpt lat="43.19747" lon="6.35837">
        <ele>305.983</ele>
        <time>2012-10-24T10:27:31Z</time>
      </trkpt>
      <trkpt lat="43.19742" lon="6.35834">
        <ele>306.263</ele>
        <time>2012-10-24T10:27:36Z</time>
      </trkpt>
      <trkpt lat="43.19736" lon="6.35835">
        <ele>306.406</ele>
        <time>2012-10-24T10:27:41Z</time>
      </trkpt>
      <trkpt lat="43.19732" lon="6.35835">
        <ele>306.395</ele>
        <time>2012-10-24T10:27:46Z</time>
      </trkpt>
      <trkpt lat="43.19731" lon="6.35836">
        <ele>306.506</ele>
        <time>2012-10-24T10:27:51Z</time>
      </trkpt>
      <trkpt lat="43.19732" lon="6.35838">
        <ele>306.546</ele>
        <time>2012-10-24T10:27:56Z</time>
      </trkpt>
      <trkpt lat="43.19725" lon="6.3584">
        <ele>306.652</ele>
        <time>2012-10-24T10:28:06Z</time>
      </trkpt>
      <trkpt lat="43.19719" lon="6.35837">
        <ele>306.89</ele>
        <time>2012-10-24T10:28:11Z</time>
      </trkpt>
      <trkpt lat="43.19715" lon="6.35835">
        <ele>307.117</ele>
        <time>2012-10-24T10:28:16Z</time>
      </trkpt>
      <trkpt lat="43.1971" lon="6.35835">
        <ele>307.45</ele>
        <time>2012-10-24T10:28:21Z</time>
      </trkpt>
      <trkpt lat="43.1971" lon="6.35833">
        <ele>307.735</ele>
        <time>2012-10-24T10:28:26Z</time>
      </trkpt>
      <trkpt lat="43.19712" lon="6.35835">
        <ele>307.672</ele>
        <time>2012-10-24T10:28:31Z</time>
      </trkpt>
      <trkpt lat="43.19706" lon="6.35836">
        <ele>307.872</ele>
        <time>2012-10-24T10:28:36Z</time>
      </trkpt>
      <trkpt lat="43.19703" lon="6.3584">
        <ele>308.155</ele>
        <time>2012-10-24T10:28:41Z</time>
      </trkpt>
      <trkpt lat="43.197" lon="6.35839">
        <ele>308.306</ele>
        <time>2012-10-24T10:28:46Z</time>
      </trkpt>
      <trkpt lat="43.19701" lon="6.35837">
        <ele>308.219</ele>
        <time>2012-10-24T10:28:56Z</time>
      </trkpt>
      <trkpt lat="43.19703" lon="6.35836">
        <ele>308.071</ele>
        <time>2012-10-24T10:29:01Z</time>
      </trkpt>
      <trkpt lat="43.19704" lon="6.35836">
        <ele>308.092</ele>
        <time>2012-10-24T10:29:11Z</time>
      </trkpt>
      <trkpt lat="43.19707" lon="6.35832">
        <ele>308.05</ele>
        <time>2012-10-24T10:29:16Z</time>
      </trkpt>
      <trkpt lat="43.19712" lon="6.35832">
        <ele>308.063</ele>
        <time>2012-10-24T10:29:21Z</time>
      </trkpt>
      <trkpt lat="43.19718" lon="6.35828">
        <ele>308.419</ele>
        <time>2012-10-24T10:29:26Z</time>
      </trkpt>
      <trkpt lat="43.19721" lon="6.35825">
        <ele>309.297</ele>
        <time>2012-10-24T10:29:31Z</time>
      </trkpt>
      <trkpt lat="43.19723" lon="6.35825">
        <ele>309.492</ele>
        <time>2012-10-24T10:29:36Z</time>
      </trkpt>
      <trkpt lat="43.19718" lon="6.35828">
        <ele>308.877</ele>
        <time>2012-10-24T10:29:41Z</time>
      </trkpt>
      <trkpt lat="43.19712" lon="6.35832">
        <ele>307.952</ele>
        <time>2012-10-24T10:29:46Z</time>
      </trkpt>
      <trkpt lat="43.19708" lon="6.35837">
        <ele>307.907</ele>
        <time>2012-10-24T10:29:51Z</time>
      </trkpt>
      <trkpt lat="43.19703" lon="6.35839">
        <ele>308.113</ele>
        <time>2012-10-24T10:29:56Z</time>
      </trkpt>
      <trkpt lat="43.19697" lon="6.35841">
        <ele>308.456</ele>
        <time>2012-10-24T10:30:01Z</time>
      </trkpt>
      <trkpt lat="43.19691" lon="6.35843">
        <ele>308.562</ele>
        <time>2012-10-24T10:30:06Z</time>
      </trkpt>
      <trkpt lat="43.19686" lon="6.35845">
        <ele>308.739</ele>
        <time>2012-10-24T10:30:11Z</time>
      </trkpt>
      <trkpt lat="43.1968" lon="6.35845">
        <ele>308.866</ele>
        <time>2012-10-24T10:30:16Z</time>
      </trkpt>
      <trkpt lat="43.19674" lon="6.35845">
        <ele>308.995</ele>
        <time>2012-10-24T10:30:21Z</time>
      </trkpt>
      <trkpt lat="43.19668" lon="6.35845">
        <ele>309.104</ele>
        <time>2012-10-24T10:30:26Z</time>
      </trkpt>
      <trkpt lat="43.19662" lon="6.35843">
        <ele>309.12</ele>
        <time>2012-10-24T10:30:31Z</time>
      </trkpt>
      <trkpt lat="43.19658" lon="6.35842">
        <ele>308.882</ele>
        <time>2012-10-24T10:30:36Z</time>
      </trkpt>
      <trkpt lat="43.19653" lon="6.3584">
        <ele>308.797</ele>
        <time>2012-10-24T10:30:41Z</time>
      </trkpt>
      <trkpt lat="43.19649" lon="6.35839">
        <ele>308.943</ele>
        <time>2012-10-24T10:30:46Z</time>
      </trkpt>
      <trkpt lat="43.19645" lon="6.35836">
        <ele>309.032</ele>
        <time>2012-10-24T10:30:51Z</time>
      </trkpt>
      <trkpt lat="43.19641" lon="6.35833">
        <ele>309.088</ele>
        <time>2012-10-24T10:30:56Z</time>
      </trkpt>
      <trkpt lat="43.19639" lon="6.3583">
        <ele>309.104</ele>
        <time>2012-10-24T10:31:01Z</time>
      </trkpt>
      <trkpt lat="43.19635" lon="6.35826">
        <ele>309.136</ele>
        <time>2012-10-24T10:31:06Z</time>
      </trkpt>
      <trkpt lat="43.19632" lon="6.35822">
        <ele>309.048</ele>
        <time>2012-10-24T10:31:11Z</time>
      </trkpt>
      <trkpt lat="43.19631" lon="6.35821">
        <ele>309.059</ele>
        <time>2012-10-24T10:31:16Z</time>
      </trkpt>
      <trkpt lat="43.19629" lon="6.35818">
        <ele>308.969</ele>
        <time>2012-10-24T10:31:21Z</time>
      </trkpt>
      <trkpt lat="43.19625" lon="6.35813">
        <ele>309.014</ele>
        <time>2012-10-24T10:31:26Z</time>
      </trkpt>
      <trkpt lat="43.19623" lon="6.35811">
        <ele>308.99</ele>
        <time>2012-10-24T10:31:31Z</time>
      </trkpt>
      <trkpt lat="43.19625" lon="6.35811">
        <ele>309.017</ele>
        <time>2012-10-24T10:31:41Z</time>
      </trkpt>
      <trkpt lat="43.1963" lon="6.35816">
        <ele>309.247</ele>
        <time>2012-10-24T10:31:46Z</time>
      </trkpt>
      <trkpt lat="43.19634" lon="6.35822">
        <ele>309.236</ele>
        <time>2012-10-24T10:31:51Z</time>
      </trkpt>
      <trkpt lat="43.19636" lon="6.35827">
        <ele>309.035</ele>
        <time>2012-10-24T10:31:56Z</time>
      </trkpt>
      <trkpt lat="43.19637" lon="6.3583">
        <ele>308.803</ele>
        <time>2012-10-24T10:32:01Z</time>
      </trkpt>
      <trkpt lat="43.19638" lon="6.35834">
        <ele>308.636</ele>
        <time>2012-10-24T10:32:11Z</time>
      </trkpt>
      <trkpt lat="43.19639" lon="6.35837">
        <ele>307.809</ele>
        <time>2012-10-24T10:32:21Z</time>
      </trkpt>
      <trkpt lat="43.19638" lon="6.35838">
        <ele>306.876</ele>
        <time>2012-10-24T10:32:26Z</time>
      </trkpt>
      <trkpt lat="43.19636" lon="6.3584">
        <ele>306.166</ele>
        <time>2012-10-24T10:32:31Z</time>
      </trkpt>
      <trkpt lat="43.19636" lon="6.3584">
        <ele>305.669</ele>
        <time>2012-10-24T10:32:36Z</time>
      </trkpt>
      <trkpt lat="43.19634" lon="6.35843">
        <ele>305.175</ele>
        <time>2012-10-24T10:32:41Z</time>
      </trkpt>
      <trkpt lat="43.19634" lon="6.35842">
        <ele>305.021</ele>
        <time>2012-10-24T10:32:51Z</time>
      </trkpt>
      <trkpt lat="43.19634" lon="6.35842">
        <ele>304.649</ele>
        <time>2012-10-24T10:33:01Z</time>
      </trkpt>
      <trkpt lat="43.19633" lon="6.35841">
        <ele>304.186</ele>
        <time>2012-10-24T10:33:06Z</time>
      </trkpt>
      <trkpt lat="43.19633" lon="6.35841">
        <ele>304.136</ele>
        <time>2012-10-24T10:33:36Z</time>
      </trkpt>
      <trkpt lat="43.19633" lon="6.35841">
        <ele>304.448</ele>
        <time>2012-10-24T10:34:46Z</time>
      </trkpt>
      <trkpt lat="43.19633" lon="6.35842">
        <ele>304.813</ele>
        <time>2012-10-24T10:36:26Z</time>
      </trkpt>
      <trkpt lat="43.19632" lon="6.35841">
        <ele>304.971</ele>
        <time>2012-10-24T10:37:01Z</time>
      </trkpt>
      <trkpt lat="43.19631" lon="6.35841">
        <ele>305.132</ele>
        <time>2012-10-24T10:37:11Z</time>
      </trkpt>
      <trkpt lat="43.1963" lon="6.3584">
        <ele>305.032</ele>
        <time>2012-10-24T10:37:21Z</time>
      </trkpt>
      <trkpt lat="43.19629" lon="6.3584">
        <ele>305.008</ele>
        <time>2012-10-24T10:37:36Z</time>
      </trkpt>
      <trkpt lat="43.19629" lon="6.3584">
        <ele>305.201</ele>
        <time>2012-10-24T10:37:56Z</time>
      </trkpt>
      <trkpt lat="43.19629" lon="6.3584">
        <ele>305.272</ele>
        <time>2012-10-24T10:38:11Z</time>
      </trkpt>
      <trkpt lat="43.1963" lon="6.3584">
        <ele>305.138</ele>
        <time>2012-10-24T10:38:21Z</time>
      </trkpt>
      <trkpt lat="43.19631" lon="6.3584">
        <ele>305.537</ele>
        <time>2012-10-24T10:39:56Z</time>
      </trkpt>
      <trkpt lat="43.19632" lon="6.35841">
        <ele>305.666</ele>
        <time>2012-10-24T10:41:21Z</time>
      </trkpt>
      <trkpt lat="43.19632" lon="6.35841">
        <ele>305.642</ele>
        <time>2012-10-24T10:41:51Z</time>
      </trkpt>
      <trkpt lat="43.19632" lon="6.35841">
        <ele>305.954</ele>
        <time>2012-10-24T10:43:01Z</time>
      </trkpt>
      <trkpt lat="43.19632" lon="6.35841">
        <ele>306.084</ele>
        <time>2012-10-24T10:43:56Z</time>
      </trkpt>
      <trkpt lat="43.19633" lon="6.35841">
        <ele>306.092</ele>
        <time>2012-10-24T10:44:36Z</time>
      </trkpt>
      <trkpt lat="43.19633" lon="6.35841">
        <ele>306.311</ele>
        <time>2012-10-24T10:45:26Z</time>
      </trkpt>
      <trkpt lat="43.19633" lon="6.35841">
        <ele>306.261</ele>
        <time>2012-10-24T10:45:56Z</time>
      </trkpt>
      <trkpt lat="43.19634" lon="6.35842">
        <ele>306.517</ele>
        <time>2012-10-24T10:46:11Z</time>
      </trkpt>
      <trkpt lat="43.19635" lon="6.35842">
        <ele>306.366</ele>
        <time>2012-10-24T10:47:01Z</time>
      </trkpt>
      <trkpt lat="43.19634" lon="6.35842">
        <ele>306.673</ele>
        <time>2012-10-24T10:49:46Z</time>
      </trkpt>
      <trkpt lat="43.19634" lon="6.35842">
        <ele>306.71</ele>
        <time>2012-10-24T10:54:31Z</time>
      </trkpt>
      <trkpt lat="43.19634" lon="6.35842">
        <ele>306.953</ele>
        <time>2012-10-24T10:56:56Z</time>
      </trkpt>
      <trkpt lat="43.19635" lon="6.35842">
        <ele>306.649</ele>
        <time>2012-10-24T11:00:01Z</time>
      </trkpt>
      <trkpt lat="43.19634" lon="6.35841">
        <ele>306.779</ele>
        <time>2012-10-24T11:04:06Z</time>
      </trkpt>
      <trkpt lat="43.19634" lon="6.3584">
        <ele>306.816</ele>
        <time>2012-10-24T11:04:16Z</time>
      </trkpt>
      <trkpt lat="43.19633" lon="6.35839">
        <ele>306.768</ele>
        <time>2012-10-24T11:04:26Z</time>
      </trkpt>
      <trkpt lat="43.19632" lon="6.35837">
        <ele>306.971</ele>
        <time>2012-10-24T11:04:36Z</time>
      </trkpt>
      <trkpt lat="43.19632" lon="6.35838">
        <ele>306.792</ele>
        <time>2012-10-24T11:04:51Z</time>
      </trkpt>
      <trkpt lat="43.19632" lon="6.35838">
        <ele>307.069</ele>
        <time>2012-10-24T11:05:11Z</time>
      </trkpt>
      <trkpt lat="43.1963" lon="6.35838">
        <ele>306.998</ele>
        <time>2012-10-24T11:05:21Z</time>
      </trkpt>
      <trkpt lat="43.1963" lon="6.35838">
        <ele>306.816</ele>
        <time>2012-10-24T11:05:41Z</time>
      </trkpt>
      <trkpt lat="43.19631" lon="6.35839">
        <ele>307.04</ele>
        <time>2012-10-24T11:06:01Z</time>
      </trkpt>
      <trkpt lat="43.19632" lon="6.35839">
        <ele>306.919</ele>
        <time>2012-10-24T11:06:16Z</time>
      </trkpt>
      <trkpt lat="43.19632" lon="6.3584">
        <ele>306.868</ele>
        <time>2012-10-24T11:06:26Z</time>
      </trkpt>
      <trkpt lat="43.19633" lon="6.35841">
        <ele>306.792</ele>
        <time>2012-10-24T11:06:36Z</time>
      </trkpt>
      <trkpt lat="43.19634" lon="6.35842">
        <ele>306.779</ele>
        <time>2012-10-24T11:06:41Z</time>
      </trkpt>
      <trkpt lat="43.19634" lon="6.35844">
        <ele>306.808</ele>
        <time>2012-10-24T11:06:46Z</time>
      </trkpt>
      <trkpt lat="43.19635" lon="6.35845">
        <ele>306.549</ele>
        <time>2012-10-24T11:06:56Z</time>
      </trkpt>
      <trkpt lat="43.19635" lon="6.35845">
        <ele>306.781</ele>
        <time>2012-10-24T11:07:26Z</time>
      </trkpt>
      <trkpt lat="43.19636" lon="6.35845">
        <ele>306.617</ele>
        <time>2012-10-24T11:07:56Z</time>
      </trkpt>
      <trkpt lat="43.19635" lon="6.35845">
        <ele>306.834</ele>
        <time>2012-10-24T11:08:11Z</time>
      </trkpt>
      <trkpt lat="43.19636" lon="6.35844">
        <ele>306.913</ele>
        <time>2012-10-24T11:08:21Z</time>
      </trkpt>
      <trkpt lat="43.19636" lon="6.35843">
        <ele>306.834</ele>
        <time>2012-10-24T11:08:35Z</time>
      </trkpt>
      <trkpt lat="43.19635" lon="6.35843">
        <ele>306.821</ele>
        <time>2012-10-24T11:09:06Z</time>
      </trkpt>
      <trkpt lat="43.19635" lon="6.35842">
        <ele>306.715</ele>
        <time>2012-10-24T11:09:26Z</time>
      </trkpt>
      <trkpt lat="43.19635" lon="6.35843">
        <ele>306.927</ele>
        <time>2012-10-24T11:09:41Z</time>
      </trkpt>
      <trkpt lat="43.19635" lon="6.35844">
        <ele>306.855</ele>
        <time>2012-10-24T11:09:56Z</time>
      </trkpt>
      <trkpt lat="43.19635" lon="6.35843">
        <ele>306.797</ele>
        <time>2012-10-24T11:10:26Z</time>
      </trkpt>
      <trkpt lat="43.19635" lon="6.35843">
        <ele>307.019</ele>
        <time>2012-10-24T11:10:51Z</time>
      </trkpt>
      <trkpt lat="43.19635" lon="6.35844">
        <ele>307.788</ele>
        <time>2012-10-24T11:11:11Z</time>
      </trkpt>
      <trkpt lat="43.19635" lon="6.35843">
        <ele>307.587</ele>
        <time>2012-10-24T11:11:26Z</time>
      </trkpt>
      <trkpt lat="43.19635" lon="6.35843">
        <ele>307.732</ele>
        <time>2012-10-24T11:11:51Z</time>
      </trkpt>
      <trkpt lat="43.19633" lon="6.35839">
        <ele>307.83</ele>
        <time>2012-10-24T11:12:46Z</time>
      </trkpt>
      <trkpt lat="43.19633" lon="6.35839">
        <ele>307.743</ele>
        <time>2012-10-24T11:13:01Z</time>
      </trkpt>
      <trkpt lat="43.19632" lon="6.35836">
        <ele>307.912</ele>
        <time>2012-10-24T11:13:11Z</time>
      </trkpt>
      <trkpt lat="43.19632" lon="6.35835">
        <ele>307.907</ele>
        <time>2012-10-24T11:13:26Z</time>
      </trkpt>
      <trkpt lat="43.19632" lon="6.35836">
        <ele>307.912</ele>
        <time>2012-10-24T11:13:41Z</time>
      </trkpt>
      <trkpt lat="43.19632" lon="6.35836">
        <ele>307.78</ele>
        <time>2012-10-24T11:15:56Z</time>
      </trkpt>
      <trkpt lat="43.19633" lon="6.35837">
        <ele>308.089</ele>
        <time>2012-10-24T11:18:16Z</time>
      </trkpt>
      <trkpt lat="43.19633" lon="6.35839">
        <ele>308.216</ele>
        <time>2012-10-24T11:18:31Z</time>
      </trkpt>
      <trkpt lat="43.19632" lon="6.35839">
        <ele>308.52</ele>
        <time>2012-10-24T11:18:46Z</time>
      </trkpt>
      <trkpt lat="43.19633" lon="6.35839">
        <ele>308.308</ele>
        <time>2012-10-24T11:18:56Z</time>
      </trkpt>
      <trkpt lat="43.19633" lon="6.35839">
        <ele>308.438</ele>
        <time>2012-10-24T11:19:11Z</time>
      </trkpt>
      <trkpt lat="43.19633" lon="6.35838">
        <ele>308.454</ele>
        <time>2012-10-24T11:19:21Z</time>
      </trkpt>
      <trkpt lat="43.19633" lon="6.35839">
        <ele>308.441</ele>
        <time>2012-10-24T11:19:31Z</time>
      </trkpt>
      <trkpt lat="43.19634" lon="6.35839">
        <ele>308.509</ele>
        <time>2012-10-24T11:19:46Z</time>
      </trkpt>
      <trkpt lat="43.19634" lon="6.35841">
        <ele>308.509</ele>
        <time>2012-10-24T11:20:01Z</time>
      </trkpt>
      <trkpt lat="43.19635" lon="6.35843">
        <ele>308.655</ele>
        <time>2012-10-24T11:20:16Z</time>
      </trkpt>
      <trkpt lat="43.19635" lon="6.35842">
        <ele>308.774</ele>
        <time>2012-10-24T11:20:31Z</time>
      </trkpt>
      <trkpt lat="43.19634" lon="6.35841">
        <ele>308.943</ele>
        <time>2012-10-24T11:21:31Z</time>
      </trkpt>
      <trkpt lat="43.19634" lon="6.35841">
        <ele>308.678</ele>
        <time>2012-10-24T11:21:46Z</time>
      </trkpt>
      <trkpt lat="43.19634" lon="6.35841">
        <ele>308.948</ele>
        <time>2012-10-24T11:22:11Z</time>
      </trkpt>
      <trkpt lat="43.19634" lon="6.35841">
        <ele>308.919</ele>
        <time>2012-10-24T11:22:36Z</time>
      </trkpt>
      <trkpt lat="43.19635" lon="6.35842">
        <ele>308.85</ele>
        <time>2012-10-24T11:22:51Z</time>
      </trkpt>
      <trkpt lat="43.19634" lon="6.35839">
        <ele>309.112</ele>
        <time>2012-10-24T11:22:56Z</time>
      </trkpt>
      <trkpt lat="43.19633" lon="6.35837">
        <ele>308.795</ele>
        <time>2012-10-24T11:23:01Z</time>
      </trkpt>
      <trkpt lat="43.19633" lon="6.35838">
        <ele>308.871</ele>
        <time>2012-10-24T11:23:11Z</time>
      </trkpt>
      <trkpt lat="43.19634" lon="6.35839">
        <ele>308.863</ele>
        <time>2012-10-24T11:23:16Z</time>
      </trkpt>
      <trkpt lat="43.19633" lon="6.35839">
        <ele>308.898</ele>
        <time>2012-10-24T11:23:31Z</time>
      </trkpt>
      <trkpt lat="43.19633" lon="6.35839">
        <ele>309.064</ele>
        <time>2012-10-24T11:23:51Z</time>
      </trkpt>
      <trkpt lat="43.19632" lon="6.35835">
        <ele>309.064</ele>
        <time>2012-10-24T11:24:06Z</time>
      </trkpt>
      <trkpt lat="43.19632" lon="6.35836">
        <ele>308.948</ele>
        <time>2012-10-24T11:24:16Z</time>
      </trkpt>
      <trkpt lat="43.19632" lon="6.35838">
        <ele>309.165</ele>
        <time>2012-10-24T11:25:46Z</time>
      </trkpt>
      <trkpt lat="43.19633" lon="6.35839">
        <ele>309.344</ele>
        <time>2012-10-24T11:25:51Z</time>
      </trkpt>
      <trkpt lat="43.19633" lon="6.35838">
        <ele>309.389</ele>
        <time>2012-10-24T11:26:01Z</time>
      </trkpt>
      <trkpt lat="43.19632" lon="6.35835">
        <ele>309.204</ele>
        <time>2012-10-24T11:26:06Z</time>
      </trkpt>
      <trkpt lat="43.19632" lon="6.35837">
        <ele>309.265</ele>
        <time>2012-10-24T11:26:11Z</time>
      </trkpt>
      <trkpt lat="43.19634" lon="6.35842">
        <ele>309.215</ele>
        <time>2012-10-24T11:26:21Z</time>
      </trkpt>
      <trkpt lat="43.19633" lon="6.3584">
        <ele>309.22</ele>
        <time>2012-10-24T11:26:26Z</time>
      </trkpt>
      <trkpt lat="43.19633" lon="6.35841">
        <ele>309.801</ele>
        <time>2012-10-24T11:31:01Z</time>
      </trkpt>
      <trkpt lat="43.19633" lon="6.35842">
        <ele>309.881</ele>
        <time>2012-10-24T11:31:56Z</time>
      </trkpt>
      <trkpt lat="43.19634" lon="6.35843">
        <ele>310.071</ele>
        <time>2012-10-24T11:32:11Z</time>
      </trkpt>
      <trkpt lat="43.19634" lon="6.35844">
        <ele>310.811</ele>
        <time>2012-10-24T11:32:26Z</time>
      </trkpt>
      <trkpt lat="43.19635" lon="6.35844">
        <ele>311.128</ele>
        <time>2012-10-24T11:32:31Z</time>
      </trkpt>
      <trkpt lat="43.19636" lon="6.35841">
        <ele>310.938</ele>
        <time>2012-10-24T11:32:41Z</time>
      </trkpt>
      <trkpt lat="43.19636" lon="6.35837">
        <ele>311.796</ele>
        <time>2012-10-24T11:32:46Z</time>
      </trkpt>
      <trkpt lat="43.19637" lon="6.35835">
        <ele>312.594</ele>
        <time>2012-10-24T11:32:51Z</time>
      </trkpt>
      <trkpt lat="43.19636" lon="6.35832">
        <ele>313.102</ele>
        <time>2012-10-24T11:32:56Z</time>
      </trkpt>
      <trkpt lat="43.19637" lon="6.35832">
        <ele>313.633</ele>
        <time>2012-10-24T11:33:01Z</time>
      </trkpt>
      <trkpt lat="43.19638" lon="6.35831">
        <ele>314.703</ele>
        <time>2012-10-24T11:33:06Z</time>
      </trkpt>
      <trkpt lat="43.19638" lon="6.35827">
        <ele>314.98</ele>
        <time>2012-10-24T11:33:11Z</time>
      </trkpt>
      <trkpt lat="43.19636" lon="6.35823">
        <ele>315.147</ele>
        <time>2012-10-24T11:33:16Z</time>
      </trkpt>
      <trkpt lat="43.19633" lon="6.35822">
        <ele>315.091</ele>
        <time>2012-10-24T11:33:21Z</time>
      </trkpt>
      <trkpt lat="43.19631" lon="6.35817">
        <ele>315.25</ele>
        <time>2012-10-24T11:33:26Z</time>
      </trkpt>
      <trkpt lat="43.19627" lon="6.35813">
        <ele>315.091</ele>
        <time>2012-10-24T11:33:31Z</time>
      </trkpt>
      <trkpt lat="43.19624" lon="6.35809">
        <ele>315.068</ele>
        <time>2012-10-24T11:33:36Z</time>
      </trkpt>
      <trkpt lat="43.19622" lon="6.35806">
        <ele>315.184</ele>
        <time>2012-10-24T11:33:41Z</time>
      </trkpt>
      <trkpt lat="43.19621" lon="6.35801">
        <ele>315.015</ele>
        <time>2012-10-24T11:33:46Z</time>
      </trkpt>
      <trkpt lat="43.19619" lon="6.35796">
        <ele>315.149</ele>
        <time>2012-10-24T11:33:51Z</time>
      </trkpt>
      <trkpt lat="43.19622" lon="6.35797">
        <ele>315.105</ele>
        <time>2012-10-24T11:33:56Z</time>
      </trkpt>
      <trkpt lat="43.19621" lon="6.35798">
        <ele>315.123</ele>
        <time>2012-10-24T11:34:01Z</time>
      </trkpt>
      <trkpt lat="43.19618" lon="6.35793">
        <ele>314.98</ele>
        <time>2012-10-24T11:34:06Z</time>
      </trkpt>
      <trkpt lat="43.19618" lon="6.35791">
        <ele>314.354</ele>
        <time>2012-10-24T11:34:11Z</time>
      </trkpt>
      <trkpt lat="43.19617" lon="6.35787">
        <ele>314.42</ele>
        <time>2012-10-24T11:34:16Z</time>
      </trkpt>
      <trkpt lat="43.19616" lon="6.35783">
        <ele>314.116</ele>
        <time>2012-10-24T11:34:21Z</time>
      </trkpt>
      <trkpt lat="43.19615" lon="6.35777">
        <ele>313.937</ele>
        <time>2012-10-24T11:34:26Z</time>
      </trkpt>
      <trkpt lat="43.19615" lon="6.35776">
        <ele>313.937</ele>
        <time>2012-10-24T11:34:46Z</time>
      </trkpt>
      <trkpt lat="43.19615" lon="6.35775">
        <ele>313.244</ele>
        <time>2012-10-24T11:34:51Z</time>
      </trkpt>
      <trkpt lat="43.19615" lon="6.35774">
        <ele>313.128</ele>
        <time>2012-10-24T11:35:06Z</time>
      </trkpt>
      <trkpt lat="43.19614" lon="6.35774">
        <ele>313.572</ele>
        <time>2012-10-24T11:43:36Z</time>
      </trkpt>
      <trkpt lat="43.19614" lon="6.35773">
        <ele>314.114</ele>
        <time>2012-10-24T11:46:31Z</time>
      </trkpt>
      <trkpt lat="43.19614" lon="6.35772">
        <ele>314.391</ele>
        <time>2012-10-24T11:46:46Z</time>
      </trkpt>
      <trkpt lat="43.19615" lon="6.35771">
        <ele>314.251</ele>
        <time>2012-10-24T11:47:01Z</time>
      </trkpt>
      <trkpt lat="43.19615" lon="6.35772">
        <ele>314.18</ele>
        <time>2012-10-24T11:47:16Z</time>
      </trkpt>
      <trkpt lat="43.19614" lon="6.35773">
        <ele>313.876</ele>
        <time>2012-10-24T11:47:21Z</time>
      </trkpt>
      <trkpt lat="43.19614" lon="6.35772">
        <ele>314.082</ele>
        <time>2012-10-24T11:52:16Z</time>
      </trkpt>
      <trkpt lat="43.19614" lon="6.3577">
        <ele>314.502</ele>
        <time>2012-10-24T11:56:41Z</time>
      </trkpt>
      <trkpt lat="43.19614" lon="6.35769">
        <ele>314.69</ele>
        <time>2012-10-24T11:56:51Z</time>
      </trkpt>
      <trkpt lat="43.19614" lon="6.35769">
        <ele>315.099</ele>
        <time>2012-10-24T11:57:01Z</time>
      </trkpt>
      <trkpt lat="43.19613" lon="6.35771">
        <ele>315.054</ele>
        <time>2012-10-24T11:57:06Z</time>
      </trkpt>
      <trkpt lat="43.19614" lon="6.35768">
        <ele>315.044</ele>
        <time>2012-10-24T11:57:11Z</time>
      </trkpt>
      <trkpt lat="43.19616" lon="6.35765">
        <ele>314.785</ele>
        <time>2012-10-24T11:57:16Z</time>
      </trkpt>
      <trkpt lat="43.19617" lon="6.35763">
        <ele>314.632</ele>
        <time>2012-10-24T11:57:21Z</time>
      </trkpt>
      <trkpt lat="43.19616" lon="6.35759">
        <ele>314.777</ele>
        <time>2012-10-24T11:57:26Z</time>
      </trkpt>
      <trkpt lat="43.19617" lon="6.35755">
        <ele>314.484</ele>
        <time>2012-10-24T11:57:31Z</time>
      </trkpt>
      <trkpt lat="43.19618" lon="6.35754">
        <ele>314.481</ele>
        <time>2012-10-24T11:57:36Z</time>
      </trkpt>
      <trkpt lat="43.1962" lon="6.35752">
        <ele>314.145</ele>
        <time>2012-10-24T11:57:41Z</time>
      </trkpt>
      <trkpt lat="43.19621" lon="6.35752">
        <ele>314.174</ele>
        <time>2012-10-24T11:57:51Z</time>
      </trkpt>
      <trkpt lat="43.19624" lon="6.3575">
        <ele>313.976</ele>
        <time>2012-10-24T11:57:56Z</time>
      </trkpt>
      <trkpt lat="43.19626" lon="6.35747">
        <ele>313.857</ele>
        <time>2012-10-24T11:58:01Z</time>
      </trkpt>
      <trkpt lat="43.19629" lon="6.35744">
        <ele>313.741</ele>
        <time>2012-10-24T11:58:06Z</time>
      </trkpt>
      <trkpt lat="43.19632" lon="6.3574">
        <ele>313.588</ele>
        <time>2012-10-24T11:58:11Z</time>
      </trkpt>
      <trkpt lat="43.19635" lon="6.35737">
        <ele>313.479</ele>
        <time>2012-10-24T11:58:16Z</time>
      </trkpt>
      <trkpt lat="43.19639" lon="6.35734">
        <ele>313.271</ele>
        <time>2012-10-24T11:58:21Z</time>
      </trkpt>
      <trkpt lat="43.19643" lon="6.35732">
        <ele>313.189</ele>
        <time>2012-10-24T11:58:26Z</time>
      </trkpt>
      <trkpt lat="43.19646" lon="6.35729">
        <ele>312.967</ele>
        <time>2012-10-24T11:58:31Z</time>
      </trkpt>
      <trkpt lat="43.19648" lon="6.35725">
        <ele>312.893</ele>
        <time>2012-10-24T11:58:36Z</time>
      </trkpt>
      <trkpt lat="43.19651" lon="6.35724">
        <ele>312.896</ele>
        <time>2012-10-24T11:58:41Z</time>
      </trkpt>
      <trkpt lat="43.19655" lon="6.35723">
        <ele>312.758</ele>
        <time>2012-10-24T11:58:46Z</time>
      </trkpt>
      <trkpt lat="43.19658" lon="6.35721">
        <ele>312.454</ele>
        <time>2012-10-24T11:58:51Z</time>
      </trkpt>
      <trkpt lat="43.19663" lon="6.3572">
        <ele>312.024</ele>
        <time>2012-10-24T11:58:56Z</time>
      </trkpt>
      <trkpt lat="43.19667" lon="6.35722">
        <ele>311.979</ele>
        <time>2012-10-24T11:59:01Z</time>
      </trkpt>
      <trkpt lat="43.19672" lon="6.3572">
        <ele>311.609</ele>
        <time>2012-10-24T11:59:06Z</time>
      </trkpt>
      <trkpt lat="43.19677" lon="6.35721">
        <ele>311.374</ele>
        <time>2012-10-24T11:59:11Z</time>
      </trkpt>
      <trkpt lat="43.19682" lon="6.35721">
        <ele>311.088</ele>
        <time>2012-10-24T11:59:16Z</time>
      </trkpt>
      <trkpt lat="43.19685" lon="6.3572">
        <ele>310.671</ele>
        <time>2012-10-24T11:59:21Z</time>
      </trkpt>
      <trkpt lat="43.19688" lon="6.35719">
        <ele>310.248</ele>
        <time>2012-10-24T11:59:26Z</time>
      </trkpt>
      <trkpt lat="43.19692" lon="6.3572">
        <ele>310.066</ele>
        <time>2012-10-24T11:59:31Z</time>
      </trkpt>
      <trkpt lat="43.19697" lon="6.3572">
        <ele>309.815</ele>
        <time>2012-10-24T11:59:36Z</time>
      </trkpt>
      <trkpt lat="43.197" lon="6.35719">
        <ele>309.513</ele>
        <time>2012-10-24T11:59:41Z</time>
      </trkpt>
      <trkpt lat="43.19702" lon="6.35717">
        <ele>309.202</ele>
        <time>2012-10-24T11:59:46Z</time>
      </trkpt>
      <trkpt lat="43.19706" lon="6.35717">
        <ele>308.964</ele>
        <time>2012-10-24T11:59:51Z</time>
      </trkpt>
      <trkpt lat="43.19713" lon="6.35717">
        <ele>308.491</ele>
        <time>2012-10-24T11:59:56Z</time>
      </trkpt>
      <trkpt lat="43.19717" lon="6.35717">
        <ele>308.319</ele>
        <time>2012-10-24T12:00:01Z</time>
      </trkpt>
      <trkpt lat="43.19722" lon="6.35716">
        <ele>308.168</ele>
        <time>2012-10-24T12:00:06Z</time>
      </trkpt>
      <trkpt lat="43.19727" lon="6.35717">
        <ele>307.727</ele>
        <time>2012-10-24T12:00:11Z</time>
      </trkpt>
      <trkpt lat="43.19732" lon="6.35718">
        <ele>307.532</ele>
        <time>2012-10-24T12:00:16Z</time>
      </trkpt>
      <trkpt lat="43.19736" lon="6.35717">
        <ele>307.278</ele>
        <time>2012-10-24T12:00:21Z</time>
      </trkpt>
      <trkpt lat="43.19742" lon="6.35715">
        <ele>307.376</ele>
        <time>2012-10-24T12:00:26Z</time>
      </trkpt>
      <trkpt lat="43.19746" lon="6.35712">
        <ele>307.016</ele>
        <time>2012-10-24T12:00:31Z</time>
      </trkpt>
      <trkpt lat="43.1975" lon="6.35711">
        <ele>306.868</ele>
        <time>2012-10-24T12:00:36Z</time>
      </trkpt>
      <trkpt lat="43.19754" lon="6.35708">
        <ele>306.499</ele>
        <time>2012-10-24T12:00:41Z</time>
      </trkpt>
      <trkpt lat="43.19758" lon="6.35706">
        <ele>306.34</ele>
        <time>2012-10-24T12:00:46Z</time>
      </trkpt>
      <trkpt lat="43.19762" lon="6.35703">
        <ele>306.129</ele>
        <time>2012-10-24T12:00:51Z</time>
      </trkpt>
      <trkpt lat="43.19765" lon="6.357">
        <ele>305.658</ele>
        <time>2012-10-24T12:00:56Z</time>
      </trkpt>
      <trkpt lat="43.1977" lon="6.35697">
        <ele>305.508</ele>
        <time>2012-10-24T12:01:01Z</time>
      </trkpt>
      <trkpt lat="43.19774" lon="6.35692">
        <ele>305.08</ele>
        <time>2012-10-24T12:01:06Z</time>
      </trkpt>
      <trkpt lat="43.19778" lon="6.35689">
        <ele>304.725</ele>
        <time>2012-10-24T12:01:11Z</time>
      </trkpt>
      <trkpt lat="43.19782" lon="6.35684">
        <ele>304.398</ele>
        <time>2012-10-24T12:01:16Z</time>
      </trkpt>
      <trkpt lat="43.19786" lon="6.35679">
        <ele>303.922</ele>
        <time>2012-10-24T12:01:21Z</time>
      </trkpt>
      <trkpt lat="43.1979" lon="6.35676">
        <ele>303.777</ele>
        <time>2012-10-24T12:01:26Z</time>
      </trkpt>
      <trkpt lat="43.19794" lon="6.35672">
        <ele>303.513</ele>
        <time>2012-10-24T12:01:31Z</time>
      </trkpt>
      <trkpt lat="43.19798" lon="6.35669">
        <ele>302.857</ele>
        <time>2012-10-24T12:01:36Z</time>
      </trkpt>
      <trkpt lat="43.19803" lon="6.35665">
        <ele>302.487</ele>
        <time>2012-10-24T12:01:41Z</time>
      </trkpt>
      <trkpt lat="43.19807" lon="6.35662">
        <ele>302.292</ele>
        <time>2012-10-24T12:01:46Z</time>
      </trkpt>
      <trkpt lat="43.1981" lon="6.3566">
        <ele>302.181</ele>
        <time>2012-10-24T12:01:51Z</time>
      </trkpt>
      <trkpt lat="43.19815" lon="6.3566">
        <ele>301.793</ele>
        <time>2012-10-24T12:01:56Z</time>
      </trkpt>
      <trkpt lat="43.1982" lon="6.35663">
        <ele>301.436</ele>
        <time>2012-10-24T12:02:01Z</time>
      </trkpt>
      <trkpt lat="43.19825" lon="6.35664">
        <ele>301.314</ele>
        <time>2012-10-24T12:02:06Z</time>
      </trkpt>
      <trkpt lat="43.1983" lon="6.35667">
        <ele>300.778</ele>
        <time>2012-10-24T12:02:11Z</time>
      </trkpt>
      <trkpt lat="43.19836" lon="6.35665">
        <ele>300.448</ele>
        <time>2012-10-24T12:02:16Z</time>
      </trkpt>
      <trkpt lat="43.19841" lon="6.35661">
        <ele>300.144</ele>
        <time>2012-10-24T12:02:21Z</time>
      </trkpt>
      <trkpt lat="43.19845" lon="6.35657">
        <ele>300.234</ele>
        <time>2012-10-24T12:02:26Z</time>
      </trkpt>
      <trkpt lat="43.19847" lon="6.35651">
        <ele>299.927</ele>
        <time>2012-10-24T12:02:31Z</time>
      </trkpt>
      <trkpt lat="43.1985" lon="6.35645">
        <ele>299.444</ele>
        <time>2012-10-24T12:02:36Z</time>
      </trkpt>
      <trkpt lat="43.19852" lon="6.35639">
        <ele>298.947</ele>
        <time>2012-10-24T12:02:41Z</time>
      </trkpt>
      <trkpt lat="43.19854" lon="6.35633">
        <ele>298.72</ele>
        <time>2012-10-24T12:02:46Z</time>
      </trkpt>
      <trkpt lat="43.19856" lon="6.35626">
        <ele>298.352</ele>
        <time>2012-10-24T12:02:51Z</time>
      </trkpt>
      <trkpt lat="43.19859" lon="6.35619">
        <ele>297.887</ele>
        <time>2012-10-24T12:02:56Z</time>
      </trkpt>
      <trkpt lat="43.19861" lon="6.35613">
        <ele>297.694</ele>
        <time>2012-10-24T12:03:01Z</time>
      </trkpt>
      <trkpt lat="43.19863" lon="6.35608">
        <ele>297.303</ele>
        <time>2012-10-24T12:03:06Z</time>
      </trkpt>
      <trkpt lat="43.19866" lon="6.35602">
        <ele>296.944</ele>
        <time>2012-10-24T12:03:11Z</time>
      </trkpt>
      <trkpt lat="43.19869" lon="6.35595">
        <ele>296.772</ele>
        <time>2012-10-24T12:03:16Z</time>
      </trkpt>
      <trkpt lat="43.19872" lon="6.35589">
        <ele>296.336</ele>
        <time>2012-10-24T12:03:21Z</time>
      </trkpt>
      <trkpt lat="43.19876" lon="6.35584">
        <ele>296.048</ele>
        <time>2012-10-24T12:03:26Z</time>
      </trkpt>
      <trkpt lat="43.19877" lon="6.35578">
        <ele>296.154</ele>
        <time>2012-10-24T12:03:31Z</time>
      </trkpt>
      <trkpt lat="43.19883" lon="6.35573">
        <ele>295.818</ele>
        <time>2012-10-24T12:03:36Z</time>
      </trkpt>
      <trkpt lat="43.19886" lon="6.35565">
        <ele>295.493</ele>
        <time>2012-10-24T12:03:41Z</time>
      </trkpt>
      <trkpt lat="43.19889" lon="6.35559">
        <ele>295.181</ele>
        <time>2012-10-24T12:03:46Z</time>
      </trkpt>
      <trkpt lat="43.19892" lon="6.35553">
        <ele>295.094</ele>
        <time>2012-10-24T12:03:51Z</time>
      </trkpt>
      <trkpt lat="43.19894" lon="6.35546">
        <ele>294.949</ele>
        <time>2012-10-24T12:03:56Z</time>
      </trkpt>
      <trkpt lat="43.19894" lon="6.3554">
        <ele>294.325</ele>
        <time>2012-10-24T12:04:01Z</time>
      </trkpt>
      <trkpt lat="43.19892" lon="6.35538">
        <ele>293.313</ele>
        <time>2012-10-24T12:04:06Z</time>
      </trkpt>
      <trkpt lat="43.19888" lon="6.35541">
        <ele>292.74</ele>
        <time>2012-10-24T12:04:11Z</time>
      </trkpt>
      <trkpt lat="43.19886" lon="6.35545">
        <ele>291.844</ele>
        <time>2012-10-24T12:04:16Z</time>
      </trkpt>
      <trkpt lat="43.19881" lon="6.35551">
        <ele>291.466</ele>
        <time>2012-10-24T12:04:21Z</time>
      </trkpt>
      <trkpt lat="43.19877" lon="6.35556">
        <ele>291.149</ele>
        <time>2012-10-24T12:04:26Z</time>
      </trkpt>
      <trkpt lat="43.19873" lon="6.35561">
        <ele>290.507</ele>
        <time>2012-10-24T12:04:31Z</time>
      </trkpt>
      <trkpt lat="43.1987" lon="6.35566">
        <ele>289.995</ele>
        <time>2012-10-24T12:04:36Z</time>
      </trkpt>
      <trkpt lat="43.19866" lon="6.3557">
        <ele>288.969</ele>
        <time>2012-10-24T12:04:41Z</time>
      </trkpt>
      <trkpt lat="43.19861" lon="6.35575">
        <ele>288.681</ele>
        <time>2012-10-24T12:04:46Z</time>
      </trkpt>
      <trkpt lat="43.19855" lon="6.35579">
        <ele>288.264</ele>
        <time>2012-10-24T12:04:51Z</time>
      </trkpt>
      <trkpt lat="43.1985" lon="6.35582">
        <ele>287.931</ele>
        <time>2012-10-24T12:04:56Z</time>
      </trkpt>
      <trkpt lat="43.19846" lon="6.35586">
        <ele>287.315</ele>
        <time>2012-10-24T12:05:01Z</time>
      </trkpt>
      <trkpt lat="43.1984" lon="6.35589">
        <ele>287.08</ele>
        <time>2012-10-24T12:05:06Z</time>
      </trkpt>
      <trkpt lat="43.19836" lon="6.35591">
        <ele>286.636</ele>
        <time>2012-10-24T12:05:11Z</time>
      </trkpt>
      <trkpt lat="43.19831" lon="6.35594">
        <ele>285.851</ele>
        <time>2012-10-24T12:05:16Z</time>
      </trkpt>
      <trkpt lat="43.19826" lon="6.356">
        <ele>285.215</ele>
        <time>2012-10-24T12:05:21Z</time>
      </trkpt>
      <trkpt lat="43.19821" lon="6.35603">
        <ele>284.763</ele>
        <time>2012-10-24T12:05:26Z</time>
      </trkpt>
      <trkpt lat="43.19816" lon="6.35604">
        <ele>284.374</ele>
        <time>2012-10-24T12:05:31Z</time>
      </trkpt>
      <trkpt lat="43.19812" lon="6.35606">
        <ele>283.872</ele>
        <time>2012-10-24T12:05:36Z</time>
      </trkpt>
      <trkpt lat="43.1981" lon="6.35606">
        <ele>283.294</ele>
        <time>2012-10-24T12:05:41Z</time>
      </trkpt>
      <trkpt lat="43.19805" lon="6.35607">
        <ele>283.365</ele>
        <time>2012-10-24T12:05:46Z</time>
      </trkpt>
      <trkpt lat="43.19799" lon="6.35605">
        <ele>282.958</ele>
        <time>2012-10-24T12:05:51Z</time>
      </trkpt>
      <trkpt lat="43.19794" lon="6.35602">
        <ele>282.755</ele>
        <time>2012-10-24T12:05:56Z</time>
      </trkpt>
      <trkpt lat="43.1979" lon="6.35599">
        <ele>282.194</ele>
        <time>2012-10-24T12:06:01Z</time>
      </trkpt>
      <trkpt lat="43.19786" lon="6.35593">
        <ele>281.621</ele>
        <time>2012-10-24T12:06:06Z</time>
      </trkpt>
      <trkpt lat="43.19781" lon="6.3559">
        <ele>281.206</ele>
        <time>2012-10-24T12:06:11Z</time>
      </trkpt>
      <trkpt lat="43.19776" lon="6.35589">
        <ele>280.67</ele>
        <time>2012-10-24T12:06:16Z</time>
      </trkpt>
      <trkpt lat="43.19771" lon="6.35586">
        <ele>280.044</ele>
        <time>2012-10-24T12:06:21Z</time>
      </trkpt>
      <trkpt lat="43.19766" lon="6.35584">
        <ele>279.711</ele>
        <time>2012-10-24T12:06:26Z</time>
      </trkpt>
      <trkpt lat="43.19761" lon="6.35582">
        <ele>279.04</ele>
        <time>2012-10-24T12:06:31Z</time>
      </trkpt>
      <trkpt lat="43.19757" lon="6.3558">
        <ele>278.894</ele>
        <time>2012-10-24T12:06:36Z</time>
      </trkpt>
      <trkpt lat="43.19754" lon="6.35579">
        <ele>278.255</ele>
        <time>2012-10-24T12:06:41Z</time>
      </trkpt>
      <trkpt lat="43.19754" lon="6.35577">
        <ele>278.643</ele>
        <time>2012-10-24T12:06:46Z</time>
      </trkpt>
      <trkpt lat="43.19759" lon="6.35574">
        <ele>278.458</ele>
        <time>2012-10-24T12:06:56Z</time>
      </trkpt>
      <trkpt lat="43.19763" lon="6.35571">
        <ele>278.471</ele>
        <time>2012-10-24T12:07:01Z</time>
      </trkpt>
      <trkpt lat="43.19769" lon="6.35569">
        <ele>278.255</ele>
        <time>2012-10-24T12:07:06Z</time>
      </trkpt>
      <trkpt lat="43.19774" lon="6.35568">
        <ele>277.959</ele>
        <time>2012-10-24T12:07:11Z</time>
      </trkpt>
      <trkpt lat="43.19777" lon="6.35564">
        <ele>277.734</ele>
        <time>2012-10-24T12:07:16Z</time>
      </trkpt>
      <trkpt lat="43.19782" lon="6.35563">
        <ele>277.475</ele>
        <time>2012-10-24T12:07:21Z</time>
      </trkpt>
      <trkpt lat="43.19785" lon="6.35561">
        <ele>276.976</ele>
        <time>2012-10-24T12:07:26Z</time>
      </trkpt>
      <trkpt lat="43.19791" lon="6.35559">
        <ele>277.589</ele>
        <time>2012-10-24T12:07:31Z</time>
      </trkpt>
      <trkpt lat="43.19794" lon="6.35556">
        <ele>278.102</ele>
        <time>2012-10-24T12:07:36Z</time>
      </trkpt>
      <trkpt lat="43.19794" lon="6.35551">
        <ele>278.482</ele>
        <time>2012-10-24T12:07:41Z</time>
      </trkpt>
      <trkpt lat="43.19792" lon="6.35546">
        <ele>279.098</ele>
        <time>2012-10-24T12:07:46Z</time>
      </trkpt>
      <trkpt lat="43.19788" lon="6.35543">
        <ele>279.518</ele>
        <time>2012-10-24T12:07:51Z</time>
      </trkpt>
      <trkpt lat="43.19784" lon="6.35539">
        <ele>279.959</ele>
        <time>2012-10-24T12:07:56Z</time>
      </trkpt>
      <trkpt lat="43.1978" lon="6.35537">
        <ele>280.345</ele>
        <time>2012-10-24T12:08:01Z</time>
      </trkpt>
      <trkpt lat="43.19776" lon="6.35535">
        <ele>280.868</ele>
        <time>2012-10-24T12:08:06Z</time>
      </trkpt>
      <trkpt lat="43.19771" lon="6.35533">
        <ele>281.328</ele>
        <time>2012-10-24T12:08:11Z</time>
      </trkpt>
      <trkpt lat="43.19766" lon="6.35534">
        <ele>281.563</ele>
        <time>2012-10-24T12:08:16Z</time>
      </trkpt>
      <trkpt lat="43.1976" lon="6.35534">
        <ele>281.6</ele>
        <time>2012-10-24T12:08:21Z</time>
      </trkpt>
      <trkpt lat="43.19754" lon="6.35535">
        <ele>281.497</ele>
        <time>2012-10-24T12:08:26Z</time>
      </trkpt>
      <trkpt lat="43.19748" lon="6.35536">
        <ele>281.304</ele>
        <time>2012-10-24T12:08:31Z</time>
      </trkpt>
      <trkpt lat="43.19743" lon="6.35536">
        <ele>281.497</ele>
        <time>2012-10-24T12:08:36Z</time>
      </trkpt>
      <trkpt lat="43.19738" lon="6.35537">
        <ele>281.447</ele>
        <time>2012-10-24T12:08:41Z</time>
      </trkpt>
      <trkpt lat="43.19733" lon="6.35535">
        <ele>281.262</ele>
        <time>2012-10-24T12:08:46Z</time>
      </trkpt>
      <trkpt lat="43.19728" lon="6.35534">
        <ele>280.857</ele>
        <time>2012-10-24T12:08:51Z</time>
      </trkpt>
      <trkpt lat="43.19722" lon="6.35533">
        <ele>280.937</ele>
        <time>2012-10-24T12:08:56Z</time>
      </trkpt>
      <trkpt lat="43.19717" lon="6.35532">
        <ele>280.744</ele>
        <time>2012-10-24T12:09:01Z</time>
      </trkpt>
      <trkpt lat="43.19712" lon="6.3553">
        <ele>280.662</ele>
        <time>2012-10-24T12:09:06Z</time>
      </trkpt>
      <trkpt lat="43.19707" lon="6.35528">
        <ele>280.583</ele>
        <time>2012-10-24T12:09:11Z</time>
      </trkpt>
      <trkpt lat="43.19702" lon="6.35524">
        <ele>280.075</ele>
        <time>2012-10-24T12:09:16Z</time>
      </trkpt>
      <trkpt lat="43.19697" lon="6.35519">
        <ele>279.713</ele>
        <time>2012-10-24T12:09:21Z</time>
      </trkpt>
      <trkpt lat="43.19693" lon="6.35515">
        <ele>279.098</ele>
        <time>2012-10-24T12:09:26Z</time>
      </trkpt>
      <trkpt lat="43.19689" lon="6.35511">
        <ele>278.434</ele>
        <time>2012-10-24T12:09:31Z</time>
      </trkpt>
      <trkpt lat="43.19685" lon="6.35507">
        <ele>277.914</ele>
        <time>2012-10-24T12:09:36Z</time>
      </trkpt>
      <trkpt lat="43.19681" lon="6.35501">
        <ele>277.568</ele>
        <time>2012-10-24T12:09:41Z</time>
      </trkpt>
      <trkpt lat="43.19677" lon="6.35496">
        <ele>277.121</ele>
        <time>2012-10-24T12:09:46Z</time>
      </trkpt>
      <trkpt lat="43.19673" lon="6.35489">
        <ele>276.899</ele>
        <time>2012-10-24T12:09:51Z</time>
      </trkpt>
      <trkpt lat="43.19671" lon="6.35485">
        <ele>276.331</ele>
        <time>2012-10-24T12:09:56Z</time>
      </trkpt>
      <trkpt lat="43.19667" lon="6.35481">
        <ele>275.639</ele>
        <time>2012-10-24T12:10:01Z</time>
      </trkpt>
      <trkpt lat="43.19662" lon="6.35476">
        <ele>275.116</ele>
        <time>2012-10-24T12:10:06Z</time>
      </trkpt>
      <trkpt lat="43.19658" lon="6.35472">
        <ele>274.888</ele>
        <time>2012-10-24T12:10:11Z</time>
      </trkpt>
      <trkpt lat="43.19654" lon="6.35467">
        <ele>274.238</ele>
        <time>2012-10-24T12:10:16Z</time>
      </trkpt>
      <trkpt lat="43.19651" lon="6.35461">
        <ele>273.631</ele>
        <time>2012-10-24T12:10:21Z</time>
      </trkpt>
      <trkpt lat="43.19647" lon="6.35455">
        <ele>273.055</ele>
        <time>2012-10-24T12:10:26Z</time>
      </trkpt>
      <trkpt lat="43.19642" lon="6.3545">
        <ele>272.886</ele>
        <time>2012-10-24T12:10:31Z</time>
      </trkpt>
      <trkpt lat="43.19639" lon="6.35445">
        <ele>272.344</ele>
        <time>2012-10-24T12:10:36Z</time>
      </trkpt>
      <trkpt lat="43.19636" lon="6.3544">
        <ele>271.911</ele>
        <time>2012-10-24T12:10:41Z</time>
      </trkpt>
      <trkpt lat="43.19632" lon="6.35435">
        <ele>271.438</ele>
        <time>2012-10-24T12:10:46Z</time>
      </trkpt>
      <trkpt lat="43.19627" lon="6.35429">
        <ele>271.255</ele>
        <time>2012-10-24T12:10:51Z</time>
      </trkpt>
      <trkpt lat="43.19624" lon="6.35422">
        <ele>270.716</ele>
        <time>2012-10-24T12:10:56Z</time>
      </trkpt>
      <trkpt lat="43.19621" lon="6.35416">
        <ele>270.288</ele>
        <time>2012-10-24T12:11:01Z</time>
      </trkpt>
      <trkpt lat="43.19618" lon="6.3541">
        <ele>269.897</ele>
        <time>2012-10-24T12:11:06Z</time>
      </trkpt>
      <trkpt lat="43.19615" lon="6.35403">
        <ele>269.699</ele>
        <time>2012-10-24T12:11:11Z</time>
      </trkpt>
      <trkpt lat="43.19611" lon="6.35397">
        <ele>269.44</ele>
        <time>2012-10-24T12:11:16Z</time>
      </trkpt>
      <trkpt lat="43.19608" lon="6.35391">
        <ele>269.231</ele>
        <time>2012-10-24T12:11:21Z</time>
      </trkpt>
      <trkpt lat="43.19604" lon="6.35384">
        <ele>268.927</ele>
        <time>2012-10-24T12:11:26Z</time>
      </trkpt>
      <trkpt lat="43.19599" lon="6.35381">
        <ele>268.457</ele>
        <time>2012-10-24T12:11:31Z</time>
      </trkpt>
      <trkpt lat="43.19594" lon="6.3538">
        <ele>268.119</ele>
        <time>2012-10-24T12:11:36Z</time>
      </trkpt>
      <trkpt lat="43.1959" lon="6.3538">
        <ele>267.781</ele>
        <time>2012-10-24T12:11:41Z</time>
      </trkpt>
      <trkpt lat="43.19586" lon="6.35378">
        <ele>267.123</ele>
        <time>2012-10-24T12:11:46Z</time>
      </trkpt>
      <trkpt lat="43.19579" lon="6.35378">
        <ele>266.829</ele>
        <time>2012-10-24T12:11:51Z</time>
      </trkpt>
      <trkpt lat="43.19574" lon="6.35379">
        <ele>266.37</ele>
        <time>2012-10-24T12:11:56Z</time>
      </trkpt>
      <trkpt lat="43.19567" lon="6.35382">
        <ele>265.994</ele>
        <time>2012-10-24T12:12:01Z</time>
      </trkpt>
      <trkpt lat="43.19562" lon="6.35384">
        <ele>265.334</ele>
        <time>2012-10-24T12:12:06Z</time>
      </trkpt>
      <trkpt lat="43.19556" lon="6.35385">
        <ele>264.924</ele>
        <time>2012-10-24T12:12:11Z</time>
      </trkpt>
      <trkpt lat="43.19549" lon="6.35386">
        <ele>264.414</ele>
        <time>2012-10-24T12:12:16Z</time>
      </trkpt>
      <trkpt lat="43.19544" lon="6.35386">
        <ele>263.954</ele>
        <time>2012-10-24T12:12:21Z</time>
      </trkpt>
      <trkpt lat="43.19539" lon="6.35385">
        <ele>263.45</ele>
        <time>2012-10-24T12:12:26Z</time>
      </trkpt>
      <trkpt lat="43.19533" lon="6.35386">
        <ele>262.99</ele>
        <time>2012-10-24T12:12:31Z</time>
      </trkpt>
      <trkpt lat="43.19528" lon="6.35383">
        <ele>262.528</ele>
        <time>2012-10-24T12:12:36Z</time>
      </trkpt>
      <trkpt lat="43.19523" lon="6.35379">
        <ele>262.337</ele>
        <time>2012-10-24T12:12:41Z</time>
      </trkpt>
      <trkpt lat="43.19518" lon="6.35374">
        <ele>262.1</ele>
        <time>2012-10-24T12:12:46Z</time>
      </trkpt>
      <trkpt lat="43.19512" lon="6.3537">
        <ele>261.849</ele>
        <time>2012-10-24T12:12:51Z</time>
      </trkpt>
      <trkpt lat="43.19507" lon="6.35366">
        <ele>261.761</ele>
        <time>2012-10-24T12:12:56Z</time>
      </trkpt>
      <trkpt lat="43.19502" lon="6.35364">
        <ele>261.394</ele>
        <time>2012-10-24T12:13:01Z</time>
      </trkpt>
      <trkpt lat="43.19497" lon="6.35361">
        <ele>260.942</ele>
        <time>2012-10-24T12:13:06Z</time>
      </trkpt>
      <trkpt lat="43.19494" lon="6.35355">
        <ele>261.037</ele>
        <time>2012-10-24T12:13:11Z</time>
      </trkpt>
      <trkpt lat="43.19489" lon="6.35351">
        <ele>260.596</ele>
        <time>2012-10-24T12:13:16Z</time>
      </trkpt>
      <trkpt lat="43.19484" lon="6.35347">
        <ele>260.271</ele>
        <time>2012-10-24T12:13:21Z</time>
      </trkpt>
      <trkpt lat="43.19479" lon="6.35343">
        <ele>260.097</ele>
        <time>2012-10-24T12:13:26Z</time>
      </trkpt>
      <trkpt lat="43.19473" lon="6.35342">
        <ele>259.563</ele>
        <time>2012-10-24T12:13:31Z</time>
      </trkpt>
      <trkpt lat="43.19468" lon="6.35338">
        <ele>259.397</ele>
        <time>2012-10-24T12:13:36Z</time>
      </trkpt>
      <trkpt lat="43.19464" lon="6.35335">
        <ele>259.182</ele>
        <time>2012-10-24T12:13:41Z</time>
      </trkpt>
      <trkpt lat="43.19459" lon="6.35331">
        <ele>258.567</ele>
        <time>2012-10-24T12:13:46Z</time>
      </trkpt>
      <trkpt lat="43.19454" lon="6.35327">
        <ele>258.318</ele>
        <time>2012-10-24T12:13:51Z</time>
      </trkpt>
      <trkpt lat="43.19448" lon="6.35325">
        <ele>257.978</ele>
        <time>2012-10-24T12:13:56Z</time>
      </trkpt>
      <trkpt lat="43.19442" lon="6.35325">
        <ele>257.624</ele>
        <time>2012-10-24T12:14:01Z</time>
      </trkpt>
      <trkpt lat="43.19434" lon="6.35324">
        <ele>257.243</ele>
        <time>2012-10-24T12:14:06Z</time>
      </trkpt>
      <trkpt lat="43.1943" lon="6.35322">
        <ele>257.058</ele>
        <time>2012-10-24T12:14:11Z</time>
      </trkpt>
      <trkpt lat="43.19426" lon="6.35317">
        <ele>256.91</ele>
        <time>2012-10-24T12:14:16Z</time>
      </trkpt>
      <trkpt lat="43.1942" lon="6.35315">
        <ele>256.897</ele>
        <time>2012-10-24T12:14:21Z</time>
      </trkpt>
      <trkpt lat="43.19415" lon="6.35313">
        <ele>256.744</ele>
        <time>2012-10-24T12:14:26Z</time>
      </trkpt>
      <trkpt lat="43.1941" lon="6.3531">
        <ele>256.73</ele>
        <time>2012-10-24T12:14:31Z</time>
      </trkpt>
      <trkpt lat="43.19406" lon="6.35306">
        <ele>257.169</ele>
        <time>2012-10-24T12:14:36Z</time>
      </trkpt>
      <trkpt lat="43.19401" lon="6.35301">
        <ele>257.404</ele>
        <time>2012-10-24T12:14:41Z</time>
      </trkpt>
      <trkpt lat="43.19397" lon="6.35296">
        <ele>257.703</ele>
        <time>2012-10-24T12:14:46Z</time>
      </trkpt>
      <trkpt lat="43.19393" lon="6.3529">
        <ele>257.991</ele>
        <time>2012-10-24T12:14:51Z</time>
      </trkpt>
      <trkpt lat="43.19389" lon="6.35286">
        <ele>258.287</ele>
        <time>2012-10-24T12:14:56Z</time>
      </trkpt>
      <trkpt lat="43.19386" lon="6.3528">
        <ele>258.575</ele>
        <time>2012-10-24T12:15:01Z</time>
      </trkpt>
      <trkpt lat="43.19381" lon="6.35274">
        <ele>258.741</ele>
        <time>2012-10-24T12:15:06Z</time>
      </trkpt>
      <trkpt lat="43.19378" lon="6.35267">
        <ele>259</ele>
        <time>2012-10-24T12:15:11Z</time>
      </trkpt>
      <trkpt lat="43.19374" lon="6.35262">
        <ele>259.389</ele>
        <time>2012-10-24T12:15:16Z</time>
      </trkpt>
      <trkpt lat="43.19371" lon="6.35255">
        <ele>259.608</ele>
        <time>2012-10-24T12:15:21Z</time>
      </trkpt>
      <trkpt lat="43.1937" lon="6.35251">
        <ele>259.634</ele>
        <time>2012-10-24T12:15:26Z</time>
      </trkpt>
      <trkpt lat="43.19369" lon="6.35254">
        <ele>259.621</ele>
        <time>2012-10-24T12:15:31Z</time>
      </trkpt>
      <trkpt lat="43.19369" lon="6.35253">
        <ele>259.642</ele>
        <time>2012-10-24T12:15:36Z</time>
      </trkpt>
      <trkpt lat="43.19371" lon="6.35245">
        <ele>259.671</ele>
        <time>2012-10-24T12:15:41Z</time>
      </trkpt>
      <trkpt lat="43.19371" lon="6.35238">
        <ele>259.671</ele>
        <time>2012-10-24T12:15:46Z</time>
      </trkpt>
      <trkpt lat="43.1937" lon="6.35236">
        <ele>259.655</ele>
        <time>2012-10-24T12:15:51Z</time>
      </trkpt>
      <trkpt lat="43.19369" lon="6.35236">
        <ele>260.06</ele>
        <time>2012-10-24T12:16:01Z</time>
      </trkpt>
      <trkpt lat="43.1937" lon="6.35236">
        <ele>259.891</ele>
        <time>2012-10-24T12:16:16Z</time>
      </trkpt>
      <trkpt lat="43.19369" lon="6.35235">
        <ele>259.69</ele>
        <time>2012-10-24T12:16:46Z</time>
      </trkpt>
      <trkpt lat="43.19369" lon="6.35234">
        <ele>260.815</ele>
        <time>2012-10-24T12:17:16Z</time>
      </trkpt>
      <trkpt lat="43.1937" lon="6.35233">
        <ele>260.966</ele>
        <time>2012-10-24T12:17:26Z</time>
      </trkpt>
      <trkpt lat="43.19369" lon="6.35226">
        <ele>261.233</ele>
        <time>2012-10-24T12:17:36Z</time>
      </trkpt>
      <trkpt lat="43.19367" lon="6.3522">
        <ele>261.777</ele>
        <time>2012-10-24T12:17:41Z</time>
      </trkpt>
      <trkpt lat="43.19365" lon="6.35214">
        <ele>262.255</ele>
        <time>2012-10-24T12:17:46Z</time>
      </trkpt>
      <trkpt lat="43.19364" lon="6.35205">
        <ele>263.231</ele>
        <time>2012-10-24T12:17:51Z</time>
      </trkpt>
      <trkpt lat="43.19365" lon="6.35199">
        <ele>263.246</ele>
        <time>2012-10-24T12:17:56Z</time>
      </trkpt>
      <trkpt lat="43.19365" lon="6.35193">
        <ele>263.682</ele>
        <time>2012-10-24T12:18:01Z</time>
      </trkpt>
      <trkpt lat="43.19364" lon="6.35183">
        <ele>264.332</ele>
        <time>2012-10-24T12:18:06Z</time>
      </trkpt>
      <trkpt lat="43.19363" lon="6.35178">
        <ele>264.343</ele>
        <time>2012-10-24T12:18:11Z</time>
      </trkpt>
      <trkpt lat="43.19362" lon="6.3517">
        <ele>264.731</ele>
        <time>2012-10-24T12:18:16Z</time>
      </trkpt>
      <trkpt lat="43.19361" lon="6.35165">
        <ele>264.882</ele>
        <time>2012-10-24T12:18:21Z</time>
      </trkpt>
      <trkpt lat="43.19359" lon="6.3516">
        <ele>265.323</ele>
        <time>2012-10-24T12:18:26Z</time>
      </trkpt>
      <trkpt lat="43.19357" lon="6.35154">
        <ele>265.405</ele>
        <time>2012-10-24T12:18:31Z</time>
      </trkpt>
      <trkpt lat="43.19353" lon="6.35149">
        <ele>266.087</ele>
        <time>2012-10-24T12:18:36Z</time>
      </trkpt>
      <trkpt lat="43.1935" lon="6.35145">
        <ele>266.372</ele>
        <time>2012-10-24T12:18:41Z</time>
      </trkpt>
      <trkpt lat="43.19347" lon="6.35139">
        <ele>266.708</ele>
        <time>2012-10-24T12:18:46Z</time>
      </trkpt>
      <trkpt lat="43.19344" lon="6.35133">
        <ele>267.059</ele>
        <time>2012-10-24T12:18:51Z</time>
      </trkpt>
      <trkpt lat="43.19341" lon="6.35127">
        <ele>267.469</ele>
        <time>2012-10-24T12:18:56Z</time>
      </trkpt>
      <trkpt lat="43.19339" lon="6.3512">
        <ele>268.008</ele>
        <time>2012-10-24T12:19:01Z</time>
      </trkpt>
      <trkpt lat="43.19338" lon="6.35113">
        <ele>268.248</ele>
        <time>2012-10-24T12:19:06Z</time>
      </trkpt>
      <trkpt lat="43.19337" lon="6.35106">
        <ele>268.462</ele>
        <time>2012-10-24T12:19:11Z</time>
      </trkpt>
      <trkpt lat="43.19337" lon="6.351">
        <ele>268.901</ele>
        <time>2012-10-24T12:19:16Z</time>
      </trkpt>
      <trkpt lat="43.19337" lon="6.35093">
        <ele>269.324</ele>
        <time>2012-10-24T12:19:21Z</time>
      </trkpt>
      <trkpt lat="43.19337" lon="6.35087">
        <ele>269.805</ele>
        <time>2012-10-24T12:19:26Z</time>
      </trkpt>
      <trkpt lat="43.19336" lon="6.3508">
        <ele>270.167</ele>
        <time>2012-10-24T12:19:31Z</time>
      </trkpt>
      <trkpt lat="43.19336" lon="6.35073">
        <ele>270.283</ele>
        <time>2012-10-24T12:19:36Z</time>
      </trkpt>
      <trkpt lat="43.19337" lon="6.35067">
        <ele>270.626</ele>
        <time>2012-10-24T12:19:41Z</time>
      </trkpt>
      <trkpt lat="43.19336" lon="6.3506">
        <ele>271.044</ele>
        <time>2012-10-24T12:19:46Z</time>
      </trkpt>
      <trkpt lat="43.19334" lon="6.35056">
        <ele>271.002</ele>
        <time>2012-10-24T12:19:51Z</time>
      </trkpt>
      <trkpt lat="43.19333" lon="6.3505">
        <ele>271.752</ele>
        <time>2012-10-24T12:19:56Z</time>
      </trkpt>
      <trkpt lat="43.19331" lon="6.35044">
        <ele>271.916</ele>
        <time>2012-10-24T12:20:01Z</time>
      </trkpt>
      <trkpt lat="43.19329" lon="6.35038">
        <ele>272.249</ele>
        <time>2012-10-24T12:20:06Z</time>
      </trkpt>
      <trkpt lat="43.19326" lon="6.35033">
        <ele>272.627</ele>
        <time>2012-10-24T12:20:11Z</time>
      </trkpt>
      <trkpt lat="43.19325" lon="6.35028">
        <ele>272.835</ele>
        <time>2012-10-24T12:20:16Z</time>
      </trkpt>
      <trkpt lat="43.19322" lon="6.35022">
        <ele>273.522</ele>
        <time>2012-10-24T12:20:21Z</time>
      </trkpt>
      <trkpt lat="43.1932" lon="6.35016">
        <ele>274.009</ele>
        <time>2012-10-24T12:20:26Z</time>
      </trkpt>
      <trkpt lat="43.19317" lon="6.35009">
        <ele>274.156</ele>
        <time>2012-10-24T12:20:31Z</time>
      </trkpt>
      <trkpt lat="43.19315" lon="6.35002">
        <ele>274.651</ele>
        <time>2012-10-24T12:20:36Z</time>
      </trkpt>
      <trkpt lat="43.19311" lon="6.34996">
        <ele>274.954</ele>
        <time>2012-10-24T12:20:41Z</time>
      </trkpt>
      <trkpt lat="43.19307" lon="6.34992">
        <ele>275.414</ele>
        <time>2012-10-24T12:20:46Z</time>
      </trkpt>
      <trkpt lat="43.19304" lon="6.34986">
        <ele>275.673</ele>
        <time>2012-10-24T12:20:51Z</time>
      </trkpt>
      <trkpt lat="43.193" lon="6.34981">
        <ele>276.085</ele>
        <time>2012-10-24T12:20:56Z</time>
      </trkpt>
      <trkpt lat="43.19297" lon="6.34975">
        <ele>276.693</ele>
        <time>2012-10-24T12:21:01Z</time>
      </trkpt>
      <trkpt lat="43.19293" lon="6.34971">
        <ele>277.208</ele>
        <time>2012-10-24T12:21:06Z</time>
      </trkpt>
      <trkpt lat="43.1929" lon="6.34966">
        <ele>277.51</ele>
        <time>2012-10-24T12:21:11Z</time>
      </trkpt>
      <trkpt lat="43.19286" lon="6.34961">
        <ele>278.046</ele>
        <time>2012-10-24T12:21:16Z</time>
      </trkpt>
      <trkpt lat="43.19283" lon="6.34957">
        <ele>278.271</ele>
        <time>2012-10-24T12:21:21Z</time>
      </trkpt>
      <trkpt lat="43.19279" lon="6.34952">
        <ele>278.408</ele>
        <time>2012-10-24T12:21:26Z</time>
      </trkpt>
      <trkpt lat="43.19274" lon="6.34949">
        <ele>278.958</ele>
        <time>2012-10-24T12:21:31Z</time>
      </trkpt>
      <trkpt lat="43.19271" lon="6.34944">
        <ele>279.285</ele>
        <time>2012-10-24T12:21:36Z</time>
      </trkpt>
      <trkpt lat="43.19268" lon="6.34941">
        <ele>279.806</ele>
        <time>2012-10-24T12:21:41Z</time>
      </trkpt>
      <trkpt lat="43.19264" lon="6.34936">
        <ele>280.181</ele>
        <time>2012-10-24T12:21:46Z</time>
      </trkpt>
      <trkpt lat="43.19258" lon="6.34931">
        <ele>280.672</ele>
        <time>2012-10-24T12:21:51Z</time>
      </trkpt>
      <trkpt lat="43.19254" lon="6.34926">
        <ele>281.238</ele>
        <time>2012-10-24T12:21:56Z</time>
      </trkpt>
      <trkpt lat="43.1925" lon="6.34921">
        <ele>281.695</ele>
        <time>2012-10-24T12:22:01Z</time>
      </trkpt>
      <trkpt lat="43.19246" lon="6.34916">
        <ele>281.909</ele>
        <time>2012-10-24T12:22:06Z</time>
      </trkpt>
      <trkpt lat="43.19242" lon="6.34911">
        <ele>282.406</ele>
        <time>2012-10-24T12:22:11Z</time>
      </trkpt>
      <trkpt lat="43.19238" lon="6.34906">
        <ele>282.763</ele>
        <time>2012-10-24T12:22:16Z</time>
      </trkpt>
      <trkpt lat="43.19234" lon="6.349">
        <ele>282.99</ele>
        <time>2012-10-24T12:22:21Z</time>
      </trkpt>
      <trkpt lat="43.1923" lon="6.34895">
        <ele>283.439</ele>
        <time>2012-10-24T12:22:26Z</time>
      </trkpt>
      <trkpt lat="43.19227" lon="6.34889">
        <ele>283.796</ele>
        <time>2012-10-24T12:22:31Z</time>
      </trkpt>
      <trkpt lat="43.19223" lon="6.34883">
        <ele>284.329</ele>
        <time>2012-10-24T12:22:36Z</time>
      </trkpt>
      <trkpt lat="43.1922" lon="6.34877">
        <ele>284.594</ele>
        <time>2012-10-24T12:22:41Z</time>
      </trkpt>
      <trkpt lat="43.19217" lon="6.34871">
        <ele>285.038</ele>
        <time>2012-10-24T12:22:46Z</time>
      </trkpt>
      <trkpt lat="43.19215" lon="6.34864">
        <ele>285.437</ele>
        <time>2012-10-24T12:22:51Z</time>
      </trkpt>
      <trkpt lat="43.19215" lon="6.34856">
        <ele>286.015</ele>
        <time>2012-10-24T12:22:56Z</time>
      </trkpt>
      <trkpt lat="43.19215" lon="6.34849">
        <ele>286.396</ele>
        <time>2012-10-24T12:23:01Z</time>
      </trkpt>
      <trkpt lat="43.19217" lon="6.34841">
        <ele>286.631</ele>
        <time>2012-10-24T12:23:06Z</time>
      </trkpt>
      <trkpt lat="43.19219" lon="6.34834">
        <ele>287.239</ele>
        <time>2012-10-24T12:23:11Z</time>
      </trkpt>
      <trkpt lat="43.1922" lon="6.34827">
        <ele>287.55</ele>
        <time>2012-10-24T12:23:16Z</time>
      </trkpt>
      <trkpt lat="43.19222" lon="6.34822">
        <ele>288.24</ele>
        <time>2012-10-24T12:23:21Z</time>
      </trkpt>
      <trkpt lat="43.19226" lon="6.34815">
        <ele>288.562</ele>
        <time>2012-10-24T12:23:26Z</time>
      </trkpt>
      <trkpt lat="43.19229" lon="6.34808">
        <ele>288.996</ele>
        <time>2012-10-24T12:23:31Z</time>
      </trkpt>
      <trkpt lat="43.1923" lon="6.34798">
        <ele>289.389</ele>
        <time>2012-10-24T12:23:36Z</time>
      </trkpt>
      <trkpt lat="43.19231" lon="6.34791">
        <ele>289.667</ele>
        <time>2012-10-24T12:23:41Z</time>
      </trkpt>
      <trkpt lat="43.1923" lon="6.34785">
        <ele>289.815</ele>
        <time>2012-10-24T12:23:46Z</time>
      </trkpt>
      <trkpt lat="43.19229" lon="6.34778">
        <ele>290.343</ele>
        <time>2012-10-24T12:23:51Z</time>
      </trkpt>
      <trkpt lat="43.19227" lon="6.34771">
        <ele>290.687</ele>
        <time>2012-10-24T12:23:56Z</time>
      </trkpt>
      <trkpt lat="43.19225" lon="6.34765">
        <ele>291.136</ele>
        <time>2012-10-24T12:24:01Z</time>
      </trkpt>
      <trkpt lat="43.19222" lon="6.34758">
        <ele>291.403</ele>
        <time>2012-10-24T12:24:06Z</time>
      </trkpt>
      <trkpt lat="43.19219" lon="6.34752">
        <ele>291.715</ele>
        <time>2012-10-24T12:24:11Z</time>
      </trkpt>
      <trkpt lat="43.19217" lon="6.34744">
        <ele>292.33</ele>
        <time>2012-10-24T12:24:16Z</time>
      </trkpt>
      <trkpt lat="43.19215" lon="6.34739">
        <ele>292.724</ele>
        <time>2012-10-24T12:24:21Z</time>
      </trkpt>
      <trkpt lat="43.19214" lon="6.34731">
        <ele>293.152</ele>
        <time>2012-10-24T12:24:26Z</time>
      </trkpt>
      <trkpt lat="43.19213" lon="6.34725">
        <ele>293.67</ele>
        <time>2012-10-24T12:24:31Z</time>
      </trkpt>
      <trkpt lat="43.19212" lon="6.34717">
        <ele>294.021</ele>
        <time>2012-10-24T12:24:36Z</time>
      </trkpt>
      <trkpt lat="43.19211" lon="6.3471">
        <ele>294.288</ele>
        <time>2012-10-24T12:24:41Z</time>
      </trkpt>
      <trkpt lat="43.19211" lon="6.34703">
        <ele>294.529</ele>
        <time>2012-10-24T12:24:46Z</time>
      </trkpt>
      <trkpt lat="43.1921" lon="6.34695">
        <ele>294.888</ele>
        <time>2012-10-24T12:24:51Z</time>
      </trkpt>
      <trkpt lat="43.19209" lon="6.34689">
        <ele>295.105</ele>
        <time>2012-10-24T12:24:56Z</time>
      </trkpt>
      <trkpt lat="43.19207" lon="6.34683">
        <ele>295.609</ele>
        <time>2012-10-24T12:25:01Z</time>
      </trkpt>
      <trkpt lat="43.19204" lon="6.34677">
        <ele>295.882</ele>
        <time>2012-10-24T12:25:06Z</time>
      </trkpt>
      <trkpt lat="43.19201" lon="6.3467">
        <ele>296.101</ele>
        <time>2012-10-24T12:25:11Z</time>
      </trkpt>
      <trkpt lat="43.192" lon="6.34662">
        <ele>296.333</ele>
        <time>2012-10-24T12:25:16Z</time>
      </trkpt>
      <trkpt lat="43.19203" lon="6.34658">
        <ele>296.999</ele>
        <time>2012-10-24T12:25:21Z</time>
      </trkpt>
      <trkpt lat="43.19207" lon="6.34661">
        <ele>297.747</ele>
        <time>2012-10-24T12:25:26Z</time>
      </trkpt>
      <trkpt lat="43.19208" lon="6.34666">
        <ele>298.202</ele>
        <time>2012-10-24T12:25:31Z</time>
      </trkpt>
      <trkpt lat="43.19212" lon="6.34673">
        <ele>298.622</ele>
        <time>2012-10-24T12:25:36Z</time>
      </trkpt>
      <trkpt lat="43.19214" lon="6.34681">
        <ele>299.19</ele>
        <time>2012-10-24T12:25:41Z</time>
      </trkpt>
      <trkpt lat="43.19217" lon="6.34688">
        <ele>299.705</ele>
        <time>2012-10-24T12:25:46Z</time>
      </trkpt>
      <trkpt lat="43.19222" lon="6.34693">
        <ele>300.009</ele>
        <time>2012-10-24T12:25:51Z</time>
      </trkpt>
      <trkpt lat="43.19225" lon="6.347">
        <ele>300.141</ele>
        <time>2012-10-24T12:25:56Z</time>
      </trkpt>
      <trkpt lat="43.19226" lon="6.34707">
        <ele>300.456</ele>
        <time>2012-10-24T12:26:01Z</time>
      </trkpt>
      <trkpt lat="43.19228" lon="6.34713">
        <ele>300.889</ele>
        <time>2012-10-24T12:26:06Z</time>
      </trkpt>
      <trkpt lat="43.1923" lon="6.3472">
        <ele>301.38</ele>
        <time>2012-10-24T12:26:11Z</time>
      </trkpt>
      <trkpt lat="43.19233" lon="6.34721">
        <ele>301.893</ele>
        <time>2012-10-24T12:26:16Z</time>
      </trkpt>
      <trkpt lat="43.19234" lon="6.34715">
        <ele>302.857</ele>
        <time>2012-10-24T12:26:21Z</time>
      </trkpt>
      <trkpt lat="43.19234" lon="6.34708">
        <ele>303.254</ele>
        <time>2012-10-24T12:26:26Z</time>
      </trkpt>
      <trkpt lat="43.19231" lon="6.34701">
        <ele>303.782</ele>
        <time>2012-10-24T12:26:31Z</time>
      </trkpt>
      <trkpt lat="43.19231" lon="6.34694">
        <ele>304.205</ele>
        <time>2012-10-24T12:26:36Z</time>
      </trkpt>
      <trkpt lat="43.19229" lon="6.34687">
        <ele>304.821</ele>
        <time>2012-10-24T12:26:41Z</time>
      </trkpt>
      <trkpt lat="43.19228" lon="6.34679">
        <ele>305.193</ele>
        <time>2012-10-24T12:26:46Z</time>
      </trkpt>
      <trkpt lat="43.19228" lon="6.34672">
        <ele>305.407</ele>
        <time>2012-10-24T12:26:51Z</time>
      </trkpt>
      <trkpt lat="43.19228" lon="6.34665">
        <ele>305.719</ele>
        <time>2012-10-24T12:26:56Z</time>
      </trkpt>
      <trkpt lat="43.19229" lon="6.34658">
        <ele>305.909</ele>
        <time>2012-10-24T12:27:01Z</time>
      </trkpt>
      <trkpt lat="43.19231" lon="6.34651">
        <ele>306.324</ele>
        <time>2012-10-24T12:27:06Z</time>
      </trkpt>
      <trkpt lat="43.19233" lon="6.34644">
        <ele>306.89</ele>
        <time>2012-10-24T12:27:11Z</time>
      </trkpt>
      <trkpt lat="43.19237" lon="6.34639">
        <ele>307.259</ele>
        <time>2012-10-24T12:27:16Z</time>
      </trkpt>
      <trkpt lat="43.19241" lon="6.34633">
        <ele>307.487</ele>
        <time>2012-10-24T12:27:21Z</time>
      </trkpt>
      <trkpt lat="43.19244" lon="6.34625">
        <ele>307.925</ele>
        <time>2012-10-24T12:27:26Z</time>
      </trkpt>
      <trkpt lat="43.19248" lon="6.3462">
        <ele>308.301</ele>
        <time>2012-10-24T12:27:31Z</time>
      </trkpt>
      <trkpt lat="43.19251" lon="6.34614">
        <ele>308.647</ele>
        <time>2012-10-24T12:27:36Z</time>
      </trkpt>
      <trkpt lat="43.19254" lon="6.34609">
        <ele>309.18</ele>
        <time>2012-10-24T12:27:41Z</time>
      </trkpt>
      <trkpt lat="43.19258" lon="6.34604">
        <ele>309.424</ele>
        <time>2012-10-24T12:27:46Z</time>
      </trkpt>
      <trkpt lat="43.19261" lon="6.34599">
        <ele>309.931</ele>
        <time>2012-10-24T12:27:51Z</time>
      </trkpt>
      <trkpt lat="43.19263" lon="6.34592">
        <ele>310.406</ele>
        <time>2012-10-24T12:27:56Z</time>
      </trkpt>
      <trkpt lat="43.19265" lon="6.34586">
        <ele>310.718</ele>
        <time>2012-10-24T12:28:01Z</time>
      </trkpt>
      <trkpt lat="43.19267" lon="6.34582">
        <ele>311.072</ele>
        <time>2012-10-24T12:28:06Z</time>
      </trkpt>
      <trkpt lat="43.1927" lon="6.34576">
        <ele>311.593</ele>
        <time>2012-10-24T12:28:11Z</time>
      </trkpt>
      <trkpt lat="43.19273" lon="6.3457">
        <ele>312.108</ele>
        <time>2012-10-24T12:28:16Z</time>
      </trkpt>
      <trkpt lat="43.19276" lon="6.34564">
        <ele>312.444</ele>
        <time>2012-10-24T12:28:21Z</time>
      </trkpt>
      <trkpt lat="43.19279" lon="6.34559">
        <ele>312.819</ele>
        <time>2012-10-24T12:28:26Z</time>
      </trkpt>
      <trkpt lat="43.19282" lon="6.34554">
        <ele>312.795</ele>
        <time>2012-10-24T12:28:30Z</time>
      </trkpt>
      <trkpt lat="43.19286" lon="6.34547">
        <ele>313.593</ele>
        <time>2012-10-24T12:28:36Z</time>
      </trkpt>
      <trkpt lat="43.1929" lon="6.34542">
        <ele>313.979</ele>
        <time>2012-10-24T12:28:41Z</time>
      </trkpt>
      <trkpt lat="43.19293" lon="6.34537">
        <ele>314.452</ele>
        <time>2012-10-24T12:28:46Z</time>
      </trkpt>
      <trkpt lat="43.19296" lon="6.34531">
        <ele>314.774</ele>
        <time>2012-10-24T12:28:51Z</time>
      </trkpt>
      <trkpt lat="43.19299" lon="6.34524">
        <ele>315.464</ele>
        <time>2012-10-24T12:28:56Z</time>
      </trkpt>
      <trkpt lat="43.19302" lon="6.34519">
        <ele>315.723</ele>
        <time>2012-10-24T12:29:01Z</time>
      </trkpt>
      <trkpt lat="43.19307" lon="6.34515">
        <ele>315.961</ele>
        <time>2012-10-24T12:29:06Z</time>
      </trkpt>
      <trkpt lat="43.19312" lon="6.34512">
        <ele>316.444</ele>
        <time>2012-10-24T12:29:11Z</time>
      </trkpt>
      <trkpt lat="43.19315" lon="6.34507">
        <ele>317.012</ele>
        <time>2012-10-24T12:29:16Z</time>
      </trkpt>
      <trkpt lat="43.19319" lon="6.34503">
        <ele>317.329</ele>
        <time>2012-10-24T12:29:21Z</time>
      </trkpt>
      <trkpt lat="43.19321" lon="6.34499">
        <ele>317.839</ele>
        <time>2012-10-24T12:29:26Z</time>
      </trkpt>
      <trkpt lat="43.19321" lon="6.34495">
        <ele>317.829</ele>
        <time>2012-10-24T12:29:31Z</time>
      </trkpt>
      <trkpt lat="43.19323" lon="6.34489">
        <ele>318.497</ele>
        <time>2012-10-24T12:29:36Z</time>
      </trkpt>
      <trkpt lat="43.19327" lon="6.34482">
        <ele>318.931</ele>
        <time>2012-10-24T12:29:41Z</time>
      </trkpt>
      <trkpt lat="43.19329" lon="6.34475">
        <ele>319.409</ele>
        <time>2012-10-24T12:29:46Z</time>
      </trkpt>
      <trkpt lat="43.19331" lon="6.34468">
        <ele>320.046</ele>
        <time>2012-10-24T12:29:51Z</time>
      </trkpt>
      <trkpt lat="43.19335" lon="6.34464">
        <ele>320.479</ele>
        <time>2012-10-24T12:29:56Z</time>
      </trkpt>
      <trkpt lat="43.19338" lon="6.34458">
        <ele>320.899</ele>
        <time>2012-10-24T12:30:01Z</time>
      </trkpt>
      <trkpt lat="43.19341" lon="6.34452">
        <ele>321.348</ele>
        <time>2012-10-24T12:30:06Z</time>
      </trkpt>
      <trkpt lat="43.19344" lon="6.34444">
        <ele>321.848</ele>
        <time>2012-10-24T12:30:11Z</time>
      </trkpt>
      <trkpt lat="43.19347" lon="6.34438">
        <ele>322.014</ele>
        <time>2012-10-24T12:30:16Z</time>
      </trkpt>
      <trkpt lat="43.19349" lon="6.3443">
        <ele>322.411</ele>
        <time>2012-10-24T12:30:21Z</time>
      </trkpt>
      <trkpt lat="43.19351" lon="6.34423">
        <ele>322.617</ele>
        <time>2012-10-24T12:30:26Z</time>
      </trkpt>
      <trkpt lat="43.19352" lon="6.34417">
        <ele>323.161</ele>
        <time>2012-10-24T12:30:31Z</time>
      </trkpt>
      <trkpt lat="43.19354" lon="6.34411">
        <ele>323.851</ele>
        <time>2012-10-24T12:30:36Z</time>
      </trkpt>
      <trkpt lat="43.19356" lon="6.34404">
        <ele>323.938</ele>
        <time>2012-10-24T12:30:41Z</time>
      </trkpt>
      <trkpt lat="43.19358" lon="6.34398">
        <ele>324.297</ele>
        <time>2012-10-24T12:30:46Z</time>
      </trkpt>
      <trkpt lat="43.19359" lon="6.34392">
        <ele>324.516</ele>
        <time>2012-10-24T12:30:51Z</time>
      </trkpt>
      <trkpt lat="43.19359" lon="6.34384">
        <ele>324.783</ele>
        <time>2012-10-24T12:30:56Z</time>
      </trkpt>
      <trkpt lat="43.1936" lon="6.34378">
        <ele>325.209</ele>
        <time>2012-10-24T12:31:01Z</time>
      </trkpt>
      <trkpt lat="43.1936" lon="6.34371">
        <ele>325.737</ele>
        <time>2012-10-24T12:31:06Z</time>
      </trkpt>
      <trkpt lat="43.1936" lon="6.34364">
        <ele>326.329</ele>
        <time>2012-10-24T12:31:11Z</time>
      </trkpt>
      <trkpt lat="43.1936" lon="6.34357">
        <ele>326.718</ele>
        <time>2012-10-24T12:31:16Z</time>
      </trkpt>
      <trkpt lat="43.1936" lon="6.3435">
        <ele>327.156</ele>
        <time>2012-10-24T12:31:21Z</time>
      </trkpt>
      <trkpt lat="43.19358" lon="6.34343">
        <ele>327.447</ele>
        <time>2012-10-24T12:31:26Z</time>
      </trkpt>
      <trkpt lat="43.19357" lon="6.34337">
        <ele>327.658</ele>
        <time>2012-10-24T12:31:31Z</time>
      </trkpt>
      <trkpt lat="43.19355" lon="6.34331">
        <ele>327.864</ele>
        <time>2012-10-24T12:31:36Z</time>
      </trkpt>
      <trkpt lat="43.19354" lon="6.34323">
        <ele>328.557</ele>
        <time>2012-10-24T12:31:41Z</time>
      </trkpt>
      <trkpt lat="43.19356" lon="6.34317">
        <ele>329.04</ele>
        <time>2012-10-24T12:31:46Z</time>
      </trkpt>
      <trkpt lat="43.19361" lon="6.34311">
        <ele>329.613</ele>
        <time>2012-10-24T12:31:51Z</time>
      </trkpt>
      <trkpt lat="43.19367" lon="6.34308">
        <ele>330.293</ele>
        <time>2012-10-24T12:31:56Z</time>
      </trkpt>
      <trkpt lat="43.19373" lon="6.34308">
        <ele>330.755</ele>
        <time>2012-10-24T12:32:01Z</time>
      </trkpt>
      <trkpt lat="43.19378" lon="6.34306">
        <ele>330.776</ele>
        <time>2012-10-24T12:32:06Z</time>
      </trkpt>
      <trkpt lat="43.19384" lon="6.34305">
        <ele>331.389</ele>
        <time>2012-10-24T12:32:11Z</time>
      </trkpt>
      <trkpt lat="43.19389" lon="6.34304">
        <ele>331.849</ele>
        <time>2012-10-24T12:32:16Z</time>
      </trkpt>
      <trkpt lat="43.19395" lon="6.34302">
        <ele>332.488</ele>
        <time>2012-10-24T12:32:21Z</time>
      </trkpt>
      <trkpt lat="43.19401" lon="6.343">
        <ele>332.853</ele>
        <time>2012-10-24T12:32:26Z</time>
      </trkpt>
      <trkpt lat="43.19407" lon="6.34298">
        <ele>333.236</ele>
        <time>2012-10-24T12:32:31Z</time>
      </trkpt>
      <trkpt lat="43.19412" lon="6.34299">
        <ele>333.87</ele>
        <time>2012-10-24T12:32:36Z</time>
      </trkpt>
      <trkpt lat="43.19416" lon="6.34297">
        <ele>334.108</ele>
        <time>2012-10-24T12:32:41Z</time>
      </trkpt>
      <trkpt lat="43.1942" lon="6.34296">
        <ele>334.782</ele>
        <time>2012-10-24T12:32:46Z</time>
      </trkpt>
      <trkpt lat="43.19425" lon="6.34296">
        <ele>334.901</ele>
        <time>2012-10-24T12:32:51Z</time>
      </trkpt>
      <trkpt lat="43.19431" lon="6.34297">
        <ele>335.297</ele>
        <time>2012-10-24T12:32:56Z</time>
      </trkpt>
      <trkpt lat="43.19436" lon="6.34297">
        <ele>335.812</ele>
        <time>2012-10-24T12:33:01Z</time>
      </trkpt>
      <trkpt lat="43.19443" lon="6.343">
        <ele>336.159</ele>
        <time>2012-10-24T12:33:06Z</time>
      </trkpt>
      <trkpt lat="43.19449" lon="6.34301">
        <ele>336.668</ele>
        <time>2012-10-24T12:33:11Z</time>
      </trkpt>
      <trkpt lat="43.19453" lon="6.34301">
        <ele>336.983</ele>
        <time>2012-10-24T12:33:16Z</time>
      </trkpt>
      <trkpt lat="43.1946" lon="6.343">
        <ele>337.445</ele>
        <time>2012-10-24T12:33:21Z</time>
      </trkpt>
      <trkpt lat="43.19465" lon="6.34301">
        <ele>337.712</ele>
        <time>2012-10-24T12:33:26Z</time>
      </trkpt>
      <trkpt lat="43.19466" lon="6.34307">
        <ele>338.484</ele>
        <time>2012-10-24T12:33:31Z</time>
      </trkpt>
      <trkpt lat="43.19463" lon="6.34312">
        <ele>339.295</ele>
        <time>2012-10-24T12:33:36Z</time>
      </trkpt>
      <trkpt lat="43.19458" lon="6.34312">
        <ele>339.72</ele>
        <time>2012-10-24T12:33:41Z</time>
      </trkpt>
      <trkpt lat="43.19453" lon="6.34313">
        <ele>340.177</ele>
        <time>2012-10-24T12:33:46Z</time>
      </trkpt>
      <trkpt lat="43.19448" lon="6.34314">
        <ele>340.862</ele>
        <time>2012-10-24T12:33:51Z</time>
      </trkpt>
      <trkpt lat="43.19443" lon="6.34315">
        <ele>341.126</ele>
        <time>2012-10-24T12:33:56Z</time>
      </trkpt>
      <trkpt lat="43.19437" lon="6.34319">
        <ele>341.422</ele>
        <time>2012-10-24T12:34:01Z</time>
      </trkpt>
      <trkpt lat="43.19431" lon="6.34319">
        <ele>342.088</ele>
        <time>2012-10-24T12:34:06Z</time>
      </trkpt>
      <trkpt lat="43.19425" lon="6.3432">
        <ele>342.402</ele>
        <time>2012-10-24T12:34:11Z</time>
      </trkpt>
      <trkpt lat="43.19419" lon="6.34321">
        <ele>342.907</ele>
        <time>2012-10-24T12:34:16Z</time>
      </trkpt>
      <trkpt lat="43.19413" lon="6.34323">
        <ele>343.108</ele>
        <time>2012-10-24T12:34:21Z</time>
      </trkpt>
      <trkpt lat="43.19408" lon="6.34325">
        <ele>343.52</ele>
        <time>2012-10-24T12:34:26Z</time>
      </trkpt>
      <trkpt lat="43.19404" lon="6.3433">
        <ele>344.138</ele>
        <time>2012-10-24T12:34:31Z</time>
      </trkpt>
      <trkpt lat="43.194" lon="6.34336">
        <ele>344.22</ele>
        <time>2012-10-24T12:34:36Z</time>
      </trkpt>
      <trkpt lat="43.19401" lon="6.34343">
        <ele>344.873</ele>
        <time>2012-10-24T12:34:41Z</time>
      </trkpt>
      <trkpt lat="43.19403" lon="6.34346">
        <ele>345.552</ele>
        <time>2012-10-24T12:34:46Z</time>
      </trkpt>
      <trkpt lat="43.19407" lon="6.34338">
        <ele>345.927</ele>
        <time>2012-10-24T12:34:51Z</time>
      </trkpt>
      <trkpt lat="43.19411" lon="6.34332">
        <ele>346.429</ele>
        <time>2012-10-24T12:34:56Z</time>
      </trkpt>
      <trkpt lat="43.19416" lon="6.3433">
        <ele>347.016</ele>
        <time>2012-10-24T12:35:01Z</time>
      </trkpt>
      <trkpt lat="43.19422" lon="6.3433">
        <ele>347.428</ele>
        <time>2012-10-24T12:35:06Z</time>
      </trkpt>
      <trkpt lat="43.19428" lon="6.3433">
        <ele>347.7</ele>
        <time>2012-10-24T12:35:11Z</time>
      </trkpt>
      <trkpt lat="43.19434" lon="6.3433">
        <ele>348.181</ele>
        <time>2012-10-24T12:35:16Z</time>
      </trkpt>
      <trkpt lat="43.19439" lon="6.34332">
        <ele>348.596</ele>
        <time>2012-10-24T12:35:21Z</time>
      </trkpt>
      <trkpt lat="43.19446" lon="6.34333">
        <ele>349.087</ele>
        <time>2012-10-24T12:35:26Z</time>
      </trkpt>
      <trkpt lat="43.1945" lon="6.34335">
        <ele>349.331</ele>
        <time>2012-10-24T12:35:31Z</time>
      </trkpt>
      <trkpt lat="43.19454" lon="6.34334">
        <ele>349.677</ele>
        <time>2012-10-24T12:35:36Z</time>
      </trkpt>
      <trkpt lat="43.19459" lon="6.34336">
        <ele>350.295</ele>
        <time>2012-10-24T12:35:41Z</time>
      </trkpt>
      <trkpt lat="43.19463" lon="6.34338">
        <ele>350.882</ele>
        <time>2012-10-24T12:35:46Z</time>
      </trkpt>
      <trkpt lat="43.19469" lon="6.34342">
        <ele>351.333</ele>
        <time>2012-10-24T12:35:51Z</time>
      </trkpt>
      <trkpt lat="43.19473" lon="6.34344">
        <ele>351.582</ele>
        <time>2012-10-24T12:35:56Z</time>
      </trkpt>
      <trkpt lat="43.19477" lon="6.34347">
        <ele>351.981</ele>
        <time>2012-10-24T12:36:01Z</time>
      </trkpt>
      <trkpt lat="43.19481" lon="6.34352">
        <ele>352.43</ele>
        <time>2012-10-24T12:36:06Z</time>
      </trkpt>
      <trkpt lat="43.19485" lon="6.34357">
        <ele>352.866</ele>
        <time>2012-10-24T12:36:11Z</time>
      </trkpt>
      <trkpt lat="43.19492" lon="6.34361">
        <ele>353.286</ele>
        <time>2012-10-24T12:36:16Z</time>
      </trkpt>
      <trkpt lat="43.19496" lon="6.34365">
        <ele>353.775</ele>
        <time>2012-10-24T12:36:21Z</time>
      </trkpt>
      <trkpt lat="43.195" lon="6.3437">
        <ele>354.272</ele>
        <time>2012-10-24T12:36:26Z</time>
      </trkpt>
      <trkpt lat="43.19504" lon="6.34375">
        <ele>354.745</ele>
        <time>2012-10-24T12:36:31Z</time>
      </trkpt>
      <trkpt lat="43.19512" lon="6.34378">
        <ele>355.056</ele>
        <time>2012-10-24T12:36:36Z</time>
      </trkpt>
      <trkpt lat="43.19518" lon="6.34382">
        <ele>355.421</ele>
        <time>2012-10-24T12:36:41Z</time>
      </trkpt>
      <trkpt lat="43.19523" lon="6.34385">
        <ele>355.868</ele>
        <time>2012-10-24T12:36:46Z</time>
      </trkpt>
      <trkpt lat="43.19527" lon="6.34387">
        <ele>356.288</ele>
        <time>2012-10-24T12:36:51Z</time>
      </trkpt>
      <trkpt lat="43.19533" lon="6.34389">
        <ele>356.716</ele>
        <time>2012-10-24T12:36:56Z</time>
      </trkpt>
      <trkpt lat="43.19538" lon="6.34393">
        <ele>357.001</ele>
        <time>2012-10-24T12:37:01Z</time>
      </trkpt>
      <trkpt lat="43.19544" lon="6.34396">
        <ele>357.646</ele>
        <time>2012-10-24T12:37:06Z</time>
      </trkpt>
      <trkpt lat="43.19549" lon="6.34398">
        <ele>357.876</ele>
        <time>2012-10-24T12:37:11Z</time>
      </trkpt>
      <trkpt lat="43.19554" lon="6.34402">
        <ele>358.354</ele>
        <time>2012-10-24T12:37:16Z</time>
      </trkpt>
      <trkpt lat="43.19559" lon="6.34403">
        <ele>359.345</ele>
        <time>2012-10-24T12:37:21Z</time>
      </trkpt>
      <trkpt lat="43.19565" lon="6.34406">
        <ele>359.659</ele>
        <time>2012-10-24T12:37:26Z</time>
      </trkpt>
      <trkpt lat="43.19569" lon="6.34409">
        <ele>359.744</ele>
        <time>2012-10-24T12:37:31Z</time>
      </trkpt>
      <trkpt lat="43.19574" lon="6.34411">
        <ele>359.966</ele>
        <time>2012-10-24T12:37:36Z</time>
      </trkpt>
      <trkpt lat="43.19578" lon="6.34408">
        <ele>360.571</ele>
        <time>2012-10-24T12:37:41Z</time>
      </trkpt>
      <trkpt lat="43.19583" lon="6.34406">
        <ele>361.118</ele>
        <time>2012-10-24T12:37:46Z</time>
      </trkpt>
      <trkpt lat="43.19589" lon="6.34406">
        <ele>361.374</ele>
        <time>2012-10-24T12:37:51Z</time>
      </trkpt>
      <trkpt lat="43.19593" lon="6.344">
        <ele>361.887</ele>
        <time>2012-10-24T12:37:56Z</time>
      </trkpt>
      <trkpt lat="43.19596" lon="6.34395">
        <ele>362.024</ele>
        <time>2012-10-24T12:38:01Z</time>
      </trkpt>
      <trkpt lat="43.19594" lon="6.34388">
        <ele>362.217</ele>
        <time>2012-10-24T12:38:06Z</time>
      </trkpt>
      <trkpt lat="43.1959" lon="6.34385">
        <ele>362.423</ele>
        <time>2012-10-24T12:38:11Z</time>
      </trkpt>
      <trkpt lat="43.19585" lon="6.34382">
        <ele>362.447</ele>
        <time>2012-10-24T12:38:16Z</time>
      </trkpt>
      <trkpt lat="43.1958" lon="6.34377">
        <ele>363.298</ele>
        <time>2012-10-24T12:38:21Z</time>
      </trkpt>
      <trkpt lat="43.19576" lon="6.34373">
        <ele>363.504</ele>
        <time>2012-10-24T12:38:26Z</time>
      </trkpt>
      <trkpt lat="43.19573" lon="6.34368">
        <ele>364.529</ele>
        <time>2012-10-24T12:38:31Z</time>
      </trkpt>
      <trkpt lat="43.19572" lon="6.34366">
        <ele>364.384</ele>
        <time>2012-10-24T12:38:36Z</time>
      </trkpt>
      <trkpt lat="43.19572" lon="6.34365">
        <ele>364.471</ele>
        <time>2012-10-24T12:38:41Z</time>
      </trkpt>
      <trkpt lat="43.19569" lon="6.34359">
        <ele>364.608</ele>
        <time>2012-10-24T12:38:46Z</time>
      </trkpt>
      <trkpt lat="43.19565" lon="6.34354">
        <ele>365.073</ele>
        <time>2012-10-24T12:38:51Z</time>
      </trkpt>
      <trkpt lat="43.19562" lon="6.34349">
        <ele>365.84</ele>
        <time>2012-10-24T12:38:56Z</time>
      </trkpt>
      <trkpt lat="43.19559" lon="6.34342">
        <ele>366.067</ele>
        <time>2012-10-24T12:39:01Z</time>
      </trkpt>
      <trkpt lat="43.19556" lon="6.34336">
        <ele>366.577</ele>
        <time>2012-10-24T12:39:06Z</time>
      </trkpt>
      <trkpt lat="43.19555" lon="6.34329">
        <ele>366.899</ele>
        <time>2012-10-24T12:39:11Z</time>
      </trkpt>
      <trkpt lat="43.19553" lon="6.34322">
        <ele>367.407</ele>
        <time>2012-10-24T12:39:16Z</time>
      </trkpt>
      <trkpt lat="43.19552" lon="6.34314">
        <ele>367.84</ele>
        <time>2012-10-24T12:39:21Z</time>
      </trkpt>
      <trkpt lat="43.1955" lon="6.34308">
        <ele>368.353</ele>
        <time>2012-10-24T12:39:26Z</time>
      </trkpt>
      <trkpt lat="43.19547" lon="6.34302">
        <ele>368.551</ele>
        <time>2012-10-24T12:39:31Z</time>
      </trkpt>
      <trkpt lat="43.19543" lon="6.34297">
        <ele>369.008</ele>
        <time>2012-10-24T12:39:36Z</time>
      </trkpt>
      <trkpt lat="43.19541" lon="6.34289">
        <ele>368.847</ele>
        <time>2012-10-24T12:39:41Z</time>
      </trkpt>
      <trkpt lat="43.19539" lon="6.34282">
        <ele>369.75</ele>
        <time>2012-10-24T12:39:46Z</time>
      </trkpt>
      <trkpt lat="43.19538" lon="6.34275">
        <ele>370.057</ele>
        <time>2012-10-24T12:39:51Z</time>
      </trkpt>
      <trkpt lat="43.19537" lon="6.34269">
        <ele>370.493</ele>
        <time>2012-10-24T12:39:56Z</time>
      </trkpt>
      <trkpt lat="43.19536" lon="6.3426">
        <ele>370.881</ele>
        <time>2012-10-24T12:40:01Z</time>
      </trkpt>
      <trkpt lat="43.19535" lon="6.34252">
        <ele>371.193</ele>
        <time>2012-10-24T12:40:06Z</time>
      </trkpt>
      <trkpt lat="43.19538" lon="6.34246">
        <ele>371.785</ele>
        <time>2012-10-24T12:40:11Z</time>
      </trkpt>
      <trkpt lat="43.19541" lon="6.3424">
        <ele>372.263</ele>
        <time>2012-10-24T12:40:16Z</time>
      </trkpt>
      <trkpt lat="43.19546" lon="6.34236">
        <ele>372.998</ele>
        <time>2012-10-24T12:40:21Z</time>
      </trkpt>
      <trkpt lat="43.1955" lon="6.34232">
        <ele>373.529</ele>
        <time>2012-10-24T12:40:26Z</time>
      </trkpt>
      <trkpt lat="43.19554" lon="6.34227">
        <ele>373.997</ele>
        <time>2012-10-24T12:40:31Z</time>
      </trkpt>
      <trkpt lat="43.19557" lon="6.34222">
        <ele>374.38</ele>
        <time>2012-10-24T12:40:36Z</time>
      </trkpt>
      <trkpt lat="43.19561" lon="6.34216">
        <ele>374.95</ele>
        <time>2012-10-24T12:40:41Z</time>
      </trkpt>
      <trkpt lat="43.19565" lon="6.3421">
        <ele>375.294</ele>
        <time>2012-10-24T12:40:46Z</time>
      </trkpt>
      <trkpt lat="43.19569" lon="6.34205">
        <ele>375.859</ele>
        <time>2012-10-24T12:40:51Z</time>
      </trkpt>
      <trkpt lat="43.19572" lon="6.34199">
        <ele>376.161</ele>
        <time>2012-10-24T12:40:56Z</time>
      </trkpt>
      <trkpt lat="43.19576" lon="6.34192">
        <ele>376.285</ele>
        <time>2012-10-24T12:41:01Z</time>
      </trkpt>
      <trkpt lat="43.19579" lon="6.34184">
        <ele>376.879</ele>
        <time>2012-10-24T12:41:06Z</time>
      </trkpt>
      <trkpt lat="43.19581" lon="6.34177">
        <ele>377.479</ele>
        <time>2012-10-24T12:41:11Z</time>
      </trkpt>
      <trkpt lat="43.19584" lon="6.3417">
        <ele>377.931</ele>
        <time>2012-10-24T12:41:16Z</time>
      </trkpt>
      <trkpt lat="43.19588" lon="6.34164">
        <ele>378.348</ele>
        <time>2012-10-24T12:41:21Z</time>
      </trkpt>
      <trkpt lat="43.19592" lon="6.34158">
        <ele>378.634</ele>
        <time>2012-10-24T12:41:26Z</time>
      </trkpt>
      <trkpt lat="43.19596" lon="6.34152">
        <ele>379.236</ele>
        <time>2012-10-24T12:41:31Z</time>
      </trkpt>
      <trkpt lat="43.19601" lon="6.34147">
        <ele>379.604</ele>
        <time>2012-10-24T12:41:36Z</time>
      </trkpt>
      <trkpt lat="43.19605" lon="6.34142">
        <ele>379.86</ele>
        <time>2012-10-24T12:41:41Z</time>
      </trkpt>
      <trkpt lat="43.19609" lon="6.34138">
        <ele>380.462</ele>
        <time>2012-10-24T12:41:46Z</time>
      </trkpt>
      <trkpt lat="43.19615" lon="6.34134">
        <ele>380.845</ele>
        <time>2012-10-24T12:41:51Z</time>
      </trkpt>
      <trkpt lat="43.19621" lon="6.34131">
        <ele>381.255</ele>
        <time>2012-10-24T12:41:56Z</time>
      </trkpt>
      <trkpt lat="43.19626" lon="6.34128">
        <ele>381.575</ele>
        <time>2012-10-24T12:42:01Z</time>
      </trkpt>
      <trkpt lat="43.19631" lon="6.34124">
        <ele>381.953</ele>
        <time>2012-10-24T12:42:06Z</time>
      </trkpt>
      <trkpt lat="43.19636" lon="6.34121">
        <ele>382.685</ele>
        <time>2012-10-24T12:42:11Z</time>
      </trkpt>
      <trkpt lat="43.19641" lon="6.34119">
        <ele>383.295</ele>
        <time>2012-10-24T12:42:16Z</time>
      </trkpt>
      <trkpt lat="43.19646" lon="6.34115">
        <ele>383.604</ele>
        <time>2012-10-24T12:42:21Z</time>
      </trkpt>
      <trkpt lat="43.19652" lon="6.34113">
        <ele>384.117</ele>
        <time>2012-10-24T12:42:26Z</time>
      </trkpt>
      <trkpt lat="43.19656" lon="6.34109">
        <ele>384.479</ele>
        <time>2012-10-24T12:42:31Z</time>
      </trkpt>
      <trkpt lat="43.19661" lon="6.34105">
        <ele>385.01</ele>
        <time>2012-10-24T12:42:36Z</time>
      </trkpt>
      <trkpt lat="43.19664" lon="6.34097">
        <ele>385.417</ele>
        <time>2012-10-24T12:42:41Z</time>
      </trkpt>
      <trkpt lat="43.19668" lon="6.34095">
        <ele>385.876</ele>
        <time>2012-10-24T12:42:46Z</time>
      </trkpt>
      <trkpt lat="43.19671" lon="6.34091">
        <ele>386.135</ele>
        <time>2012-10-24T12:42:51Z</time>
      </trkpt>
      <trkpt lat="43.19676" lon="6.34088">
        <ele>386.505</ele>
        <time>2012-10-24T12:42:56Z</time>
      </trkpt>
      <trkpt lat="43.19681" lon="6.34084">
        <ele>387.018</ele>
        <time>2012-10-24T12:43:01Z</time>
      </trkpt>
      <trkpt lat="43.19685" lon="6.34078">
        <ele>387.346</ele>
        <time>2012-10-24T12:43:06Z</time>
      </trkpt>
      <trkpt lat="43.19689" lon="6.34074">
        <ele>387.871</ele>
        <time>2012-10-24T12:43:11Z</time>
      </trkpt>
      <trkpt lat="43.19693" lon="6.34067">
        <ele>388.323</ele>
        <time>2012-10-24T12:43:16Z</time>
      </trkpt>
      <trkpt lat="43.19698" lon="6.34061">
        <ele>388.669</ele>
        <time>2012-10-24T12:43:21Z</time>
      </trkpt>
      <trkpt lat="43.19703" lon="6.34058">
        <ele>389.169</ele>
        <time>2012-10-24T12:43:26Z</time>
      </trkpt>
      <trkpt lat="43.19709" lon="6.34055">
        <ele>389.647</ele>
        <time>2012-10-24T12:43:31Z</time>
      </trkpt>
      <trkpt lat="43.19714" lon="6.34055">
        <ele>390.302</ele>
        <time>2012-10-24T12:43:36Z</time>
      </trkpt>
      <trkpt lat="43.1972" lon="6.34054">
        <ele>390.564</ele>
        <time>2012-10-24T12:43:41Z</time>
      </trkpt>
      <trkpt lat="43.19725" lon="6.34052">
        <ele>391.029</ele>
        <time>2012-10-24T12:43:46Z</time>
      </trkpt>
      <trkpt lat="43.19731" lon="6.3405">
        <ele>391.523</ele>
        <time>2012-10-24T12:43:51Z</time>
      </trkpt>
      <trkpt lat="43.19737" lon="6.34045">
        <ele>391.98</ele>
        <time>2012-10-24T12:43:56Z</time>
      </trkpt>
      <trkpt lat="43.19742" lon="6.34043">
        <ele>392.305</ele>
        <time>2012-10-24T12:44:01Z</time>
      </trkpt>
      <trkpt lat="43.19743" lon="6.34034">
        <ele>392.511</ele>
        <time>2012-10-24T12:44:06Z</time>
      </trkpt>
      <trkpt lat="43.19742" lon="6.34027">
        <ele>392.955</ele>
        <time>2012-10-24T12:44:11Z</time>
      </trkpt>
      <trkpt lat="43.19743" lon="6.34028">
        <ele>393.835</ele>
        <time>2012-10-24T12:44:21Z</time>
      </trkpt>
      <trkpt lat="43.19745" lon="6.34029">
        <ele>394.512</ele>
        <time>2012-10-24T12:44:26Z</time>
      </trkpt>
      <trkpt lat="43.19746" lon="6.34029">
        <ele>392.926</ele>
        <time>2012-10-24T12:44:36Z</time>
      </trkpt>
      <trkpt lat="43.19746" lon="6.34029">
        <ele>392.876</ele>
        <time>2012-10-24T12:46:16Z</time>
      </trkpt>
      <trkpt lat="43.19746" lon="6.34028">
        <ele>393.045</ele>
        <time>2012-10-24T12:46:46Z</time>
      </trkpt>
      <trkpt lat="43.19747" lon="6.34027">
        <ele>392.799</ele>
        <time>2012-10-24T12:47:01Z</time>
      </trkpt>
      <trkpt lat="43.19745" lon="6.34025">
        <ele>392.554</ele>
        <time>2012-10-24T12:47:11Z</time>
      </trkpt>
      <trkpt lat="43.19746" lon="6.34027">
        <ele>392.577</ele>
        <time>2012-10-24T12:47:16Z</time>
      </trkpt>
      <trkpt lat="43.19745" lon="6.34028">
        <ele>392.525</ele>
        <time>2012-10-24T12:47:21Z</time>
      </trkpt>
      <trkpt lat="43.19744" lon="6.34028">
        <ele>392.976</ele>
        <time>2012-10-24T12:47:36Z</time>
      </trkpt>
      <trkpt lat="43.19744" lon="6.34028">
        <ele>393.737</ele>
        <time>2012-10-24T12:48:21Z</time>
      </trkpt>
      <trkpt lat="43.19745" lon="6.34028">
        <ele>392.598</ele>
        <time>2012-10-24T12:48:36Z</time>
      </trkpt>
      <trkpt lat="43.19746" lon="6.34028">
        <ele>392.894</ele>
        <time>2012-10-24T12:48:51Z</time>
      </trkpt>
      <trkpt lat="43.19746" lon="6.34028">
        <ele>392.781</ele>
        <time>2012-10-24T12:50:06Z</time>
      </trkpt>
      <trkpt lat="43.19744" lon="6.34028">
        <ele>393.344</ele>
        <time>2012-10-24T12:52:36Z</time>
      </trkpt>
      <trkpt lat="43.1974" lon="6.34029">
        <ele>393.344</ele>
        <time>2012-10-24T12:52:41Z</time>
      </trkpt>
      <trkpt lat="43.19739" lon="6.3403">
        <ele>393.389</ele>
        <time>2012-10-24T12:52:46Z</time>
      </trkpt>
      <trkpt lat="43.19741" lon="6.34029">
        <ele>393.433</ele>
        <time>2012-10-24T12:52:51Z</time>
      </trkpt>
      <trkpt lat="43.19736" lon="6.34028">
        <ele>394.113</ele>
        <time>2012-10-24T12:53:26Z</time>
      </trkpt>
      <trkpt lat="43.19731" lon="6.34024">
        <ele>394.641</ele>
        <time>2012-10-24T12:53:31Z</time>
      </trkpt>
      <trkpt lat="43.19726" lon="6.34023">
        <ele>394.99</ele>
        <time>2012-10-24T12:53:36Z</time>
      </trkpt>
      <trkpt lat="43.19721" lon="6.34021">
        <ele>395.542</ele>
        <time>2012-10-24T12:53:41Z</time>
      </trkpt>
      <trkpt lat="43.19716" lon="6.34019">
        <ele>395.93</ele>
        <time>2012-10-24T12:53:46Z</time>
      </trkpt>
      <trkpt lat="43.19711" lon="6.34018">
        <ele>396.366</ele>
        <time>2012-10-24T12:53:51Z</time>
      </trkpt>
      <trkpt lat="43.19706" lon="6.34016">
        <ele>396.921</ele>
        <time>2012-10-24T12:53:56Z</time>
      </trkpt>
      <trkpt lat="43.19701" lon="6.34017">
        <ele>397.283</ele>
        <time>2012-10-24T12:54:01Z</time>
      </trkpt>
      <trkpt lat="43.19695" lon="6.34017">
        <ele>397.68</ele>
        <time>2012-10-24T12:54:06Z</time>
      </trkpt>
      <trkpt lat="43.1969" lon="6.34018">
        <ele>397.849</ele>
        <time>2012-10-24T12:54:11Z</time>
      </trkpt>
      <trkpt lat="43.19686" lon="6.34021">
        <ele>398.1</ele>
        <time>2012-10-24T12:54:16Z</time>
      </trkpt>
      <trkpt lat="43.1968" lon="6.34022">
        <ele>398.766</ele>
        <time>2012-10-24T12:54:21Z</time>
      </trkpt>
      <trkpt lat="43.19674" lon="6.34024">
        <ele>399.088</ele>
        <time>2012-10-24T12:54:26Z</time>
      </trkpt>
      <trkpt lat="43.19668" lon="6.34025">
        <ele>399.669</ele>
        <time>2012-10-24T12:54:31Z</time>
      </trkpt>
      <trkpt lat="43.19661" lon="6.34028">
        <ele>399.986</ele>
        <time>2012-10-24T12:54:36Z</time>
      </trkpt>
      <trkpt lat="43.19656" lon="6.3403">
        <ele>400.19</ele>
        <time>2012-10-24T12:54:41Z</time>
      </trkpt>
      <trkpt lat="43.19649" lon="6.34031">
        <ele>400.782</ele>
        <time>2012-10-24T12:54:46Z</time>
      </trkpt>
      <trkpt lat="43.19644" lon="6.34028">
        <ele>401.31</ele>
        <time>2012-10-24T12:54:51Z</time>
      </trkpt>
      <trkpt lat="43.19642" lon="6.34021">
        <ele>401.762</ele>
        <time>2012-10-24T12:54:56Z</time>
      </trkpt>
      <trkpt lat="43.19644" lon="6.34013">
        <ele>402.235</ele>
        <time>2012-10-24T12:55:01Z</time>
      </trkpt>
      <trkpt lat="43.19648" lon="6.34007">
        <ele>402.935</ele>
        <time>2012-10-24T12:55:06Z</time>
      </trkpt>
      <trkpt lat="43.19652" lon="6.34">
        <ele>403.199</ele>
        <time>2012-10-24T12:55:11Z</time>
      </trkpt>
      <trkpt lat="43.19656" lon="6.33994">
        <ele>403.577</ele>
        <time>2012-10-24T12:55:16Z</time>
      </trkpt>
      <trkpt lat="43.19659" lon="6.33988">
        <ele>404.008</ele>
        <time>2012-10-24T12:55:21Z</time>
      </trkpt>
      <trkpt lat="43.19662" lon="6.33984">
        <ele>404.285</ele>
        <time>2012-10-24T12:55:26Z</time>
      </trkpt>
      <trkpt lat="43.19664" lon="6.33975">
        <ele>404.893</ele>
        <time>2012-10-24T12:55:31Z</time>
      </trkpt>
      <trkpt lat="43.19664" lon="6.33964">
        <ele>405.543</ele>
        <time>2012-10-24T12:55:36Z</time>
      </trkpt>
      <trkpt lat="43.19667" lon="6.33957">
        <ele>406.098</ele>
        <time>2012-10-24T12:55:41Z</time>
      </trkpt>
      <trkpt lat="43.19671" lon="6.33952">
        <ele>406.568</ele>
        <time>2012-10-24T12:55:46Z</time>
      </trkpt>
      <trkpt lat="43.19676" lon="6.33948">
        <ele>406.714</ele>
        <time>2012-10-24T12:55:51Z</time>
      </trkpt>
      <trkpt lat="43.1968" lon="6.33944">
        <ele>407.057</ele>
        <time>2012-10-24T12:55:56Z</time>
      </trkpt>
      <trkpt lat="43.19685" lon="6.33941">
        <ele>407.314</ele>
        <time>2012-10-24T12:56:01Z</time>
      </trkpt>
      <trkpt lat="43.19689" lon="6.33941">
        <ele>408.122</ele>
        <time>2012-10-24T12:56:06Z</time>
      </trkpt>
      <trkpt lat="43.19691" lon="6.33947">
        <ele>408.886</ele>
        <time>2012-10-24T12:56:11Z</time>
      </trkpt>
      <trkpt lat="43.19688" lon="6.33953">
        <ele>409.565</ele>
        <time>2012-10-24T12:56:16Z</time>
      </trkpt>
      <trkpt lat="43.19689" lon="6.33957">
        <ele>410.244</ele>
        <time>2012-10-24T12:56:21Z</time>
      </trkpt>
      <trkpt lat="43.19689" lon="6.33964">
        <ele>410.733</ele>
        <time>2012-10-24T12:56:26Z</time>
      </trkpt>
      <trkpt lat="43.19694" lon="6.33968">
        <ele>411.333</ele>
        <time>2012-10-24T12:56:31Z</time>
      </trkpt>
      <trkpt lat="43.19699" lon="6.33969">
        <ele>411.853</ele>
        <time>2012-10-24T12:56:36Z</time>
      </trkpt>
      <trkpt lat="43.19705" lon="6.33969">
        <ele>412.101</ele>
        <time>2012-10-24T12:56:41Z</time>
      </trkpt>
      <trkpt lat="43.1971" lon="6.3397">
        <ele>412.479</ele>
        <time>2012-10-24T12:56:46Z</time>
      </trkpt>
      <trkpt lat="43.19715" lon="6.33972">
        <ele>412.807</ele>
        <time>2012-10-24T12:56:51Z</time>
      </trkpt>
      <trkpt lat="43.19719" lon="6.33971">
        <ele>413.145</ele>
        <time>2012-10-24T12:56:56Z</time>
      </trkpt>
      <trkpt lat="43.19724" lon="6.33973">
        <ele>413.853</ele>
        <time>2012-10-24T12:57:01Z</time>
      </trkpt>
      <trkpt lat="43.19729" lon="6.33974">
        <ele>414.302</ele>
        <time>2012-10-24T12:57:06Z</time>
      </trkpt>
      <trkpt lat="43.19734" lon="6.33977">
        <ele>414.598</ele>
        <time>2012-10-24T12:57:11Z</time>
      </trkpt>
      <trkpt lat="43.19738" lon="6.3398">
        <ele>414.733</ele>
        <time>2012-10-24T12:57:16Z</time>
      </trkpt>
      <trkpt lat="43.19744" lon="6.33978">
        <ele>415.359</ele>
        <time>2012-10-24T12:57:21Z</time>
      </trkpt>
      <trkpt lat="43.19749" lon="6.33975">
        <ele>415.822</ele>
        <time>2012-10-24T12:57:26Z</time>
      </trkpt>
      <trkpt lat="43.19754" lon="6.33971">
        <ele>416.242</ele>
        <time>2012-10-24T12:57:31Z</time>
      </trkpt>
      <trkpt lat="43.1976" lon="6.33968">
        <ele>416.81</ele>
        <time>2012-10-24T12:57:36Z</time>
      </trkpt>
      <trkpt lat="43.19764" lon="6.33965">
        <ele>417.048</ele>
        <time>2012-10-24T12:57:41Z</time>
      </trkpt>
      <trkpt lat="43.19769" lon="6.33962">
        <ele>417.476</ele>
        <time>2012-10-24T12:57:46Z</time>
      </trkpt>
      <trkpt lat="43.1977" lon="6.33962">
        <ele>417.508</ele>
        <time>2012-10-24T12:57:51Z</time>
      </trkpt>
      <trkpt lat="43.19775" lon="6.3396">
        <ele>417.888</ele>
        <time>2012-10-24T12:57:56Z</time>
      </trkpt>
      <trkpt lat="43.1978" lon="6.33958">
        <ele>418.123</ele>
        <time>2012-10-24T12:58:01Z</time>
      </trkpt>
      <trkpt lat="43.19783" lon="6.33956">
        <ele>418.829</ele>
        <time>2012-10-24T12:58:06Z</time>
      </trkpt>
      <trkpt lat="43.19784" lon="6.3395">
        <ele>419.526</ele>
        <time>2012-10-24T12:58:11Z</time>
      </trkpt>
      <trkpt lat="43.19778" lon="6.33948">
        <ele>420.028</ele>
        <time>2012-10-24T12:58:16Z</time>
      </trkpt>
      <trkpt lat="43.19771" lon="6.33949">
        <ele>420.589</ele>
        <time>2012-10-24T12:58:21Z</time>
      </trkpt>
      <trkpt lat="43.19766" lon="6.3395">
        <ele>420.89</ele>
        <time>2012-10-24T12:58:26Z</time>
      </trkpt>
      <trkpt lat="43.19761" lon="6.33951">
        <ele>421.36</ele>
        <time>2012-10-24T12:58:31Z</time>
      </trkpt>
      <trkpt lat="43.19755" lon="6.33951">
        <ele>421.857</ele>
        <time>2012-10-24T12:58:36Z</time>
      </trkpt>
      <trkpt lat="43.19749" lon="6.33949">
        <ele>422.259</ele>
        <time>2012-10-24T12:58:41Z</time>
      </trkpt>
      <trkpt lat="43.19747" lon="6.33944">
        <ele>423.049</ele>
        <time>2012-10-24T12:58:46Z</time>
      </trkpt>
      <trkpt lat="43.19748" lon="6.33936">
        <ele>423.403</ele>
        <time>2012-10-24T12:58:51Z</time>
      </trkpt>
      <trkpt lat="43.19751" lon="6.33929">
        <ele>424.016</ele>
        <time>2012-10-24T12:58:56Z</time>
      </trkpt>
      <trkpt lat="43.19755" lon="6.33923">
        <ele>424.417</ele>
        <time>2012-10-24T12:59:01Z</time>
      </trkpt>
      <trkpt lat="43.19758" lon="6.33916">
        <ele>424.943</ele>
        <time>2012-10-24T12:59:06Z</time>
      </trkpt>
      <trkpt lat="43.19761" lon="6.33909">
        <ele>425.564</ele>
        <time>2012-10-24T12:59:11Z</time>
      </trkpt>
      <trkpt lat="43.19762" lon="6.33903">
        <ele>425.934</ele>
        <time>2012-10-24T12:59:16Z</time>
      </trkpt>
      <trkpt lat="43.19765" lon="6.33896">
        <ele>426.579</ele>
        <time>2012-10-24T12:59:21Z</time>
      </trkpt>
      <trkpt lat="43.19767" lon="6.33889">
        <ele>426.914</ele>
        <time>2012-10-24T12:59:26Z</time>
      </trkpt>
      <trkpt lat="43.19771" lon="6.33889">
        <ele>427.324</ele>
        <time>2012-10-24T12:59:31Z</time>
      </trkpt>
      <trkpt lat="43.19774" lon="6.33896">
        <ele>428.394</ele>
        <time>2012-10-24T12:59:36Z</time>
      </trkpt>
      <trkpt lat="43.19774" lon="6.33904">
        <ele>429.348</ele>
        <time>2012-10-24T12:59:41Z</time>
      </trkpt>
      <trkpt lat="43.19775" lon="6.33912">
        <ele>429.892</ele>
        <time>2012-10-24T12:59:46Z</time>
      </trkpt>
      <trkpt lat="43.19778" lon="6.33919">
        <ele>430.405</ele>
        <time>2012-10-24T12:59:51Z</time>
      </trkpt>
      <trkpt lat="43.19782" lon="6.33926">
        <ele>430.608</ele>
        <time>2012-10-24T12:59:56Z</time>
      </trkpt>
      <trkpt lat="43.19786" lon="6.33928">
        <ele>431.097</ele>
        <time>2012-10-24T13:00:01Z</time>
      </trkpt>
      <trkpt lat="43.19792" lon="6.3393">
        <ele>431.29</ele>
        <time>2012-10-24T13:00:06Z</time>
      </trkpt>
      <trkpt lat="43.19796" lon="6.33933">
        <ele>431.914</ele>
        <time>2012-10-24T13:00:11Z</time>
      </trkpt>
      <trkpt lat="43.198" lon="6.33937">
        <ele>432.202</ele>
        <time>2012-10-24T13:00:16Z</time>
      </trkpt>
      <trkpt lat="43.19806" lon="6.33939">
        <ele>432.743</ele>
        <time>2012-10-24T13:00:21Z</time>
      </trkpt>
      <trkpt lat="43.19813" lon="6.33937">
        <ele>433.288</ele>
        <time>2012-10-24T13:00:26Z</time>
      </trkpt>
      <trkpt lat="43.19818" lon="6.33937">
        <ele>433.893</ele>
        <time>2012-10-24T13:00:31Z</time>
      </trkpt>
      <trkpt lat="43.19823" lon="6.33936">
        <ele>434.479</ele>
        <time>2012-10-24T13:00:36Z</time>
      </trkpt>
      <trkpt lat="43.19828" lon="6.33934">
        <ele>435.417</ele>
        <time>2012-10-24T13:00:41Z</time>
      </trkpt>
      <trkpt lat="43.19833" lon="6.33934">
        <ele>435.499</ele>
        <time>2012-10-24T13:00:46Z</time>
      </trkpt>
      <trkpt lat="43.1984" lon="6.33935">
        <ele>435.951</ele>
        <time>2012-10-24T13:00:51Z</time>
      </trkpt>
      <trkpt lat="43.19845" lon="6.33936">
        <ele>436.281</ele>
        <time>2012-10-24T13:00:56Z</time>
      </trkpt>
      <trkpt lat="43.19849" lon="6.33939">
        <ele>436.868</ele>
        <time>2012-10-24T13:01:01Z</time>
      </trkpt>
      <trkpt lat="43.19854" lon="6.33942">
        <ele>437.476</ele>
        <time>2012-10-24T13:01:06Z</time>
      </trkpt>
      <trkpt lat="43.19859" lon="6.33944">
        <ele>437.806</ele>
        <time>2012-10-24T13:01:11Z</time>
      </trkpt>
      <trkpt lat="43.19865" lon="6.33947">
        <ele>438.263</ele>
        <time>2012-10-24T13:01:16Z</time>
      </trkpt>
      <trkpt lat="43.19869" lon="6.33953">
        <ele>439.476</ele>
        <time>2012-10-24T13:01:21Z</time>
      </trkpt>
      <trkpt lat="43.19874" lon="6.33961">
        <ele>440.784</ele>
        <time>2012-10-24T13:01:26Z</time>
      </trkpt>
      <trkpt lat="43.19876" lon="6.33966">
        <ele>441.193</ele>
        <time>2012-10-24T13:01:31Z</time>
      </trkpt>
      <trkpt lat="43.19877" lon="6.3397">
        <ele>441.03</ele>
        <time>2012-10-24T13:01:36Z</time>
      </trkpt>
      <trkpt lat="43.19877" lon="6.33972">
        <ele>440.821</ele>
        <time>2012-10-24T13:01:41Z</time>
      </trkpt>
      <trkpt lat="43.19877" lon="6.33971">
        <ele>440.136</ele>
        <time>2012-10-24T13:01:56Z</time>
      </trkpt>
      <trkpt lat="43.19878" lon="6.3397">
        <ele>440.136</ele>
        <time>2012-10-24T13:02:01Z</time>
      </trkpt>
      <trkpt lat="43.19878" lon="6.3397">
        <ele>439.685</ele>
        <time>2012-10-24T13:02:31Z</time>
      </trkpt>
      <trkpt lat="43.19878" lon="6.3397">
        <ele>439.685</ele>
        <time>2012-10-24T13:02:51Z</time>
      </trkpt>
      <trkpt lat="43.19877" lon="6.33969">
        <ele>439.885</ele>
        <time>2012-10-24T13:05:41Z</time>
      </trkpt>
      <trkpt lat="43.19877" lon="6.3397">
        <ele>439.904</ele>
        <time>2012-10-24T13:07:11Z</time>
      </trkpt>
      <trkpt lat="43.19876" lon="6.3397">
        <ele>439.661</ele>
        <time>2012-10-24T13:09:16Z</time>
      </trkpt>
      <trkpt lat="43.19875" lon="6.33971">
        <ele>440.942</ele>
        <time>2012-10-24T13:11:06Z</time>
      </trkpt>
      <trkpt lat="43.19874" lon="6.33972">
        <ele>440.665</ele>
        <time>2012-10-24T13:11:11Z</time>
      </trkpt>
      <trkpt lat="43.19874" lon="6.33974">
        <ele>441.067</ele>
        <time>2012-10-24T13:11:16Z</time>
      </trkpt>
      <trkpt lat="43.19875" lon="6.33975">
        <ele>440.903</ele>
        <time>2012-10-24T13:11:21Z</time>
      </trkpt>
      <trkpt lat="43.19876" lon="6.33976">
        <ele>440.95</ele>
        <time>2012-10-24T13:11:36Z</time>
      </trkpt>
      <trkpt lat="43.19876" lon="6.33982">
        <ele>441.241</ele>
        <time>2012-10-24T13:11:41Z</time>
      </trkpt>
      <trkpt lat="43.19875" lon="6.33988">
        <ele>441.283</ele>
        <time>2012-10-24T13:11:46Z</time>
      </trkpt>
      <trkpt lat="43.19874" lon="6.33987">
        <ele>441.429</ele>
        <time>2012-10-24T13:11:51Z</time>
      </trkpt>
      <trkpt lat="43.19873" lon="6.33989">
        <ele>440.964</ele>
        <time>2012-10-24T13:11:56Z</time>
      </trkpt>
      <trkpt lat="43.19871" lon="6.33994">
        <ele>442.552</ele>
        <time>2012-10-24T13:12:01Z</time>
      </trkpt>
      <trkpt lat="43.19871" lon="6.33998">
        <ele>441.711</ele>
        <time>2012-10-24T13:12:06Z</time>
      </trkpt>
      <trkpt lat="43.1987" lon="6.34005">
        <ele>442.332</ele>
        <time>2012-10-24T13:12:11Z</time>
      </trkpt>
      <trkpt lat="43.19871" lon="6.34012">
        <ele>442.039</ele>
        <time>2012-10-24T13:12:16Z</time>
      </trkpt>
      <trkpt lat="43.1987" lon="6.34018">
        <ele>442.224</ele>
        <time>2012-10-24T13:12:21Z</time>
      </trkpt>
      <trkpt lat="43.1987" lon="6.34025">
        <ele>442.475</ele>
        <time>2012-10-24T13:12:26Z</time>
      </trkpt>
      <trkpt lat="43.19869" lon="6.34032">
        <ele>442.824</ele>
        <time>2012-10-24T13:12:31Z</time>
      </trkpt>
      <trkpt lat="43.19867" lon="6.34039">
        <ele>443.302</ele>
        <time>2012-10-24T13:12:36Z</time>
      </trkpt>
      <trkpt lat="43.19866" lon="6.34047">
        <ele>443.772</ele>
        <time>2012-10-24T13:12:41Z</time>
      </trkpt>
      <trkpt lat="43.19865" lon="6.34054">
        <ele>444.28</ele>
        <time>2012-10-24T13:12:46Z</time>
      </trkpt>
      <trkpt lat="43.19863" lon="6.34061">
        <ele>444.724</ele>
        <time>2012-10-24T13:12:51Z</time>
      </trkpt>
      <trkpt lat="43.1986" lon="6.34068">
        <ele>444.985</ele>
        <time>2012-10-24T13:12:56Z</time>
      </trkpt>
      <trkpt lat="43.19857" lon="6.34074">
        <ele>445.397</ele>
        <time>2012-10-24T13:13:01Z</time>
      </trkpt>
      <trkpt lat="43.19856" lon="6.34081">
        <ele>445.812</ele>
        <time>2012-10-24T13:13:06Z</time>
      </trkpt>
      <trkpt lat="43.19859" lon="6.34083">
        <ele>446.423</ele>
        <time>2012-10-24T13:13:11Z</time>
      </trkpt>
      <trkpt lat="43.19862" lon="6.34079">
        <ele>446.795</ele>
        <time>2012-10-24T13:13:16Z</time>
      </trkpt>
      <trkpt lat="43.19865" lon="6.34073">
        <ele>447.305</ele>
        <time>2012-10-24T13:13:21Z</time>
      </trkpt>
      <trkpt lat="43.19868" lon="6.34067">
        <ele>447.783</ele>
        <time>2012-10-24T13:13:26Z</time>
      </trkpt>
      <trkpt lat="43.19869" lon="6.34061">
        <ele>447.915</ele>
        <time>2012-10-24T13:13:31Z</time>
      </trkpt>
      <trkpt lat="43.19873" lon="6.34056">
        <ele>448.048</ele>
        <time>2012-10-24T13:13:36Z</time>
      </trkpt>
      <trkpt lat="43.19877" lon="6.34051">
        <ele>448.883</ele>
        <time>2012-10-24T13:13:41Z</time>
      </trkpt>
      <trkpt lat="43.19879" lon="6.34046">
        <ele>449.139</ele>
        <time>2012-10-24T13:13:46Z</time>
      </trkpt>
      <trkpt lat="43.19882" lon="6.3404">
        <ele>449.387</ele>
        <time>2012-10-24T13:13:51Z</time>
      </trkpt>
      <trkpt lat="43.19884" lon="6.34033">
        <ele>449.768</ele>
        <time>2012-10-24T13:13:56Z</time>
      </trkpt>
      <trkpt lat="43.19886" lon="6.34027">
        <ele>450.167</ele>
        <time>2012-10-24T13:14:01Z</time>
      </trkpt>
      <trkpt lat="43.19886" lon="6.34019">
        <ele>450.716</ele>
        <time>2012-10-24T13:14:06Z</time>
      </trkpt>
      <trkpt lat="43.19887" lon="6.34011">
        <ele>451.176</ele>
        <time>2012-10-24T13:14:11Z</time>
      </trkpt>
      <trkpt lat="43.1989" lon="6.34005">
        <ele>451.792</ele>
        <time>2012-10-24T13:14:16Z</time>
      </trkpt>
      <trkpt lat="43.19895" lon="6.34001">
        <ele>452.251</ele>
        <time>2012-10-24T13:14:21Z</time>
      </trkpt>
      <trkpt lat="43.199" lon="6.33998">
        <ele>452.468</ele>
        <time>2012-10-24T13:14:26Z</time>
      </trkpt>
      <trkpt lat="43.19904" lon="6.33993">
        <ele>453.047</ele>
        <time>2012-10-24T13:14:31Z</time>
      </trkpt>
      <trkpt lat="43.1991" lon="6.33989">
        <ele>453.459</ele>
        <time>2012-10-24T13:14:36Z</time>
      </trkpt>
      <trkpt lat="43.19915" lon="6.33987">
        <ele>453.987</ele>
        <time>2012-10-24T13:14:41Z</time>
      </trkpt>
      <trkpt lat="43.19922" lon="6.33987">
        <ele>454.516</ele>
        <time>2012-10-24T13:14:46Z</time>
      </trkpt>
      <trkpt lat="43.19927" lon="6.3399">
        <ele>454.973</ele>
        <time>2012-10-24T13:14:51Z</time>
      </trkpt>
      <trkpt lat="43.19933" lon="6.33991">
        <ele>455.586</ele>
        <time>2012-10-24T13:14:56Z</time>
      </trkpt>
      <trkpt lat="43.19937" lon="6.33993">
        <ele>456.025</ele>
        <time>2012-10-24T13:15:01Z</time>
      </trkpt>
      <trkpt lat="43.19943" lon="6.33995">
        <ele>456.487</ele>
        <time>2012-10-24T13:15:06Z</time>
      </trkpt>
      <trkpt lat="43.19949" lon="6.33997">
        <ele>457.018</ele>
        <time>2012-10-24T13:15:11Z</time>
      </trkpt>
      <trkpt lat="43.19954" lon="6.34">
        <ele>457.198</ele>
        <time>2012-10-24T13:15:16Z</time>
      </trkpt>
      <trkpt lat="43.19958" lon="6.34004">
        <ele>457.526</ele>
        <time>2012-10-24T13:15:21Z</time>
      </trkpt>
      <trkpt lat="43.19963" lon="6.34007">
        <ele>458.028</ele>
        <time>2012-10-24T13:15:26Z</time>
      </trkpt>
      <trkpt lat="43.19967" lon="6.34011">
        <ele>458.202</ele>
        <time>2012-10-24T13:15:31Z</time>
      </trkpt>
      <trkpt lat="43.1997" lon="6.34015">
        <ele>458.448</ele>
        <time>2012-10-24T13:15:36Z</time>
      </trkpt>
      <trkpt lat="43.19975" lon="6.34019">
        <ele>458.992</ele>
        <time>2012-10-24T13:15:41Z</time>
      </trkpt>
      <trkpt lat="43.19978" lon="6.34024">
        <ele>459.444</ele>
        <time>2012-10-24T13:15:46Z</time>
      </trkpt>
      <trkpt lat="43.19983" lon="6.34028">
        <ele>459.565</ele>
        <time>2012-10-24T13:15:51Z</time>
      </trkpt>
      <trkpt lat="43.19988" lon="6.34032">
        <ele>459.951</ele>
        <time>2012-10-24T13:15:56Z</time>
      </trkpt>
      <trkpt lat="43.19996" lon="6.34031">
        <ele>459.991</ele>
        <time>2012-10-24T13:16:01Z</time>
      </trkpt>
      <trkpt lat="43.2" lon="6.34028">
        <ele>460.839</ele>
        <time>2012-10-24T13:16:06Z</time>
      </trkpt>
      <trkpt lat="43.19999" lon="6.34022">
        <ele>460.633</ele>
        <time>2012-10-24T13:16:11Z</time>
      </trkpt>
      <trkpt lat="43.19998" lon="6.34019">
        <ele>460.752</ele>
        <time>2012-10-24T13:16:16Z</time>
      </trkpt>
      <trkpt lat="43.19996" lon="6.34015">
        <ele>460.189</ele>
        <time>2012-10-24T13:16:21Z</time>
      </trkpt>
      <trkpt lat="43.19995" lon="6.34014">
        <ele>460.208</ele>
        <time>2012-10-24T13:16:26Z</time>
      </trkpt>
      <trkpt lat="43.19992" lon="6.34009">
        <ele>460.115</ele>
        <time>2012-10-24T13:16:31Z</time>
      </trkpt>
      <trkpt lat="43.19988" lon="6.34003">
        <ele>460.126</ele>
        <time>2012-10-24T13:16:36Z</time>
      </trkpt>
      <trkpt lat="43.19984" lon="6.33998">
        <ele>460.012</ele>
        <time>2012-10-24T13:16:41Z</time>
      </trkpt>
      <trkpt lat="43.1998" lon="6.3399">
        <ele>459.956</ele>
        <time>2012-10-24T13:16:46Z</time>
      </trkpt>
      <trkpt lat="43.19976" lon="6.33985">
        <ele>459.861</ele>
        <time>2012-10-24T13:16:51Z</time>
      </trkpt>
      <trkpt lat="43.19973" lon="6.33981">
        <ele>460.03</ele>
        <time>2012-10-24T13:16:56Z</time>
      </trkpt>
      <trkpt lat="43.19972" lon="6.33979">
        <ele>459.568</ele>
        <time>2012-10-24T13:17:01Z</time>
      </trkpt>
      <trkpt lat="43.19973" lon="6.33979">
        <ele>459.61</ele>
        <time>2012-10-24T13:17:06Z</time>
      </trkpt>
      <trkpt lat="43.19973" lon="6.33977">
        <ele>460.163</ele>
        <time>2012-10-24T13:17:16Z</time>
      </trkpt>
      <trkpt lat="43.19968" lon="6.33971">
        <ele>460.173</ele>
        <time>2012-10-24T13:17:21Z</time>
      </trkpt>
      <trkpt lat="43.19965" lon="6.33965">
        <ele>460.554</ele>
        <time>2012-10-24T13:17:26Z</time>
      </trkpt>
      <trkpt lat="43.1996" lon="6.33958">
        <ele>460.4</ele>
        <time>2012-10-24T13:17:31Z</time>
      </trkpt>
      <trkpt lat="43.19956" lon="6.33952">
        <ele>460.326</ele>
        <time>2012-10-24T13:17:36Z</time>
      </trkpt>
      <trkpt lat="43.19953" lon="6.33943">
        <ele>460.141</ele>
        <time>2012-10-24T13:17:41Z</time>
      </trkpt>
      <trkpt lat="43.1995" lon="6.33936">
        <ele>460.522</ele>
        <time>2012-10-24T13:17:46Z</time>
      </trkpt>
      <trkpt lat="43.19947" lon="6.33929">
        <ele>460.459</ele>
        <time>2012-10-24T13:17:51Z</time>
      </trkpt>
      <trkpt lat="43.19945" lon="6.33921">
        <ele>460.456</ele>
        <time>2012-10-24T13:17:56Z</time>
      </trkpt>
      <trkpt lat="43.19942" lon="6.33914">
        <ele>460.496</ele>
        <time>2012-10-24T13:18:01Z</time>
      </trkpt>
      <trkpt lat="43.19939" lon="6.33907">
        <ele>460.54</ele>
        <time>2012-10-24T13:18:06Z</time>
      </trkpt>
      <trkpt lat="43.19936" lon="6.339">
        <ele>460.445</ele>
        <time>2012-10-24T13:18:11Z</time>
      </trkpt>
      <trkpt lat="43.19933" lon="6.33893">
        <ele>460.295</ele>
        <time>2012-10-24T13:18:16Z</time>
      </trkpt>
      <trkpt lat="43.1993" lon="6.33887">
        <ele>460.107</ele>
        <time>2012-10-24T13:18:21Z</time>
      </trkpt>
      <trkpt lat="43.19927" lon="6.33881">
        <ele>459.983</ele>
        <time>2012-10-24T13:18:26Z</time>
      </trkpt>
      <trkpt lat="43.19924" lon="6.33875">
        <ele>459.719</ele>
        <time>2012-10-24T13:18:31Z</time>
      </trkpt>
      <trkpt lat="43.19921" lon="6.3387">
        <ele>459.391</ele>
        <time>2012-10-24T13:18:36Z</time>
      </trkpt>
      <trkpt lat="43.19916" lon="6.33865">
        <ele>459.365</ele>
        <time>2012-10-24T13:18:41Z</time>
      </trkpt>
      <trkpt lat="43.19911" lon="6.33861">
        <ele>459.232</ele>
        <time>2012-10-24T13:18:46Z</time>
      </trkpt>
      <trkpt lat="43.19907" lon="6.33856">
        <ele>459.161</ele>
        <time>2012-10-24T13:18:51Z</time>
      </trkpt>
      <trkpt lat="43.19902" lon="6.33853">
        <ele>459.328</ele>
        <time>2012-10-24T13:18:56Z</time>
      </trkpt>
      <trkpt lat="43.19896" lon="6.3385">
        <ele>459.396</ele>
        <time>2012-10-24T13:19:01Z</time>
      </trkpt>
      <trkpt lat="43.19892" lon="6.33846">
        <ele>459.095</ele>
        <time>2012-10-24T13:19:06Z</time>
      </trkpt>
      <trkpt lat="43.19887" lon="6.33843">
        <ele>458.839</ele>
        <time>2012-10-24T13:19:11Z</time>
      </trkpt>
      <trkpt lat="43.19881" lon="6.3384">
        <ele>459.024</ele>
        <time>2012-10-24T13:19:16Z</time>
      </trkpt>
      <trkpt lat="43.19877" lon="6.33835">
        <ele>458.582</ele>
        <time>2012-10-24T13:19:21Z</time>
      </trkpt>
      <trkpt lat="43.19873" lon="6.33829">
        <ele>458.199</ele>
        <time>2012-10-24T13:19:26Z</time>
      </trkpt>
      <trkpt lat="43.1987" lon="6.33822">
        <ele>458.154</ele>
        <time>2012-10-24T13:19:31Z</time>
      </trkpt>
      <trkpt lat="43.19867" lon="6.33815">
        <ele>457.578</ele>
        <time>2012-10-24T13:19:36Z</time>
      </trkpt>
      <trkpt lat="43.19863" lon="6.3381">
        <ele>457.227</ele>
        <time>2012-10-24T13:19:41Z</time>
      </trkpt>
      <trkpt lat="43.19859" lon="6.33804">
        <ele>456.987</ele>
        <time>2012-10-24T13:19:46Z</time>
      </trkpt>
      <trkpt lat="43.19854" lon="6.338">
        <ele>456.376</ele>
        <time>2012-10-24T13:19:51Z</time>
      </trkpt>
      <trkpt lat="43.1985" lon="6.33795">
        <ele>455.848</ele>
        <time>2012-10-24T13:19:56Z</time>
      </trkpt>
      <trkpt lat="43.19846" lon="6.33791">
        <ele>455.541</ele>
        <time>2012-10-24T13:20:01Z</time>
      </trkpt>
      <trkpt lat="43.19841" lon="6.33786">
        <ele>454.97</ele>
        <time>2012-10-24T13:20:06Z</time>
      </trkpt>
      <trkpt lat="43.19836" lon="6.33783">
        <ele>454.326</ele>
        <time>2012-10-24T13:20:11Z</time>
      </trkpt>
      <trkpt lat="43.19831" lon="6.3378">
        <ele>453.66</ele>
        <time>2012-10-24T13:20:16Z</time>
      </trkpt>
      <trkpt lat="43.19824" lon="6.33778">
        <ele>453.171</ele>
        <time>2012-10-24T13:20:21Z</time>
      </trkpt>
      <trkpt lat="43.19818" lon="6.33778">
        <ele>452.822</ele>
        <time>2012-10-24T13:20:26Z</time>
      </trkpt>
      <trkpt lat="43.19812" lon="6.33777">
        <ele>452.159</ele>
        <time>2012-10-24T13:20:31Z</time>
      </trkpt>
      <trkpt lat="43.19807" lon="6.33777">
        <ele>452.294</ele>
        <time>2012-10-24T13:20:36Z</time>
      </trkpt>
      <trkpt lat="43.19801" lon="6.33778">
        <ele>451.557</ele>
        <time>2012-10-24T13:20:41Z</time>
      </trkpt>
      <trkpt lat="43.19795" lon="6.33778">
        <ele>451.403</ele>
        <time>2012-10-24T13:20:46Z</time>
      </trkpt>
      <trkpt lat="43.19789" lon="6.33776">
        <ele>450.962</ele>
        <time>2012-10-24T13:20:51Z</time>
      </trkpt>
      <trkpt lat="43.19783" lon="6.33773">
        <ele>450.278</ele>
        <time>2012-10-24T13:20:56Z</time>
      </trkpt>
      <trkpt lat="43.19779" lon="6.3377">
        <ele>450.064</ele>
        <time>2012-10-24T13:21:01Z</time>
      </trkpt>
      <trkpt lat="43.19774" lon="6.33766">
        <ele>449.4</ele>
        <time>2012-10-24T13:21:06Z</time>
      </trkpt>
      <trkpt lat="43.19769" lon="6.33761">
        <ele>449.136</ele>
        <time>2012-10-24T13:21:11Z</time>
      </trkpt>
      <trkpt lat="43.19766" lon="6.33755">
        <ele>448.766</ele>
        <time>2012-10-24T13:21:16Z</time>
      </trkpt>
      <trkpt lat="43.19762" lon="6.33749">
        <ele>448.47</ele>
        <time>2012-10-24T13:21:21Z</time>
      </trkpt>
      <trkpt lat="43.19759" lon="6.33743">
        <ele>447.995</ele>
        <time>2012-10-24T13:21:26Z</time>
      </trkpt>
      <trkpt lat="43.19758" lon="6.33736">
        <ele>447.871</ele>
        <time>2012-10-24T13:21:31Z</time>
      </trkpt>
      <trkpt lat="43.19754" lon="6.33729">
        <ele>447.672</ele>
        <time>2012-10-24T13:21:36Z</time>
      </trkpt>
      <trkpt lat="43.19753" lon="6.33722">
        <ele>447.44</ele>
        <time>2012-10-24T13:21:41Z</time>
      </trkpt>
      <trkpt lat="43.19749" lon="6.33715">
        <ele>447.387</ele>
        <time>2012-10-24T13:21:46Z</time>
      </trkpt>
      <trkpt lat="43.19745" lon="6.33708">
        <ele>447.572</ele>
        <time>2012-10-24T13:21:51Z</time>
      </trkpt>
      <trkpt lat="43.19741" lon="6.33701">
        <ele>447.44</ele>
        <time>2012-10-24T13:21:56Z</time>
      </trkpt>
      <trkpt lat="43.19737" lon="6.33694">
        <ele>447.374</ele>
        <time>2012-10-24T13:22:01Z</time>
      </trkpt>
      <trkpt lat="43.19733" lon="6.33687">
        <ele>447.408</ele>
        <time>2012-10-24T13:22:06Z</time>
      </trkpt>
      <trkpt lat="43.1973" lon="6.3368">
        <ele>447.363</ele>
        <time>2012-10-24T13:22:11Z</time>
      </trkpt>
      <trkpt lat="43.19727" lon="6.33672">
        <ele>447.408</ele>
        <time>2012-10-24T13:22:16Z</time>
      </trkpt>
      <trkpt lat="43.19725" lon="6.33663">
        <ele>447.331</ele>
        <time>2012-10-24T13:22:21Z</time>
      </trkpt>
      <trkpt lat="43.19723" lon="6.33656">
        <ele>447.234</ele>
        <time>2012-10-24T13:22:26Z</time>
      </trkpt>
      <trkpt lat="43.19721" lon="6.33651">
        <ele>447.466</ele>
        <time>2012-10-24T13:22:31Z</time>
      </trkpt>
      <trkpt lat="43.19718" lon="6.33644">
        <ele>447.271</ele>
        <time>2012-10-24T13:22:36Z</time>
      </trkpt>
      <trkpt lat="43.19715" lon="6.33633">
        <ele>447.104</ele>
        <time>2012-10-24T13:22:41Z</time>
      </trkpt>
      <trkpt lat="43.19713" lon="6.33626">
        <ele>447.07</ele>
        <time>2012-10-24T13:22:46Z</time>
      </trkpt>
      <trkpt lat="43.1971" lon="6.33618">
        <ele>447.096</ele>
        <time>2012-10-24T13:22:51Z</time>
      </trkpt>
      <trkpt lat="43.19705" lon="6.33608">
        <ele>446.758</ele>
        <time>2012-10-24T13:22:56Z</time>
      </trkpt>
      <trkpt lat="43.19701" lon="6.336">
        <ele>446.88</ele>
        <time>2012-10-24T13:23:01Z</time>
      </trkpt>
      <trkpt lat="43.19699" lon="6.33594">
        <ele>446.66</ele>
        <time>2012-10-24T13:23:06Z</time>
      </trkpt>
      <trkpt lat="43.19696" lon="6.33585">
        <ele>446.755</ele>
        <time>2012-10-24T13:23:11Z</time>
      </trkpt>
      <trkpt lat="43.19693" lon="6.33577">
        <ele>446.724</ele>
        <time>2012-10-24T13:23:16Z</time>
      </trkpt>
      <trkpt lat="43.1969" lon="6.33569">
        <ele>446.697</ele>
        <time>2012-10-24T13:23:21Z</time>
      </trkpt>
      <trkpt lat="43.19689" lon="6.33561">
        <ele>446.613</ele>
        <time>2012-10-24T13:23:26Z</time>
      </trkpt>
      <trkpt lat="43.19686" lon="6.33553">
        <ele>446.251</ele>
        <time>2012-10-24T13:23:31Z</time>
      </trkpt>
      <trkpt lat="43.19682" lon="6.33544">
        <ele>445.994</ele>
        <time>2012-10-24T13:23:36Z</time>
      </trkpt>
      <trkpt lat="43.19679" lon="6.33537">
        <ele>445.86</ele>
        <time>2012-10-24T13:23:41Z</time>
      </trkpt>
      <trkpt lat="43.19677" lon="6.33527">
        <ele>445.905</ele>
        <time>2012-10-24T13:23:46Z</time>
      </trkpt>
      <trkpt lat="43.19671" lon="6.33523">
        <ele>445.484</ele>
        <time>2012-10-24T13:23:51Z</time>
      </trkpt>
      <trkpt lat="43.19665" lon="6.33523">
        <ele>445.527</ele>
        <time>2012-10-24T13:23:56Z</time>
      </trkpt>
      <trkpt lat="43.1966" lon="6.33529">
        <ele>445.241</ele>
        <time>2012-10-24T13:24:01Z</time>
      </trkpt>
      <trkpt lat="43.19657" lon="6.33536">
        <ele>445.144</ele>
        <time>2012-10-24T13:24:06Z</time>
      </trkpt>
      <trkpt lat="43.19655" lon="6.33544">
        <ele>445.019</ele>
        <time>2012-10-24T13:24:11Z</time>
      </trkpt>
      <trkpt lat="43.19653" lon="6.33551">
        <ele>445.204</ele>
        <time>2012-10-24T13:24:16Z</time>
      </trkpt>
      <trkpt lat="43.1965" lon="6.33557">
        <ele>445.159</ele>
        <time>2012-10-24T13:24:21Z</time>
      </trkpt>
      <trkpt lat="43.19646" lon="6.3356">
        <ele>445.075</ele>
        <time>2012-10-24T13:24:26Z</time>
      </trkpt>
      <trkpt lat="43.19647" lon="6.33559">
        <ele>445.371</ele>
        <time>2012-10-24T13:24:31Z</time>
      </trkpt>
      <trkpt lat="43.19649" lon="6.33558">
        <ele>445.228</ele>
        <time>2012-10-24T13:24:36Z</time>
      </trkpt>
      <trkpt lat="43.19651" lon="6.33558">
        <ele>445.292</ele>
        <time>2012-10-24T13:24:41Z</time>
      </trkpt>
      <trkpt lat="43.19654" lon="6.33559">
        <ele>445.397</ele>
        <time>2012-10-24T13:24:46Z</time>
      </trkpt>
      <trkpt lat="43.19655" lon="6.33557">
        <ele>445.3</ele>
        <time>2012-10-24T13:24:51Z</time>
      </trkpt>
      <trkpt lat="43.19655" lon="6.33556">
        <ele>445.144</ele>
        <time>2012-10-24T13:24:56Z</time>
      </trkpt>
      <trkpt lat="43.19656" lon="6.33557">
        <ele>444.975</ele>
        <time>2012-10-24T13:25:01Z</time>
      </trkpt>
      <trkpt lat="43.19658" lon="6.33557">
        <ele>445.363</ele>
        <time>2012-10-24T13:25:11Z</time>
      </trkpt>
      <trkpt lat="43.19658" lon="6.3356">
        <ele>444.243</ele>
        <time>2012-10-24T13:26:41Z</time>
      </trkpt>
      <trkpt lat="43.19656" lon="6.33564">
        <ele>443.801</ele>
        <time>2012-10-24T13:26:46Z</time>
      </trkpt>
      <trkpt lat="43.19654" lon="6.33571">
        <ele>443.294</ele>
        <time>2012-10-24T13:26:51Z</time>
      </trkpt>
      <trkpt lat="43.1965" lon="6.33576">
        <ele>443.159</ele>
        <time>2012-10-24T13:26:56Z</time>
      </trkpt>
      <trkpt lat="43.19648" lon="6.33582">
        <ele>443.08</ele>
        <time>2012-10-24T13:27:01Z</time>
      </trkpt>
      <trkpt lat="43.19648" lon="6.3359">
        <ele>442.877</ele>
        <time>2012-10-24T13:27:11Z</time>
      </trkpt>
      <trkpt lat="43.19647" lon="6.33598">
        <ele>442.546</ele>
        <time>2012-10-24T13:27:16Z</time>
      </trkpt>
      <trkpt lat="43.19646" lon="6.33606">
        <ele>442.271</ele>
        <time>2012-10-24T13:27:21Z</time>
      </trkpt>
      <trkpt lat="43.19645" lon="6.33615">
        <ele>441.608</ele>
        <time>2012-10-24T13:27:26Z</time>
      </trkpt>
      <trkpt lat="43.19644" lon="6.33624">
        <ele>441.074</ele>
        <time>2012-10-24T13:27:31Z</time>
      </trkpt>
      <trkpt lat="43.19642" lon="6.33632">
        <ele>440.966</ele>
        <time>2012-10-24T13:27:36Z</time>
      </trkpt>
      <trkpt lat="43.19641" lon="6.33638">
        <ele>440.678</ele>
        <time>2012-10-24T13:27:41Z</time>
      </trkpt>
      <trkpt lat="43.1964" lon="6.33644">
        <ele>440.158</ele>
        <time>2012-10-24T13:27:46Z</time>
      </trkpt>
      <trkpt lat="43.19638" lon="6.33651">
        <ele>439.967</ele>
        <time>2012-10-24T13:27:51Z</time>
      </trkpt>
      <trkpt lat="43.19636" lon="6.33657">
        <ele>439.745</ele>
        <time>2012-10-24T13:27:56Z</time>
      </trkpt>
      <trkpt lat="43.19632" lon="6.33663">
        <ele>439.159</ele>
        <time>2012-10-24T13:28:01Z</time>
      </trkpt>
      <trkpt lat="43.1963" lon="6.3367">
        <ele>438.842</ele>
        <time>2012-10-24T13:28:06Z</time>
      </trkpt>
      <trkpt lat="43.19628" lon="6.33676">
        <ele>438.599</ele>
        <time>2012-10-24T13:28:11Z</time>
      </trkpt>
      <trkpt lat="43.19626" lon="6.33684">
        <ele>438.118</ele>
        <time>2012-10-24T13:28:16Z</time>
      </trkpt>
      <trkpt lat="43.19625" lon="6.3369">
        <ele>437.486</ele>
        <time>2012-10-24T13:28:21Z</time>
      </trkpt>
      <trkpt lat="43.19623" lon="6.33698">
        <ele>437.079</ele>
        <time>2012-10-24T13:28:26Z</time>
      </trkpt>
      <trkpt lat="43.19621" lon="6.33704">
        <ele>436.738</ele>
        <time>2012-10-24T13:28:31Z</time>
      </trkpt>
      <trkpt lat="43.19619" lon="6.33712">
        <ele>436.247</ele>
        <time>2012-10-24T13:28:36Z</time>
      </trkpt>
      <trkpt lat="43.19617" lon="6.33717">
        <ele>435.684</ele>
        <time>2012-10-24T13:28:41Z</time>
      </trkpt>
      <trkpt lat="43.19614" lon="6.3372">
        <ele>435.845</ele>
        <time>2012-10-24T13:28:46Z</time>
      </trkpt>
      <trkpt lat="43.19611" lon="6.33723">
        <ele>436.635</ele>
        <time>2012-10-24T13:28:51Z</time>
      </trkpt>
      <trkpt lat="43.19608" lon="6.33725">
        <ele>436.997</ele>
        <time>2012-10-24T13:28:56Z</time>
      </trkpt>
      <trkpt lat="43.19608" lon="6.33729">
        <ele>436.778</ele>
        <time>2012-10-24T13:29:01Z</time>
      </trkpt>
      <trkpt lat="43.1961" lon="6.33734">
        <ele>435.919</ele>
        <time>2012-10-24T13:29:06Z</time>
      </trkpt>
      <trkpt lat="43.19612" lon="6.33743">
        <ele>435.058</ele>
        <time>2012-10-24T13:29:11Z</time>
      </trkpt>
      <trkpt lat="43.19613" lon="6.33748">
        <ele>434.014</ele>
        <time>2012-10-24T13:29:16Z</time>
      </trkpt>
      <trkpt lat="43.19614" lon="6.33756">
        <ele>433.835</ele>
        <time>2012-10-24T13:29:21Z</time>
      </trkpt>
      <trkpt lat="43.19615" lon="6.33762">
        <ele>433.438</ele>
        <time>2012-10-24T13:29:26Z</time>
      </trkpt>
      <trkpt lat="43.19615" lon="6.3377">
        <ele>432.865</ele>
        <time>2012-10-24T13:29:31Z</time>
      </trkpt>
      <trkpt lat="43.19614" lon="6.33777">
        <ele>432.603</ele>
        <time>2012-10-24T13:29:36Z</time>
      </trkpt>
      <trkpt lat="43.19613" lon="6.33787">
        <ele>431.848</ele>
        <time>2012-10-24T13:29:41Z</time>
      </trkpt>
      <trkpt lat="43.19612" lon="6.33796">
        <ele>431.99</ele>
        <time>2012-10-24T13:29:46Z</time>
      </trkpt>
      <trkpt lat="43.1961" lon="6.33803">
        <ele>431.308</ele>
        <time>2012-10-24T13:29:51Z</time>
      </trkpt>
      <trkpt lat="43.19607" lon="6.33809">
        <ele>430.682</ele>
        <time>2012-10-24T13:29:56Z</time>
      </trkpt>
      <trkpt lat="43.19602" lon="6.33815">
        <ele>430.312</ele>
        <time>2012-10-24T13:30:01Z</time>
      </trkpt>
      <trkpt lat="43.19598" lon="6.33819">
        <ele>429.427</ele>
        <time>2012-10-24T13:30:06Z</time>
      </trkpt>
      <trkpt lat="43.19592" lon="6.33822">
        <ele>429.07</ele>
        <time>2012-10-24T13:30:11Z</time>
      </trkpt>
      <trkpt lat="43.19587" lon="6.33825">
        <ele>428.55</ele>
        <time>2012-10-24T13:30:16Z</time>
      </trkpt>
      <trkpt lat="43.19581" lon="6.33826">
        <ele>428.011</ele>
        <time>2012-10-24T13:30:21Z</time>
      </trkpt>
      <trkpt lat="43.19575" lon="6.33827">
        <ele>427.086</ele>
        <time>2012-10-24T13:30:26Z</time>
      </trkpt>
      <trkpt lat="43.19568" lon="6.33825">
        <ele>426.494</ele>
        <time>2012-10-24T13:30:31Z</time>
      </trkpt>
      <trkpt lat="43.19561" lon="6.33825">
        <ele>426.066</ele>
        <time>2012-10-24T13:30:36Z</time>
      </trkpt>
      <trkpt lat="43.19555" lon="6.33826">
        <ele>425.68</ele>
        <time>2012-10-24T13:30:41Z</time>
      </trkpt>
      <trkpt lat="43.1955" lon="6.33829">
        <ele>425.207</ele>
        <time>2012-10-24T13:30:46Z</time>
      </trkpt>
      <trkpt lat="43.19544" lon="6.3383">
        <ele>424.798</ele>
        <time>2012-10-24T13:30:51Z</time>
      </trkpt>
      <trkpt lat="43.19538" lon="6.33833">
        <ele>424.433</ele>
        <time>2012-10-24T13:30:56Z</time>
      </trkpt>
      <trkpt lat="43.19533" lon="6.33835">
        <ele>424.23</ele>
        <time>2012-10-24T13:31:01Z</time>
      </trkpt>
      <trkpt lat="43.19527" lon="6.33837">
        <ele>423.791</ele>
        <time>2012-10-24T13:31:06Z</time>
      </trkpt>
      <trkpt lat="43.19521" lon="6.33838">
        <ele>423.313</ele>
        <time>2012-10-24T13:31:11Z</time>
      </trkpt>
      <trkpt lat="43.19515" lon="6.3384">
        <ele>423.257</ele>
        <time>2012-10-24T13:31:16Z</time>
      </trkpt>
      <trkpt lat="43.1951" lon="6.33842">
        <ele>423.072</ele>
        <time>2012-10-24T13:31:21Z</time>
      </trkpt>
      <trkpt lat="43.19504" lon="6.33845">
        <ele>422.94</ele>
        <time>2012-10-24T13:31:26Z</time>
      </trkpt>
      <trkpt lat="43.19499" lon="6.33849">
        <ele>422.658</ele>
        <time>2012-10-24T13:31:31Z</time>
      </trkpt>
      <trkpt lat="43.19494" lon="6.33853">
        <ele>422.713</ele>
        <time>2012-10-24T13:31:36Z</time>
      </trkpt>
      <trkpt lat="43.1949" lon="6.33858">
        <ele>422.28</ele>
        <time>2012-10-24T13:31:41Z</time>
      </trkpt>
      <trkpt lat="43.19485" lon="6.33863">
        <ele>421.981</ele>
        <time>2012-10-24T13:31:46Z</time>
      </trkpt>
      <trkpt lat="43.1948" lon="6.33869">
        <ele>421.923</ele>
        <time>2012-10-24T13:31:51Z</time>
      </trkpt>
      <trkpt lat="43.19475" lon="6.33873">
        <ele>421.743</ele>
        <time>2012-10-24T13:31:56Z</time>
      </trkpt>
      <trkpt lat="43.19469" lon="6.33877">
        <ele>421.458</ele>
        <time>2012-10-24T13:32:01Z</time>
      </trkpt>
      <trkpt lat="43.19463" lon="6.33879">
        <ele>421.556</ele>
        <time>2012-10-24T13:32:06Z</time>
      </trkpt>
      <trkpt lat="43.19457" lon="6.33881">
        <ele>421.392</ele>
        <time>2012-10-24T13:32:11Z</time>
      </trkpt>
      <trkpt lat="43.19451" lon="6.33884">
        <ele>420.974</ele>
        <time>2012-10-24T13:32:16Z</time>
      </trkpt>
      <trkpt lat="43.19445" lon="6.33886">
        <ele>421.096</ele>
        <time>2012-10-24T13:32:21Z</time>
      </trkpt>
      <trkpt lat="43.19439" lon="6.33888">
        <ele>420.721</ele>
        <time>2012-10-24T13:32:26Z</time>
      </trkpt>
      <trkpt lat="43.19433" lon="6.3389">
        <ele>420.581</ele>
        <time>2012-10-24T13:32:31Z</time>
      </trkpt>
      <trkpt lat="43.19426" lon="6.33892">
        <ele>420.422</ele>
        <time>2012-10-24T13:32:36Z</time>
      </trkpt>
      <trkpt lat="43.1942" lon="6.33894">
        <ele>419.928</ele>
        <time>2012-10-24T13:32:41Z</time>
      </trkpt>
      <trkpt lat="43.19414" lon="6.33894">
        <ele>420.208</ele>
        <time>2012-10-24T13:32:46Z</time>
      </trkpt>
      <trkpt lat="43.19408" lon="6.33895">
        <ele>419.801</ele>
        <time>2012-10-24T13:32:51Z</time>
      </trkpt>
      <trkpt lat="43.19403" lon="6.33897">
        <ele>419.614</ele>
        <time>2012-10-24T13:32:56Z</time>
      </trkpt>
      <trkpt lat="43.19397" lon="6.33897">
        <ele>419.225</ele>
        <time>2012-10-24T13:33:01Z</time>
      </trkpt>
      <trkpt lat="43.19391" lon="6.33895">
        <ele>418.961</ele>
        <time>2012-10-24T13:33:06Z</time>
      </trkpt>
      <trkpt lat="43.19385" lon="6.33894">
        <ele>418.277</ele>
        <time>2012-10-24T13:33:11Z</time>
      </trkpt>
      <trkpt lat="43.19379" lon="6.33891">
        <ele>417.883</ele>
        <time>2012-10-24T13:33:16Z</time>
      </trkpt>
      <trkpt lat="43.19374" lon="6.33887">
        <ele>417.357</ele>
        <time>2012-10-24T13:33:21Z</time>
      </trkpt>
      <trkpt lat="43.19368" lon="6.33885">
        <ele>417.317</ele>
        <time>2012-10-24T13:33:26Z</time>
      </trkpt>
      <trkpt lat="43.19363" lon="6.33881">
        <ele>416.813</ele>
        <time>2012-10-24T13:33:31Z</time>
      </trkpt>
      <trkpt lat="43.19356" lon="6.33879">
        <ele>416.242</ele>
        <time>2012-10-24T13:33:36Z</time>
      </trkpt>
      <trkpt lat="43.1935" lon="6.33876">
        <ele>415.819</ele>
        <time>2012-10-24T13:33:41Z</time>
      </trkpt>
      <trkpt lat="43.19345" lon="6.33873">
        <ele>415.481</ele>
        <time>2012-10-24T13:33:46Z</time>
      </trkpt>
      <trkpt lat="43.19339" lon="6.3387">
        <ele>415.095</ele>
        <time>2012-10-24T13:33:51Z</time>
      </trkpt>
      <trkpt lat="43.19333" lon="6.33868">
        <ele>414.561</ele>
        <time>2012-10-24T13:33:56Z</time>
      </trkpt>
      <trkpt lat="43.19328" lon="6.33865">
        <ele>414.205</ele>
        <time>2012-10-24T13:34:01Z</time>
      </trkpt>
      <trkpt lat="43.19322" lon="6.33862">
        <ele>414.062</ele>
        <time>2012-10-24T13:34:06Z</time>
      </trkpt>
      <trkpt lat="43.19317" lon="6.33858">
        <ele>413.61</ele>
        <time>2012-10-24T13:34:11Z</time>
      </trkpt>
      <trkpt lat="43.19311" lon="6.33855">
        <ele>413.518</ele>
        <time>2012-10-24T13:34:16Z</time>
      </trkpt>
      <trkpt lat="43.19305" lon="6.33851">
        <ele>413.343</ele>
        <time>2012-10-24T13:34:21Z</time>
      </trkpt>
      <trkpt lat="43.193" lon="6.33845">
        <ele>413.084</ele>
        <time>2012-10-24T13:34:26Z</time>
      </trkpt>
      <trkpt lat="43.19296" lon="6.33839">
        <ele>412.818</ele>
        <time>2012-10-24T13:34:31Z</time>
      </trkpt>
      <trkpt lat="43.19292" lon="6.33832">
        <ele>412.582</ele>
        <time>2012-10-24T13:34:36Z</time>
      </trkpt>
      <trkpt lat="43.19289" lon="6.33824">
        <ele>412.479</ele>
        <time>2012-10-24T13:34:41Z</time>
      </trkpt>
      <trkpt lat="43.19286" lon="6.33816">
        <ele>412.194</ele>
        <time>2012-10-24T13:34:46Z</time>
      </trkpt>
      <trkpt lat="43.19284" lon="6.33808">
        <ele>411.798</ele>
        <time>2012-10-24T13:34:51Z</time>
      </trkpt>
      <trkpt lat="43.19282" lon="6.338">
        <ele>411.504</ele>
        <time>2012-10-24T13:34:56Z</time>
      </trkpt>
      <trkpt lat="43.1928" lon="6.33793">
        <ele>411.325</ele>
        <time>2012-10-24T13:35:01Z</time>
      </trkpt>
      <trkpt lat="43.19277" lon="6.33785">
        <ele>411.251</ele>
        <time>2012-10-24T13:35:06Z</time>
      </trkpt>
      <trkpt lat="43.19273" lon="6.33779">
        <ele>411.063</ele>
        <time>2012-10-24T13:35:11Z</time>
      </trkpt>
      <trkpt lat="43.19269" lon="6.33771">
        <ele>410.944</ele>
        <time>2012-10-24T13:35:16Z</time>
      </trkpt>
      <trkpt lat="43.19267" lon="6.33763">
        <ele>410.667</ele>
        <time>2012-10-24T13:35:21Z</time>
      </trkpt>
      <trkpt lat="43.19266" lon="6.33754">
        <ele>410.416</ele>
        <time>2012-10-24T13:35:26Z</time>
      </trkpt>
      <trkpt lat="43.19266" lon="6.33746">
        <ele>410.492</ele>
        <time>2012-10-24T13:35:31Z</time>
      </trkpt>
      <trkpt lat="43.19267" lon="6.33737">
        <ele>410.046</ele>
        <time>2012-10-24T13:35:36Z</time>
      </trkpt>
      <trkpt lat="43.19268" lon="6.33729">
        <ele>409.816</ele>
        <time>2012-10-24T13:35:41Z</time>
      </trkpt>
      <trkpt lat="43.19268" lon="6.33721">
        <ele>409.607</ele>
        <time>2012-10-24T13:35:46Z</time>
      </trkpt>
      <trkpt lat="43.19269" lon="6.33713">
        <ele>409.39</ele>
        <time>2012-10-24T13:35:51Z</time>
      </trkpt>
      <trkpt lat="43.19271" lon="6.33706">
        <ele>408.849</ele>
        <time>2012-10-24T13:35:56Z</time>
      </trkpt>
      <trkpt lat="43.19273" lon="6.33698">
        <ele>408.55</ele>
        <time>2012-10-24T13:36:01Z</time>
      </trkpt>
      <trkpt lat="43.19276" lon="6.33691">
        <ele>408.281</ele>
        <time>2012-10-24T13:36:06Z</time>
      </trkpt>
      <trkpt lat="43.19279" lon="6.33684">
        <ele>408.003</ele>
        <time>2012-10-24T13:36:11Z</time>
      </trkpt>
      <trkpt lat="43.19283" lon="6.33678">
        <ele>407.699</ele>
        <time>2012-10-24T13:36:16Z</time>
      </trkpt>
      <trkpt lat="43.19288" lon="6.33673">
        <ele>407.509</ele>
        <time>2012-10-24T13:36:21Z</time>
      </trkpt>
      <trkpt lat="43.19293" lon="6.33668">
        <ele>407.557</ele>
        <time>2012-10-24T13:36:26Z</time>
      </trkpt>
      <trkpt lat="43.19297" lon="6.33663">
        <ele>407.615</ele>
        <time>2012-10-24T13:36:31Z</time>
      </trkpt>
      <trkpt lat="43.19301" lon="6.33657">
        <ele>407.633</ele>
        <time>2012-10-24T13:36:36Z</time>
      </trkpt>
      <trkpt lat="43.19306" lon="6.33653">
        <ele>407.876</ele>
        <time>2012-10-24T13:36:41Z</time>
      </trkpt>
      <trkpt lat="43.19311" lon="6.33647">
        <ele>407.845</ele>
        <time>2012-10-24T13:36:46Z</time>
      </trkpt>
      <trkpt lat="43.19315" lon="6.33642">
        <ele>408.133</ele>
        <time>2012-10-24T13:36:51Z</time>
      </trkpt>
      <trkpt lat="43.1932" lon="6.33636">
        <ele>408.283</ele>
        <time>2012-10-24T13:36:56Z</time>
      </trkpt>
      <trkpt lat="43.19324" lon="6.3363">
        <ele>408.553</ele>
        <time>2012-10-24T13:37:01Z</time>
      </trkpt>
      <trkpt lat="43.19328" lon="6.33624">
        <ele>408.616</ele>
        <time>2012-10-24T13:37:06Z</time>
      </trkpt>
      <trkpt lat="43.19331" lon="6.33618">
        <ele>408.936</ele>
        <time>2012-10-24T13:37:11Z</time>
      </trkpt>
      <trkpt lat="43.19335" lon="6.33611">
        <ele>409.163</ele>
        <time>2012-10-24T13:37:16Z</time>
      </trkpt>
      <trkpt lat="43.19338" lon="6.33604">
        <ele>409.43</ele>
        <time>2012-10-24T13:37:21Z</time>
      </trkpt>
      <trkpt lat="43.19341" lon="6.33595">
        <ele>409.575</ele>
        <time>2012-10-24T13:37:26Z</time>
      </trkpt>
      <trkpt lat="43.19342" lon="6.33589">
        <ele>409.71</ele>
        <time>2012-10-24T13:37:31Z</time>
      </trkpt>
      <trkpt lat="43.19344" lon="6.33583">
        <ele>409.53</ele>
        <time>2012-10-24T13:37:36Z</time>
      </trkpt>
      <trkpt lat="43.19344" lon="6.33582">
        <ele>409.253</ele>
        <time>2012-10-24T13:37:41Z</time>
      </trkpt>
      <trkpt lat="43.19344" lon="6.33581">
        <ele>409.441</ele>
        <time>2012-10-24T13:37:46Z</time>
      </trkpt>
      <trkpt lat="43.19344" lon="6.33577">
        <ele>408.439</ele>
        <time>2012-10-24T13:37:51Z</time>
      </trkpt>
      <trkpt lat="43.19344" lon="6.33576">
        <ele>409.316</ele>
        <time>2012-10-24T13:38:01Z</time>
      </trkpt>
      <trkpt lat="43.19342" lon="6.33574">
        <ele>409.335</ele>
        <time>2012-10-24T13:38:11Z</time>
      </trkpt>
      <trkpt lat="43.1934" lon="6.33574">
        <ele>409.409</ele>
        <time>2012-10-24T13:38:16Z</time>
      </trkpt>
      <trkpt lat="43.1934" lon="6.33573">
        <ele>409.486</ele>
        <time>2012-10-24T13:38:26Z</time>
      </trkpt>
      <trkpt lat="43.19337" lon="6.33572">
        <ele>409.565</ele>
        <time>2012-10-24T13:38:31Z</time>
      </trkpt>
      <trkpt lat="43.19333" lon="6.33569">
        <ele>409.837</ele>
        <time>2012-10-24T13:38:36Z</time>
      </trkpt>
      <trkpt lat="43.19328" lon="6.33567">
        <ele>409.322</ele>
        <time>2012-10-24T13:38:41Z</time>
      </trkpt>
      <trkpt lat="43.19324" lon="6.33564">
        <ele>409.586</ele>
        <time>2012-10-24T13:38:46Z</time>
      </trkpt>
      <trkpt lat="43.19319" lon="6.33561">
        <ele>409.639</ele>
        <time>2012-10-24T13:38:51Z</time>
      </trkpt>
      <trkpt lat="43.19314" lon="6.33558">
        <ele>409.446</ele>
        <time>2012-10-24T13:38:56Z</time>
      </trkpt>
      <trkpt lat="43.1931" lon="6.33554">
        <ele>409.237</ele>
        <time>2012-10-24T13:39:01Z</time>
      </trkpt>
      <trkpt lat="43.19305" lon="6.3355">
        <ele>409.533</ele>
        <time>2012-10-24T13:39:06Z</time>
      </trkpt>
      <trkpt lat="43.193" lon="6.33546">
        <ele>409.306</ele>
        <time>2012-10-24T13:39:11Z</time>
      </trkpt>
      <trkpt lat="43.19295" lon="6.33542">
        <ele>409.367</ele>
        <time>2012-10-24T13:39:16Z</time>
      </trkpt>
      <trkpt lat="43.19291" lon="6.33535">
        <ele>409.578</ele>
        <time>2012-10-24T13:39:21Z</time>
      </trkpt>
      <trkpt lat="43.19287" lon="6.33528">
        <ele>409.176</ele>
        <time>2012-10-24T13:39:26Z</time>
      </trkpt>
      <trkpt lat="43.19283" lon="6.33522">
        <ele>409.319</ele>
        <time>2012-10-24T13:39:31Z</time>
      </trkpt>
      <trkpt lat="43.19277" lon="6.3352">
        <ele>409.443</ele>
        <time>2012-10-24T13:39:36Z</time>
      </trkpt>
      <trkpt lat="43.1927" lon="6.3352">
        <ele>409.85</ele>
        <time>2012-10-24T13:39:41Z</time>
      </trkpt>
      <trkpt lat="43.19265" lon="6.3352">
        <ele>409.908</ele>
        <time>2012-10-24T13:39:46Z</time>
      </trkpt>
      <trkpt lat="43.19258" lon="6.33521">
        <ele>409.861</ele>
        <time>2012-10-24T13:39:51Z</time>
      </trkpt>
      <trkpt lat="43.19252" lon="6.3352">
        <ele>410.091</ele>
        <time>2012-10-24T13:39:56Z</time>
      </trkpt>
      <trkpt lat="43.19246" lon="6.33518">
        <ele>409.866</ele>
        <time>2012-10-24T13:40:01Z</time>
      </trkpt>
      <trkpt lat="43.1924" lon="6.33517">
        <ele>410.019</ele>
        <time>2012-10-24T13:40:06Z</time>
      </trkpt>
      <trkpt lat="43.19234" lon="6.33515">
        <ele>409.737</ele>
        <time>2012-10-24T13:40:11Z</time>
      </trkpt>
      <trkpt lat="43.19229" lon="6.33511">
        <ele>410.062</ele>
        <time>2012-10-24T13:40:16Z</time>
      </trkpt>
      <trkpt lat="43.19225" lon="6.33505">
        <ele>409.7</ele>
        <time>2012-10-24T13:40:21Z</time>
      </trkpt>
      <trkpt lat="43.19222" lon="6.33497">
        <ele>409.663</ele>
        <time>2012-10-24T13:40:26Z</time>
      </trkpt>
      <trkpt lat="43.19221" lon="6.33488">
        <ele>409.66</ele>
        <time>2012-10-24T13:40:31Z</time>
      </trkpt>
      <trkpt lat="43.19219" lon="6.33479">
        <ele>409.726</ele>
        <time>2012-10-24T13:40:36Z</time>
      </trkpt>
      <trkpt lat="43.19218" lon="6.3347">
        <ele>409.657</ele>
        <time>2012-10-24T13:40:41Z</time>
      </trkpt>
      <trkpt lat="43.19219" lon="6.33462">
        <ele>409.623</ele>
        <time>2012-10-24T13:40:46Z</time>
      </trkpt>
      <trkpt lat="43.19218" lon="6.33453">
        <ele>409.803</ele>
        <time>2012-10-24T13:40:51Z</time>
      </trkpt>
      <trkpt lat="43.19216" lon="6.33444">
        <ele>409.903</ele>
        <time>2012-10-24T13:40:56Z</time>
      </trkpt>
      <trkpt lat="43.19215" lon="6.33436">
        <ele>409.676</ele>
        <time>2012-10-24T13:41:01Z</time>
      </trkpt>
      <trkpt lat="43.19214" lon="6.33427">
        <ele>409.707</ele>
        <time>2012-10-24T13:41:06Z</time>
      </trkpt>
      <trkpt lat="43.19212" lon="6.33417">
        <ele>409.94</ele>
        <time>2012-10-24T13:41:11Z</time>
      </trkpt>
      <trkpt lat="43.19211" lon="6.33408">
        <ele>409.795</ele>
        <time>2012-10-24T13:41:16Z</time>
      </trkpt>
      <trkpt lat="43.19211" lon="6.334">
        <ele>409.779</ele>
        <time>2012-10-24T13:41:21Z</time>
      </trkpt>
      <trkpt lat="43.19209" lon="6.33392">
        <ele>409.895</ele>
        <time>2012-10-24T13:41:26Z</time>
      </trkpt>
      <trkpt lat="43.19209" lon="6.33384">
        <ele>409.808</ele>
        <time>2012-10-24T13:41:31Z</time>
      </trkpt>
      <trkpt lat="43.19209" lon="6.33376">
        <ele>409.766</ele>
        <time>2012-10-24T13:41:36Z</time>
      </trkpt>
      <trkpt lat="43.19209" lon="6.33367">
        <ele>409.747</ele>
        <time>2012-10-24T13:41:41Z</time>
      </trkpt>
      <trkpt lat="43.19209" lon="6.33358">
        <ele>409.877</ele>
        <time>2012-10-24T13:41:46Z</time>
      </trkpt>
      <trkpt lat="43.19211" lon="6.33349">
        <ele>409.787</ele>
        <time>2012-10-24T13:41:51Z</time>
      </trkpt>
      <trkpt lat="43.19213" lon="6.33341">
        <ele>409.945</ele>
        <time>2012-10-24T13:41:56Z</time>
      </trkpt>
      <trkpt lat="43.19215" lon="6.33332">
        <ele>410.017</ele>
        <time>2012-10-24T13:42:01Z</time>
      </trkpt>
      <trkpt lat="43.19218" lon="6.33323">
        <ele>410.009</ele>
        <time>2012-10-24T13:42:06Z</time>
      </trkpt>
      <trkpt lat="43.19221" lon="6.33316">
        <ele>410.109</ele>
        <time>2012-10-24T13:42:11Z</time>
      </trkpt>
      <trkpt lat="43.19223" lon="6.33309">
        <ele>410.228</ele>
        <time>2012-10-24T13:42:16Z</time>
      </trkpt>
      <trkpt lat="43.19225" lon="6.33302">
        <ele>410.36</ele>
        <time>2012-10-24T13:42:21Z</time>
      </trkpt>
      <trkpt lat="43.19226" lon="6.33293">
        <ele>410.556</ele>
        <time>2012-10-24T13:42:26Z</time>
      </trkpt>
      <trkpt lat="43.19228" lon="6.33285">
        <ele>410.611</ele>
        <time>2012-10-24T13:42:31Z</time>
      </trkpt>
      <trkpt lat="43.1923" lon="6.33277">
        <ele>410.989</ele>
        <time>2012-10-24T13:42:36Z</time>
      </trkpt>
      <trkpt lat="43.19233" lon="6.33269">
        <ele>411.037</ele>
        <time>2012-10-24T13:42:41Z</time>
      </trkpt>
      <trkpt lat="43.19237" lon="6.33263">
        <ele>411.2</ele>
        <time>2012-10-24T13:42:46Z</time>
      </trkpt>
      <trkpt lat="43.1924" lon="6.33257">
        <ele>411.562</ele>
        <time>2012-10-24T13:42:51Z</time>
      </trkpt>
      <trkpt lat="43.19246" lon="6.33253">
        <ele>411.94</ele>
        <time>2012-10-24T13:42:56Z</time>
      </trkpt>
      <trkpt lat="43.1925" lon="6.33247">
        <ele>412.027</ele>
        <time>2012-10-24T13:43:01Z</time>
      </trkpt>
      <trkpt lat="43.19255" lon="6.33242">
        <ele>412.36</ele>
        <time>2012-10-24T13:43:06Z</time>
      </trkpt>
      <trkpt lat="43.19258" lon="6.33236">
        <ele>412.524</ele>
        <time>2012-10-24T13:43:11Z</time>
      </trkpt>
      <trkpt lat="43.19263" lon="6.33231">
        <ele>412.561</ele>
        <time>2012-10-24T13:43:16Z</time>
      </trkpt>
      <trkpt lat="43.19267" lon="6.33226">
        <ele>413.032</ele>
        <time>2012-10-24T13:43:21Z</time>
      </trkpt>
      <trkpt lat="43.19271" lon="6.3322">
        <ele>413.195</ele>
        <time>2012-10-24T13:43:26Z</time>
      </trkpt>
      <trkpt lat="43.19275" lon="6.33215">
        <ele>413.507</ele>
        <time>2012-10-24T13:43:31Z</time>
      </trkpt>
      <trkpt lat="43.19279" lon="6.3321">
        <ele>413.906</ele>
        <time>2012-10-24T13:43:36Z</time>
      </trkpt>
      <trkpt lat="43.19284" lon="6.33204">
        <ele>414.086</ele>
        <time>2012-10-24T13:43:41Z</time>
      </trkpt>
      <trkpt lat="43.19288" lon="6.33198">
        <ele>414.12</ele>
        <time>2012-10-24T13:43:46Z</time>
      </trkpt>
      <trkpt lat="43.19292" lon="6.33193">
        <ele>414.45</ele>
        <time>2012-10-24T13:43:51Z</time>
      </trkpt>
      <trkpt lat="43.19298" lon="6.3319">
        <ele>414.67</ele>
        <time>2012-10-24T13:43:56Z</time>
      </trkpt>
      <trkpt lat="43.19305" lon="6.3319">
        <ele>414.908</ele>
        <time>2012-10-24T13:44:01Z</time>
      </trkpt>
      <trkpt lat="43.19312" lon="6.33189">
        <ele>415.037</ele>
        <time>2012-10-24T13:44:06Z</time>
      </trkpt>
      <trkpt lat="43.19317" lon="6.33189">
        <ele>415.056</ele>
        <time>2012-10-24T13:44:11Z</time>
      </trkpt>
      <trkpt lat="43.19323" lon="6.33188">
        <ele>415.46</ele>
        <time>2012-10-24T13:44:16Z</time>
      </trkpt>
      <trkpt lat="43.1933" lon="6.33187">
        <ele>415.708</ele>
        <time>2012-10-24T13:44:21Z</time>
      </trkpt>
      <trkpt lat="43.19334" lon="6.33184">
        <ele>415.972</ele>
        <time>2012-10-24T13:44:26Z</time>
      </trkpt>
      <trkpt lat="43.19338" lon="6.3318">
        <ele>416.213</ele>
        <time>2012-10-24T13:44:31Z</time>
      </trkpt>
      <trkpt lat="43.19339" lon="6.33173">
        <ele>416.102</ele>
        <time>2012-10-24T13:44:36Z</time>
      </trkpt>
      <trkpt lat="43.19337" lon="6.33168">
        <ele>416.408</ele>
        <time>2012-10-24T13:44:41Z</time>
      </trkpt>
      <trkpt lat="43.19335" lon="6.33164">
        <ele>416.889</ele>
        <time>2012-10-24T13:44:46Z</time>
      </trkpt>
      <trkpt lat="43.1933" lon="6.3316">
        <ele>416.678</ele>
        <time>2012-10-24T13:44:51Z</time>
      </trkpt>
      <trkpt lat="43.19325" lon="6.33156">
        <ele>417.006</ele>
        <time>2012-10-24T13:44:56Z</time>
      </trkpt>
      <trkpt lat="43.19319" lon="6.3315">
        <ele>417.016</ele>
        <time>2012-10-24T13:45:01Z</time>
      </trkpt>
      <trkpt lat="43.19314" lon="6.33146">
        <ele>417.098</ele>
        <time>2012-10-24T13:45:06Z</time>
      </trkpt>
      <trkpt lat="43.1931" lon="6.3314">
        <ele>416.942</ele>
        <time>2012-10-24T13:45:11Z</time>
      </trkpt>
      <trkpt lat="43.19305" lon="6.33135">
        <ele>417.259</ele>
        <time>2012-10-24T13:45:16Z</time>
      </trkpt>
      <trkpt lat="43.19302" lon="6.33129">
        <ele>417.46</ele>
        <time>2012-10-24T13:45:21Z</time>
      </trkpt>
      <trkpt lat="43.19296" lon="6.33125">
        <ele>417.597</ele>
        <time>2012-10-24T13:45:26Z</time>
      </trkpt>
      <trkpt lat="43.1929" lon="6.33122">
        <ele>417.476</ele>
        <time>2012-10-24T13:45:31Z</time>
      </trkpt>
      <trkpt lat="43.19285" lon="6.3312">
        <ele>417.775</ele>
        <time>2012-10-24T13:45:36Z</time>
      </trkpt>
      <trkpt lat="43.19279" lon="6.33118">
        <ele>417.878</ele>
        <time>2012-10-24T13:45:41Z</time>
      </trkpt>
      <trkpt lat="43.19273" lon="6.33119">
        <ele>417.999</ele>
        <time>2012-10-24T13:45:46Z</time>
      </trkpt>
      <trkpt lat="43.19267" lon="6.33119">
        <ele>417.994</ele>
        <time>2012-10-24T13:45:51Z</time>
      </trkpt>
      <trkpt lat="43.19261" lon="6.33117">
        <ele>417.925</ele>
        <time>2012-10-24T13:45:56Z</time>
      </trkpt>
      <trkpt lat="43.19254" lon="6.33118">
        <ele>417.811</ele>
        <time>2012-10-24T13:46:01Z</time>
      </trkpt>
      <trkpt lat="43.19248" lon="6.33118">
        <ele>417.901</ele>
        <time>2012-10-24T13:46:06Z</time>
      </trkpt>
      <trkpt lat="43.19242" lon="6.33118">
        <ele>417.825</ele>
        <time>2012-10-24T13:46:11Z</time>
      </trkpt>
      <trkpt lat="43.19236" lon="6.33118">
        <ele>417.69</ele>
        <time>2012-10-24T13:46:16Z</time>
      </trkpt>
      <trkpt lat="43.1923" lon="6.33117">
        <ele>417.502</ele>
        <time>2012-10-24T13:46:21Z</time>
      </trkpt>
      <trkpt lat="43.19224" lon="6.33115">
        <ele>417.341</ele>
        <time>2012-10-24T13:46:26Z</time>
      </trkpt>
      <trkpt lat="43.19217" lon="6.33113">
        <ele>417.368</ele>
        <time>2012-10-24T13:46:31Z</time>
      </trkpt>
      <trkpt lat="43.19211" lon="6.33111">
        <ele>417.312</ele>
        <time>2012-10-24T13:46:36Z</time>
      </trkpt>
      <trkpt lat="43.19204" lon="6.33108">
        <ele>417.003</ele>
        <time>2012-10-24T13:46:41Z</time>
      </trkpt>
      <trkpt lat="43.19199" lon="6.33104">
        <ele>417.021</ele>
        <time>2012-10-24T13:46:46Z</time>
      </trkpt>
      <trkpt lat="43.19194" lon="6.33098">
        <ele>417.051</ele>
        <time>2012-10-24T13:46:51Z</time>
      </trkpt>
      <trkpt lat="43.19191" lon="6.3309">
        <ele>416.718</ele>
        <time>2012-10-24T13:46:56Z</time>
      </trkpt>
      <trkpt lat="43.1919" lon="6.33081">
        <ele>416.747</ele>
        <time>2012-10-24T13:47:01Z</time>
      </trkpt>
      <trkpt lat="43.19188" lon="6.33072">
        <ele>416.821</ele>
        <time>2012-10-24T13:47:06Z</time>
      </trkpt>
      <trkpt lat="43.19189" lon="6.33063">
        <ele>416.831</ele>
        <time>2012-10-24T13:47:11Z</time>
      </trkpt>
      <trkpt lat="43.1919" lon="6.33055">
        <ele>416.921</ele>
        <time>2012-10-24T13:47:16Z</time>
      </trkpt>
      <trkpt lat="43.19192" lon="6.33047">
        <ele>416.72</ele>
        <time>2012-10-24T13:47:21Z</time>
      </trkpt>
      <trkpt lat="43.19193" lon="6.33037">
        <ele>416.607</ele>
        <time>2012-10-24T13:47:26Z</time>
      </trkpt>
      <trkpt lat="43.19193" lon="6.33029">
        <ele>416.757</ele>
        <time>2012-10-24T13:47:31Z</time>
      </trkpt>
      <trkpt lat="43.19192" lon="6.3302">
        <ele>416.786</ele>
        <time>2012-10-24T13:47:36Z</time>
      </trkpt>
      <trkpt lat="43.19192" lon="6.33011">
        <ele>417.045</ele>
        <time>2012-10-24T13:47:41Z</time>
      </trkpt>
      <trkpt lat="43.19193" lon="6.33002">
        <ele>416.961</ele>
        <time>2012-10-24T13:47:46Z</time>
      </trkpt>
      <trkpt lat="43.19194" lon="6.32993">
        <ele>416.998</ele>
        <time>2012-10-24T13:47:51Z</time>
      </trkpt>
      <trkpt lat="43.19195" lon="6.32984">
        <ele>417.024</ele>
        <time>2012-10-24T13:47:56Z</time>
      </trkpt>
      <trkpt lat="43.19193" lon="6.32975">
        <ele>417.106</ele>
        <time>2012-10-24T13:48:01Z</time>
      </trkpt>
      <trkpt lat="43.19191" lon="6.32968">
        <ele>417.029</ele>
        <time>2012-10-24T13:48:06Z</time>
      </trkpt>
      <trkpt lat="43.19187" lon="6.3296">
        <ele>416.953</ele>
        <time>2012-10-24T13:48:11Z</time>
      </trkpt>
      <trkpt lat="43.19184" lon="6.32953">
        <ele>417</ele>
        <time>2012-10-24T13:48:16Z</time>
      </trkpt>
      <trkpt lat="43.1918" lon="6.32946">
        <ele>416.897</ele>
        <time>2012-10-24T13:48:21Z</time>
      </trkpt>
      <trkpt lat="43.19178" lon="6.32938">
        <ele>416.731</ele>
        <time>2012-10-24T13:48:26Z</time>
      </trkpt>
      <trkpt lat="43.19174" lon="6.32931">
        <ele>416.908</ele>
        <time>2012-10-24T13:48:31Z</time>
      </trkpt>
      <trkpt lat="43.19169" lon="6.32924">
        <ele>416.762</ele>
        <time>2012-10-24T13:48:36Z</time>
      </trkpt>
      <trkpt lat="43.19164" lon="6.32917">
        <ele>416.942</ele>
        <time>2012-10-24T13:48:41Z</time>
      </trkpt>
      <trkpt lat="43.1916" lon="6.32911">
        <ele>416.926</ele>
        <time>2012-10-24T13:48:46Z</time>
      </trkpt>
      <trkpt lat="43.19157" lon="6.32903">
        <ele>417.051</ele>
        <time>2012-10-24T13:48:51Z</time>
      </trkpt>
      <trkpt lat="43.19155" lon="6.32894">
        <ele>416.971</ele>
        <time>2012-10-24T13:48:56Z</time>
      </trkpt>
      <trkpt lat="43.19155" lon="6.32887">
        <ele>416.982</ele>
        <time>2012-10-24T13:49:00Z</time>
      </trkpt>
      <trkpt lat="43.19154" lon="6.32876">
        <ele>417.048</ele>
        <time>2012-10-24T13:49:06Z</time>
      </trkpt>
      <trkpt lat="43.19153" lon="6.32867">
        <ele>417.22</ele>
        <time>2012-10-24T13:49:11Z</time>
      </trkpt>
      <trkpt lat="43.19152" lon="6.32858">
        <ele>417.278</ele>
        <time>2012-10-24T13:49:16Z</time>
      </trkpt>
      <trkpt lat="43.19152" lon="6.32848">
        <ele>417.405</ele>
        <time>2012-10-24T13:49:21Z</time>
      </trkpt>
      <trkpt lat="43.19151" lon="6.32839">
        <ele>417.418</ele>
        <time>2012-10-24T13:49:26Z</time>
      </trkpt>
      <trkpt lat="43.19151" lon="6.3283">
        <ele>417.613</ele>
        <time>2012-10-24T13:49:31Z</time>
      </trkpt>
      <trkpt lat="43.1915" lon="6.3282">
        <ele>417.809</ele>
        <time>2012-10-24T13:49:36Z</time>
      </trkpt>
      <trkpt lat="43.1915" lon="6.32811">
        <ele>417.896</ele>
        <time>2012-10-24T13:49:41Z</time>
      </trkpt>
      <trkpt lat="43.1915" lon="6.32803">
        <ele>417.949</ele>
        <time>2012-10-24T13:49:46Z</time>
      </trkpt>
      <trkpt lat="43.19151" lon="6.32794">
        <ele>417.994</ele>
        <time>2012-10-24T13:49:51Z</time>
      </trkpt>
      <trkpt lat="43.19151" lon="6.32785">
        <ele>418.041</ele>
        <time>2012-10-24T13:49:56Z</time>
      </trkpt>
      <trkpt lat="43.19152" lon="6.32777">
        <ele>418.01</ele>
        <time>2012-10-24T13:50:01Z</time>
      </trkpt>
      <trkpt lat="43.1915" lon="6.32768">
        <ele>418.335</ele>
        <time>2012-10-24T13:50:06Z</time>
      </trkpt>
      <trkpt lat="43.19148" lon="6.32759">
        <ele>418.512</ele>
        <time>2012-10-24T13:50:11Z</time>
      </trkpt>
      <trkpt lat="43.19146" lon="6.32751">
        <ele>418.847</ele>
        <time>2012-10-24T13:50:16Z</time>
      </trkpt>
      <trkpt lat="43.19144" lon="6.32741">
        <ele>419.252</ele>
        <time>2012-10-24T13:50:21Z</time>
      </trkpt>
      <trkpt lat="43.19143" lon="6.32734">
        <ele>419.558</ele>
        <time>2012-10-24T13:50:26Z</time>
      </trkpt>
      <trkpt lat="43.19142" lon="6.32726">
        <ele>419.719</ele>
        <time>2012-10-24T13:50:31Z</time>
      </trkpt>
      <trkpt lat="43.19141" lon="6.32717">
        <ele>419.735</ele>
        <time>2012-10-24T13:50:36Z</time>
      </trkpt>
      <trkpt lat="43.19141" lon="6.32709">
        <ele>420.229</ele>
        <time>2012-10-24T13:50:41Z</time>
      </trkpt>
      <trkpt lat="43.19142" lon="6.32702">
        <ele>420.406</ele>
        <time>2012-10-24T13:50:46Z</time>
      </trkpt>
      <trkpt lat="43.19143" lon="6.32698">
        <ele>420.747</ele>
        <time>2012-10-24T13:50:51Z</time>
      </trkpt>
      <trkpt lat="43.19144" lon="6.32697">
        <ele>420.525</ele>
        <time>2012-10-24T13:51:01Z</time>
      </trkpt>
      <trkpt lat="43.19144" lon="6.32695">
        <ele>420.435</ele>
        <time>2012-10-24T13:51:41Z</time>
      </trkpt>
      <trkpt lat="43.19145" lon="6.3269">
        <ele>420.422</ele>
        <time>2012-10-24T13:51:46Z</time>
      </trkpt>
      <trkpt lat="43.19144" lon="6.32684">
        <ele>420.427</ele>
        <time>2012-10-24T13:51:51Z</time>
      </trkpt>
      <trkpt lat="43.19142" lon="6.32682">
        <ele>420.351</ele>
        <time>2012-10-24T13:51:56Z</time>
      </trkpt>
      <trkpt lat="43.1914" lon="6.32683">
        <ele>420.282</ele>
        <time>2012-10-24T13:52:01Z</time>
      </trkpt>
      <trkpt lat="43.19138" lon="6.32683">
        <ele>419.962</ele>
        <time>2012-10-24T13:52:11Z</time>
      </trkpt>
      <trkpt lat="43.19135" lon="6.32683">
        <ele>419.392</ele>
        <time>2012-10-24T13:52:16Z</time>
      </trkpt>
      <trkpt lat="43.19132" lon="6.32683">
        <ele>419.513</ele>
        <time>2012-10-24T13:52:21Z</time>
      </trkpt>
      <trkpt lat="43.19129" lon="6.32685">
        <ele>419.463</ele>
        <time>2012-10-24T13:52:26Z</time>
      </trkpt>
      <trkpt lat="43.19125" lon="6.32688">
        <ele>417.933</ele>
        <time>2012-10-24T13:52:31Z</time>
      </trkpt>
      <trkpt lat="43.19123" lon="6.32692">
        <ele>418.829</ele>
        <time>2012-10-24T13:52:36Z</time>
      </trkpt>
      <trkpt lat="43.19121" lon="6.32695">
        <ele>418.517</ele>
        <time>2012-10-24T13:52:41Z</time>
      </trkpt>
      <trkpt lat="43.19119" lon="6.32702">
        <ele>417.381</ele>
        <time>2012-10-24T13:52:46Z</time>
      </trkpt>
      <trkpt lat="43.19118" lon="6.32709">
        <ele>417.553</ele>
        <time>2012-10-24T13:52:51Z</time>
      </trkpt>
      <trkpt lat="43.19119" lon="6.32716">
        <ele>417.28</ele>
        <time>2012-10-24T13:52:56Z</time>
      </trkpt>
      <trkpt lat="43.1912" lon="6.32722">
        <ele>414.527</ele>
        <time>2012-10-24T13:53:01Z</time>
      </trkpt>
      <trkpt lat="43.19121" lon="6.32729">
        <ele>416.168</ele>
        <time>2012-10-24T13:53:06Z</time>
      </trkpt>
      <trkpt lat="43.19122" lon="6.32736">
        <ele>416.07</ele>
        <time>2012-10-24T13:53:11Z</time>
      </trkpt>
      <trkpt lat="43.19122" lon="6.32742">
        <ele>414.532</ele>
        <time>2012-10-24T13:53:16Z</time>
      </trkpt>
      <trkpt lat="43.19123" lon="6.32749">
        <ele>415.806</ele>
        <time>2012-10-24T13:53:21Z</time>
      </trkpt>
      <trkpt lat="43.19124" lon="6.32755">
        <ele>414.292</ele>
        <time>2012-10-24T13:53:26Z</time>
      </trkpt>
      <trkpt lat="43.19124" lon="6.32761">
        <ele>414.181</ele>
        <time>2012-10-24T13:53:31Z</time>
      </trkpt>
      <trkpt lat="43.19124" lon="6.32768">
        <ele>413.597</ele>
        <time>2012-10-24T13:53:36Z</time>
      </trkpt>
      <trkpt lat="43.19123" lon="6.32773">
        <ele>413.09</ele>
        <time>2012-10-24T13:53:41Z</time>
      </trkpt>
      <trkpt lat="43.19123" lon="6.32775">
        <ele>412.862</ele>
        <time>2012-10-24T13:53:46Z</time>
      </trkpt>
      <trkpt lat="43.19122" lon="6.32776">
        <ele>413.002</ele>
        <time>2012-10-24T13:53:51Z</time>
      </trkpt>
      <trkpt lat="43.19123" lon="6.32776">
        <ele>412.839</ele>
        <time>2012-10-24T13:54:31Z</time>
      </trkpt>
      <trkpt lat="43.19124" lon="6.32776">
        <ele>412.736</ele>
        <time>2012-10-24T13:54:51Z</time>
      </trkpt>
      <trkpt lat="43.19124" lon="6.32775">
        <ele>412.973</ele>
        <time>2012-10-24T13:55:16Z</time>
      </trkpt>
      <trkpt lat="43.19124" lon="6.3278">
        <ele>412.606</ele>
        <time>2012-10-24T13:55:36Z</time>
      </trkpt>
      <trkpt lat="43.19123" lon="6.32784">
        <ele>412.479</ele>
        <time>2012-10-24T13:55:41Z</time>
      </trkpt>
      <trkpt lat="43.19121" lon="6.32789">
        <ele>412.043</ele>
        <time>2012-10-24T13:55:46Z</time>
      </trkpt>
      <trkpt lat="43.19121" lon="6.32792">
        <ele>412.191</ele>
        <time>2012-10-24T13:55:51Z</time>
      </trkpt>
      <trkpt lat="43.19122" lon="6.32791">
        <ele>411.631</ele>
        <time>2012-10-24T13:55:56Z</time>
      </trkpt>
      <trkpt lat="43.19123" lon="6.32791">
        <ele>411.734</ele>
        <time>2012-10-24T13:56:01Z</time>
      </trkpt>
      <trkpt lat="43.19121" lon="6.32789">
        <ele>412.001</ele>
        <time>2012-10-24T13:56:06Z</time>
      </trkpt>
      <trkpt lat="43.19122" lon="6.3279">
        <ele>411.824</ele>
        <time>2012-10-24T13:56:16Z</time>
      </trkpt>
      <trkpt lat="43.19123" lon="6.3279">
        <ele>411.866</ele>
        <time>2012-10-24T13:56:26Z</time>
      </trkpt>
      <trkpt lat="43.19121" lon="6.32795">
        <ele>411.348</ele>
        <time>2012-10-24T13:56:31Z</time>
      </trkpt>
      <trkpt lat="43.19118" lon="6.328">
        <ele>410.965</ele>
        <time>2012-10-24T13:56:36Z</time>
      </trkpt>
      <trkpt lat="43.19114" lon="6.32806">
        <ele>410.579</ele>
        <time>2012-10-24T13:56:41Z</time>
      </trkpt>
      <trkpt lat="43.19113" lon="6.32811">
        <ele>410.133</ele>
        <time>2012-10-24T13:56:46Z</time>
      </trkpt>
      <trkpt lat="43.19111" lon="6.32818">
        <ele>409.779</ele>
        <time>2012-10-24T13:56:51Z</time>
      </trkpt>
      <trkpt lat="43.19109" lon="6.32826">
        <ele>409.377</ele>
        <time>2012-10-24T13:56:56Z</time>
      </trkpt>
      <trkpt lat="43.19108" lon="6.3283">
        <ele>409.039</ele>
        <time>2012-10-24T13:57:01Z</time>
      </trkpt>
      <trkpt lat="43.19106" lon="6.32834">
        <ele>408.579</ele>
        <time>2012-10-24T13:57:06Z</time>
      </trkpt>
      <trkpt lat="43.19105" lon="6.32841">
        <ele>408.114</ele>
        <time>2012-10-24T13:57:11Z</time>
      </trkpt>
      <trkpt lat="43.19103" lon="6.32848">
        <ele>407.67</ele>
        <time>2012-10-24T13:57:16Z</time>
      </trkpt>
      <trkpt lat="43.19103" lon="6.32856">
        <ele>407.152</ele>
        <time>2012-10-24T13:57:21Z</time>
      </trkpt>
      <trkpt lat="43.19102" lon="6.32863">
        <ele>406.59</ele>
        <time>2012-10-24T13:57:26Z</time>
      </trkpt>
      <trkpt lat="43.19101" lon="6.32869">
        <ele>406.122</ele>
        <time>2012-10-24T13:57:31Z</time>
      </trkpt>
      <trkpt lat="43.191" lon="6.32878">
        <ele>405.556</ele>
        <time>2012-10-24T13:57:36Z</time>
      </trkpt>
      <trkpt lat="43.19099" lon="6.32887">
        <ele>405.173</ele>
        <time>2012-10-24T13:57:41Z</time>
      </trkpt>
      <trkpt lat="43.19098" lon="6.32894">
        <ele>404.423</ele>
        <time>2012-10-24T13:57:46Z</time>
      </trkpt>
      <trkpt lat="43.19097" lon="6.32902">
        <ele>403.849</ele>
        <time>2012-10-24T13:57:51Z</time>
      </trkpt>
      <trkpt lat="43.19095" lon="6.32909">
        <ele>403.239</ele>
        <time>2012-10-24T13:57:56Z</time>
      </trkpt>
      <trkpt lat="43.19094" lon="6.32919">
        <ele>403.02</ele>
        <time>2012-10-24T13:58:01Z</time>
      </trkpt>
      <trkpt lat="43.19092" lon="6.32926">
        <ele>402.306</ele>
        <time>2012-10-24T13:58:06Z</time>
      </trkpt>
      <trkpt lat="43.19091" lon="6.32935">
        <ele>401.63</ele>
        <time>2012-10-24T13:58:11Z</time>
      </trkpt>
      <trkpt lat="43.1909" lon="6.32941">
        <ele>401.284</ele>
        <time>2012-10-24T13:58:16Z</time>
      </trkpt>
      <trkpt lat="43.19091" lon="6.32949">
        <ele>401.057</ele>
        <time>2012-10-24T13:58:21Z</time>
      </trkpt>
      <trkpt lat="43.1909" lon="6.32957">
        <ele>400.695</ele>
        <time>2012-10-24T13:58:26Z</time>
      </trkpt>
      <trkpt lat="43.19088" lon="6.32966">
        <ele>400.306</ele>
        <time>2012-10-24T13:58:31Z</time>
      </trkpt>
      <trkpt lat="43.19082" lon="6.3297">
        <ele>399.577</ele>
        <time>2012-10-24T13:58:36Z</time>
      </trkpt>
      <trkpt lat="43.19075" lon="6.3297">
        <ele>399.31</ele>
        <time>2012-10-24T13:58:41Z</time>
      </trkpt>
      <trkpt lat="43.19068" lon="6.32968">
        <ele>398.787</ele>
        <time>2012-10-24T13:58:46Z</time>
      </trkpt>
      <trkpt lat="43.19063" lon="6.32965">
        <ele>398.61</ele>
        <time>2012-10-24T13:58:51Z</time>
      </trkpt>
      <trkpt lat="43.19057" lon="6.32962">
        <ele>398.33</ele>
        <time>2012-10-24T13:58:56Z</time>
      </trkpt>
      <trkpt lat="43.19051" lon="6.32958">
        <ele>398.06</ele>
        <time>2012-10-24T13:59:01Z</time>
      </trkpt>
      <trkpt lat="43.19045" lon="6.32955">
        <ele>397.505</ele>
        <time>2012-10-24T13:59:06Z</time>
      </trkpt>
      <trkpt lat="43.19039" lon="6.32952">
        <ele>397.199</ele>
        <time>2012-10-24T13:59:11Z</time>
      </trkpt>
      <trkpt lat="43.19033" lon="6.32948">
        <ele>396.953</ele>
        <time>2012-10-24T13:59:16Z</time>
      </trkpt>
      <trkpt lat="43.19027" lon="6.32942">
        <ele>396.446</ele>
        <time>2012-10-24T13:59:21Z</time>
      </trkpt>
      <trkpt lat="43.19022" lon="6.32937">
        <ele>396.171</ele>
        <time>2012-10-24T13:59:26Z</time>
      </trkpt>
      <trkpt lat="43.19016" lon="6.32932">
        <ele>395.545</ele>
        <time>2012-10-24T13:59:31Z</time>
      </trkpt>
      <trkpt lat="43.19012" lon="6.32926">
        <ele>395.73</ele>
        <time>2012-10-24T13:59:36Z</time>
      </trkpt>
      <trkpt lat="43.19007" lon="6.3292">
        <ele>395.191</ele>
        <time>2012-10-24T13:59:41Z</time>
      </trkpt>
      <trkpt lat="43.19002" lon="6.32914">
        <ele>394.689</ele>
        <time>2012-10-24T13:59:46Z</time>
      </trkpt>
      <trkpt lat="43.18997" lon="6.3291">
        <ele>394.371</ele>
        <time>2012-10-24T13:59:51Z</time>
      </trkpt>
      <trkpt lat="43.18993" lon="6.32903">
        <ele>393.967</ele>
        <time>2012-10-24T13:59:56Z</time>
      </trkpt>
      <trkpt lat="43.18989" lon="6.32895">
        <ele>393.714</ele>
        <time>2012-10-24T14:00:01Z</time>
      </trkpt>
      <trkpt lat="43.18986" lon="6.32889">
        <ele>393.373</ele>
        <time>2012-10-24T14:00:06Z</time>
      </trkpt>
      <trkpt lat="43.18984" lon="6.32881">
        <ele>393.037</ele>
        <time>2012-10-24T14:00:11Z</time>
      </trkpt>
      <trkpt lat="43.18983" lon="6.32873">
        <ele>393.09</ele>
        <time>2012-10-24T14:00:16Z</time>
      </trkpt>
      <trkpt lat="43.18983" lon="6.32863">
        <ele>392.577</ele>
        <time>2012-10-24T14:00:21Z</time>
      </trkpt>
      <trkpt lat="43.18984" lon="6.32854">
        <ele>392.252</ele>
        <time>2012-10-24T14:00:26Z</time>
      </trkpt>
      <trkpt lat="43.18986" lon="6.32846">
        <ele>391.75</ele>
        <time>2012-10-24T14:00:31Z</time>
      </trkpt>
      <trkpt lat="43.18987" lon="6.32838">
        <ele>391.531</ele>
        <time>2012-10-24T14:00:36Z</time>
      </trkpt>
      <trkpt lat="43.18987" lon="6.3283">
        <ele>391.267</ele>
        <time>2012-10-24T14:00:41Z</time>
      </trkpt>
      <trkpt lat="43.18985" lon="6.32822">
        <ele>390.68</ele>
        <time>2012-10-24T14:00:46Z</time>
      </trkpt>
      <trkpt lat="43.1898" lon="6.32816">
        <ele>390.458</ele>
        <time>2012-10-24T14:00:51Z</time>
      </trkpt>
      <trkpt lat="43.18976" lon="6.32811">
        <ele>390.109</ele>
        <time>2012-10-24T14:00:56Z</time>
      </trkpt>
      <trkpt lat="43.18971" lon="6.32807">
        <ele>389.985</ele>
        <time>2012-10-24T14:01:01Z</time>
      </trkpt>
      <trkpt lat="43.18967" lon="6.328">
        <ele>389.798</ele>
        <time>2012-10-24T14:01:06Z</time>
      </trkpt>
      <trkpt lat="43.18963" lon="6.32794">
        <ele>389.478</ele>
        <time>2012-10-24T14:01:11Z</time>
      </trkpt>
      <trkpt lat="43.18959" lon="6.32787">
        <ele>389.19</ele>
        <time>2012-10-24T14:01:16Z</time>
      </trkpt>
      <trkpt lat="43.18956" lon="6.32781">
        <ele>388.767</ele>
        <time>2012-10-24T14:01:21Z</time>
      </trkpt>
      <trkpt lat="43.18952" lon="6.32773">
        <ele>388.498</ele>
        <time>2012-10-24T14:01:26Z</time>
      </trkpt>
      <trkpt lat="43.1895" lon="6.32766">
        <ele>388.421</ele>
        <time>2012-10-24T14:01:31Z</time>
      </trkpt>
      <trkpt lat="43.18947" lon="6.32757">
        <ele>388.091</ele>
        <time>2012-10-24T14:01:36Z</time>
      </trkpt>
      <trkpt lat="43.18945" lon="6.32749">
        <ele>388.027</ele>
        <time>2012-10-24T14:01:41Z</time>
      </trkpt>
      <trkpt lat="43.18943" lon="6.32743">
        <ele>387.372</ele>
        <time>2012-10-24T14:01:46Z</time>
      </trkpt>
      <trkpt lat="43.18939" lon="6.32734">
        <ele>386.817</ele>
        <time>2012-10-24T14:01:51Z</time>
      </trkpt>
      <trkpt lat="43.18935" lon="6.32726">
        <ele>386.764</ele>
        <time>2012-10-24T14:01:56Z</time>
      </trkpt>
      <trkpt lat="43.18931" lon="6.32719">
        <ele>386.637</ele>
        <time>2012-10-24T14:02:01Z</time>
      </trkpt>
      <trkpt lat="43.18927" lon="6.32714">
        <ele>386.315</ele>
        <time>2012-10-24T14:02:06Z</time>
      </trkpt>
      <trkpt lat="43.18921" lon="6.3271">
        <ele>386.209</ele>
        <time>2012-10-24T14:02:11Z</time>
      </trkpt>
      <trkpt lat="43.18916" lon="6.32706">
        <ele>385.8</ele>
        <time>2012-10-24T14:02:16Z</time>
      </trkpt>
      <trkpt lat="43.1891" lon="6.32701">
        <ele>385.504</ele>
        <time>2012-10-24T14:02:21Z</time>
      </trkpt>
      <trkpt lat="43.18904" lon="6.32698">
        <ele>385.374</ele>
        <time>2012-10-24T14:02:26Z</time>
      </trkpt>
      <trkpt lat="43.18899" lon="6.32697">
        <ele>384.796</ele>
        <time>2012-10-24T14:02:31Z</time>
      </trkpt>
      <trkpt lat="43.18893" lon="6.32696">
        <ele>384.632</ele>
        <time>2012-10-24T14:02:36Z</time>
      </trkpt>
      <trkpt lat="43.18886" lon="6.32696">
        <ele>384.479</ele>
        <time>2012-10-24T14:02:41Z</time>
      </trkpt>
      <trkpt lat="43.1888" lon="6.32692">
        <ele>384.04</ele>
        <time>2012-10-24T14:02:46Z</time>
      </trkpt>
      <trkpt lat="43.18875" lon="6.32688">
        <ele>383.739</ele>
        <time>2012-10-24T14:02:51Z</time>
      </trkpt>
      <trkpt lat="43.1887" lon="6.32682">
        <ele>383.496</ele>
        <time>2012-10-24T14:02:56Z</time>
      </trkpt>
      <trkpt lat="43.18866" lon="6.32677">
        <ele>383.226</ele>
        <time>2012-10-24T14:03:01Z</time>
      </trkpt>
      <trkpt lat="43.18861" lon="6.32671">
        <ele>383.229</ele>
        <time>2012-10-24T14:03:06Z</time>
      </trkpt>
      <trkpt lat="43.18858" lon="6.32665">
        <ele>382.893</ele>
        <time>2012-10-24T14:03:11Z</time>
      </trkpt>
      <trkpt lat="43.18853" lon="6.32658">
        <ele>382.922</ele>
        <time>2012-10-24T14:03:16Z</time>
      </trkpt>
      <trkpt lat="43.1885" lon="6.3265">
        <ele>382.851</ele>
        <time>2012-10-24T14:03:21Z</time>
      </trkpt>
      <trkpt lat="43.18848" lon="6.32642">
        <ele>382.587</ele>
        <time>2012-10-24T14:03:26Z</time>
      </trkpt>
      <trkpt lat="43.18846" lon="6.32633">
        <ele>382.782</ele>
        <time>2012-10-24T14:03:31Z</time>
      </trkpt>
      <trkpt lat="43.18845" lon="6.32624">
        <ele>382.655</ele>
        <time>2012-10-24T14:03:36Z</time>
      </trkpt>
      <trkpt lat="43.18843" lon="6.32617">
        <ele>382.529</ele>
        <time>2012-10-24T14:03:41Z</time>
      </trkpt>
      <trkpt lat="43.18843" lon="6.32608">
        <ele>382.753</ele>
        <time>2012-10-24T14:03:46Z</time>
      </trkpt>
      <trkpt lat="43.18842" lon="6.326">
        <ele>382.801</ele>
        <time>2012-10-24T14:03:51Z</time>
      </trkpt>
      <trkpt lat="43.1884" lon="6.32592">
        <ele>382.719</ele>
        <time>2012-10-24T14:03:56Z</time>
      </trkpt>
      <trkpt lat="43.18839" lon="6.32585">
        <ele>382.758</ele>
        <time>2012-10-24T14:04:01Z</time>
      </trkpt>
      <trkpt lat="43.18837" lon="6.32576">
        <ele>382.793</ele>
        <time>2012-10-24T14:04:06Z</time>
      </trkpt>
      <trkpt lat="43.18837" lon="6.32568">
        <ele>382.687</ele>
        <time>2012-10-24T14:04:11Z</time>
      </trkpt>
      <trkpt lat="43.18836" lon="6.32562">
        <ele>382.901</ele>
        <time>2012-10-24T14:04:16Z</time>
      </trkpt>
      <trkpt lat="43.18835" lon="6.32552">
        <ele>382.938</ele>
        <time>2012-10-24T14:04:21Z</time>
      </trkpt>
      <trkpt lat="43.18832" lon="6.32544">
        <ele>382.793</ele>
        <time>2012-10-24T14:04:26Z</time>
      </trkpt>
      <trkpt lat="43.18831" lon="6.32536">
        <ele>382.547</ele>
        <time>2012-10-24T14:04:31Z</time>
      </trkpt>
      <trkpt lat="43.18828" lon="6.32529">
        <ele>382.899</ele>
        <time>2012-10-24T14:04:36Z</time>
      </trkpt>
      <trkpt lat="43.18827" lon="6.32519">
        <ele>383.007</ele>
        <time>2012-10-24T14:04:41Z</time>
      </trkpt>
      <trkpt lat="43.18826" lon="6.32515">
        <ele>383.271</ele>
        <time>2012-10-24T14:04:46Z</time>
      </trkpt>
      <trkpt lat="43.18825" lon="6.3251">
        <ele>383.099</ele>
        <time>2012-10-24T14:04:51Z</time>
      </trkpt>
      <trkpt lat="43.18824" lon="6.32504">
        <ele>383.094</ele>
        <time>2012-10-24T14:04:56Z</time>
      </trkpt>
      <trkpt lat="43.18823" lon="6.32495">
        <ele>383.123</ele>
        <time>2012-10-24T14:05:01Z</time>
      </trkpt>
      <trkpt lat="43.18821" lon="6.32491">
        <ele>382.798</ele>
        <time>2012-10-24T14:05:06Z</time>
      </trkpt>
      <trkpt lat="43.18816" lon="6.3249">
        <ele>382.698</ele>
        <time>2012-10-24T14:05:11Z</time>
      </trkpt>
      <trkpt lat="43.18814" lon="6.32489">
        <ele>382.066</ele>
        <time>2012-10-24T14:05:16Z</time>
      </trkpt>
      <trkpt lat="43.18811" lon="6.32486">
        <ele>381.456</ele>
        <time>2012-10-24T14:05:21Z</time>
      </trkpt>
      <trkpt lat="43.18808" lon="6.32485">
        <ele>381.252</ele>
        <time>2012-10-24T14:05:26Z</time>
      </trkpt>
      <trkpt lat="43.18803" lon="6.32485">
        <ele>380.631</ele>
        <time>2012-10-24T14:05:31Z</time>
      </trkpt>
      <trkpt lat="43.188" lon="6.32484">
        <ele>380.568</ele>
        <time>2012-10-24T14:05:36Z</time>
      </trkpt>
      <trkpt lat="43.18798" lon="6.32481">
        <ele>380.954</ele>
        <time>2012-10-24T14:05:41Z</time>
      </trkpt>
      <trkpt lat="43.18798" lon="6.32479">
        <ele>381.16</ele>
        <time>2012-10-24T14:05:45Z</time>
      </trkpt>
    </trkseg>
  </trk>
</gpx>